<?xml version="1.0" encoding="UTF-8" standalone="no" ?><gpx xmlns="http://www.topografix.com/GPX/1/1" xmlns:xsi="http://www.w3.org/2001/XMLSchema-instance" creator="Kurviger.de version 0.8" version="1.1" xmlns:gh="https://kurviger.de/public/schema/gpx/1.1">
<metadata><name>20160630-1-5</name><copyright author="OpenStreetMap contributors"/><link href="https://kurviger.de"><text>Kurviger.de GPX</text></link><time>2016-06-21T20:28:03Z</time></metadata>
<trk><name>20160630-1-5</name><trkseg>
<trkpt lat="47.628981" lon="8.32757"><ele>365.0</ele><time>2016-06-21T20:28:03Z</time></trkpt>
<trkpt lat="47.629006" lon="8.326853"><ele>365.0</ele><time>2016-06-21T20:28:11Z</time></trkpt>
<trkpt lat="47.62903" lon="8.326647"><ele>363.0</ele><time>2016-06-21T20:28:13Z</time></trkpt>
<trkpt lat="47.629097" lon="8.326384"><ele>363.0</ele><time>2016-06-21T20:28:17Z</time></trkpt>
<trkpt lat="47.62931" lon="8.325881"><ele>365.0</ele><time>2016-06-21T20:28:23Z</time></trkpt>
<trkpt lat="47.629324" lon="8.325783"><ele>365.0</ele><time>2016-06-21T20:28:24Z</time></trkpt>
<trkpt lat="47.629308" lon="8.325683"><ele>365.0</ele><time>2016-06-21T20:28:26Z</time></trkpt>
<trkpt lat="47.629226" lon="8.325487"><ele>365.0</ele><time>2016-06-21T20:28:28Z</time></trkpt>
<trkpt lat="47.629178" lon="8.325499"><ele>365.0</ele><time>2016-06-21T20:28:29Z</time></trkpt>
<trkpt lat="47.628956" lon="8.325527"><ele>362.0</ele><time>2016-06-21T20:28:31Z</time></trkpt>
<trkpt lat="47.628935" lon="8.325243"><ele>362.0</ele><time>2016-06-21T20:28:34Z</time></trkpt>
<trkpt lat="47.628847" lon="8.32466"><ele>363.0</ele><time>2016-06-21T20:28:39Z</time></trkpt>
<trkpt lat="47.628584" lon="8.32373"><ele>363.0</ele><time>2016-06-21T20:28:47Z</time></trkpt>
<trkpt lat="47.628489" lon="8.32333"><ele>361.0</ele><time>2016-06-21T20:28:51Z</time></trkpt>
<trkpt lat="47.628425" lon="8.322726"><ele>361.0</ele><time>2016-06-21T20:28:56Z</time></trkpt>
<trkpt lat="47.628461" lon="8.32095"><ele>362.0</ele><time>2016-06-21T20:29:11Z</time></trkpt>
<trkpt lat="47.628366" lon="8.320324"><ele>365.0</ele><time>2016-06-21T20:29:16Z</time></trkpt>
<trkpt lat="47.628284" lon="8.319987"><ele>364.0</ele><time>2016-06-21T20:29:19Z</time></trkpt>
<trkpt lat="47.627964" lon="8.318951"><ele>363.0</ele><time>2016-06-21T20:29:29Z</time></trkpt>
<trkpt lat="47.627867" lon="8.318761"><ele>363.0</ele><time>2016-06-21T20:29:31Z</time></trkpt>
<trkpt lat="47.627739" lon="8.318611"><ele>363.0</ele><time>2016-06-21T20:29:33Z</time></trkpt>
<trkpt lat="47.627378" lon="8.318431"><ele>355.0</ele><time>2016-06-21T20:29:38Z</time></trkpt>
<trkpt lat="47.62681" lon="8.321404"><ele>357.0</ele><time>2016-06-21T20:30:01Z</time></trkpt>
<trkpt lat="47.62673" lon="8.321665"><ele>357.0</ele><time>2016-06-21T20:30:03Z</time></trkpt>
<trkpt lat="47.62658" lon="8.322068"><ele>353.0</ele><time>2016-06-21T20:30:06Z</time></trkpt>
<trkpt lat="47.626417" lon="8.322337"><ele>353.0</ele><time>2016-06-21T20:30:09Z</time></trkpt>
<trkpt lat="47.624551" lon="8.324284"><ele>354.0</ele><time>2016-06-21T20:30:34Z</time></trkpt>
<trkpt lat="47.623993" lon="8.324818"><ele>354.0</ele><time>2016-06-21T20:30:41Z</time></trkpt>
<trkpt lat="47.623431" lon="8.32532"><ele>354.0</ele><time>2016-06-21T20:30:48Z</time></trkpt>
<trkpt lat="47.62294" lon="8.325603"><ele>354.0</ele><time>2016-06-21T20:30:54Z</time></trkpt>
<trkpt lat="47.622541" lon="8.325758"><ele>354.0</ele><time>2016-06-21T20:30:59Z</time></trkpt>
<trkpt lat="47.622213" lon="8.325861"><ele>356.0</ele><time>2016-06-21T20:31:02Z</time></trkpt>
<trkpt lat="47.621508" lon="8.32601"><ele>358.0</ele><time>2016-06-21T20:31:10Z</time></trkpt>
<trkpt lat="47.6214" lon="8.326082"><ele>358.0</ele><time>2016-06-21T20:31:11Z</time></trkpt>
<trkpt lat="47.621331" lon="8.326169"><ele>358.0</ele><time>2016-06-21T20:31:12Z</time></trkpt>
<trkpt lat="47.62105" lon="8.326439"><ele>358.0</ele><time>2016-06-21T20:31:16Z</time></trkpt>
<trkpt lat="47.620768" lon="8.326613"><ele>357.0</ele><time>2016-06-21T20:31:19Z</time></trkpt>
<trkpt lat="47.620506" lon="8.3267"><ele>358.0</ele><time>2016-06-21T20:31:22Z</time></trkpt>
<trkpt lat="47.620347" lon="8.326836"><ele>358.0</ele><time>2016-06-21T20:31:24Z</time></trkpt>
<trkpt lat="47.620154" lon="8.327721"><ele>358.0</ele><time>2016-06-21T20:31:31Z</time></trkpt>
<trkpt lat="47.620117" lon="8.328523"><ele>357.0</ele><time>2016-06-21T20:31:37Z</time></trkpt>
<trkpt lat="47.620096" lon="8.328693"><ele>357.0</ele><time>2016-06-21T20:31:38Z</time></trkpt>
<trkpt lat="47.620021" lon="8.328947"><ele>357.0</ele><time>2016-06-21T20:31:41Z</time></trkpt>
<trkpt lat="47.6199" lon="8.329225"><ele>362.0</ele><time>2016-06-21T20:31:43Z</time></trkpt>
<trkpt lat="47.619479" lon="8.329845"><ele>362.0</ele><time>2016-06-21T20:31:50Z</time></trkpt>
<trkpt lat="47.619311" lon="8.330092"><ele>367.0</ele><time>2016-06-21T20:31:52Z</time></trkpt>
<trkpt lat="47.619377" lon="8.330232"><ele>367.0</ele><time>2016-06-21T20:31:56Z</time></trkpt>
<trkpt lat="47.619009" lon="8.330681"><ele>362.0</ele><time>2016-06-21T20:32:08Z</time></trkpt>
<trkpt lat="47.618659" lon="8.331215"><ele>368.0</ele><time>2016-06-21T20:32:21Z</time></trkpt>
<trkpt lat="47.618256" lon="8.331911"><ele>369.0</ele><time>2016-06-21T20:32:37Z</time></trkpt>
<trkpt lat="47.618092" lon="8.332295"><ele>369.0</ele><time>2016-06-21T20:32:44Z</time></trkpt>
<trkpt lat="47.617952" lon="8.332792"><ele>368.0</ele><time>2016-06-21T20:32:53Z</time></trkpt>
<trkpt lat="47.61756" lon="8.334463"><ele>369.0</ele><time>2016-06-21T20:33:23Z</time></trkpt>
<trkpt lat="47.61749" lon="8.334404"><ele>369.0</ele><time>2016-06-21T20:33:26Z</time></trkpt>
<trkpt lat="47.617278" lon="8.33493"><ele>369.0</ele><time>2016-06-21T20:33:28Z</time></trkpt>
<trkpt lat="47.613573" lon="8.342168"><ele>370.0</ele><time>2016-06-21T20:34:04Z</time></trkpt>
<trkpt lat="47.613352" lon="8.342613"><ele>370.0</ele><time>2016-06-21T20:34:07Z</time></trkpt>
<trkpt lat="47.613124" lon="8.343177"><ele>370.0</ele><time>2016-06-21T20:34:09Z</time></trkpt>
<trkpt lat="47.612985" lon="8.343627"><ele>370.0</ele><time>2016-06-21T20:34:11Z</time></trkpt>
<trkpt lat="47.612883" lon="8.344208"><ele>371.0</ele><time>2016-06-21T20:34:14Z</time></trkpt>
<trkpt lat="47.612839" lon="8.344787"><ele>371.0</ele><time>2016-06-21T20:34:16Z</time></trkpt>
<trkpt lat="47.612845" lon="8.345479"><ele>370.0</ele><time>2016-06-21T20:34:19Z</time></trkpt>
<trkpt lat="47.612876" lon="8.346514"><ele>371.0</ele><time>2016-06-21T20:34:23Z</time></trkpt>
<trkpt lat="47.612882" lon="8.347531"><ele>372.0</ele><time>2016-06-21T20:34:27Z</time></trkpt>
<trkpt lat="47.612823" lon="8.348999"><ele>373.0</ele><time>2016-06-21T20:34:33Z</time></trkpt>
<trkpt lat="47.612798" lon="8.349553"><ele>373.0</ele><time>2016-06-21T20:34:35Z</time></trkpt>
<trkpt lat="47.612373" lon="8.349399"><ele>372.0</ele><time>2016-06-21T20:34:37Z</time></trkpt>
<trkpt lat="47.610706" lon="8.348975"><ele>375.0</ele><time>2016-06-21T20:34:46Z</time></trkpt>
<trkpt lat="47.610218" lon="8.348754"><ele>375.0</ele><time>2016-06-21T20:34:48Z</time></trkpt>
<trkpt lat="47.609796" lon="8.348448"><ele>380.0</ele><time>2016-06-21T20:34:51Z</time></trkpt>
<trkpt lat="47.60927" lon="8.348011"><ele>378.0</ele><time>2016-06-21T20:34:54Z</time></trkpt>
<trkpt lat="47.60904" lon="8.34785"><ele>383.0</ele><time>2016-06-21T20:34:55Z</time></trkpt>
<trkpt lat="47.608855" lon="8.347801"><ele>383.0</ele><time>2016-06-21T20:34:56Z</time></trkpt>
<trkpt lat="47.608673" lon="8.347846"><ele>383.0</ele><time>2016-06-21T20:34:57Z</time></trkpt>
<trkpt lat="47.608534" lon="8.347988"><ele>383.0</ele><time>2016-06-21T20:34:58Z</time></trkpt>
<trkpt lat="47.608422" lon="8.34822"><ele>383.0</ele><time>2016-06-21T20:34:59Z</time></trkpt>
<trkpt lat="47.608392" lon="8.34845"><ele>387.0</ele><time>2016-06-21T20:34:59Z</time></trkpt>
<trkpt lat="47.60841" lon="8.348776"><ele>387.0</ele><time>2016-06-21T20:35:00Z</time></trkpt>
<trkpt lat="47.608468" lon="8.349013"><ele>387.0</ele><time>2016-06-21T20:35:01Z</time></trkpt>
<trkpt lat="47.608701" lon="8.349749"><ele>390.0</ele><time>2016-06-21T20:35:04Z</time></trkpt>
<trkpt lat="47.60876" lon="8.350089"><ele>393.0</ele><time>2016-06-21T20:35:05Z</time></trkpt>
<trkpt lat="47.608745" lon="8.350272"><ele>393.0</ele><time>2016-06-21T20:35:06Z</time></trkpt>
<trkpt lat="47.608668" lon="8.350418"><ele>393.0</ele><time>2016-06-21T20:35:06Z</time></trkpt>
<trkpt lat="47.608605" lon="8.350468"><ele>393.0</ele><time>2016-06-21T20:35:07Z</time></trkpt>
<trkpt lat="47.608529" lon="8.350495"><ele>393.0</ele><time>2016-06-21T20:35:07Z</time></trkpt>
<trkpt lat="47.608475" lon="8.350485"><ele>393.0</ele><time>2016-06-21T20:35:08Z</time></trkpt>
<trkpt lat="47.608376" lon="8.350422"><ele>393.0</ele><time>2016-06-21T20:35:08Z</time></trkpt>
<trkpt lat="47.608011" lon="8.349987"><ele>402.0</ele><time>2016-06-21T20:35:10Z</time></trkpt>
<trkpt lat="47.607779" lon="8.349764"><ele>402.0</ele><time>2016-06-21T20:35:12Z</time></trkpt>
<trkpt lat="47.607479" lon="8.349544"><ele>416.0</ele><time>2016-06-21T20:35:14Z</time></trkpt>
<trkpt lat="47.607208" lon="8.349419"><ele>416.0</ele><time>2016-06-21T20:35:15Z</time></trkpt>
<trkpt lat="47.606749" lon="8.3493"><ele>416.0</ele><time>2016-06-21T20:35:17Z</time></trkpt>
<trkpt lat="47.606589" lon="8.349282"><ele>430.0</ele><time>2016-06-21T20:35:19Z</time></trkpt>
<trkpt lat="47.606389" lon="8.349249"><ele>430.0</ele><time>2016-06-21T20:35:21Z</time></trkpt>
<trkpt lat="47.606235" lon="8.349166"><ele>425.0</ele><time>2016-06-21T20:35:22Z</time></trkpt>
<trkpt lat="47.606103" lon="8.34898"><ele>425.0</ele><time>2016-06-21T20:35:24Z</time></trkpt>
<trkpt lat="47.605395" lon="8.347595"><ele>435.0</ele><time>2016-06-21T20:35:34Z</time></trkpt>
<trkpt lat="47.605259" lon="8.347372"><ele>433.0</ele><time>2016-06-21T20:35:35Z</time></trkpt>
<trkpt lat="47.605132" lon="8.347241"><ele>433.0</ele><time>2016-06-21T20:35:37Z</time></trkpt>
<trkpt lat="47.604992" lon="8.347145"><ele>451.0</ele><time>2016-06-21T20:35:39Z</time></trkpt>
<trkpt lat="47.604907" lon="8.347136"><ele>451.0</ele><time>2016-06-21T20:35:39Z</time></trkpt>
<trkpt lat="47.604769" lon="8.347169"><ele>451.0</ele><time>2016-06-21T20:35:41Z</time></trkpt>
<trkpt lat="47.604508" lon="8.347454"><ele>451.0</ele><time>2016-06-21T20:35:43Z</time></trkpt>
<trkpt lat="47.604445" lon="8.347472"><ele>451.0</ele><time>2016-06-21T20:35:44Z</time></trkpt>
<trkpt lat="47.604231" lon="8.347422"><ele>451.0</ele><time>2016-06-21T20:35:46Z</time></trkpt>
<trkpt lat="47.603832" lon="8.347083"><ele>453.0</ele><time>2016-06-21T20:35:50Z</time></trkpt>
<trkpt lat="47.603494" lon="8.346845"><ele>453.0</ele><time>2016-06-21T20:35:53Z</time></trkpt>
<trkpt lat="47.603085" lon="8.346591"><ele>450.0</ele><time>2016-06-21T20:35:57Z</time></trkpt>
<trkpt lat="47.602789" lon="8.346356"><ele>450.0</ele><time>2016-06-21T20:36:00Z</time></trkpt>
<trkpt lat="47.602778" lon="8.346346"><ele>450.0</ele><time>2016-06-21T20:36:00Z</time></trkpt>
<trkpt lat="47.602735" lon="8.346384"><ele>450.0</ele><time>2016-06-21T20:36:00Z</time></trkpt>
<trkpt lat="47.602597" lon="8.346404"><ele>450.0</ele><time>2016-06-21T20:36:01Z</time></trkpt>
<trkpt lat="47.602145" lon="8.346308"><ele>435.0</ele><time>2016-06-21T20:36:05Z</time></trkpt>
<trkpt lat="47.601449" lon="8.345949"><ele>434.0</ele><time>2016-06-21T20:36:10Z</time></trkpt>
<trkpt lat="47.600754" lon="8.34575"><ele>420.0</ele><time>2016-06-21T20:36:15Z</time></trkpt>
<trkpt lat="47.600577" lon="8.345752"><ele>420.0</ele><time>2016-06-21T20:36:16Z</time></trkpt>
<trkpt lat="47.600281" lon="8.345834"><ele>431.0</ele><time>2016-06-21T20:36:18Z</time></trkpt>
<trkpt lat="47.599948" lon="8.345979"><ele>429.0</ele><time>2016-06-21T20:36:21Z</time></trkpt>
<trkpt lat="47.599679" lon="8.346174"><ele>429.0</ele><time>2016-06-21T20:36:23Z</time></trkpt>
<trkpt lat="47.599457" lon="8.346396"><ele>429.0</ele><time>2016-06-21T20:36:25Z</time></trkpt>
<trkpt lat="47.599261" lon="8.346652"><ele>429.0</ele><time>2016-06-21T20:36:27Z</time></trkpt>
<trkpt lat="47.598824" lon="8.347356"><ele>424.0</ele><time>2016-06-21T20:36:31Z</time></trkpt>
<trkpt lat="47.598612" lon="8.347779"><ele>434.0</ele><time>2016-06-21T20:36:34Z</time></trkpt>
<trkpt lat="47.598441" lon="8.348176"><ele>434.0</ele><time>2016-06-21T20:36:36Z</time></trkpt>
<trkpt lat="47.59802" lon="8.349068"><ele>425.0</ele><time>2016-06-21T20:36:41Z</time></trkpt>
<trkpt lat="47.597883" lon="8.349475"><ele>434.0</ele><time>2016-06-21T20:36:44Z</time></trkpt>
<trkpt lat="47.59765" lon="8.34996"><ele>434.0</ele><time>2016-06-21T20:36:46Z</time></trkpt>
<trkpt lat="47.597253" lon="8.351156"><ele>427.0</ele><time>2016-06-21T20:36:53Z</time></trkpt>
<trkpt lat="47.597083" lon="8.352188"><ele>427.0</ele><time>2016-06-21T20:36:58Z</time></trkpt>
<trkpt lat="47.59699" lon="8.352605"><ele>428.0</ele><time>2016-06-21T20:37:00Z</time></trkpt>
<trkpt lat="47.596761" lon="8.353074"><ele>428.0</ele><time>2016-06-21T20:37:03Z</time></trkpt>
<trkpt lat="47.596688" lon="8.353133"><ele>428.0</ele><time>2016-06-21T20:37:04Z</time></trkpt>
<trkpt lat="47.596721" lon="8.353839"><ele>428.0</ele><time>2016-06-21T20:37:09Z</time></trkpt>
<trkpt lat="47.596673" lon="8.354267"><ele>431.0</ele><time>2016-06-21T20:37:13Z</time></trkpt>
<trkpt lat="47.596581" lon="8.35463"><ele>419.0</ele><time>2016-06-21T20:37:16Z</time></trkpt>
<trkpt lat="47.595926" lon="8.356677"><ele>445.0</ele><time>2016-06-21T20:37:35Z</time></trkpt>
<trkpt lat="47.595383" lon="8.358554"><ele>442.0</ele><time>2016-06-21T20:37:52Z</time></trkpt>
<trkpt lat="47.594785" lon="8.36099"><ele>439.0</ele><time>2016-06-21T20:38:14Z</time></trkpt>
<trkpt lat="47.594706" lon="8.361423"><ele>439.0</ele><time>2016-06-21T20:38:18Z</time></trkpt>
<trkpt lat="47.594538" lon="8.362685"><ele>449.0</ele><time>2016-06-21T20:38:28Z</time></trkpt>
<trkpt lat="47.594479" lon="8.362997"><ele>449.0</ele><time>2016-06-21T20:38:31Z</time></trkpt>
<trkpt lat="47.594366" lon="8.36335"><ele>455.0</ele><time>2016-06-21T20:38:34Z</time></trkpt>
<trkpt lat="47.594085" lon="8.363924"><ele>441.0</ele><time>2016-06-21T20:38:40Z</time></trkpt>
<trkpt lat="47.594009" lon="8.364165"><ele>441.0</ele><time>2016-06-21T20:38:43Z</time></trkpt>
<trkpt lat="47.593955" lon="8.364396"><ele>444.0</ele><time>2016-06-21T20:38:45Z</time></trkpt>
<trkpt lat="47.593903" lon="8.364816"><ele>444.0</ele><time>2016-06-21T20:38:48Z</time></trkpt>
<trkpt lat="47.593905" lon="8.365137"><ele>447.0</ele><time>2016-06-21T20:38:51Z</time></trkpt>
<trkpt lat="47.594006" lon="8.366336"><ele>452.0</ele><time>2016-06-21T20:39:01Z</time></trkpt>
<trkpt lat="47.59399" lon="8.366686"><ele>459.0</ele><time>2016-06-21T20:39:04Z</time></trkpt>
<trkpt lat="47.593936" lon="8.366839"><ele>459.0</ele><time>2016-06-21T20:39:05Z</time></trkpt>
<trkpt lat="47.593724" lon="8.367119"><ele>459.0</ele><time>2016-06-21T20:39:09Z</time></trkpt>
<trkpt lat="47.593612" lon="8.367305"><ele>459.0</ele><time>2016-06-21T20:39:11Z</time></trkpt>
<trkpt lat="47.593506" lon="8.367541"><ele>462.0</ele><time>2016-06-21T20:39:13Z</time></trkpt>
<trkpt lat="47.593434" lon="8.367792"><ele>462.0</ele><time>2016-06-21T20:39:15Z</time></trkpt>
<trkpt lat="47.593317" lon="8.368428"><ele>474.0</ele><time>2016-06-21T20:39:22Z</time></trkpt>
<trkpt lat="47.593268" lon="8.368862"><ele>474.0</ele><time>2016-06-21T20:39:26Z</time></trkpt>
<trkpt lat="47.593186" lon="8.370015"><ele>475.0</ele><time>2016-06-21T20:39:38Z</time></trkpt>
<trkpt lat="47.593108" lon="8.370589"><ele>475.0</ele><time>2016-06-21T20:39:43Z</time></trkpt>
<trkpt lat="47.593209" lon="8.372911"><ele>493.0</ele><time>2016-06-21T20:40:06Z</time></trkpt>
<trkpt lat="47.593053" lon="8.374058"><ele>494.0</ele><time>2016-06-21T20:40:17Z</time></trkpt>
<trkpt lat="47.592938" lon="8.375353"><ele>506.0</ele><time>2016-06-21T20:40:30Z</time></trkpt>
<trkpt lat="47.59279" lon="8.376087"><ele>509.0</ele><time>2016-06-21T20:40:37Z</time></trkpt>
<trkpt lat="47.592662" lon="8.376405"><ele>509.0</ele><time>2016-06-21T20:40:41Z</time></trkpt>
<trkpt lat="47.592586" lon="8.376732"><ele>511.0</ele><time>2016-06-21T20:40:44Z</time></trkpt>
<trkpt lat="47.59246" lon="8.377105"><ele>530.0</ele><time>2016-06-21T20:40:49Z</time></trkpt>
<trkpt lat="47.592374" lon="8.377272"><ele>530.0</ele><time>2016-06-21T20:40:51Z</time></trkpt>
<trkpt lat="47.592296" lon="8.377352"><ele>530.0</ele><time>2016-06-21T20:40:52Z</time></trkpt>
<trkpt lat="47.592159" lon="8.377343"><ele>530.0</ele><time>2016-06-21T20:40:54Z</time></trkpt>
<trkpt lat="47.591763" lon="8.376886"><ele>530.0</ele><time>2016-06-21T20:41:01Z</time></trkpt>
<trkpt lat="47.591599" lon="8.37678"><ele>551.0</ele><time>2016-06-21T20:41:05Z</time></trkpt>
<trkpt lat="47.591421" lon="8.3767"><ele>551.0</ele><time>2016-06-21T20:41:08Z</time></trkpt>
<trkpt lat="47.591057" lon="8.376681"><ele>551.0</ele><time>2016-06-21T20:41:13Z</time></trkpt>
<trkpt lat="47.590773" lon="8.37676"><ele>568.0</ele><time>2016-06-21T20:41:18Z</time></trkpt>
<trkpt lat="47.590479" lon="8.376902"><ele>568.0</ele><time>2016-06-21T20:41:22Z</time></trkpt>
<trkpt lat="47.590186" lon="8.377055"><ele>568.0</ele><time>2016-06-21T20:41:26Z</time></trkpt>
<trkpt lat="47.589699" lon="8.377434"><ele>573.0</ele><time>2016-06-21T20:41:34Z</time></trkpt>
<trkpt lat="47.589425" lon="8.377598"><ele>575.0</ele><time>2016-06-21T20:41:39Z</time></trkpt>
<trkpt lat="47.58924" lon="8.377708"><ele>575.0</ele><time>2016-06-21T20:41:41Z</time></trkpt>
<trkpt lat="47.589127" lon="8.377726"><ele>580.0</ele><time>2016-06-21T20:41:43Z</time></trkpt>
<trkpt lat="47.588894" lon="8.378167"><ele>580.0</ele><time>2016-06-21T20:41:49Z</time></trkpt>
<trkpt lat="47.588561" lon="8.378862"><ele>581.0</ele><time>2016-06-21T20:41:57Z</time></trkpt>
<trkpt lat="47.588448" lon="8.379038"><ele>581.0</ele><time>2016-06-21T20:41:59Z</time></trkpt>
<trkpt lat="47.588073" lon="8.379449"><ele>554.0</ele><time>2016-06-21T20:42:07Z</time></trkpt>
<trkpt lat="47.586806" lon="8.381504"><ele>534.0</ele><time>2016-06-21T20:42:34Z</time></trkpt>
<trkpt lat="47.586429" lon="8.382376"><ele>514.0</ele><time>2016-06-21T20:42:44Z</time></trkpt>
<trkpt lat="47.586277" lon="8.38279"><ele>513.0</ele><time>2016-06-21T20:42:48Z</time></trkpt>
<trkpt lat="47.58535" lon="8.384084"><ele>496.0</ele><time>2016-06-21T20:43:07Z</time></trkpt>
<trkpt lat="47.584903" lon="8.384757"><ele>482.0</ele><time>2016-06-21T20:43:16Z</time></trkpt>
<trkpt lat="47.584492" lon="8.385441"><ele>480.0</ele><time>2016-06-21T20:43:25Z</time></trkpt>
<trkpt lat="47.584037" lon="8.386138"><ele>475.0</ele><time>2016-06-21T20:43:34Z</time></trkpt>
<trkpt lat="47.583774" lon="8.386428"><ele>475.0</ele><time>2016-06-21T20:43:39Z</time></trkpt>
<trkpt lat="47.58347" lon="8.386631"><ele>475.0</ele><time>2016-06-21T20:43:44Z</time></trkpt>
<trkpt lat="47.583096" lon="8.386997"><ele>456.0</ele><time>2016-06-21T20:43:51Z</time></trkpt>
<trkpt lat="47.58287" lon="8.387529"><ele>449.0</ele><time>2016-06-21T20:43:57Z</time></trkpt>
<trkpt lat="47.582637" lon="8.38801"><ele>449.0</ele><time>2016-06-21T20:44:02Z</time></trkpt>
<trkpt lat="47.582098" lon="8.389031"><ele>431.0</ele><time>2016-06-21T20:44:15Z</time></trkpt>
<trkpt lat="47.581457" lon="8.389992"><ele>418.0</ele><time>2016-06-21T20:44:28Z</time></trkpt>
<trkpt lat="47.581438" lon="8.390159"><ele>409.0</ele><time>2016-06-21T20:44:30Z</time></trkpt>
<trkpt lat="47.581448" lon="8.39053"><ele>409.0</ele><time>2016-06-21T20:44:34Z</time></trkpt>
<trkpt lat="47.581561" lon="8.391245"><ele>400.0</ele><time>2016-06-21T20:44:41Z</time></trkpt>
<trkpt lat="47.581541" lon="8.391465"><ele>400.0</ele><time>2016-06-21T20:44:43Z</time></trkpt>
<trkpt lat="47.581082" lon="8.392642"><ele>389.0</ele><time>2016-06-21T20:44:56Z</time></trkpt>
<trkpt lat="47.580857" lon="8.392837"><ele>389.0</ele><time>2016-06-21T20:45:00Z</time></trkpt>
<trkpt lat="47.580553" lon="8.393042"><ele>382.0</ele><time>2016-06-21T20:45:05Z</time></trkpt>
<trkpt lat="47.580326" lon="8.393254"><ele>382.0</ele><time>2016-06-21T20:45:09Z</time></trkpt>
<trkpt lat="47.580047" lon="8.393453"><ele>382.0</ele><time>2016-06-21T20:45:13Z</time></trkpt>
<trkpt lat="47.579894" lon="8.393483"><ele>369.0</ele><time>2016-06-21T20:45:16Z</time></trkpt>
<trkpt lat="47.579677" lon="8.393559"><ele>369.0</ele><time>2016-06-21T20:45:19Z</time></trkpt>
<trkpt lat="47.57952" lon="8.393692"><ele>369.0</ele><time>2016-06-21T20:45:22Z</time></trkpt>
<trkpt lat="47.57934" lon="8.393905"><ele>369.0</ele><time>2016-06-21T20:45:25Z</time></trkpt>
<trkpt lat="47.579023" lon="8.394238"><ele>361.0</ele><time>2016-06-21T20:45:31Z</time></trkpt>
<trkpt lat="47.579154" lon="8.394735"><ele>361.0</ele><time>2016-06-21T20:45:33Z</time></trkpt>
<trkpt lat="47.579267" lon="8.395365"><ele>367.0</ele><time>2016-06-21T20:45:36Z</time></trkpt>
<trkpt lat="47.579393" lon="8.396328"><ele>366.0</ele><time>2016-06-21T20:45:40Z</time></trkpt>
<trkpt lat="47.579616" lon="8.397736"><ele>364.0</ele><time>2016-06-21T20:45:46Z</time></trkpt>
<trkpt lat="47.579663" lon="8.398167"><ele>364.0</ele><time>2016-06-21T20:45:48Z</time></trkpt>
<trkpt lat="47.579722" lon="8.398951"><ele>363.0</ele><time>2016-06-21T20:45:51Z</time></trkpt>
<trkpt lat="47.579747" lon="8.399523"><ele>363.0</ele><time>2016-06-21T20:45:53Z</time></trkpt>
<trkpt lat="47.57975" lon="8.400051"><ele>364.0</ele><time>2016-06-21T20:45:55Z</time></trkpt>
<trkpt lat="47.579727" lon="8.400542"><ele>364.0</ele><time>2016-06-21T20:45:57Z</time></trkpt>
<trkpt lat="47.579642" lon="8.401196"><ele>363.0</ele><time>2016-06-21T20:46:00Z</time></trkpt>
<trkpt lat="47.57948" lon="8.40195"><ele>364.0</ele><time>2016-06-21T20:46:03Z</time></trkpt>
<trkpt lat="47.579345" lon="8.402412"><ele>364.0</ele><time>2016-06-21T20:46:05Z</time></trkpt>
<trkpt lat="47.579261" lon="8.402663"><ele>363.0</ele><time>2016-06-21T20:46:07Z</time></trkpt>
<trkpt lat="47.578808" lon="8.403562"><ele>362.0</ele><time>2016-06-21T20:46:11Z</time></trkpt>
<trkpt lat="47.577349" lon="8.406097"><ele>357.0</ele><time>2016-06-21T20:46:25Z</time></trkpt>
<trkpt lat="47.576736" lon="8.407279"><ele>363.0</ele><time>2016-06-21T20:46:31Z</time></trkpt>
<trkpt lat="47.576405" lon="8.407842"><ele>359.0</ele><time>2016-06-21T20:46:34Z</time></trkpt>
<trkpt lat="47.575897" lon="8.408454"><ele>364.0</ele><time>2016-06-21T20:46:38Z</time></trkpt>
<trkpt lat="47.575618" lon="8.408896"><ele>353.0</ele><time>2016-06-21T20:46:40Z</time></trkpt>
<trkpt lat="47.575262" lon="8.409551"><ele>359.0</ele><time>2016-06-21T20:46:44Z</time></trkpt>
<trkpt lat="47.574838" lon="8.410406"><ele>353.0</ele><time>2016-06-21T20:46:48Z</time></trkpt>
<trkpt lat="47.573903" lon="8.412399"><ele>348.0</ele><time>2016-06-21T20:46:58Z</time></trkpt>
<trkpt lat="47.573695" lon="8.412922"><ele>356.0</ele><time>2016-06-21T20:47:01Z</time></trkpt>
<trkpt lat="47.573562" lon="8.413347"><ele>360.0</ele><time>2016-06-21T20:47:03Z</time></trkpt>
<trkpt lat="47.573475" lon="8.413767"><ele>360.0</ele><time>2016-06-21T20:47:04Z</time></trkpt>
<trkpt lat="47.573301" lon="8.414826"><ele>352.0</ele><time>2016-06-21T20:47:09Z</time></trkpt>
<trkpt lat="47.573189" lon="8.415407"><ele>354.0</ele><time>2016-06-21T20:47:11Z</time></trkpt>
<trkpt lat="47.573041" lon="8.415905"><ele>356.0</ele><time>2016-06-21T20:47:13Z</time></trkpt>
<trkpt lat="47.572563" lon="8.417218"><ele>358.0</ele><time>2016-06-21T20:47:20Z</time></trkpt>
<trkpt lat="47.572105" lon="8.418535"><ele>360.0</ele><time>2016-06-21T20:47:26Z</time></trkpt>
<trkpt lat="47.571553" lon="8.419901"><ele>356.0</ele><time>2016-06-21T20:47:32Z</time></trkpt>
<trkpt lat="47.57127" lon="8.420507"><ele>362.0</ele><time>2016-06-21T20:47:35Z</time></trkpt>
<trkpt lat="47.570827" lon="8.421374"><ele>354.0</ele><time>2016-06-21T20:47:40Z</time></trkpt>
<trkpt lat="47.570768" lon="8.42149"><ele>354.0</ele><time>2016-06-21T20:47:40Z</time></trkpt>
<trkpt lat="47.5704" lon="8.42216"><ele>360.0</ele><time>2016-06-21T20:47:45Z</time></trkpt>
<trkpt lat="47.570175" lon="8.42257"><ele>367.0</ele><time>2016-06-21T20:47:48Z</time></trkpt>
<trkpt lat="47.570072" lon="8.422502"><ele>367.0</ele><time>2016-06-21T20:47:48Z</time></trkpt>
<trkpt lat="47.570008" lon="8.422369"><ele>360.0</ele><time>2016-06-21T20:47:49Z</time></trkpt>
<trkpt lat="47.569951" lon="8.422129"><ele>343.0</ele><time>2016-06-21T20:47:51Z</time></trkpt>
<trkpt lat="47.569962" lon="8.421956"><ele>343.0</ele><time>2016-06-21T20:47:53Z</time></trkpt>
<trkpt lat="47.57001" lon="8.421656"><ele>354.0</ele><time>2016-06-21T20:47:57Z</time></trkpt>
<trkpt lat="47.570439" lon="8.419983"><ele>345.0</ele><time>2016-06-21T20:48:18Z</time></trkpt>
<trkpt lat="47.570484" lon="8.419663"><ele>345.0</ele><time>2016-06-21T20:48:22Z</time></trkpt>
<trkpt lat="47.570462" lon="8.419493"><ele>345.0</ele><time>2016-06-21T20:48:24Z</time></trkpt>
<trkpt lat="47.570411" lon="8.419381"><ele>345.0</ele><time>2016-06-21T20:48:25Z</time></trkpt>
<trkpt lat="47.570317" lon="8.419257"><ele>345.0</ele><time>2016-06-21T20:48:27Z</time></trkpt>
<trkpt lat="47.569513" lon="8.418815"><ele>338.0</ele><time>2016-06-21T20:48:45Z</time></trkpt>
<trkpt lat="47.569466" lon="8.418786"><ele>338.0</ele><time>2016-06-21T20:48:46Z</time></trkpt>
<trkpt lat="47.569195" lon="8.4186"><ele>338.0</ele><time>2016-06-21T20:48:52Z</time></trkpt>
<trkpt lat="47.569444" lon="8.417765"><ele>343.0</ele><time>2016-06-21T20:49:00Z</time></trkpt>
<trkpt lat="47.569497" lon="8.417413"><ele>348.0</ele><time>2016-06-21T20:49:04Z</time></trkpt>
<trkpt lat="47.569532" lon="8.41696"><ele>348.0</ele><time>2016-06-21T20:49:08Z</time></trkpt>
<trkpt lat="47.569582" lon="8.416764"><ele>348.0</ele><time>2016-06-21T20:49:10Z</time></trkpt>
<trkpt lat="47.569701" lon="8.416484"><ele>350.0</ele><time>2016-06-21T20:49:14Z</time></trkpt>
<trkpt lat="47.569725" lon="8.416385"><ele>350.0</ele><time>2016-06-21T20:49:15Z</time></trkpt>
<trkpt lat="47.569727" lon="8.416281"><ele>350.0</ele><time>2016-06-21T20:49:16Z</time></trkpt>
<trkpt lat="47.569678" lon="8.416129"><ele>350.0</ele><time>2016-06-21T20:49:18Z</time></trkpt>
<trkpt lat="47.569589" lon="8.41605"><ele>350.0</ele><time>2016-06-21T20:49:20Z</time></trkpt>
<trkpt lat="47.569443" lon="8.416075"><ele>350.0</ele><time>2016-06-21T20:49:23Z</time></trkpt>
<trkpt lat="47.5687" lon="8.416864"><ele>355.0</ele><time>2016-06-21T20:49:41Z</time></trkpt>
<trkpt lat="47.56858" lon="8.416966"><ele>355.0</ele><time>2016-06-21T20:49:43Z</time></trkpt>
<trkpt lat="47.568522" lon="8.416997"><ele>355.0</ele><time>2016-06-21T20:49:45Z</time></trkpt>
<trkpt lat="47.568228" lon="8.417165"><ele>363.0</ele><time>2016-06-21T20:49:51Z</time></trkpt>
<trkpt lat="47.568019" lon="8.41738"><ele>363.0</ele><time>2016-06-21T20:49:56Z</time></trkpt>
<trkpt lat="47.567898" lon="8.417573"><ele>361.0</ele><time>2016-06-21T20:49:59Z</time></trkpt>
<trkpt lat="47.56739" lon="8.418562"><ele>368.0</ele><time>2016-06-21T20:50:15Z</time></trkpt>
<trkpt lat="47.567307" lon="8.418626"><ele>368.0</ele><time>2016-06-21T20:50:17Z</time></trkpt>
<trkpt lat="47.567199" lon="8.418635"><ele>368.0</ele><time>2016-06-21T20:50:19Z</time></trkpt>
<trkpt lat="47.567129" lon="8.418592"><ele>368.0</ele><time>2016-06-21T20:50:21Z</time></trkpt>
<trkpt lat="47.566995" lon="8.418432"><ele>368.0</ele><time>2016-06-21T20:50:24Z</time></trkpt>
<trkpt lat="47.566927" lon="8.41838"><ele>368.0</ele><time>2016-06-21T20:50:25Z</time></trkpt>
<trkpt lat="47.566845" lon="8.41833"><ele>368.0</ele><time>2016-06-21T20:50:27Z</time></trkpt>
<trkpt lat="47.566727" lon="8.418221"><ele>368.0</ele><time>2016-06-21T20:50:29Z</time></trkpt>
<trkpt lat="47.566671" lon="8.418062"><ele>368.0</ele><time>2016-06-21T20:50:31Z</time></trkpt>
<trkpt lat="47.566507" lon="8.417408"><ele>368.0</ele><time>2016-06-21T20:50:37Z</time></trkpt>
<trkpt lat="47.566466" lon="8.417313"><ele>368.0</ele><time>2016-06-21T20:50:39Z</time></trkpt>
<trkpt lat="47.566511" lon="8.41725"><ele>368.0</ele><time>2016-06-21T20:50:39Z</time></trkpt>
<trkpt lat="47.566526" lon="8.417188"><ele>368.0</ele><time>2016-06-21T20:50:40Z</time></trkpt>
<trkpt lat="47.566505" lon="8.417063"><ele>368.0</ele><time>2016-06-21T20:50:41Z</time></trkpt>
<trkpt lat="47.56647" lon="8.417016"><ele>368.0</ele><time>2016-06-21T20:50:41Z</time></trkpt>
<trkpt lat="47.566424" lon="8.416995"><ele>368.0</ele><time>2016-06-21T20:50:42Z</time></trkpt>
<trkpt lat="47.566376" lon="8.417004"><ele>368.0</ele><time>2016-06-21T20:50:42Z</time></trkpt>
<trkpt lat="47.566335" lon="8.417042"><ele>368.0</ele><time>2016-06-21T20:50:43Z</time></trkpt>
<trkpt lat="47.566309" lon="8.417099"><ele>368.0</ele><time>2016-06-21T20:50:43Z</time></trkpt>
<trkpt lat="47.5663" lon="8.417168"><ele>368.0</ele><time>2016-06-21T20:50:43Z</time></trkpt>
<trkpt lat="47.566311" lon="8.417235"><ele>368.0</ele><time>2016-06-21T20:50:44Z</time></trkpt>
<trkpt lat="47.56634" lon="8.41729"><ele>368.0</ele><time>2016-06-21T20:50:44Z</time></trkpt>
<trkpt lat="47.56571" lon="8.418051"><ele>367.0</ele><time>2016-06-21T20:50:53Z</time></trkpt>
<trkpt lat="47.565435" lon="8.418429"><ele>368.0</ele><time>2016-06-21T20:50:57Z</time></trkpt>
<trkpt lat="47.565293" lon="8.418687"><ele>368.0</ele><time>2016-06-21T20:50:59Z</time></trkpt>
<trkpt lat="47.565243" lon="8.418782"><ele>368.0</ele><time>2016-06-21T20:51:00Z</time></trkpt>
<trkpt lat="47.564975" lon="8.419432"><ele>366.0</ele><time>2016-06-21T20:51:05Z</time></trkpt>
<trkpt lat="47.564854" lon="8.419863"><ele>366.0</ele><time>2016-06-21T20:51:08Z</time></trkpt>
<trkpt lat="47.564722" lon="8.420492"><ele>366.0</ele><time>2016-06-21T20:51:12Z</time></trkpt>
<trkpt lat="47.56426" lon="8.423066"><ele>367.0</ele><time>2016-06-21T20:51:30Z</time></trkpt>
<trkpt lat="47.564098" lon="8.423732"><ele>369.0</ele><time>2016-06-21T20:51:34Z</time></trkpt>
<trkpt lat="47.563887" lon="8.424344"><ele>367.0</ele><time>2016-06-21T20:51:39Z</time></trkpt>
<trkpt lat="47.563389" lon="8.425556"><ele>367.0</ele><time>2016-06-21T20:51:48Z</time></trkpt>
<trkpt lat="47.563004" lon="8.426554"><ele>367.0</ele><time>2016-06-21T20:51:55Z</time></trkpt>
<trkpt lat="47.562679" lon="8.427812"><ele>362.0</ele><time>2016-06-21T20:52:04Z</time></trkpt>
<trkpt lat="47.562594" lon="8.428023"><ele>362.0</ele><time>2016-06-21T20:52:06Z</time></trkpt>
<trkpt lat="47.561643" lon="8.429531"><ele>367.0</ele><time>2016-06-21T20:52:19Z</time></trkpt>
<trkpt lat="47.561365" lon="8.430024"><ele>363.0</ele><time>2016-06-21T20:52:23Z</time></trkpt>
<trkpt lat="47.561168" lon="8.43042"><ele>363.0</ele><time>2016-06-21T20:52:26Z</time></trkpt>
<trkpt lat="47.56078" lon="8.431317"><ele>367.0</ele><time>2016-06-21T20:52:33Z</time></trkpt>
<trkpt lat="47.56046" lon="8.432121"><ele>365.0</ele><time>2016-06-21T20:52:39Z</time></trkpt>
<trkpt lat="47.560334" lon="8.432351"><ele>365.0</ele><time>2016-06-21T20:52:41Z</time></trkpt>
<trkpt lat="47.560131" lon="8.432662"><ele>365.0</ele><time>2016-06-21T20:52:44Z</time></trkpt>
<trkpt lat="47.559451" lon="8.433509"><ele>367.0</ele><time>2016-06-21T20:52:53Z</time></trkpt>
<trkpt lat="47.558763" lon="8.434327"><ele>370.0</ele><time>2016-06-21T20:53:01Z</time></trkpt>
<trkpt lat="47.558598" lon="8.434549"><ele>370.0</ele><time>2016-06-21T20:53:03Z</time></trkpt>
<trkpt lat="47.558471" lon="8.434777"><ele>370.0</ele><time>2016-06-21T20:53:05Z</time></trkpt>
<trkpt lat="47.558395" lon="8.434965"><ele>370.0</ele><time>2016-06-21T20:53:07Z</time></trkpt>
<trkpt lat="47.558311" lon="8.435363"><ele>374.0</ele><time>2016-06-21T20:53:10Z</time></trkpt>
<trkpt lat="47.558293" lon="8.435772"><ele>374.0</ele><time>2016-06-21T20:53:12Z</time></trkpt>
<trkpt lat="47.558339" lon="8.436126"><ele>371.0</ele><time>2016-06-21T20:53:15Z</time></trkpt>
<trkpt lat="47.558401" lon="8.43632"><ele>371.0</ele><time>2016-06-21T20:53:16Z</time></trkpt>
<trkpt lat="47.558666" lon="8.436956"><ele>371.0</ele><time>2016-06-21T20:53:20Z</time></trkpt>
<trkpt lat="47.559197" lon="8.437996"><ele>370.0</ele><time>2016-06-21T20:53:26Z</time></trkpt>
<trkpt lat="47.559789" lon="8.439255"><ele>369.0</ele><time>2016-06-21T20:53:34Z</time></trkpt>
<trkpt lat="47.559918" lon="8.43968"><ele>369.0</ele><time>2016-06-21T20:53:36Z</time></trkpt>
<trkpt lat="47.559977" lon="8.439962"><ele>369.0</ele><time>2016-06-21T20:53:37Z</time></trkpt>
<trkpt lat="47.560016" lon="8.440251"><ele>367.0</ele><time>2016-06-21T20:53:39Z</time></trkpt>
<trkpt lat="47.560423" lon="8.445417"><ele>366.0</ele><time>2016-06-21T20:54:04Z</time></trkpt>
<trkpt lat="47.560599" lon="8.446484"><ele>367.0</ele><time>2016-06-21T20:54:09Z</time></trkpt>
<trkpt lat="47.562088" lon="8.451396"><ele>365.0</ele><time>2016-06-21T20:54:36Z</time></trkpt>
<trkpt lat="47.562408" lon="8.45295"><ele>367.0</ele><time>2016-06-21T20:54:44Z</time></trkpt>
<trkpt lat="47.562815" lon="8.455586"><ele>362.0</ele><time>2016-06-21T20:54:57Z</time></trkpt>
<trkpt lat="47.56321" lon="8.458752"><ele>369.0</ele><time>2016-06-21T20:55:12Z</time></trkpt>
<trkpt lat="47.563274" lon="8.459395"><ele>373.0</ele><time>2016-06-21T20:55:16Z</time></trkpt>
<trkpt lat="47.563292" lon="8.459998"><ele>373.0</ele><time>2016-06-21T20:55:19Z</time></trkpt>
<trkpt lat="47.563277" lon="8.461273"><ele>382.0</ele><time>2016-06-21T20:55:25Z</time></trkpt>
<trkpt lat="47.563308" lon="8.462157"><ele>378.0</ele><time>2016-06-21T20:55:29Z</time></trkpt>
<trkpt lat="47.563494" lon="8.463131"><ele>369.0</ele><time>2016-06-21T20:55:34Z</time></trkpt>
<trkpt lat="47.563809" lon="8.464051"><ele>369.0</ele><time>2016-06-21T20:55:39Z</time></trkpt>
<trkpt lat="47.564032" lon="8.46456"><ele>370.0</ele><time>2016-06-21T20:55:42Z</time></trkpt>
<trkpt lat="47.565334" lon="8.466572"><ele>368.0</ele><time>2016-06-21T20:55:56Z</time></trkpt>
<trkpt lat="47.565997" lon="8.467782"><ele>369.0</ele><time>2016-06-21T20:56:03Z</time></trkpt>
<trkpt lat="47.566176" lon="8.468288"><ele>369.0</ele><time>2016-06-21T20:56:06Z</time></trkpt>
<trkpt lat="47.566297" lon="8.46875"><ele>369.0</ele><time>2016-06-21T20:56:08Z</time></trkpt>
<trkpt lat="47.56637" lon="8.469209"><ele>370.0</ele><time>2016-06-21T20:56:11Z</time></trkpt>
<trkpt lat="47.566408" lon="8.469548"><ele>370.0</ele><time>2016-06-21T20:56:13Z</time></trkpt>
<trkpt lat="47.566651" lon="8.472596"><ele>373.0</ele><time>2016-06-21T20:56:25Z</time></trkpt>
<trkpt lat="47.566657" lon="8.473226"><ele>373.0</ele><time>2016-06-21T20:56:28Z</time></trkpt>
<trkpt lat="47.566613" lon="8.473762"><ele>372.0</ele><time>2016-06-21T20:56:30Z</time></trkpt>
<trkpt lat="47.566558" lon="8.474228"><ele>370.0</ele><time>2016-06-21T20:56:32Z</time></trkpt>
<trkpt lat="47.566512" lon="8.47443"><ele>370.0</ele><time>2016-06-21T20:56:33Z</time></trkpt>
<trkpt lat="47.566442" lon="8.474566"><ele>370.0</ele><time>2016-06-21T20:56:34Z</time></trkpt>
<trkpt lat="47.566316" lon="8.474686"><ele>370.0</ele><time>2016-06-21T20:56:35Z</time></trkpt>
<trkpt lat="47.566147" lon="8.474735"><ele>370.0</ele><time>2016-06-21T20:56:36Z</time></trkpt>
<trkpt lat="47.566017" lon="8.474667"><ele>370.0</ele><time>2016-06-21T20:56:37Z</time></trkpt>
<trkpt lat="47.565857" lon="8.474498"><ele>370.0</ele><time>2016-06-21T20:56:38Z</time></trkpt>
<trkpt lat="47.565692" lon="8.474907"><ele>373.0</ele><time>2016-06-21T20:56:41Z</time></trkpt>
<trkpt lat="47.565599" lon="8.475171"><ele>372.0</ele><time>2016-06-21T20:56:44Z</time></trkpt>
<trkpt lat="47.565088" lon="8.476662"><ele>370.0</ele><time>2016-06-21T20:56:54Z</time></trkpt>
<trkpt lat="47.564792" lon="8.477411"><ele>374.0</ele><time>2016-06-21T20:56:59Z</time></trkpt>
<trkpt lat="47.564127" lon="8.47852"><ele>370.0</ele><time>2016-06-21T20:57:09Z</time></trkpt>
<trkpt lat="47.5633" lon="8.479688"><ele>366.0</ele><time>2016-06-21T20:57:19Z</time></trkpt>
<trkpt lat="47.563033" lon="8.480068"><ele>362.0</ele><time>2016-06-21T20:57:23Z</time></trkpt>
<trkpt lat="47.562927" lon="8.479923"><ele>366.0</ele><time>2016-06-21T20:57:24Z</time></trkpt>
<trkpt lat="47.56283" lon="8.479868"><ele>366.0</ele><time>2016-06-21T20:57:25Z</time></trkpt>
<trkpt lat="47.562691" lon="8.479861"><ele>366.0</ele><time>2016-06-21T20:57:26Z</time></trkpt>
<trkpt lat="47.562511" lon="8.479984"><ele>366.0</ele><time>2016-06-21T20:57:27Z</time></trkpt>
<trkpt lat="47.562204" lon="8.480269"><ele>364.0</ele><time>2016-06-21T20:57:30Z</time></trkpt>
<trkpt lat="47.561628" lon="8.480916"><ele>365.0</ele><time>2016-06-21T20:57:35Z</time></trkpt>
<trkpt lat="47.560823" lon="8.482137"><ele>367.0</ele><time>2016-06-21T20:57:43Z</time></trkpt>
<trkpt lat="47.560206" lon="8.482961"><ele>375.0</ele><time>2016-06-21T20:57:49Z</time></trkpt>
<trkpt lat="47.559936" lon="8.483272"><ele>364.0</ele><time>2016-06-21T20:57:51Z</time></trkpt>
<trkpt lat="47.559648" lon="8.483537"><ele>372.0</ele><time>2016-06-21T20:57:54Z</time></trkpt>
<trkpt lat="47.559392" lon="8.48374"><ele>372.0</ele><time>2016-06-21T20:57:56Z</time></trkpt>
<trkpt lat="47.558834" lon="8.484083"><ele>385.0</ele><time>2016-06-21T20:58:00Z</time></trkpt>
<trkpt lat="47.558524" lon="8.4842"><ele>386.0</ele><time>2016-06-21T20:58:03Z</time></trkpt>
<trkpt lat="47.558006" lon="8.484339"><ele>395.0</ele><time>2016-06-21T20:58:06Z</time></trkpt>
<trkpt lat="47.556376" lon="8.484679"><ele>395.0</ele><time>2016-06-21T20:58:18Z</time></trkpt>
<trkpt lat="47.55559" lon="8.484812"><ele>395.0</ele><time>2016-06-21T20:58:24Z</time></trkpt>
<trkpt lat="47.554463" lon="8.485064"><ele>398.0</ele><time>2016-06-21T20:58:32Z</time></trkpt>
<trkpt lat="47.55377" lon="8.485152"><ele>401.0</ele><time>2016-06-21T20:58:37Z</time></trkpt>
<trkpt lat="47.553388" lon="8.485124"><ele>401.0</ele><time>2016-06-21T20:58:40Z</time></trkpt>
<trkpt lat="47.553" lon="8.485051"><ele>402.0</ele><time>2016-06-21T20:58:43Z</time></trkpt>
<trkpt lat="47.552598" lon="8.484916"><ele>402.0</ele><time>2016-06-21T20:58:46Z</time></trkpt>
<trkpt lat="47.552214" lon="8.484716"><ele>401.0</ele><time>2016-06-21T20:58:48Z</time></trkpt>
<trkpt lat="47.551957" lon="8.484543"><ele>401.0</ele><time>2016-06-21T20:58:50Z</time></trkpt>
<trkpt lat="47.551369" lon="8.484091"><ele>396.0</ele><time>2016-06-21T20:58:55Z</time></trkpt>
<trkpt lat="47.551175" lon="8.48392"><ele>396.0</ele><time>2016-06-21T20:58:57Z</time></trkpt>
<trkpt lat="47.551175" lon="8.48392"><ele>396.0</ele><time>2016-06-21T20:58:57Z</time></trkpt>
<trkpt lat="47.550839" lon="8.483624"><ele>396.0</ele><time>2016-06-21T20:59:00Z</time></trkpt>
<trkpt lat="47.550479" lon="8.48336"><ele>403.0</ele><time>2016-06-21T20:59:03Z</time></trkpt>
<trkpt lat="47.550109" lon="8.483154"><ele>401.0</ele><time>2016-06-21T20:59:05Z</time></trkpt>
<trkpt lat="47.54947" lon="8.482929"><ele>402.0</ele><time>2016-06-21T20:59:10Z</time></trkpt>
<trkpt lat="47.549153" lon="8.482871"><ele>407.0</ele><time>2016-06-21T20:59:12Z</time></trkpt>
<trkpt lat="47.548812" lon="8.482877"><ele>407.0</ele><time>2016-06-21T20:59:15Z</time></trkpt>
<trkpt lat="47.547821" lon="8.483044"><ele>407.0</ele><time>2016-06-21T20:59:22Z</time></trkpt>
<trkpt lat="47.545063" lon="8.483706"><ele>410.0</ele><time>2016-06-21T20:59:42Z</time></trkpt>
<trkpt lat="47.544027" lon="8.483834"><ele>411.0</ele><time>2016-06-21T20:59:49Z</time></trkpt>
<trkpt lat="47.543503" lon="8.483859"><ele>411.0</ele><time>2016-06-21T20:59:53Z</time></trkpt>
<trkpt lat="47.542465" lon="8.483829"><ele>413.0</ele><time>2016-06-21T21:00:01Z</time></trkpt>
<trkpt lat="47.542127" lon="8.48379"><ele>413.0</ele><time>2016-06-21T21:00:03Z</time></trkpt>
<trkpt lat="47.541123" lon="8.483598"><ele>415.0</ele><time>2016-06-21T21:00:10Z</time></trkpt>
<trkpt lat="47.5378" lon="8.482823"><ele>411.0</ele><time>2016-06-21T21:00:34Z</time></trkpt>
<trkpt lat="47.537306" lon="8.482763"><ele>414.0</ele><time>2016-06-21T21:00:38Z</time></trkpt>
<trkpt lat="47.536814" lon="8.482768"><ele>414.0</ele><time>2016-06-21T21:00:41Z</time></trkpt>
<trkpt lat="47.536504" lon="8.482785"><ele>416.0</ele><time>2016-06-21T21:00:44Z</time></trkpt>
<trkpt lat="47.536111" lon="8.482846"><ele>416.0</ele><time>2016-06-21T21:00:46Z</time></trkpt>
<trkpt lat="47.535549" lon="8.48302"><ele>418.0</ele><time>2016-06-21T21:00:50Z</time></trkpt>
<trkpt lat="47.535113" lon="8.483204"><ele>418.0</ele><time>2016-06-21T21:00:54Z</time></trkpt>
<trkpt lat="47.53465" lon="8.483446"><ele>420.0</ele><time>2016-06-21T21:00:57Z</time></trkpt>
<trkpt lat="47.534132" lon="8.483793"><ele>420.0</ele><time>2016-06-21T21:01:01Z</time></trkpt>
<trkpt lat="47.533688" lon="8.484175"><ele>422.0</ele><time>2016-06-21T21:01:05Z</time></trkpt>
<trkpt lat="47.533196" lon="8.484675"><ele>417.0</ele><time>2016-06-21T21:01:09Z</time></trkpt>
<trkpt lat="47.531711" lon="8.486263"><ele>440.0</ele><time>2016-06-21T21:01:22Z</time></trkpt>
<trkpt lat="47.530817" lon="8.487289"><ele>424.0</ele><time>2016-06-21T21:01:31Z</time></trkpt>
<trkpt lat="47.52972" lon="8.488398"><ele>425.0</ele><time>2016-06-21T21:01:40Z</time></trkpt>
<trkpt lat="47.529051" lon="8.489179"><ele>427.0</ele><time>2016-06-21T21:01:46Z</time></trkpt>
<trkpt lat="47.528057" lon="8.490249"><ele>426.0</ele><time>2016-06-21T21:01:55Z</time></trkpt>
<trkpt lat="47.527911" lon="8.490381"><ele>426.0</ele><time>2016-06-21T21:01:56Z</time></trkpt>
<trkpt lat="47.527571" lon="8.490719"><ele>426.0</ele><time>2016-06-21T21:01:59Z</time></trkpt>
<trkpt lat="47.52719" lon="8.491041"><ele>430.0</ele><time>2016-06-21T21:02:02Z</time></trkpt>
<trkpt lat="47.526688" lon="8.491362"><ele>430.0</ele><time>2016-06-21T21:02:06Z</time></trkpt>
<trkpt lat="47.526383" lon="8.49152"><ele>424.0</ele><time>2016-06-21T21:02:09Z</time></trkpt>
<trkpt lat="47.525889" lon="8.491737"><ele>435.0</ele><time>2016-06-21T21:02:12Z</time></trkpt>
<trkpt lat="47.525551" lon="8.491856"><ele>440.0</ele><time>2016-06-21T21:02:15Z</time></trkpt>
<trkpt lat="47.524454" lon="8.492168"><ele>442.0</ele><time>2016-06-21T21:02:23Z</time></trkpt>
<trkpt lat="47.523766" lon="8.492387"><ele>443.0</ele><time>2016-06-21T21:02:28Z</time></trkpt>
<trkpt lat="47.523346" lon="8.49256"><ele>447.0</ele><time>2016-06-21T21:02:31Z</time></trkpt>
<trkpt lat="47.522657" lon="8.492986"><ele>447.0</ele><time>2016-06-21T21:02:36Z</time></trkpt>
<trkpt lat="47.521884" lon="8.493527"><ele>437.0</ele><time>2016-06-21T21:02:42Z</time></trkpt>
<trkpt lat="47.521651" lon="8.493614"><ele>426.0</ele><time>2016-06-21T21:02:44Z</time></trkpt>
<trkpt lat="47.52146" lon="8.493648"><ele>426.0</ele><time>2016-06-21T21:02:46Z</time></trkpt>
<trkpt lat="47.521161" lon="8.493566"><ele>426.0</ele><time>2016-06-21T21:02:48Z</time></trkpt>
<trkpt lat="47.520982" lon="8.493462"><ele>426.0</ele><time>2016-06-21T21:02:49Z</time></trkpt>
<trkpt lat="47.520793" lon="8.493278"><ele>422.0</ele><time>2016-06-21T21:02:51Z</time></trkpt>
<trkpt lat="47.520686" lon="8.493091"><ele>422.0</ele><time>2016-06-21T21:02:52Z</time></trkpt>
<trkpt lat="47.520567" lon="8.492832"><ele>422.0</ele><time>2016-06-21T21:02:54Z</time></trkpt>
<trkpt lat="47.520444" lon="8.492373"><ele>423.0</ele><time>2016-06-21T21:02:56Z</time></trkpt>
<trkpt lat="47.520091" lon="8.489807"><ele>425.0</ele><time>2016-06-21T21:03:09Z</time></trkpt>
<trkpt lat="47.519905" lon="8.488642"><ele>418.0</ele><time>2016-06-21T21:03:14Z</time></trkpt>
<trkpt lat="47.519696" lon="8.487766"><ele>417.0</ele><time>2016-06-21T21:03:19Z</time></trkpt>
<trkpt lat="47.518923" lon="8.485603"><ele>418.0</ele><time>2016-06-21T21:03:31Z</time></trkpt>
<trkpt lat="47.518532" lon="8.484625"><ele>422.0</ele><time>2016-06-21T21:03:36Z</time></trkpt>
<trkpt lat="47.518113" lon="8.483751"><ele>418.0</ele><time>2016-06-21T21:03:41Z</time></trkpt>
<trkpt lat="47.517834" lon="8.483254"><ele>419.0</ele><time>2016-06-21T21:03:45Z</time></trkpt>
<trkpt lat="47.517435" lon="8.482676"><ele>413.0</ele><time>2016-06-21T21:03:49Z</time></trkpt>
<trkpt lat="47.515549" lon="8.480276"><ele>416.0</ele><time>2016-06-21T21:04:06Z</time></trkpt>
<trkpt lat="47.515205" lon="8.479872"><ele>418.0</ele><time>2016-06-21T21:04:09Z</time></trkpt>
<trkpt lat="47.514896" lon="8.47955"><ele>419.0</ele><time>2016-06-21T21:04:12Z</time></trkpt>
<trkpt lat="47.51427" lon="8.479013"><ele>422.0</ele><time>2016-06-21T21:04:17Z</time></trkpt>
<trkpt lat="47.513674" lon="8.478671"><ele>423.0</ele><time>2016-06-21T21:04:22Z</time></trkpt>
<trkpt lat="47.513013" lon="8.478394"><ele>420.0</ele><time>2016-06-21T21:04:27Z</time></trkpt>
<trkpt lat="47.512565" lon="8.478238"><ele>423.0</ele><time>2016-06-21T21:04:30Z</time></trkpt>
<trkpt lat="47.512314" lon="8.478175"><ele>422.0</ele><time>2016-06-21T21:04:32Z</time></trkpt>
<trkpt lat="47.511906" lon="8.478123"><ele>422.0</ele><time>2016-06-21T21:04:35Z</time></trkpt>
<trkpt lat="47.511408" lon="8.478132"><ele>424.0</ele><time>2016-06-21T21:04:39Z</time></trkpt>
<trkpt lat="47.511415" lon="8.477808"><ele>424.0</ele><time>2016-06-21T21:04:40Z</time></trkpt>
<trkpt lat="47.511451" lon="8.477483"><ele>426.0</ele><time>2016-06-21T21:04:42Z</time></trkpt>
<trkpt lat="47.51152" lon="8.477193"><ele>426.0</ele><time>2016-06-21T21:04:44Z</time></trkpt>
<trkpt lat="47.511682" lon="8.476832"><ele>424.0</ele><time>2016-06-21T21:04:47Z</time></trkpt>
<trkpt lat="47.511842" lon="8.47662"><ele>426.0</ele><time>2016-06-21T21:04:48Z</time></trkpt>
<trkpt lat="47.512355" lon="8.47602"><ele>426.0</ele><time>2016-06-21T21:04:54Z</time></trkpt>
<trkpt lat="47.512445" lon="8.47588"><ele>426.0</ele><time>2016-06-21T21:04:55Z</time></trkpt>
<trkpt lat="47.512678" lon="8.475329"><ele>428.0</ele><time>2016-06-21T21:04:59Z</time></trkpt>
<trkpt lat="47.512837" lon="8.475069"><ele>428.0</ele><time>2016-06-21T21:05:01Z</time></trkpt>
<trkpt lat="47.513076" lon="8.474837"><ele>431.0</ele><time>2016-06-21T21:05:03Z</time></trkpt>
<trkpt lat="47.513422" lon="8.47461"><ele>429.0</ele><time>2016-06-21T21:05:07Z</time></trkpt>
<trkpt lat="47.51354" lon="8.47453"><ele>429.0</ele><time>2016-06-21T21:05:08Z</time></trkpt>
<trkpt lat="47.513416" lon="8.474235"><ele>429.0</ele><time>2016-06-21T21:05:10Z</time></trkpt>
<trkpt lat="47.512709" lon="8.473187"><ele>432.0</ele><time>2016-06-21T21:05:17Z</time></trkpt>
<trkpt lat="47.51265" lon="8.473063"><ele>432.0</ele><time>2016-06-21T21:05:18Z</time></trkpt>
<trkpt lat="47.512633" lon="8.472976"><ele>432.0</ele><time>2016-06-21T21:05:18Z</time></trkpt>
<trkpt lat="47.512646" lon="8.472886"><ele>432.0</ele><time>2016-06-21T21:05:19Z</time></trkpt>
<trkpt lat="47.512764" lon="8.472622"><ele>432.0</ele><time>2016-06-21T21:05:20Z</time></trkpt>
<trkpt lat="47.512792" lon="8.472471"><ele>434.0</ele><time>2016-06-21T21:05:21Z</time></trkpt>
<trkpt lat="47.512785" lon="8.472279"><ele>434.0</ele><time>2016-06-21T21:05:22Z</time></trkpt>
<trkpt lat="47.512724" lon="8.471918"><ele>434.0</ele><time>2016-06-21T21:05:24Z</time></trkpt>
<trkpt lat="47.512619" lon="8.471544"><ele>441.0</ele><time>2016-06-21T21:05:26Z</time></trkpt>
<trkpt lat="47.512511" lon="8.471316"><ele>441.0</ele><time>2016-06-21T21:05:28Z</time></trkpt>
<trkpt lat="47.511767" lon="8.470014"><ele>452.0</ele><time>2016-06-21T21:05:37Z</time></trkpt>
<trkpt lat="47.511231" lon="8.469406"><ele>458.0</ele><time>2016-06-21T21:05:42Z</time></trkpt>
<trkpt lat="47.510985" lon="8.469041"><ele>466.0</ele><time>2016-06-21T21:05:44Z</time></trkpt>
<trkpt lat="47.510889" lon="8.468849"><ele>466.0</ele><time>2016-06-21T21:05:46Z</time></trkpt>
<trkpt lat="47.510794" lon="8.468602"><ele>460.0</ele><time>2016-06-21T21:05:47Z</time></trkpt>
<trkpt lat="47.510515" lon="8.467327"><ele>472.0</ele><time>2016-06-21T21:05:54Z</time></trkpt>
<trkpt lat="47.510445" lon="8.467141"><ele>472.0</ele><time>2016-06-21T21:05:55Z</time></trkpt>
<trkpt lat="47.510341" lon="8.466954"><ele>472.0</ele><time>2016-06-21T21:05:57Z</time></trkpt>
<trkpt lat="47.51019" lon="8.466807"><ele>472.0</ele><time>2016-06-21T21:05:58Z</time></trkpt>
<trkpt lat="47.50971" lon="8.466121"><ele>478.0</ele><time>2016-06-21T21:06:03Z</time></trkpt>
<trkpt lat="47.509516" lon="8.465712"><ele>487.0</ele><time>2016-06-21T21:06:06Z</time></trkpt>
<trkpt lat="47.50902" lon="8.46418"><ele>486.0</ele><time>2016-06-21T21:06:14Z</time></trkpt>
<trkpt lat="47.508845" lon="8.463727"><ele>495.0</ele><time>2016-06-21T21:06:17Z</time></trkpt>
<trkpt lat="47.50874" lon="8.463512"><ele>495.0</ele><time>2016-06-21T21:06:19Z</time></trkpt>
<trkpt lat="47.508516" lon="8.463185"><ele>503.0</ele><time>2016-06-21T21:06:21Z</time></trkpt>
<trkpt lat="47.508365" lon="8.463013"><ele>503.0</ele><time>2016-06-21T21:06:22Z</time></trkpt>
<trkpt lat="47.508168" lon="8.462841"><ele>494.0</ele><time>2016-06-21T21:06:24Z</time></trkpt>
<trkpt lat="47.507417" lon="8.462371"><ele>495.0</ele><time>2016-06-21T21:06:31Z</time></trkpt>
<trkpt lat="47.506834" lon="8.461973"><ele>495.0</ele><time>2016-06-21T21:06:35Z</time></trkpt>
<trkpt lat="47.505552" lon="8.46098"><ele>495.0</ele><time>2016-06-21T21:06:46Z</time></trkpt>
<trkpt lat="47.504629" lon="8.460246"><ele>490.0</ele><time>2016-06-21T21:06:55Z</time></trkpt>
<trkpt lat="47.504181" lon="8.4599"><ele>493.0</ele><time>2016-06-21T21:06:58Z</time></trkpt>
<trkpt lat="47.503784" lon="8.459476"><ele>491.0</ele><time>2016-06-21T21:07:01Z</time></trkpt>
<trkpt lat="47.503662" lon="8.459323"><ele>491.0</ele><time>2016-06-21T21:07:02Z</time></trkpt>
<trkpt lat="47.503529" lon="8.459207"><ele>491.0</ele><time>2016-06-21T21:07:03Z</time></trkpt>
<trkpt lat="47.502897" lon="8.458797"><ele>486.0</ele><time>2016-06-21T21:07:07Z</time></trkpt>
<trkpt lat="47.502795" lon="8.458704"><ele>486.0</ele><time>2016-06-21T21:07:08Z</time></trkpt>
<trkpt lat="47.502711" lon="8.458574"><ele>486.0</ele><time>2016-06-21T21:07:09Z</time></trkpt>
<trkpt lat="47.502607" lon="8.458281"><ele>483.0</ele><time>2016-06-21T21:07:10Z</time></trkpt>
<trkpt lat="47.5022" lon="8.456676"><ele>479.0</ele><time>2016-06-21T21:07:17Z</time></trkpt>
<trkpt lat="47.502075" lon="8.456236"><ele>478.0</ele><time>2016-06-21T21:07:19Z</time></trkpt>
<trkpt lat="47.501783" lon="8.455451"><ele>476.0</ele><time>2016-06-21T21:07:23Z</time></trkpt>
<trkpt lat="47.501748" lon="8.455339"><ele>476.0</ele><time>2016-06-21T21:07:24Z</time></trkpt>
<trkpt lat="47.501436" lon="8.455398"><ele>476.0</ele><time>2016-06-21T21:07:27Z</time></trkpt>
<trkpt lat="47.501193" lon="8.45541"><ele>476.0</ele><time>2016-06-21T21:07:29Z</time></trkpt>
<trkpt lat="47.501063" lon="8.455397"><ele>476.0</ele><time>2016-06-21T21:07:30Z</time></trkpt>
<trkpt lat="47.500819" lon="8.455331"><ele>474.0</ele><time>2016-06-21T21:07:32Z</time></trkpt>
<trkpt lat="47.50052" lon="8.455224"><ele>474.0</ele><time>2016-06-21T21:07:35Z</time></trkpt>
<trkpt lat="47.500382" lon="8.455209"><ele>474.0</ele><time>2016-06-21T21:07:36Z</time></trkpt>
<trkpt lat="47.500241" lon="8.455233"><ele>474.0</ele><time>2016-06-21T21:07:37Z</time></trkpt>
<trkpt lat="47.500112" lon="8.4553"><ele>474.0</ele><time>2016-06-21T21:07:38Z</time></trkpt>
<trkpt lat="47.499809" lon="8.455547"><ele>469.0</ele><time>2016-06-21T21:07:42Z</time></trkpt>
<trkpt lat="47.499755" lon="8.455639"><ele>469.0</ele><time>2016-06-21T21:07:42Z</time></trkpt>
<trkpt lat="47.49968" lon="8.455592"><ele>469.0</ele><time>2016-06-21T21:07:43Z</time></trkpt>
<trkpt lat="47.499484" lon="8.455545"><ele>469.0</ele><time>2016-06-21T21:07:45Z</time></trkpt>
<trkpt lat="47.499369" lon="8.455467"><ele>469.0</ele><time>2016-06-21T21:07:46Z</time></trkpt>
<trkpt lat="47.499262" lon="8.45534"><ele>469.0</ele><time>2016-06-21T21:07:47Z</time></trkpt>
<trkpt lat="47.498975" lon="8.455137"><ele>467.0</ele><time>2016-06-21T21:07:50Z</time></trkpt>
<trkpt lat="47.498894" lon="8.454999"><ele>465.0</ele><time>2016-06-21T21:07:51Z</time></trkpt>
<trkpt lat="47.498841" lon="8.454825"><ele>465.0</ele><time>2016-06-21T21:07:52Z</time></trkpt>
<trkpt lat="47.49875" lon="8.454275"><ele>465.0</ele><time>2016-06-21T21:07:56Z</time></trkpt>
<trkpt lat="47.4987" lon="8.454171"><ele>465.0</ele><time>2016-06-21T21:07:56Z</time></trkpt>
<trkpt lat="47.498534" lon="8.454043"><ele>465.0</ele><time>2016-06-21T21:07:58Z</time></trkpt>
<trkpt lat="47.498424" lon="8.454029"><ele>465.0</ele><time>2016-06-21T21:07:59Z</time></trkpt>
<trkpt lat="47.498107" lon="8.454094"><ele>464.0</ele><time>2016-06-21T21:08:02Z</time></trkpt>
<trkpt lat="47.497983" lon="8.454052"><ele>464.0</ele><time>2016-06-21T21:08:03Z</time></trkpt>
<trkpt lat="47.497891" lon="8.45399"><ele>464.0</ele><time>2016-06-21T21:08:04Z</time></trkpt>
<trkpt lat="47.496908" lon="8.452794"><ele>457.0</ele><time>2016-06-21T21:08:15Z</time></trkpt>
<trkpt lat="47.496645" lon="8.452504"><ele>452.0</ele><time>2016-06-21T21:08:18Z</time></trkpt>
<trkpt lat="47.495824" lon="8.451801"><ele>448.0</ele><time>2016-06-21T21:08:26Z</time></trkpt>
<trkpt lat="47.495555" lon="8.451545"><ele>448.0</ele><time>2016-06-21T21:08:29Z</time></trkpt>
<trkpt lat="47.495318" lon="8.451242"><ele>448.0</ele><time>2016-06-21T21:08:32Z</time></trkpt>
<trkpt lat="47.494999" lon="8.450768"><ele>444.0</ele><time>2016-06-21T21:08:36Z</time></trkpt>
<trkpt lat="47.494459" lon="8.449906"><ele>444.0</ele><time>2016-06-21T21:08:43Z</time></trkpt>
<trkpt lat="47.493884" lon="8.448889"><ele>441.0</ele><time>2016-06-21T21:08:51Z</time></trkpt>
<trkpt lat="47.493464" lon="8.448099"><ele>442.0</ele><time>2016-06-21T21:08:57Z</time></trkpt>
<trkpt lat="47.493224" lon="8.447528"><ele>435.0</ele><time>2016-06-21T21:09:01Z</time></trkpt>
<trkpt lat="47.49316" lon="8.447006"><ele>436.0</ele><time>2016-06-21T21:09:04Z</time></trkpt>
<trkpt lat="47.493075" lon="8.446737"><ele>436.0</ele><time>2016-06-21T21:09:06Z</time></trkpt>
<trkpt lat="47.493001" lon="8.446607"><ele>437.0</ele><time>2016-06-21T21:09:07Z</time></trkpt>
<trkpt lat="47.492916" lon="8.44651"><ele>437.0</ele><time>2016-06-21T21:09:08Z</time></trkpt>
<trkpt lat="47.492325" lon="8.446144"><ele>440.0</ele><time>2016-06-21T21:09:13Z</time></trkpt>
<trkpt lat="47.492202" lon="8.446085"><ele>440.0</ele><time>2016-06-21T21:09:15Z</time></trkpt>
<trkpt lat="47.49188" lon="8.444588"><ele>450.0</ele><time>2016-06-21T21:09:23Z</time></trkpt>
<trkpt lat="47.491634" lon="8.443522"><ele>447.0</ele><time>2016-06-21T21:09:28Z</time></trkpt>
<trkpt lat="47.49157" lon="8.443315"><ele>448.0</ele><time>2016-06-21T21:09:29Z</time></trkpt>
<trkpt lat="47.491464" lon="8.443063"><ele>448.0</ele><time>2016-06-21T21:09:31Z</time></trkpt>
<trkpt lat="47.491037" lon="8.44221"><ele>449.0</ele><time>2016-06-21T21:09:36Z</time></trkpt>
<trkpt lat="47.490839" lon="8.441685"><ele>449.0</ele><time>2016-06-21T21:09:39Z</time></trkpt>
<trkpt lat="47.490624" lon="8.440933"><ele>452.0</ele><time>2016-06-21T21:09:43Z</time></trkpt>
<trkpt lat="47.490447" lon="8.440149"><ele>452.0</ele><time>2016-06-21T21:09:48Z</time></trkpt>
<trkpt lat="47.490342" lon="8.439584"><ele>455.0</ele><time>2016-06-21T21:09:51Z</time></trkpt>
<trkpt lat="47.490275" lon="8.439025"><ele>460.0</ele><time>2016-06-21T21:09:53Z</time></trkpt>
<trkpt lat="47.490268" lon="8.438704"><ele>460.0</ele><time>2016-06-21T21:09:55Z</time></trkpt>
<trkpt lat="47.490361" lon="8.438167"><ele>464.0</ele><time>2016-06-21T21:09:58Z</time></trkpt>
<trkpt lat="47.490343" lon="8.438077"><ele>464.0</ele><time>2016-06-21T21:09:58Z</time></trkpt>
<trkpt lat="47.490748" lon="8.437431"><ele>469.0</ele><time>2016-06-21T21:10:04Z</time></trkpt>
<trkpt lat="47.4913" lon="8.436686"><ele>462.0</ele><time>2016-06-21T21:10:10Z</time></trkpt>
<trkpt lat="47.491478" lon="8.436397"><ele>466.0</ele><time>2016-06-21T21:10:12Z</time></trkpt>
<trkpt lat="47.491987" lon="8.435399"><ele>467.0</ele><time>2016-06-21T21:10:19Z</time></trkpt>
<trkpt lat="47.49223" lon="8.434809"><ele>471.0</ele><time>2016-06-21T21:10:24Z</time></trkpt>
<trkpt lat="47.492367" lon="8.434239"><ele>471.0</ele><time>2016-06-21T21:10:27Z</time></trkpt>
<trkpt lat="47.492771" lon="8.432046"><ele>473.0</ele><time>2016-06-21T21:10:40Z</time></trkpt>
<trkpt lat="47.493011" lon="8.430644"><ele>474.0</ele><time>2016-06-21T21:10:49Z</time></trkpt>
<trkpt lat="47.493043" lon="8.430337"><ele>474.0</ele><time>2016-06-21T21:10:50Z</time></trkpt>
<trkpt lat="47.493052" lon="8.429896"><ele>478.0</ele><time>2016-06-21T21:10:53Z</time></trkpt>
<trkpt lat="47.493032" lon="8.429472"><ele>478.0</ele><time>2016-06-21T21:10:55Z</time></trkpt>
<trkpt lat="47.492952" lon="8.428589"><ele>478.0</ele><time>2016-06-21T21:11:01Z</time></trkpt>
<trkpt lat="47.492971" lon="8.428006"><ele>479.0</ele><time>2016-06-21T21:11:04Z</time></trkpt>
<trkpt lat="47.49305" lon="8.427452"><ele>482.0</ele><time>2016-06-21T21:11:07Z</time></trkpt>
<trkpt lat="47.49317" lon="8.427033"><ele>482.0</ele><time>2016-06-21T21:11:10Z</time></trkpt>
<trkpt lat="47.493359" lon="8.426605"><ele>477.0</ele><time>2016-06-21T21:11:13Z</time></trkpt>
<trkpt lat="47.493546" lon="8.426307"><ele>477.0</ele><time>2016-06-21T21:11:16Z</time></trkpt>
<trkpt lat="47.49309" lon="8.425711"><ele>477.0</ele><time>2016-06-21T21:11:20Z</time></trkpt>
<trkpt lat="47.492637" lon="8.42533"><ele>477.0</ele><time>2016-06-21T21:11:24Z</time></trkpt>
<trkpt lat="47.490667" lon="8.424233"><ele>478.0</ele><time>2016-06-21T21:11:39Z</time></trkpt>
<trkpt lat="47.490581" lon="8.424195"><ele>477.5</ele><time>2016-06-21T21:11:39Z</time></trkpt>
<trkpt lat="47.490581" lon="8.424195"><ele>477.5</ele><time>2016-06-21T21:11:39Z</time></trkpt>
<trkpt lat="47.490339" lon="8.424088"><ele>477.0</ele><time>2016-06-21T21:11:41Z</time></trkpt>
<trkpt lat="47.490059" lon="8.424059"><ele>477.0</ele><time>2016-06-21T21:11:43Z</time></trkpt>
<trkpt lat="47.489695" lon="8.424173"><ele>483.0</ele><time>2016-06-21T21:11:46Z</time></trkpt>
<trkpt lat="47.489484" lon="8.424369"><ele>483.0</ele><time>2016-06-21T21:11:47Z</time></trkpt>
<trkpt lat="47.489355" lon="8.424534"><ele>483.0</ele><time>2016-06-21T21:11:49Z</time></trkpt>
<trkpt lat="47.489195" lon="8.424865"><ele>483.0</ele><time>2016-06-21T21:11:50Z</time></trkpt>
<trkpt lat="47.488828" lon="8.42599"><ele>496.0</ele><time>2016-06-21T21:11:56Z</time></trkpt>
<trkpt lat="47.48849" lon="8.427203"><ele>495.0</ele><time>2016-06-21T21:12:03Z</time></trkpt>
<trkpt lat="47.488328" lon="8.427362"><ele>530.0</ele><time>2016-06-21T21:12:05Z</time></trkpt>
<trkpt lat="47.487952" lon="8.427545"><ele>522.0</ele><time>2016-06-21T21:12:08Z</time></trkpt>
<trkpt lat="47.487683" lon="8.42789"><ele>522.0</ele><time>2016-06-21T21:12:10Z</time></trkpt>
<trkpt lat="47.487597" lon="8.428256"><ele>522.0</ele><time>2016-06-21T21:12:12Z</time></trkpt>
<trkpt lat="47.487603" lon="8.428638"><ele>521.0</ele><time>2016-06-21T21:12:14Z</time></trkpt>
<trkpt lat="47.487637" lon="8.42893"><ele>521.0</ele><time>2016-06-21T21:12:15Z</time></trkpt>
<trkpt lat="47.487585" lon="8.429454"><ele>517.0</ele><time>2016-06-21T21:12:18Z</time></trkpt>
<trkpt lat="47.48753" lon="8.429671"><ele>517.0</ele><time>2016-06-21T21:12:19Z</time></trkpt>
<trkpt lat="47.487141" lon="8.430886"><ele>527.0</ele><time>2016-06-21T21:12:25Z</time></trkpt>
<trkpt lat="47.486987" lon="8.431426"><ele>527.0</ele><time>2016-06-21T21:12:28Z</time></trkpt>
<trkpt lat="47.486713" lon="8.432614"><ele>520.0</ele><time>2016-06-21T21:12:34Z</time></trkpt>
<trkpt lat="47.486572" lon="8.433065"><ele>547.0</ele><time>2016-06-21T21:12:37Z</time></trkpt>
<trkpt lat="47.48632" lon="8.433493"><ele>539.0</ele><time>2016-06-21T21:12:39Z</time></trkpt>
<trkpt lat="47.486063" lon="8.433717"><ele>539.0</ele><time>2016-06-21T21:12:41Z</time></trkpt>
<trkpt lat="47.48565" lon="8.43402"><ele>556.0</ele><time>2016-06-21T21:12:45Z</time></trkpt>
<trkpt lat="47.485391" lon="8.434084"><ele>556.0</ele><time>2016-06-21T21:12:47Z</time></trkpt>
<trkpt lat="47.48527" lon="8.43399"><ele>556.0</ele><time>2016-06-21T21:12:48Z</time></trkpt>
<trkpt lat="47.48505" lon="8.433751"><ele>556.0</ele><time>2016-06-21T21:12:49Z</time></trkpt>
<trkpt lat="47.484844" lon="8.433655"><ele>575.0</ele><time>2016-06-21T21:12:51Z</time></trkpt>
<trkpt lat="47.484648" lon="8.433684"><ele>575.0</ele><time>2016-06-21T21:12:53Z</time></trkpt>
<trkpt lat="47.48439" lon="8.433875"><ele>575.0</ele><time>2016-06-21T21:12:55Z</time></trkpt>
<trkpt lat="47.484145" lon="8.434099"><ele>606.0</ele><time>2016-06-21T21:12:57Z</time></trkpt>
<trkpt lat="47.483716" lon="8.434576"><ele>581.0</ele><time>2016-06-21T21:13:01Z</time></trkpt>
<trkpt lat="47.483519" lon="8.434999"><ele>581.0</ele><time>2016-06-21T21:13:04Z</time></trkpt>
<trkpt lat="47.483413" lon="8.43533"><ele>563.0</ele><time>2016-06-21T21:13:06Z</time></trkpt>
<trkpt lat="47.483356" lon="8.435599"><ele>563.0</ele><time>2016-06-21T21:13:07Z</time></trkpt>
<trkpt lat="47.483255" lon="8.435788"><ele>596.0</ele><time>2016-06-21T21:13:10Z</time></trkpt>
<trkpt lat="47.483017" lon="8.436012"><ele>580.0</ele><time>2016-06-21T21:13:12Z</time></trkpt>
<trkpt lat="47.482814" lon="8.436184"><ele>580.0</ele><time>2016-06-21T21:13:14Z</time></trkpt>
<trkpt lat="47.482422" lon="8.43646"><ele>597.0</ele><time>2016-06-21T21:13:25Z</time></trkpt>
<trkpt lat="47.482284" lon="8.436579"><ele>597.0</ele><time>2016-06-21T21:13:30Z</time></trkpt>
<trkpt lat="47.482174" lon="8.436411"><ele>597.0</ele><time>2016-06-21T21:13:33Z</time></trkpt>
<trkpt lat="47.482107" lon="8.436115"><ele>597.0</ele><time>2016-06-21T21:13:35Z</time></trkpt>
<trkpt lat="47.481857" lon="8.435358"><ele>605.0</ele><time>2016-06-21T21:13:38Z</time></trkpt>
<trkpt lat="47.481715" lon="8.435127"><ele>605.0</ele><time>2016-06-21T21:13:40Z</time></trkpt>
<trkpt lat="47.48144" lon="8.434518"><ele>615.0</ele><time>2016-06-21T21:13:43Z</time></trkpt>
<trkpt lat="47.481268" lon="8.434046"><ele>631.0</ele><time>2016-06-21T21:13:45Z</time></trkpt>
<trkpt lat="47.481138" lon="8.433787"><ele>631.0</ele><time>2016-06-21T21:13:47Z</time></trkpt>
<trkpt lat="47.480206" lon="8.432832"><ele>631.0</ele><time>2016-06-21T21:13:54Z</time></trkpt>
<trkpt lat="47.479809" lon="8.432285"><ele>626.0</ele><time>2016-06-21T21:13:57Z</time></trkpt>
<trkpt lat="47.479525" lon="8.431659"><ele>638.0</ele><time>2016-06-21T21:14:01Z</time></trkpt>
<trkpt lat="47.479365" lon="8.431405"><ele>638.0</ele><time>2016-06-21T21:14:02Z</time></trkpt>
<trkpt lat="47.479195" lon="8.431192"><ele>638.0</ele><time>2016-06-21T21:14:04Z</time></trkpt>
<trkpt lat="47.479097" lon="8.431028"><ele>613.0</ele><time>2016-06-21T21:14:06Z</time></trkpt>
<trkpt lat="47.478848" lon="8.430422"><ele>625.0</ele><time>2016-06-21T21:14:09Z</time></trkpt>
<trkpt lat="47.478662" lon="8.430208"><ele>625.0</ele><time>2016-06-21T21:14:10Z</time></trkpt>
<trkpt lat="47.478448" lon="8.430062"><ele>625.0</ele><time>2016-06-21T21:14:12Z</time></trkpt>
<trkpt lat="47.477775" lon="8.429796"><ele>644.0</ele><time>2016-06-21T21:14:16Z</time></trkpt>
<trkpt lat="47.47757" lon="8.429652"><ele>644.0</ele><time>2016-06-21T21:14:18Z</time></trkpt>
<trkpt lat="47.477396" lon="8.429437"><ele>619.0</ele><time>2016-06-21T21:14:20Z</time></trkpt>
<trkpt lat="47.477247" lon="8.429204"><ele>619.0</ele><time>2016-06-21T21:14:21Z</time></trkpt>
<trkpt lat="47.476591" lon="8.427728"><ele>632.0</ele><time>2016-06-21T21:14:29Z</time></trkpt>
<trkpt lat="47.476412" lon="8.427376"><ele>646.0</ele><time>2016-06-21T21:14:31Z</time></trkpt>
<trkpt lat="47.476219" lon="8.427129"><ele>646.0</ele><time>2016-06-21T21:14:33Z</time></trkpt>
<trkpt lat="47.476011" lon="8.427007"><ele>646.0</ele><time>2016-06-21T21:14:34Z</time></trkpt>
<trkpt lat="47.47586" lon="8.426949"><ele>646.0</ele><time>2016-06-21T21:14:35Z</time></trkpt>
<trkpt lat="47.474799" lon="8.427084"><ele>665.0</ele><time>2016-06-21T21:14:42Z</time></trkpt>
<trkpt lat="47.474677" lon="8.427118"><ele>665.0</ele><time>2016-06-21T21:14:43Z</time></trkpt>
<trkpt lat="47.474578" lon="8.427178"><ele>665.0</ele><time>2016-06-21T21:14:44Z</time></trkpt>
<trkpt lat="47.474468" lon="8.427256"><ele>665.0</ele><time>2016-06-21T21:14:44Z</time></trkpt>
<trkpt lat="47.474294" lon="8.427462"><ele>665.0</ele><time>2016-06-21T21:14:46Z</time></trkpt>
<trkpt lat="47.474224" lon="8.427573"><ele>633.0</ele><time>2016-06-21T21:14:48Z</time></trkpt>
<trkpt lat="47.474137" lon="8.427779"><ele>640.0</ele><time>2016-06-21T21:14:49Z</time></trkpt>
<trkpt lat="47.473853" lon="8.428732"><ele>625.0</ele><time>2016-06-21T21:14:53Z</time></trkpt>
<trkpt lat="47.473749" lon="8.428895"><ele>625.0</ele><time>2016-06-21T21:14:54Z</time></trkpt>
<trkpt lat="47.473621" lon="8.428938"><ele>625.0</ele><time>2016-06-21T21:14:55Z</time></trkpt>
<trkpt lat="47.473493" lon="8.428912"><ele>625.0</ele><time>2016-06-21T21:14:56Z</time></trkpt>
<trkpt lat="47.473242" lon="8.428812"><ele>634.0</ele><time>2016-06-21T21:14:58Z</time></trkpt>
<trkpt lat="47.47207" lon="8.428246"><ele>646.0</ele><time>2016-06-21T21:15:06Z</time></trkpt>
<trkpt lat="47.47182" lon="8.427988"><ele>646.0</ele><time>2016-06-21T21:15:08Z</time></trkpt>
<trkpt lat="47.471339" lon="8.427155"><ele>644.0</ele><time>2016-06-21T21:15:13Z</time></trkpt>
<trkpt lat="47.470511" lon="8.425625"><ele>647.0</ele><time>2016-06-21T21:15:21Z</time></trkpt>
<trkpt lat="47.470204" lon="8.425324"><ele>647.0</ele><time>2016-06-21T21:15:23Z</time></trkpt>
<trkpt lat="47.470071" lon="8.425127"><ele>647.0</ele><time>2016-06-21T21:15:25Z</time></trkpt>
<trkpt lat="47.469658" lon="8.424051"><ele>651.0</ele><time>2016-06-21T21:15:30Z</time></trkpt>
<trkpt lat="47.468939" lon="8.422895"><ele>628.0</ele><time>2016-06-21T21:15:37Z</time></trkpt>
<trkpt lat="47.468904" lon="8.422746"><ele>628.0</ele><time>2016-06-21T21:15:38Z</time></trkpt>
<trkpt lat="47.468962" lon="8.422574"><ele>628.0</ele><time>2016-06-21T21:15:39Z</time></trkpt>
<trkpt lat="47.469095" lon="8.42242"><ele>624.0</ele><time>2016-06-21T21:15:40Z</time></trkpt>
<trkpt lat="47.469257" lon="8.422073"><ele>640.0</ele><time>2016-06-21T21:15:42Z</time></trkpt>
<trkpt lat="47.469281" lon="8.421831"><ele>640.0</ele><time>2016-06-21T21:15:43Z</time></trkpt>
<trkpt lat="47.46927" lon="8.421556"><ele>624.0</ele><time>2016-06-21T21:15:44Z</time></trkpt>
<trkpt lat="47.469212" lon="8.421325"><ele>624.0</ele><time>2016-06-21T21:15:45Z</time></trkpt>
<trkpt lat="47.469073" lon="8.421093"><ele>614.0</ele><time>2016-06-21T21:15:47Z</time></trkpt>
<trkpt lat="47.469067" lon="8.420964"><ele>614.0</ele><time>2016-06-21T21:15:47Z</time></trkpt>
<trkpt lat="47.469107" lon="8.420861"><ele>614.0</ele><time>2016-06-21T21:15:48Z</time></trkpt>
<trkpt lat="47.46924" lon="8.42066"><ele>611.0</ele><time>2016-06-21T21:15:49Z</time></trkpt>
<trkpt lat="47.469471" lon="8.420419"><ele>611.0</ele><time>2016-06-21T21:15:52Z</time></trkpt>
<trkpt lat="47.470041" lon="8.419811"><ele>619.0</ele><time>2016-06-21T21:15:57Z</time></trkpt>
<trkpt lat="47.470117" lon="8.419668"><ele>619.0</ele><time>2016-06-21T21:15:58Z</time></trkpt>
<trkpt lat="47.470157" lon="8.419493"><ele>619.0</ele><time>2016-06-21T21:15:59Z</time></trkpt>
<trkpt lat="47.470139" lon="8.419124"><ele>618.0</ele><time>2016-06-21T21:16:00Z</time></trkpt>
<trkpt lat="47.470047" lon="8.418879"><ele>618.0</ele><time>2016-06-21T21:16:02Z</time></trkpt>
<trkpt lat="47.46985" lon="8.418698"><ele>597.0</ele><time>2016-06-21T21:16:04Z</time></trkpt>
<trkpt lat="47.469705" lon="8.418518"><ele>597.0</ele><time>2016-06-21T21:16:05Z</time></trkpt>
<trkpt lat="47.469635" lon="8.418303"><ele>596.0</ele><time>2016-06-21T21:16:06Z</time></trkpt>
<trkpt lat="47.469595" lon="8.417952"><ele>596.0</ele><time>2016-06-21T21:16:07Z</time></trkpt>
<trkpt lat="47.469542" lon="8.417265"><ele>596.0</ele><time>2016-06-21T21:16:11Z</time></trkpt>
<trkpt lat="47.469452" lon="8.416744"><ele>596.0</ele><time>2016-06-21T21:16:13Z</time></trkpt>
<trkpt lat="47.469302" lon="8.416255"><ele>596.0</ele><time>2016-06-21T21:16:15Z</time></trkpt>
<trkpt lat="47.469012" lon="8.41556"><ele>580.0</ele><time>2016-06-21T21:16:19Z</time></trkpt>
<trkpt lat="47.468236" lon="8.414226"><ele>569.0</ele><time>2016-06-21T21:16:27Z</time></trkpt>
<trkpt lat="47.467818" lon="8.413685"><ele>568.0</ele><time>2016-06-21T21:16:31Z</time></trkpt>
<trkpt lat="47.467687" lon="8.413447"><ele>568.0</ele><time>2016-06-21T21:16:32Z</time></trkpt>
<trkpt lat="47.467627" lon="8.41315"><ele>561.0</ele><time>2016-06-21T21:16:33Z</time></trkpt>
<trkpt lat="47.467657" lon="8.41287"><ele>561.0</ele><time>2016-06-21T21:16:35Z</time></trkpt>
<trkpt lat="47.467717" lon="8.412622"><ele>561.0</ele><time>2016-06-21T21:16:36Z</time></trkpt>
<trkpt lat="47.467802" lon="8.412441"><ele>553.0</ele><time>2016-06-21T21:16:37Z</time></trkpt>
<trkpt lat="47.468063" lon="8.412158"><ele>553.0</ele><time>2016-06-21T21:16:39Z</time></trkpt>
<trkpt lat="47.468237" lon="8.411926"><ele>553.0</ele><time>2016-06-21T21:16:41Z</time></trkpt>
<trkpt lat="47.468385" lon="8.411577"><ele>558.0</ele><time>2016-06-21T21:16:42Z</time></trkpt>
<trkpt lat="47.468463" lon="8.411317"><ele>558.0</ele><time>2016-06-21T21:16:44Z</time></trkpt>
<trkpt lat="47.468608" lon="8.410619"><ele>552.0</ele><time>2016-06-21T21:16:47Z</time></trkpt>
<trkpt lat="47.468618" lon="8.410555"><ele>549.5</ele><time>2016-06-21T21:16:47Z</time></trkpt>
<trkpt lat="47.468618" lon="8.410555"><ele>549.5</ele><time>2016-06-21T21:16:47Z</time></trkpt>
<trkpt lat="47.468782" lon="8.409523"><ele>547.0</ele><time>2016-06-21T21:16:54Z</time></trkpt>
<trkpt lat="47.468748" lon="8.40841"><ele>545.0</ele><time>2016-06-21T21:17:00Z</time></trkpt>
<trkpt lat="47.468753" lon="8.407721"><ele>541.0</ele><time>2016-06-21T21:17:04Z</time></trkpt>
<trkpt lat="47.468784" lon="8.407368"><ele>534.0</ele><time>2016-06-21T21:17:06Z</time></trkpt>
<trkpt lat="47.46886" lon="8.407124"><ele>534.0</ele><time>2016-06-21T21:17:08Z</time></trkpt>
<trkpt lat="47.469514" lon="8.405966"><ele>539.0</ele><time>2016-06-21T21:17:17Z</time></trkpt>
<trkpt lat="47.469616" lon="8.405705"><ele>533.0</ele><time>2016-06-21T21:17:19Z</time></trkpt>
<trkpt lat="47.469764" lon="8.40498"><ele>524.0</ele><time>2016-06-21T21:17:23Z</time></trkpt>
<trkpt lat="47.469859" lon="8.404374"><ele>524.0</ele><time>2016-06-21T21:17:27Z</time></trkpt>
<trkpt lat="47.469929" lon="8.404087"><ele>517.0</ele><time>2016-06-21T21:17:29Z</time></trkpt>
<trkpt lat="47.470087" lon="8.403598"><ele>520.0</ele><time>2016-06-21T21:17:32Z</time></trkpt>
<trkpt lat="47.470256" lon="8.403206"><ele>515.0</ele><time>2016-06-21T21:17:35Z</time></trkpt>
<trkpt lat="47.470436" lon="8.402734"><ele>515.0</ele><time>2016-06-21T21:17:38Z</time></trkpt>
<trkpt lat="47.470471" lon="8.40259"><ele>515.0</ele><time>2016-06-21T21:17:39Z</time></trkpt>
<trkpt lat="47.470451" lon="8.402437"><ele>513.0</ele><time>2016-06-21T21:17:39Z</time></trkpt>
<trkpt lat="47.470384" lon="8.402313"><ele>513.0</ele><time>2016-06-21T21:17:40Z</time></trkpt>
<trkpt lat="47.470272" lon="8.402221"><ele>513.0</ele><time>2016-06-21T21:17:41Z</time></trkpt>
<trkpt lat="47.469634" lon="8.401139"><ele>509.0</ele><time>2016-06-21T21:17:47Z</time></trkpt>
<trkpt lat="47.469524" lon="8.40083"><ele>507.0</ele><time>2016-06-21T21:17:49Z</time></trkpt>
<trkpt lat="47.46943" lon="8.400479"><ele>507.0</ele><time>2016-06-21T21:17:50Z</time></trkpt>
<trkpt lat="47.469362" lon="8.400021"><ele>507.0</ele><time>2016-06-21T21:17:53Z</time></trkpt>
<trkpt lat="47.469299" lon="8.39847"><ele>504.0</ele><time>2016-06-21T21:17:59Z</time></trkpt>
<trkpt lat="47.469066" lon="8.396881"><ele>505.0</ele><time>2016-06-21T21:18:07Z</time></trkpt>
<trkpt lat="47.469017" lon="8.396432"><ele>505.0</ele><time>2016-06-21T21:18:09Z</time></trkpt>
<trkpt lat="47.468921" lon="8.394098"><ele>490.0</ele><time>2016-06-21T21:18:19Z</time></trkpt>
<trkpt lat="47.468889" lon="8.39389"><ele>490.0</ele><time>2016-06-21T21:18:20Z</time></trkpt>
<trkpt lat="47.468798" lon="8.393527"><ele>490.0</ele><time>2016-06-21T21:18:22Z</time></trkpt>
<trkpt lat="47.46823" lon="8.391788"><ele>496.0</ele><time>2016-06-21T21:18:32Z</time></trkpt>
<trkpt lat="47.468124" lon="8.391542"><ele>490.0</ele><time>2016-06-21T21:18:33Z</time></trkpt>
<trkpt lat="47.468051" lon="8.391421"><ele>490.0</ele><time>2016-06-21T21:18:34Z</time></trkpt>
<trkpt lat="47.467661" lon="8.391024"><ele>490.0</ele><time>2016-06-21T21:18:38Z</time></trkpt>
<trkpt lat="47.46666" lon="8.390087"><ele>483.0</ele><time>2016-06-21T21:18:47Z</time></trkpt>
<trkpt lat="47.466505" lon="8.390021"><ele>483.0</ele><time>2016-06-21T21:18:48Z</time></trkpt>
<trkpt lat="47.466309" lon="8.390037"><ele>483.0</ele><time>2016-06-21T21:18:49Z</time></trkpt>
<trkpt lat="47.465727" lon="8.390336"><ele>470.0</ele><time>2016-06-21T21:18:54Z</time></trkpt>
<trkpt lat="47.465575" lon="8.390355"><ele>470.0</ele><time>2016-06-21T21:18:55Z</time></trkpt>
<trkpt lat="47.465442" lon="8.390325"><ele>470.0</ele><time>2016-06-21T21:18:56Z</time></trkpt>
<trkpt lat="47.464862" lon="8.389945"><ele>453.0</ele><time>2016-06-21T21:19:01Z</time></trkpt>
<trkpt lat="47.464634" lon="8.389883"><ele>453.0</ele><time>2016-06-21T21:19:03Z</time></trkpt>
<trkpt lat="47.464513" lon="8.389892"><ele>453.0</ele><time>2016-06-21T21:19:04Z</time></trkpt>
<trkpt lat="47.463844" lon="8.390082"><ele>458.0</ele><time>2016-06-21T21:19:09Z</time></trkpt>
<trkpt lat="47.463291" lon="8.390051"><ele>454.0</ele><time>2016-06-21T21:19:13Z</time></trkpt>
<trkpt lat="47.462138" lon="8.390138"><ele>448.0</ele><time>2016-06-21T21:19:22Z</time></trkpt>
<trkpt lat="47.461501" lon="8.390164"><ele>441.0</ele><time>2016-06-21T21:19:27Z</time></trkpt>
<trkpt lat="47.460803" lon="8.390165"><ele>436.0</ele><time>2016-06-21T21:19:32Z</time></trkpt>
<trkpt lat="47.460459" lon="8.390136"><ele>436.0</ele><time>2016-06-21T21:19:35Z</time></trkpt>
<trkpt lat="47.459965" lon="8.390068"><ele>437.0</ele><time>2016-06-21T21:19:39Z</time></trkpt>
<trkpt lat="47.459961" lon="8.390008"><ele>437.0</ele><time>2016-06-21T21:19:40Z</time></trkpt>
<trkpt lat="47.459914" lon="8.389909"><ele>438.0</ele><time>2016-06-21T21:19:41Z</time></trkpt>
<trkpt lat="47.45986" lon="8.38988"><ele>438.0</ele><time>2016-06-21T21:19:42Z</time></trkpt>
<trkpt lat="47.459861" lon="8.38953"><ele>438.0</ele><time>2016-06-21T21:19:45Z</time></trkpt>
<trkpt lat="47.459907" lon="8.388964"><ele>435.0</ele><time>2016-06-21T21:19:50Z</time></trkpt>
<trkpt lat="47.45993" lon="8.388278"><ele>435.0</ele><time>2016-06-21T21:19:56Z</time></trkpt>
<trkpt lat="47.45992" lon="8.387903"><ele>435.0</ele><time>2016-06-21T21:19:59Z</time></trkpt>
<trkpt lat="47.459894" lon="8.387602"><ele>435.0</ele><time>2016-06-21T21:20:02Z</time></trkpt>
<trkpt lat="47.459766" lon="8.386896"><ele>434.0</ele><time>2016-06-21T21:20:09Z</time></trkpt>
<trkpt lat="47.459815" lon="8.386857"><ele>434.0</ele><time>2016-06-21T21:20:09Z</time></trkpt>
<trkpt lat="47.459848" lon="8.386793"><ele>434.0</ele><time>2016-06-21T21:20:10Z</time></trkpt>
<trkpt lat="47.459861" lon="8.386708"><ele>434.0</ele><time>2016-06-21T21:20:10Z</time></trkpt>
<trkpt lat="47.459835" lon="8.386597"><ele>434.0</ele><time>2016-06-21T21:20:11Z</time></trkpt>
<trkpt lat="47.459792" lon="8.386543"><ele>434.0</ele><time>2016-06-21T21:20:11Z</time></trkpt>
<trkpt lat="47.459727" lon="8.38652"><ele>434.0</ele><time>2016-06-21T21:20:12Z</time></trkpt>
<trkpt lat="47.459656" lon="8.386556"><ele>434.0</ele><time>2016-06-21T21:20:12Z</time></trkpt>
<trkpt lat="47.459614" lon="8.386629"><ele>434.0</ele><time>2016-06-21T21:20:13Z</time></trkpt>
<trkpt lat="47.459601" lon="8.386715"><ele>434.0</ele><time>2016-06-21T21:20:14Z</time></trkpt>
<trkpt lat="47.458734" lon="8.386798"><ele>431.0</ele><time>2016-06-21T21:20:21Z</time></trkpt>
<trkpt lat="47.458592" lon="8.386777"><ele>431.0</ele><time>2016-06-21T21:20:22Z</time></trkpt>
<trkpt lat="47.458455" lon="8.386711"><ele>431.0</ele><time>2016-06-21T21:20:24Z</time></trkpt>
<trkpt lat="47.458317" lon="8.386608"><ele>432.0</ele><time>2016-06-21T21:20:25Z</time></trkpt>
<trkpt lat="47.45799" lon="8.386288"><ele>432.0</ele><time>2016-06-21T21:20:28Z</time></trkpt>
<trkpt lat="47.457798" lon="8.386295"><ele>432.0</ele><time>2016-06-21T21:20:30Z</time></trkpt>
<trkpt lat="47.457265" lon="8.38644"><ele>433.0</ele><time>2016-06-21T21:20:35Z</time></trkpt>
<trkpt lat="47.457027" lon="8.386429"><ele>433.0</ele><time>2016-06-21T21:20:37Z</time></trkpt>
<trkpt lat="47.456841" lon="8.386389"><ele>433.0</ele><time>2016-06-21T21:20:39Z</time></trkpt>
<trkpt lat="47.45638" lon="8.38624"><ele>427.0</ele><time>2016-06-21T21:20:43Z</time></trkpt>
<trkpt lat="47.455337" lon="8.385665"><ele>423.0</ele><time>2016-06-21T21:20:52Z</time></trkpt>
<trkpt lat="47.455256" lon="8.385622"><ele>423.0</ele><time>2016-06-21T21:20:53Z</time></trkpt>
<trkpt lat="47.455264" lon="8.385544"><ele>423.0</ele><time>2016-06-21T21:20:54Z</time></trkpt>
<trkpt lat="47.455254" lon="8.385502"><ele>423.0</ele><time>2016-06-21T21:20:54Z</time></trkpt>
<trkpt lat="47.455198" lon="8.385441"><ele>423.0</ele><time>2016-06-21T21:20:55Z</time></trkpt>
<trkpt lat="47.455162" lon="8.385441"><ele>423.0</ele><time>2016-06-21T21:20:55Z</time></trkpt>
<trkpt lat="47.455104" lon="8.385503"><ele>423.0</ele><time>2016-06-21T21:20:56Z</time></trkpt>
<trkpt lat="47.455095" lon="8.385539"><ele>423.0</ele><time>2016-06-21T21:20:56Z</time></trkpt>
<trkpt lat="47.454612" lon="8.385241"><ele>424.0</ele><time>2016-06-21T21:21:00Z</time></trkpt>
<trkpt lat="47.454238" lon="8.384949"><ele>424.0</ele><time>2016-06-21T21:21:04Z</time></trkpt>
<trkpt lat="47.454153" lon="8.384906"><ele>426.0</ele><time>2016-06-21T21:21:05Z</time></trkpt>
<trkpt lat="47.454076" lon="8.384914"><ele>426.0</ele><time>2016-06-21T21:21:06Z</time></trkpt>
<trkpt lat="47.453986" lon="8.384955"><ele>426.0</ele><time>2016-06-21T21:21:06Z</time></trkpt>
<trkpt lat="47.453895" lon="8.38501"><ele>426.0</ele><time>2016-06-21T21:21:07Z</time></trkpt>
<trkpt lat="47.453773" lon="8.384937"><ele>426.0</ele><time>2016-06-21T21:21:08Z</time></trkpt>
<trkpt lat="47.453728" lon="8.38487"><ele>426.0</ele><time>2016-06-21T21:21:09Z</time></trkpt>
<trkpt lat="47.453695" lon="8.384706"><ele>426.0</ele><time>2016-06-21T21:21:09Z</time></trkpt>
<trkpt lat="47.453658" lon="8.384301"><ele>426.0</ele><time>2016-06-21T21:21:11Z</time></trkpt>
<trkpt lat="47.453631" lon="8.38415"><ele>425.0</ele><time>2016-06-21T21:21:12Z</time></trkpt>
<trkpt lat="47.453261" lon="8.383137"><ele>426.0</ele><time>2016-06-21T21:21:17Z</time></trkpt>
<trkpt lat="47.45319" lon="8.382867"><ele>426.0</ele><time>2016-06-21T21:21:18Z</time></trkpt>
<trkpt lat="47.45306" lon="8.382235"><ele>427.0</ele><time>2016-06-21T21:21:21Z</time></trkpt>
<trkpt lat="47.452639" lon="8.380697"><ele>422.0</ele><time>2016-06-21T21:21:29Z</time></trkpt>
<trkpt lat="47.452369" lon="8.380275"><ele>422.0</ele><time>2016-06-21T21:21:31Z</time></trkpt>
<trkpt lat="47.451789" lon="8.379947"><ele>423.0</ele><time>2016-06-21T21:21:35Z</time></trkpt>
<trkpt lat="47.451378" lon="8.379554"><ele>421.0</ele><time>2016-06-21T21:21:39Z</time></trkpt>
<trkpt lat="47.450677" lon="8.379074"><ele>419.0</ele><time>2016-06-21T21:21:44Z</time></trkpt>
<trkpt lat="47.450349" lon="8.378772"><ele>419.0</ele><time>2016-06-21T21:21:46Z</time></trkpt>
<trkpt lat="47.450059" lon="8.378412"><ele>419.0</ele><time>2016-06-21T21:21:49Z</time></trkpt>
<trkpt lat="47.449493" lon="8.377512"><ele>418.0</ele><time>2016-06-21T21:21:54Z</time></trkpt>
<trkpt lat="47.449138" lon="8.376808"><ele>418.0</ele><time>2016-06-21T21:21:58Z</time></trkpt>
<trkpt lat="47.449043" lon="8.376693"><ele>418.0</ele><time>2016-06-21T21:21:59Z</time></trkpt>
<trkpt lat="47.448877" lon="8.376611"><ele>418.0</ele><time>2016-06-21T21:22:00Z</time></trkpt>
<trkpt lat="47.448276" lon="8.37667"><ele>418.0</ele><time>2016-06-21T21:22:04Z</time></trkpt>
<trkpt lat="47.447941" lon="8.376651"><ele>415.0</ele><time>2016-06-21T21:22:06Z</time></trkpt>
<trkpt lat="47.447533" lon="8.376513"><ele>415.0</ele><time>2016-06-21T21:22:09Z</time></trkpt>
<trkpt lat="47.447341" lon="8.376412"><ele>415.0</ele><time>2016-06-21T21:22:11Z</time></trkpt>
<trkpt lat="47.447251" lon="8.376295"><ele>415.0</ele><time>2016-06-21T21:22:11Z</time></trkpt>
<trkpt lat="47.447165" lon="8.376088"><ele>415.0</ele><time>2016-06-21T21:22:12Z</time></trkpt>
<trkpt lat="47.447034" lon="8.375675"><ele>414.0</ele><time>2016-06-21T21:22:15Z</time></trkpt>
<trkpt lat="47.446679" lon="8.374428"><ele>414.0</ele><time>2016-06-21T21:22:21Z</time></trkpt>
<trkpt lat="47.446546" lon="8.373892"><ele>416.0</ele><time>2016-06-21T21:22:23Z</time></trkpt>
<trkpt lat="47.446189" lon="8.371994"><ele>415.0</ele><time>2016-06-21T21:22:32Z</time></trkpt>
<trkpt lat="47.446142" lon="8.371907"><ele>415.0</ele><time>2016-06-21T21:22:32Z</time></trkpt>
<trkpt lat="47.446126" lon="8.371513"><ele>416.0</ele><time>2016-06-21T21:22:36Z</time></trkpt>
<trkpt lat="47.446022" lon="8.370616"><ele>418.0</ele><time>2016-06-21T21:22:44Z</time></trkpt>
<trkpt lat="47.445948" lon="8.370188"><ele>418.0</ele><time>2016-06-21T21:22:48Z</time></trkpt>
<trkpt lat="47.445799" lon="8.369488"><ele>418.0</ele><time>2016-06-21T21:22:54Z</time></trkpt>
<trkpt lat="47.445639" lon="8.36898"><ele>415.0</ele><time>2016-06-21T21:22:59Z</time></trkpt>
<trkpt lat="47.445521" lon="8.36869"><ele>415.0</ele><time>2016-06-21T21:23:02Z</time></trkpt>
<trkpt lat="47.445226" lon="8.368138"><ele>412.0</ele><time>2016-06-21T21:23:08Z</time></trkpt>
<trkpt lat="47.445135" lon="8.368004"><ele>412.0</ele><time>2016-06-21T21:23:10Z</time></trkpt>
<trkpt lat="47.444542" lon="8.367328"><ele>417.0</ele><time>2016-06-21T21:23:20Z</time></trkpt>
<trkpt lat="47.444142" lon="8.366906"><ele>423.0</ele><time>2016-06-21T21:23:26Z</time></trkpt>
<trkpt lat="47.442585" lon="8.365567"><ele>417.0</ele><time>2016-06-21T21:23:49Z</time></trkpt>
<trkpt lat="47.44202" lon="8.36482"><ele>416.0</ele><time>2016-06-21T21:23:59Z</time></trkpt>
<trkpt lat="47.441845" lon="8.364643"><ele>416.0</ele><time>2016-06-21T21:24:02Z</time></trkpt>
<trkpt lat="47.441756" lon="8.364566"><ele>416.0</ele><time>2016-06-21T21:24:03Z</time></trkpt>
<trkpt lat="47.441463" lon="8.364378"><ele>418.0</ele><time>2016-06-21T21:24:08Z</time></trkpt>
<trkpt lat="47.44127" lon="8.364286"><ele>418.0</ele><time>2016-06-21T21:24:10Z</time></trkpt>
<trkpt lat="47.441187" lon="8.36425"><ele>418.0</ele><time>2016-06-21T21:24:12Z</time></trkpt>
<trkpt lat="47.441192" lon="8.364203"><ele>418.0</ele><time>2016-06-21T21:24:12Z</time></trkpt>
<trkpt lat="47.441172" lon="8.364116"><ele>413.0</ele><time>2016-06-21T21:24:12Z</time></trkpt>
<trkpt lat="47.441149" lon="8.364084"><ele>413.0</ele><time>2016-06-21T21:24:12Z</time></trkpt>
<trkpt lat="47.441117" lon="8.364064"><ele>413.0</ele><time>2016-06-21T21:24:12Z</time></trkpt>
<trkpt lat="47.44105" lon="8.364079"><ele>413.0</ele><time>2016-06-21T21:24:13Z</time></trkpt>
<trkpt lat="47.441023" lon="8.364111"><ele>413.0</ele><time>2016-06-21T21:24:13Z</time></trkpt>
<trkpt lat="47.441" lon="8.364213"><ele>418.0</ele><time>2016-06-21T21:24:14Z</time></trkpt>
<trkpt lat="47.441038" lon="8.364316"><ele>418.0</ele><time>2016-06-21T21:24:14Z</time></trkpt>
<trkpt lat="47.440882" lon="8.364611"><ele>418.0</ele><time>2016-06-21T21:24:15Z</time></trkpt>
<trkpt lat="47.439944" lon="8.365825"><ele>419.0</ele><time>2016-06-21T21:24:22Z</time></trkpt>
<trkpt lat="47.439432" lon="8.366572"><ele>422.0</ele><time>2016-06-21T21:24:26Z</time></trkpt>
<trkpt lat="47.439206" lon="8.366972"><ele>423.0</ele><time>2016-06-21T21:24:28Z</time></trkpt>
<trkpt lat="47.438917" lon="8.36733"><ele>423.0</ele><time>2016-06-21T21:24:30Z</time></trkpt>
<trkpt lat="47.438762" lon="8.367492"><ele>423.0</ele><time>2016-06-21T21:24:31Z</time></trkpt>
<trkpt lat="47.438486" lon="8.367719"><ele>425.0</ele><time>2016-06-21T21:24:32Z</time></trkpt>
<trkpt lat="47.437754" lon="8.368043"><ele>427.0</ele><time>2016-06-21T21:24:36Z</time></trkpt>
<trkpt lat="47.437545" lon="8.368219"><ele>427.0</ele><time>2016-06-21T21:24:38Z</time></trkpt>
<trkpt lat="47.437455" lon="8.368338"><ele>431.0</ele><time>2016-06-21T21:24:38Z</time></trkpt>
<trkpt lat="47.437377" lon="8.368481"><ele>431.0</ele><time>2016-06-21T21:24:39Z</time></trkpt>
<trkpt lat="47.437289" lon="8.368796"><ele>431.0</ele><time>2016-06-21T21:24:40Z</time></trkpt>
<trkpt lat="47.43683" lon="8.371309"><ele>452.0</ele><time>2016-06-21T21:24:50Z</time></trkpt>
<trkpt lat="47.436319" lon="8.372854"><ele>441.0</ele><time>2016-06-21T21:24:56Z</time></trkpt>
<trkpt lat="47.436052" lon="8.373386"><ele>464.0</ele><time>2016-06-21T21:24:59Z</time></trkpt>
<trkpt lat="47.434407" lon="8.375969"><ele>438.0</ele><time>2016-06-21T21:25:12Z</time></trkpt>
<trkpt lat="47.434077" lon="8.376603"><ele>411.0</ele><time>2016-06-21T21:25:15Z</time></trkpt>
<trkpt lat="47.4334" lon="8.378286"><ele>426.0</ele><time>2016-06-21T21:25:22Z</time></trkpt>
<trkpt lat="47.433231" lon="8.37877"><ele>415.0</ele><time>2016-06-21T21:25:24Z</time></trkpt>
<trkpt lat="47.432999" lon="8.37957"><ele>420.0</ele><time>2016-06-21T21:25:27Z</time></trkpt>
<trkpt lat="47.43134" lon="8.387288"><ele>398.0</ele><time>2016-06-21T21:25:56Z</time></trkpt>
<trkpt lat="47.431177" lon="8.387976"><ele>399.0</ele><time>2016-06-21T21:25:59Z</time></trkpt>
<trkpt lat="47.430932" lon="8.38862"><ele>402.0</ele><time>2016-06-21T21:26:02Z</time></trkpt>
<trkpt lat="47.430734" lon="8.389113"><ele>392.0</ele><time>2016-06-21T21:26:04Z</time></trkpt>
<trkpt lat="47.430697" lon="8.389089"><ele>392.0</ele><time>2016-06-21T21:26:04Z</time></trkpt>
<trkpt lat="47.430617" lon="8.389099"><ele>392.0</ele><time>2016-06-21T21:26:05Z</time></trkpt>
<trkpt lat="47.430557" lon="8.389179"><ele>395.0</ele><time>2016-06-21T21:26:06Z</time></trkpt>
<trkpt lat="47.429761" lon="8.388454"><ele>387.0</ele><time>2016-06-21T21:26:13Z</time></trkpt>
<trkpt lat="47.429221" lon="8.388061"><ele>385.0</ele><time>2016-06-21T21:26:17Z</time></trkpt>
<trkpt lat="47.429004" lon="8.38796"><ele>380.0</ele><time>2016-06-21T21:26:19Z</time></trkpt>
<trkpt lat="47.42847" lon="8.387786"><ele>380.0</ele><time>2016-06-21T21:26:23Z</time></trkpt>
<trkpt lat="47.428244" lon="8.387748"><ele>380.0</ele><time>2016-06-21T21:26:25Z</time></trkpt>
<trkpt lat="47.427995" lon="8.387735"><ele>380.0</ele><time>2016-06-21T21:26:27Z</time></trkpt>
<trkpt lat="47.427678" lon="8.387755"><ele>380.0</ele><time>2016-06-21T21:26:30Z</time></trkpt>
<trkpt lat="47.427213" lon="8.387867"><ele>385.0</ele><time>2016-06-21T21:26:33Z</time></trkpt>
<trkpt lat="47.426744" lon="8.388064"><ele>385.0</ele><time>2016-06-21T21:26:37Z</time></trkpt>
<trkpt lat="47.42647" lon="8.388222"><ele>387.0</ele><time>2016-06-21T21:26:39Z</time></trkpt>
<trkpt lat="47.426037" lon="8.388561"><ele>384.0</ele><time>2016-06-21T21:26:43Z</time></trkpt>
<trkpt lat="47.425799" lon="8.388784"><ele>383.0</ele><time>2016-06-21T21:26:45Z</time></trkpt>
<trkpt lat="47.425209" lon="8.389437"><ele>381.0</ele><time>2016-06-21T21:26:51Z</time></trkpt>
<trkpt lat="47.424538" lon="8.390298"><ele>380.0</ele><time>2016-06-21T21:26:58Z</time></trkpt>
<trkpt lat="47.424327" lon="8.390491"><ele>380.0</ele><time>2016-06-21T21:27:00Z</time></trkpt>
<trkpt lat="47.423926" lon="8.390959"><ele>379.0</ele><time>2016-06-21T21:27:03Z</time></trkpt>
<trkpt lat="47.423401" lon="8.391484"><ele>379.0</ele><time>2016-06-21T21:27:08Z</time></trkpt>
<trkpt lat="47.423002" lon="8.391812"><ele>382.0</ele><time>2016-06-21T21:27:12Z</time></trkpt>
<trkpt lat="47.422612" lon="8.392064"><ele>382.0</ele><time>2016-06-21T21:27:15Z</time></trkpt>
<trkpt lat="47.422195" lon="8.392265"><ele>383.0</ele><time>2016-06-21T21:27:19Z</time></trkpt>
<trkpt lat="47.421795" lon="8.392347"><ele>383.0</ele><time>2016-06-21T21:27:22Z</time></trkpt>
<trkpt lat="47.42155" lon="8.392359"><ele>379.0</ele><time>2016-06-21T21:27:24Z</time></trkpt>
<trkpt lat="47.421246" lon="8.392336"><ele>379.0</ele><time>2016-06-21T21:27:26Z</time></trkpt>
<trkpt lat="47.421019" lon="8.392294"><ele>379.0</ele><time>2016-06-21T21:27:28Z</time></trkpt>
<trkpt lat="47.420727" lon="8.392197"><ele>380.0</ele><time>2016-06-21T21:27:30Z</time></trkpt>
<trkpt lat="47.420256" lon="8.391955"><ele>380.0</ele><time>2016-06-21T21:27:34Z</time></trkpt>
<trkpt lat="47.420056" lon="8.391815"><ele>380.0</ele><time>2016-06-21T21:27:36Z</time></trkpt>
<trkpt lat="47.419621" lon="8.391405"><ele>384.0</ele><time>2016-06-21T21:27:39Z</time></trkpt>
<trkpt lat="47.418753" lon="8.39046"><ele>384.0</ele><time>2016-06-21T21:27:48Z</time></trkpt>
<trkpt lat="47.414416" lon="8.385382"><ele>387.0</ele><time>2016-06-21T21:28:30Z</time></trkpt>
<trkpt lat="47.414277" lon="8.385309"><ele>387.0</ele><time>2016-06-21T21:28:32Z</time></trkpt>
<trkpt lat="47.41271" lon="8.383497"><ele>391.0</ele><time>2016-06-21T21:28:47Z</time></trkpt>
<trkpt lat="47.41259" lon="8.383355"><ele>391.0</ele><time>2016-06-21T21:28:48Z</time></trkpt>
<trkpt lat="47.409929" lon="8.389155"><ele>390.0</ele><time>2016-06-21T21:29:35Z</time></trkpt>
<trkpt lat="47.409865" lon="8.389293"><ele>389.0</ele><time>2016-06-21T21:29:36Z</time></trkpt>
<trkpt lat="47.409812" lon="8.389287"><ele>389.0</ele><time>2016-06-21T21:29:36Z</time></trkpt>
<trkpt lat="47.409518" lon="8.389918"><ele>389.0</ele><time>2016-06-21T21:29:41Z</time></trkpt>
<trkpt lat="47.409253" lon="8.390516"><ele>384.0</ele><time>2016-06-21T21:29:45Z</time></trkpt>
<trkpt lat="47.409128" lon="8.390925"><ele>385.0</ele><time>2016-06-21T21:29:48Z</time></trkpt>
<trkpt lat="47.409049" lon="8.391034"><ele>385.0</ele><time>2016-06-21T21:29:49Z</time></trkpt>
<trkpt lat="47.408933" lon="8.391101"><ele>385.0</ele><time>2016-06-21T21:29:51Z</time></trkpt>
<trkpt lat="47.408839" lon="8.391241"><ele>385.0</ele><time>2016-06-21T21:29:53Z</time></trkpt>
<trkpt lat="47.408244" lon="8.392522"><ele>390.0</ele><time>2016-06-21T21:30:07Z</time></trkpt>
<trkpt lat="47.406855" lon="8.395911"><ele>390.0</ele><time>2016-06-21T21:30:43Z</time></trkpt>
<trkpt lat="47.405848" lon="8.398219"><ele>388.0</ele><time>2016-06-21T21:31:08Z</time></trkpt>
<trkpt lat="47.405451" lon="8.399085"><ele>390.0</ele><time>2016-06-21T21:31:18Z</time></trkpt>
<trkpt lat="47.405389" lon="8.399345"><ele>390.0</ele><time>2016-06-21T21:31:20Z</time></trkpt>
<trkpt lat="47.405377" lon="8.399545"><ele>390.0</ele><time>2016-06-21T21:31:22Z</time></trkpt>
<trkpt lat="47.405398" lon="8.400157"><ele>390.0</ele><time>2016-06-21T21:31:28Z</time></trkpt>
<trkpt lat="47.405372" lon="8.40039"><ele>390.0</ele><time>2016-06-21T21:31:30Z</time></trkpt>
<trkpt lat="47.405353" lon="8.400477"><ele>390.0</ele><time>2016-06-21T21:31:31Z</time></trkpt>
<trkpt lat="47.405131" lon="8.401127"><ele>390.0</ele><time>2016-06-21T21:31:36Z</time></trkpt>
<trkpt lat="47.404541" lon="8.402739"><ele>393.0</ele><time>2016-06-21T21:31:50Z</time></trkpt>
<trkpt lat="47.404524" lon="8.402785"><ele>393.0</ele><time>2016-06-21T21:31:50Z</time></trkpt>
<trkpt lat="47.404389" lon="8.40311"><ele>393.0</ele><time>2016-06-21T21:31:53Z</time></trkpt>
<trkpt lat="47.404304" lon="8.403243"><ele>393.0</ele><time>2016-06-21T21:31:54Z</time></trkpt>
<trkpt lat="47.403867" lon="8.403731"><ele>393.0</ele><time>2016-06-21T21:32:00Z</time></trkpt>
<trkpt lat="47.403441" lon="8.404263"><ele>390.0</ele><time>2016-06-21T21:32:05Z</time></trkpt>
<trkpt lat="47.40193" lon="8.407114"><ele>387.0</ele><time>2016-06-21T21:32:30Z</time></trkpt>
<trkpt lat="47.401394" lon="8.408055"><ele>386.0</ele><time>2016-06-21T21:32:39Z</time></trkpt>
<trkpt lat="47.400889" lon="8.409074"><ele>386.0</ele><time>2016-06-21T21:32:48Z</time></trkpt>
<trkpt lat="47.400551" lon="8.409851"><ele>387.0</ele><time>2016-06-21T21:32:54Z</time></trkpt>
<trkpt lat="47.40025" lon="8.410603"><ele>386.0</ele><time>2016-06-21T21:33:00Z</time></trkpt>
<trkpt lat="47.400033" lon="8.411201"><ele>390.0</ele><time>2016-06-21T21:33:05Z</time></trkpt>
<trkpt lat="47.399803" lon="8.412057"><ele>389.0</ele><time>2016-06-21T21:33:11Z</time></trkpt>
<trkpt lat="47.399718" lon="8.412597"><ele>387.0</ele><time>2016-06-21T21:33:15Z</time></trkpt>
<trkpt lat="47.399656" lon="8.413093"><ele>387.0</ele><time>2016-06-21T21:33:18Z</time></trkpt>
<trkpt lat="47.399439" lon="8.415424"><ele>388.0</ele><time>2016-06-21T21:33:35Z</time></trkpt>
<trkpt lat="47.399143" lon="8.417497"><ele>388.0</ele><time>2016-06-21T21:33:49Z</time></trkpt>
<trkpt lat="47.39889" lon="8.418763"><ele>389.0</ele><time>2016-06-21T21:33:58Z</time></trkpt>
<trkpt lat="47.398712" lon="8.419386"><ele>389.0</ele><time>2016-06-21T21:34:03Z</time></trkpt>
<trkpt lat="47.398562" lon="8.419839"><ele>389.0</ele><time>2016-06-21T21:34:06Z</time></trkpt>
<trkpt lat="47.397619" lon="8.422347"><ele>391.0</ele><time>2016-06-21T21:34:26Z</time></trkpt>
<trkpt lat="47.397496" lon="8.42272"><ele>395.0</ele><time>2016-06-21T21:34:29Z</time></trkpt>
<trkpt lat="47.397399" lon="8.423121"><ele>395.0</ele><time>2016-06-21T21:34:32Z</time></trkpt>
<trkpt lat="47.39727" lon="8.423774"><ele>393.0</ele><time>2016-06-21T21:34:37Z</time></trkpt>
<trkpt lat="47.397236" lon="8.424175"><ele>394.0</ele><time>2016-06-21T21:34:40Z</time></trkpt>
<trkpt lat="47.397212" lon="8.424798"><ele>394.0</ele><time>2016-06-21T21:34:44Z</time></trkpt>
<trkpt lat="47.397192" lon="8.424944"><ele>394.0</ele><time>2016-06-21T21:34:45Z</time></trkpt>
<trkpt lat="47.397122" lon="8.425061"><ele>396.0</ele><time>2016-06-21T21:34:46Z</time></trkpt>
<trkpt lat="47.396999" lon="8.425171"><ele>396.0</ele><time>2016-06-21T21:34:47Z</time></trkpt>
<trkpt lat="47.395478" lon="8.420758"><ele>398.0</ele><time>2016-06-21T21:35:19Z</time></trkpt>
<trkpt lat="47.395407" lon="8.42044"><ele>398.0</ele><time>2016-06-21T21:35:21Z</time></trkpt>
<trkpt lat="47.395145" lon="8.419604"><ele>397.0</ele><time>2016-06-21T21:35:27Z</time></trkpt>
<trkpt lat="47.394477" lon="8.417612"><ele>400.0</ele><time>2016-06-21T21:35:41Z</time></trkpt>
<trkpt lat="47.394122" lon="8.416614"><ele>403.0</ele><time>2016-06-21T21:35:48Z</time></trkpt>
<trkpt lat="47.39399" lon="8.416134"><ele>403.0</ele><time>2016-06-21T21:35:51Z</time></trkpt>
<trkpt lat="47.393973" lon="8.416034"><ele>403.0</ele><time>2016-06-21T21:35:52Z</time></trkpt>
<trkpt lat="47.393881" lon="8.416069"><ele>403.0</ele><time>2016-06-21T21:35:55Z</time></trkpt>
<trkpt lat="47.393958" lon="8.416445"><ele>403.0</ele><time>2016-06-21T21:35:58Z</time></trkpt>
<trkpt lat="47.394194" lon="8.417141"><ele>403.0</ele><time>2016-06-21T21:36:05Z</time></trkpt>
<trkpt lat="47.394372" lon="8.417648"><ele>400.0</ele><time>2016-06-21T21:36:10Z</time></trkpt>
<trkpt lat="47.393592" lon="8.417917"><ele>402.0</ele><time>2016-06-21T21:36:21Z</time></trkpt>
<trkpt lat="47.39164" lon="8.418478"><ele>403.0</ele><time>2016-06-21T21:36:48Z</time></trkpt>
<trkpt lat="47.3915" lon="8.418498"><ele>403.0</ele><time>2016-06-21T21:36:50Z</time></trkpt>
<trkpt lat="47.391361" lon="8.418486"><ele>403.0</ele><time>2016-06-21T21:36:52Z</time></trkpt>
<trkpt lat="47.390968" lon="8.418404"><ele>403.0</ele><time>2016-06-21T21:36:57Z</time></trkpt>
<trkpt lat="47.390813" lon="8.418395"><ele>405.0</ele><time>2016-06-21T21:37:00Z</time></trkpt>
<trkpt lat="47.39053" lon="8.418454"><ele>405.0</ele><time>2016-06-21T21:37:04Z</time></trkpt>
<trkpt lat="47.39018" lon="8.418594"><ele>405.0</ele><time>2016-06-21T21:37:09Z</time></trkpt>
<trkpt lat="47.389526" lon="8.41891"><ele>407.0</ele><time>2016-06-21T21:37:18Z</time></trkpt>
<trkpt lat="47.387014" lon="8.420483"><ele>408.0</ele><time>2016-06-21T21:37:56Z</time></trkpt>
<trkpt lat="47.386477" lon="8.420795"><ele>406.0</ele><time>2016-06-21T21:38:04Z</time></trkpt>
<trkpt lat="47.386055" lon="8.420916"><ele>411.0</ele><time>2016-06-21T21:38:10Z</time></trkpt>
<trkpt lat="47.385745" lon="8.420976"><ele>410.0</ele><time>2016-06-21T21:38:14Z</time></trkpt>
<trkpt lat="47.385449" lon="8.421098"><ele>410.0</ele><time>2016-06-21T21:38:18Z</time></trkpt>
<trkpt lat="47.385358" lon="8.421139"><ele>410.0</ele><time>2016-06-21T21:38:20Z</time></trkpt>
<trkpt lat="47.385358" lon="8.421139"><ele>410.0</ele><time>2016-06-21T21:38:20Z</time></trkpt>
<trkpt lat="47.385137" lon="8.421239"><ele>410.0</ele><time>2016-06-21T21:38:22Z</time></trkpt>
<trkpt lat="47.384171" lon="8.421816"><ele>410.0</ele><time>2016-06-21T21:38:35Z</time></trkpt>
<trkpt lat="47.384079" lon="8.421852"><ele>411.0</ele><time>2016-06-21T21:38:36Z</time></trkpt>
<trkpt lat="47.384032" lon="8.421746"><ele>411.0</ele><time>2016-06-21T21:38:37Z</time></trkpt>
<trkpt lat="47.383945" lon="8.421727"><ele>411.0</ele><time>2016-06-21T21:38:38Z</time></trkpt>
<trkpt lat="47.383913" lon="8.42175"><ele>411.0</ele><time>2016-06-21T21:38:38Z</time></trkpt>
<trkpt lat="47.383871" lon="8.421838"><ele>411.0</ele><time>2016-06-21T21:38:39Z</time></trkpt>
<trkpt lat="47.383864" lon="8.421894"><ele>411.0</ele><time>2016-06-21T21:38:39Z</time></trkpt>
<trkpt lat="47.383383" lon="8.422073"><ele>411.0</ele><time>2016-06-21T21:38:44Z</time></trkpt>
<trkpt lat="47.382816" lon="8.422169"><ele>413.0</ele><time>2016-06-21T21:38:51Z</time></trkpt>
<trkpt lat="47.382479" lon="8.422252"><ele>415.0</ele><time>2016-06-21T21:38:54Z</time></trkpt>
<trkpt lat="47.38239" lon="8.422296"><ele>415.0</ele><time>2016-06-21T21:38:55Z</time></trkpt>
<trkpt lat="47.382047" lon="8.422553"><ele>414.0</ele><time>2016-06-21T21:39:00Z</time></trkpt>
<trkpt lat="47.381811" lon="8.422642"><ele>414.0</ele><time>2016-06-21T21:39:02Z</time></trkpt>
<trkpt lat="47.381232" lon="8.42278"><ele>418.0</ele><time>2016-06-21T21:39:09Z</time></trkpt>
<trkpt lat="47.380061" lon="8.423014"><ele>427.0</ele><time>2016-06-21T21:39:21Z</time></trkpt>
<trkpt lat="47.379667" lon="8.423078"><ele>430.0</ele><time>2016-06-21T21:39:26Z</time></trkpt>
<trkpt lat="47.379385" lon="8.423098"><ele>430.0</ele><time>2016-06-21T21:39:29Z</time></trkpt>
<trkpt lat="47.377963" lon="8.423072"><ele>440.0</ele><time>2016-06-21T21:39:44Z</time></trkpt>
<trkpt lat="47.37769" lon="8.423101"><ele>440.0</ele><time>2016-06-21T21:39:47Z</time></trkpt>
<trkpt lat="47.377489" lon="8.42317"><ele>440.0</ele><time>2016-06-21T21:39:49Z</time></trkpt>
<trkpt lat="47.375457" lon="8.424021"><ele>443.0</ele><time>2016-06-21T21:40:12Z</time></trkpt>
<trkpt lat="47.373847" lon="8.424435"><ele>447.0</ele><time>2016-06-21T21:40:30Z</time></trkpt>
<trkpt lat="47.373219" lon="8.424655"><ele>452.0</ele><time>2016-06-21T21:40:37Z</time></trkpt>
<trkpt lat="47.373239" lon="8.424766"><ele>452.0</ele><time>2016-06-21T21:40:39Z</time></trkpt>
<trkpt lat="47.373204" lon="8.424837"><ele>452.0</ele><time>2016-06-21T21:40:41Z</time></trkpt>
<trkpt lat="47.373078" lon="8.424833"><ele>452.0</ele><time>2016-06-21T21:40:44Z</time></trkpt>
<trkpt lat="47.372952" lon="8.424858"><ele>452.0</ele><time>2016-06-21T21:40:47Z</time></trkpt>
<trkpt lat="47.371818" lon="8.425404"><ele>446.0</ele><time>2016-06-21T21:41:17Z</time></trkpt>
<trkpt lat="47.370347" lon="8.425997"><ele>454.0</ele><time>2016-06-21T21:41:55Z</time></trkpt>
<trkpt lat="47.370075" lon="8.426157"><ele>454.0</ele><time>2016-06-21T21:42:03Z</time></trkpt>
<trkpt lat="47.36968" lon="8.426469"><ele>457.0</ele><time>2016-06-21T21:42:14Z</time></trkpt>
<trkpt lat="47.366961" lon="8.429285"><ele>477.0</ele><time>2016-06-21T21:43:37Z</time></trkpt>
<trkpt lat="47.36608" lon="8.430045"><ele>473.0</ele><time>2016-06-21T21:44:03Z</time></trkpt>
<trkpt lat="47.36603" lon="8.430179"><ele>473.0</ele><time>2016-06-21T21:44:05Z</time></trkpt>
<trkpt lat="47.365895" lon="8.430276"><ele>473.0</ele><time>2016-06-21T21:44:09Z</time></trkpt>
<trkpt lat="47.365787" lon="8.430232"><ele>473.0</ele><time>2016-06-21T21:44:12Z</time></trkpt>
<trkpt lat="47.365388" lon="8.430471"><ele>473.0</ele><time>2016-06-21T21:44:23Z</time></trkpt>
<trkpt lat="47.364754" lon="8.430783"><ele>473.0</ele><time>2016-06-21T21:44:40Z</time></trkpt>
<trkpt lat="47.364153" lon="8.431033"><ele>480.0</ele><time>2016-06-21T21:44:55Z</time></trkpt>
<trkpt lat="47.363542" lon="8.431236"><ele>480.0</ele><time>2016-06-21T21:45:11Z</time></trkpt>
<trkpt lat="47.363477" lon="8.431305"><ele>480.0</ele><time>2016-06-21T21:45:13Z</time></trkpt>
<trkpt lat="47.363454" lon="8.431404"><ele>480.0</ele><time>2016-06-21T21:45:15Z</time></trkpt>
<trkpt lat="47.363455" lon="8.432001"><ele>477.0</ele><time>2016-06-21T21:45:25Z</time></trkpt>
<trkpt lat="47.363424" lon="8.432286"><ele>477.0</ele><time>2016-06-21T21:45:30Z</time></trkpt>
<trkpt lat="47.363372" lon="8.432546"><ele>479.0</ele><time>2016-06-21T21:45:34Z</time></trkpt>
<trkpt lat="47.363146" lon="8.433176"><ele>481.0</ele><time>2016-06-21T21:45:47Z</time></trkpt>
<trkpt lat="47.363134" lon="8.433418"><ele>483.0</ele><time>2016-06-21T21:45:51Z</time></trkpt>
<trkpt lat="47.362961" lon="8.43326"><ele>481.0</ele><time>2016-06-21T21:45:56Z</time></trkpt>
<trkpt lat="47.362807" lon="8.433653"><ele>483.0</ele><time>2016-06-21T21:45:58Z</time></trkpt>
<trkpt lat="47.362685" lon="8.434083"><ele>483.0</ele><time>2016-06-21T21:46:01Z</time></trkpt>
<trkpt lat="47.362593" lon="8.43456"><ele>486.0</ele><time>2016-06-21T21:46:03Z</time></trkpt>
<trkpt lat="47.362561" lon="8.435027"><ele>487.0</ele><time>2016-06-21T21:46:05Z</time></trkpt>
<trkpt lat="47.362539" lon="8.435817"><ele>487.0</ele><time>2016-06-21T21:46:09Z</time></trkpt>
<trkpt lat="47.362491" lon="8.436457"><ele>503.0</ele><time>2016-06-21T21:46:12Z</time></trkpt>
<trkpt lat="47.362392" lon="8.437238"><ele>503.0</ele><time>2016-06-21T21:46:16Z</time></trkpt>
<trkpt lat="47.36225" lon="8.437848"><ele>502.0</ele><time>2016-06-21T21:46:19Z</time></trkpt>
<trkpt lat="47.36206" lon="8.438463"><ele>500.0</ele><time>2016-06-21T21:46:23Z</time></trkpt>
<trkpt lat="47.361869" lon="8.438955"><ele>500.0</ele><time>2016-06-21T21:46:25Z</time></trkpt>
<trkpt lat="47.361289" lon="8.440283"><ele>503.0</ele><time>2016-06-21T21:46:33Z</time></trkpt>
<trkpt lat="47.361052" lon="8.440954"><ele>506.0</ele><time>2016-06-21T21:46:37Z</time></trkpt>
<trkpt lat="47.360892" lon="8.441576"><ele>506.0</ele><time>2016-06-21T21:46:40Z</time></trkpt>
<trkpt lat="47.360773" lon="8.442239"><ele>517.0</ele><time>2016-06-21T21:46:44Z</time></trkpt>
<trkpt lat="47.360717" lon="8.44263"><ele>526.0</ele><time>2016-06-21T21:46:46Z</time></trkpt>
<trkpt lat="47.360647" lon="8.444663"><ele>533.0</ele><time>2016-06-21T21:46:55Z</time></trkpt>
<trkpt lat="47.360588" lon="8.445216"><ele>539.0</ele><time>2016-06-21T21:46:58Z</time></trkpt>
<trkpt lat="47.360471" lon="8.445865"><ele>542.0</ele><time>2016-06-21T21:47:02Z</time></trkpt>
<trkpt lat="47.360024" lon="8.447623"><ele>551.0</ele><time>2016-06-21T21:47:11Z</time></trkpt>
<trkpt lat="47.359938" lon="8.448086"><ele>544.0</ele><time>2016-06-21T21:47:13Z</time></trkpt>
<trkpt lat="47.359882" lon="8.448556"><ele>550.0</ele><time>2016-06-21T21:47:15Z</time></trkpt>
<trkpt lat="47.359859" lon="8.449011"><ele>550.0</ele><time>2016-06-21T21:47:18Z</time></trkpt>
<trkpt lat="47.3599" lon="8.450483"><ele>555.0</ele><time>2016-06-21T21:47:25Z</time></trkpt>
<trkpt lat="47.359862" lon="8.451119"><ele>555.0</ele><time>2016-06-21T21:47:28Z</time></trkpt>
<trkpt lat="47.359821" lon="8.451392"><ele>555.0</ele><time>2016-06-21T21:47:29Z</time></trkpt>
<trkpt lat="47.359722" lon="8.45189"><ele>557.0</ele><time>2016-06-21T21:47:32Z</time></trkpt>
<trkpt lat="47.359605" lon="8.451806"><ele>557.0</ele><time>2016-06-21T21:47:34Z</time></trkpt>
<trkpt lat="47.359383" lon="8.451192"><ele>555.0</ele><time>2016-06-21T21:47:40Z</time></trkpt>
<trkpt lat="47.359316" lon="8.451085"><ele>555.0</ele><time>2016-06-21T21:47:42Z</time></trkpt>
<trkpt lat="47.359236" lon="8.451008"><ele>555.0</ele><time>2016-06-21T21:47:42Z</time></trkpt>
<trkpt lat="47.358894" lon="8.450838"><ele>552.0</ele><time>2016-06-21T21:47:45Z</time></trkpt>
<trkpt lat="47.358682" lon="8.450705"><ele>547.0</ele><time>2016-06-21T21:47:46Z</time></trkpt>
<trkpt lat="47.35834" lon="8.450385"><ele>547.0</ele><time>2016-06-21T21:47:49Z</time></trkpt>
<trkpt lat="47.35813" lon="8.45028"><ele>539.0</ele><time>2016-06-21T21:47:50Z</time></trkpt>
<trkpt lat="47.357934" lon="8.450252"><ele>539.0</ele><time>2016-06-21T21:47:51Z</time></trkpt>
<trkpt lat="47.357442" lon="8.45029"><ele>532.0</ele><time>2016-06-21T21:47:55Z</time></trkpt>
<trkpt lat="47.357261" lon="8.450358"><ele>532.0</ele><time>2016-06-21T21:47:56Z</time></trkpt>
<trkpt lat="47.357108" lon="8.450515"><ele>532.0</ele><time>2016-06-21T21:47:57Z</time></trkpt>
<trkpt lat="47.356845" lon="8.450884"><ele>552.0</ele><time>2016-06-21T21:48:00Z</time></trkpt>
<trkpt lat="47.356394" lon="8.452008"><ele>545.0</ele><time>2016-06-21T21:48:05Z</time></trkpt>
<trkpt lat="47.35572" lon="8.453259"><ele>528.0</ele><time>2016-06-21T21:48:12Z</time></trkpt>
<trkpt lat="47.355575" lon="8.453803"><ele>537.0</ele><time>2016-06-21T21:48:15Z</time></trkpt>
<trkpt lat="47.355442" lon="8.45406"><ele>537.0</ele><time>2016-06-21T21:48:16Z</time></trkpt>
<trkpt lat="47.355251" lon="8.454311"><ele>549.0</ele><time>2016-06-21T21:48:18Z</time></trkpt>
<trkpt lat="47.355132" lon="8.454535"><ele>549.0</ele><time>2016-06-21T21:48:19Z</time></trkpt>
<trkpt lat="47.354023" lon="8.457552"><ele>528.0</ele><time>2016-06-21T21:48:35Z</time></trkpt>
<trkpt lat="47.353959" lon="8.457825"><ele>528.0</ele><time>2016-06-21T21:48:36Z</time></trkpt>
<trkpt lat="47.353936" lon="8.458124"><ele>528.0</ele><time>2016-06-21T21:48:37Z</time></trkpt>
<trkpt lat="47.353921" lon="8.458818"><ele>532.0</ele><time>2016-06-21T21:48:40Z</time></trkpt>
<trkpt lat="47.35394" lon="8.459608"><ele>529.0</ele><time>2016-06-21T21:48:44Z</time></trkpt>
<trkpt lat="47.353928" lon="8.459736"><ele>529.0</ele><time>2016-06-21T21:48:44Z</time></trkpt>
<trkpt lat="47.353904" lon="8.459833"><ele>529.0</ele><time>2016-06-21T21:48:45Z</time></trkpt>
<trkpt lat="47.353771" lon="8.460112"><ele>523.0</ele><time>2016-06-21T21:48:46Z</time></trkpt>
<trkpt lat="47.353743" lon="8.460236"><ele>523.0</ele><time>2016-06-21T21:48:47Z</time></trkpt>
<trkpt lat="47.353724" lon="8.460485"><ele>523.0</ele><time>2016-06-21T21:48:48Z</time></trkpt>
<trkpt lat="47.353541" lon="8.461255"><ele>513.0</ele><time>2016-06-21T21:48:51Z</time></trkpt>
<trkpt lat="47.353517" lon="8.461311"><ele>513.0</ele><time>2016-06-21T21:48:52Z</time></trkpt>
<trkpt lat="47.353454" lon="8.461371"><ele>513.0</ele><time>2016-06-21T21:48:52Z</time></trkpt>
<trkpt lat="47.353024" lon="8.461544"><ele>501.0</ele><time>2016-06-21T21:48:55Z</time></trkpt>
<trkpt lat="47.352827" lon="8.461601"><ele>501.0</ele><time>2016-06-21T21:48:56Z</time></trkpt>
<trkpt lat="47.35268" lon="8.461667"><ele>503.0</ele><time>2016-06-21T21:48:58Z</time></trkpt>
<trkpt lat="47.352495" lon="8.462447"><ele>494.0</ele><time>2016-06-21T21:49:02Z</time></trkpt>
<trkpt lat="47.352379" lon="8.462694"><ele>492.0</ele><time>2016-06-21T21:49:04Z</time></trkpt>
<trkpt lat="47.352086" lon="8.463"><ele>492.0</ele><time>2016-06-21T21:49:07Z</time></trkpt>
<trkpt lat="47.351994" lon="8.463157"><ele>492.0</ele><time>2016-06-21T21:49:08Z</time></trkpt>
<trkpt lat="47.351936" lon="8.463328"><ele>492.0</ele><time>2016-06-21T21:49:09Z</time></trkpt>
<trkpt lat="47.351482" lon="8.465457"><ele>492.0</ele><time>2016-06-21T21:49:21Z</time></trkpt>
<trkpt lat="47.351324" lon="8.465892"><ele>497.0</ele><time>2016-06-21T21:49:24Z</time></trkpt>
<trkpt lat="47.351289" lon="8.466187"><ele>497.0</ele><time>2016-06-21T21:49:25Z</time></trkpt>
<trkpt lat="47.351307" lon="8.466373"><ele>497.0</ele><time>2016-06-21T21:49:26Z</time></trkpt>
<trkpt lat="47.351618" lon="8.467472"><ele>502.0</ele><time>2016-06-21T21:49:33Z</time></trkpt>
<trkpt lat="47.351732" lon="8.468231"><ele>518.0</ele><time>2016-06-21T21:49:37Z</time></trkpt>
<trkpt lat="47.351753" lon="8.468823"><ele>531.0</ele><time>2016-06-21T21:49:40Z</time></trkpt>
<trkpt lat="47.35179" lon="8.469375"><ele>540.0</ele><time>2016-06-21T21:49:43Z</time></trkpt>
<trkpt lat="47.351779" lon="8.469761"><ele>540.0</ele><time>2016-06-21T21:49:45Z</time></trkpt>
<trkpt lat="47.351736" lon="8.470083"><ele>538.0</ele><time>2016-06-21T21:49:47Z</time></trkpt>
<trkpt lat="47.351589" lon="8.470565"><ele>516.0</ele><time>2016-06-21T21:49:50Z</time></trkpt>
<trkpt lat="47.351206" lon="8.471589"><ele>530.0</ele><time>2016-06-21T21:49:57Z</time></trkpt>
<trkpt lat="47.351061" lon="8.471818"><ele>537.0</ele><time>2016-06-21T21:49:59Z</time></trkpt>
<trkpt lat="47.350293" lon="8.47289"><ele>531.0</ele><time>2016-06-21T21:50:05Z</time></trkpt>
<trkpt lat="47.350189" lon="8.47306"><ele>531.0</ele><time>2016-06-21T21:50:06Z</time></trkpt>
<trkpt lat="47.349989" lon="8.473513"><ele>531.0</ele><time>2016-06-21T21:50:09Z</time></trkpt>
<trkpt lat="47.34976" lon="8.474402"><ele>536.0</ele><time>2016-06-21T21:50:13Z</time></trkpt>
<trkpt lat="47.349694" lon="8.474588"><ele>536.0</ele><time>2016-06-21T21:50:13Z</time></trkpt>
<trkpt lat="47.349607" lon="8.474782"><ele>536.0</ele><time>2016-06-21T21:50:14Z</time></trkpt>
<trkpt lat="47.349233" lon="8.475416"><ele>544.0</ele><time>2016-06-21T21:50:18Z</time></trkpt>
<trkpt lat="47.349216" lon="8.475513"><ele>544.0</ele><time>2016-06-21T21:50:18Z</time></trkpt>
<trkpt lat="47.349221" lon="8.475652"><ele>544.0</ele><time>2016-06-21T21:50:19Z</time></trkpt>
<trkpt lat="47.349193" lon="8.475676"><ele>544.0</ele><time>2016-06-21T21:50:20Z</time></trkpt>
<trkpt lat="47.34916" lon="8.475756"><ele>536.0</ele><time>2016-06-21T21:50:21Z</time></trkpt>
<trkpt lat="47.349176" lon="8.47587"><ele>549.0</ele><time>2016-06-21T21:50:22Z</time></trkpt>
<trkpt lat="47.349193" lon="8.475897"><ele>549.0</ele><time>2016-06-21T21:50:23Z</time></trkpt>
<trkpt lat="47.349107" lon="8.476092"><ele>543.0</ele><time>2016-06-21T21:50:24Z</time></trkpt>
<trkpt lat="47.348792" lon="8.476439"><ele>543.0</ele><time>2016-06-21T21:50:29Z</time></trkpt>
<trkpt lat="47.348095" lon="8.476998"><ele>540.0</ele><time>2016-06-21T21:50:38Z</time></trkpt>
<trkpt lat="47.347448" lon="8.477473"><ele>533.0</ele><time>2016-06-21T21:50:46Z</time></trkpt>
<trkpt lat="47.347124" lon="8.477711"><ele>540.0</ele><time>2016-06-21T21:50:51Z</time></trkpt>
<trkpt lat="47.347124" lon="8.477711"><ele>540.0</ele><time>2016-06-21T21:50:51Z</time></trkpt>
<trkpt lat="47.346174" lon="8.478411"><ele>547.0</ele><time>2016-06-21T21:51:02Z</time></trkpt>
<trkpt lat="47.345935" lon="8.478665"><ele>547.0</ele><time>2016-06-21T21:51:05Z</time></trkpt>
<trkpt lat="47.345639" lon="8.479149"><ele>542.0</ele><time>2016-06-21T21:51:10Z</time></trkpt>
<trkpt lat="47.34547" lon="8.479534"><ele>548.0</ele><time>2016-06-21T21:51:14Z</time></trkpt>
<trkpt lat="47.345105" lon="8.480166"><ele>554.0</ele><time>2016-06-21T21:51:20Z</time></trkpt>
<trkpt lat="47.34491" lon="8.480435"><ele>547.0</ele><time>2016-06-21T21:51:23Z</time></trkpt>
<trkpt lat="47.343918" lon="8.481457"><ele>545.0</ele><time>2016-06-21T21:51:36Z</time></trkpt>
<trkpt lat="47.343479" lon="8.481871"><ele>548.0</ele><time>2016-06-21T21:51:42Z</time></trkpt>
<trkpt lat="47.342721" lon="8.482683"><ele>549.0</ele><time>2016-06-21T21:51:52Z</time></trkpt>
<trkpt lat="47.342355" lon="8.482864"><ele>547.0</ele><time>2016-06-21T21:51:56Z</time></trkpt>
<trkpt lat="47.342171" lon="8.482927"><ele>547.0</ele><time>2016-06-21T21:51:58Z</time></trkpt>
<trkpt lat="47.341403" lon="8.483075"><ele>547.0</ele><time>2016-06-21T21:52:07Z</time></trkpt>
<trkpt lat="47.341214" lon="8.483157"><ele>547.0</ele><time>2016-06-21T21:52:09Z</time></trkpt>
<trkpt lat="47.339884" lon="8.484267"><ele>548.0</ele><time>2016-06-21T21:52:26Z</time></trkpt>
<trkpt lat="47.335804" lon="8.487826"><ele>548.0</ele><time>2016-06-21T21:53:17Z</time></trkpt>
<trkpt lat="47.335395" lon="8.488102"><ele>548.0</ele><time>2016-06-21T21:53:22Z</time></trkpt>
<trkpt lat="47.334905" lon="8.488298"><ele>545.0</ele><time>2016-06-21T21:53:28Z</time></trkpt>
<trkpt lat="47.333974" lon="8.488473"><ele>548.0</ele><time>2016-06-21T21:53:38Z</time></trkpt>
<trkpt lat="47.333533" lon="8.48853"><ele>548.0</ele><time>2016-06-21T21:53:43Z</time></trkpt>
<trkpt lat="47.33219" lon="8.488792"><ele>547.0</ele><time>2016-06-21T21:53:57Z</time></trkpt>
<trkpt lat="47.330777" lon="8.48912"><ele>545.0</ele><time>2016-06-21T21:54:13Z</time></trkpt>
<trkpt lat="47.330388" lon="8.489194"><ele>549.0</ele><time>2016-06-21T21:54:17Z</time></trkpt>
<trkpt lat="47.328642" lon="8.489388"><ele>549.0</ele><time>2016-06-21T21:54:36Z</time></trkpt>
<trkpt lat="47.328407" lon="8.489445"><ele>549.0</ele><time>2016-06-21T21:54:39Z</time></trkpt>
<trkpt lat="47.328137" lon="8.489548"><ele>547.0</ele><time>2016-06-21T21:54:42Z</time></trkpt>
<trkpt lat="47.327338" lon="8.489912"><ele>548.0</ele><time>2016-06-21T21:54:51Z</time></trkpt>
<trkpt lat="47.326822" lon="8.49"><ele>548.0</ele><time>2016-06-21T21:54:57Z</time></trkpt>
<trkpt lat="47.324946" lon="8.489963"><ele>547.0</ele><time>2016-06-21T21:55:17Z</time></trkpt>
<trkpt lat="47.323617" lon="8.490176"><ele>549.0</ele><time>2016-06-21T21:55:32Z</time></trkpt>
<trkpt lat="47.323107" lon="8.490207"><ele>549.0</ele><time>2016-06-21T21:55:37Z</time></trkpt>
<trkpt lat="47.322275" lon="8.490309"><ele>551.0</ele><time>2016-06-21T21:55:46Z</time></trkpt>
<trkpt lat="47.322009" lon="8.490342"><ele>551.0</ele><time>2016-06-21T21:55:50Z</time></trkpt>
<trkpt lat="47.322009" lon="8.490342"><ele>551.0</ele><time>2016-06-21T21:55:50Z</time></trkpt>
<trkpt lat="47.320219" lon="8.490554"><ele>554.0</ele><time>2016-06-21T21:56:06Z</time></trkpt>
<trkpt lat="47.319849" lon="8.490579"><ele>555.0</ele><time>2016-06-21T21:56:10Z</time></trkpt>
<trkpt lat="47.319649" lon="8.490555"><ele>555.0</ele><time>2016-06-21T21:56:11Z</time></trkpt>
<trkpt lat="47.319391" lon="8.490487"><ele>555.0</ele><time>2016-06-21T21:56:14Z</time></trkpt>
<trkpt lat="47.319072" lon="8.490361"><ele>556.0</ele><time>2016-06-21T21:56:17Z</time></trkpt>
<trkpt lat="47.31887" lon="8.490241"><ele>556.0</ele><time>2016-06-21T21:56:19Z</time></trkpt>
<trkpt lat="47.318136" lon="8.489699"><ele>555.0</ele><time>2016-06-21T21:56:26Z</time></trkpt>
<trkpt lat="47.318002" lon="8.489652"><ele>555.0</ele><time>2016-06-21T21:56:28Z</time></trkpt>
<trkpt lat="47.317869" lon="8.489649"><ele>555.0</ele><time>2016-06-21T21:56:29Z</time></trkpt>
<trkpt lat="47.317751" lon="8.489682"><ele>555.0</ele><time>2016-06-21T21:56:30Z</time></trkpt>
<trkpt lat="47.317643" lon="8.489752"><ele>555.0</ele><time>2016-06-21T21:56:31Z</time></trkpt>
<trkpt lat="47.317534" lon="8.489854"><ele>555.0</ele><time>2016-06-21T21:56:32Z</time></trkpt>
<trkpt lat="47.316787" lon="8.490818"><ele>570.0</ele><time>2016-06-21T21:56:41Z</time></trkpt>
<trkpt lat="47.316595" lon="8.490998"><ele>562.0</ele><time>2016-06-21T21:56:43Z</time></trkpt>
<trkpt lat="47.316203" lon="8.491264"><ele>562.0</ele><time>2016-06-21T21:56:47Z</time></trkpt>
<trkpt lat="47.312541" lon="8.493432"><ele>574.0</ele><time>2016-06-21T21:57:23Z</time></trkpt>
<trkpt lat="47.312187" lon="8.493568"><ele>570.0</ele><time>2016-06-21T21:57:27Z</time></trkpt>
<trkpt lat="47.31175" lon="8.493561"><ele>570.0</ele><time>2016-06-21T21:57:31Z</time></trkpt>
<trkpt lat="47.311462" lon="8.493466"><ele>570.0</ele><time>2016-06-21T21:57:33Z</time></trkpt>
<trkpt lat="47.311317" lon="8.493371"><ele>570.0</ele><time>2016-06-21T21:57:35Z</time></trkpt>
<trkpt lat="47.311143" lon="8.493195"><ele>568.0</ele><time>2016-06-21T21:57:37Z</time></trkpt>
<trkpt lat="47.311007" lon="8.493026"><ele>568.0</ele><time>2016-06-21T21:57:38Z</time></trkpt>
<trkpt lat="47.30904" lon="8.489971"><ele>565.0</ele><time>2016-06-21T21:58:04Z</time></trkpt>
<trkpt lat="47.308912" lon="8.489799"><ele>565.0</ele><time>2016-06-21T21:58:06Z</time></trkpt>
<trkpt lat="47.307187" lon="8.487772"><ele>570.0</ele><time>2016-06-21T21:58:26Z</time></trkpt>
<trkpt lat="47.307002" lon="8.487599"><ele>570.0</ele><time>2016-06-21T21:58:28Z</time></trkpt>
<trkpt lat="47.305536" lon="8.486615"><ele>571.0</ele><time>2016-06-21T21:58:42Z</time></trkpt>
<trkpt lat="47.305064" lon="8.486331"><ele>571.0</ele><time>2016-06-21T21:58:47Z</time></trkpt>
<trkpt lat="47.304641" lon="8.486126"><ele>571.0</ele><time>2016-06-21T21:58:51Z</time></trkpt>
<trkpt lat="47.304214" lon="8.485977"><ele>571.0</ele><time>2016-06-21T21:58:55Z</time></trkpt>
<trkpt lat="47.303581" lon="8.485835"><ele>573.0</ele><time>2016-06-21T21:59:01Z</time></trkpt>
<trkpt lat="47.303074" lon="8.485791"><ele>573.0</ele><time>2016-06-21T21:59:06Z</time></trkpt>
<trkpt lat="47.302571" lon="8.485802"><ele>573.0</ele><time>2016-06-21T21:59:10Z</time></trkpt>
<trkpt lat="47.30197" lon="8.485963"><ele>575.0</ele><time>2016-06-21T21:59:16Z</time></trkpt>
<trkpt lat="47.301549" lon="8.486135"><ele>580.0</ele><time>2016-06-21T21:59:20Z</time></trkpt>
<trkpt lat="47.300154" lon="8.487018"><ele>582.0</ele><time>2016-06-21T21:59:33Z</time></trkpt>
<trkpt lat="47.299854" lon="8.487158"><ele>581.0</ele><time>2016-06-21T21:59:36Z</time></trkpt>
<trkpt lat="47.299555" lon="8.487265"><ele>581.0</ele><time>2016-06-21T21:59:39Z</time></trkpt>
<trkpt lat="47.298918" lon="8.487375"><ele>590.0</ele><time>2016-06-21T21:59:45Z</time></trkpt>
<trkpt lat="47.298809" lon="8.4874"><ele>590.0</ele><time>2016-06-21T21:59:48Z</time></trkpt>
<trkpt lat="47.298824" lon="8.487603"><ele>583.0</ele><time>2016-06-21T21:59:49Z</time></trkpt>
<trkpt lat="47.298927" lon="8.488064"><ele>583.0</ele><time>2016-06-21T21:59:51Z</time></trkpt>
<trkpt lat="47.298967" lon="8.488496"><ele>584.0</ele><time>2016-06-21T21:59:53Z</time></trkpt>
<trkpt lat="47.298949" lon="8.488737"><ele>584.0</ele><time>2016-06-21T21:59:54Z</time></trkpt>
<trkpt lat="47.29875" lon="8.490163"><ele>591.0</ele><time>2016-06-21T22:00:00Z</time></trkpt>
<trkpt lat="47.29876" lon="8.49048"><ele>591.0</ele><time>2016-06-21T22:00:01Z</time></trkpt>
<trkpt lat="47.298804" lon="8.490661"><ele>591.0</ele><time>2016-06-21T22:00:02Z</time></trkpt>
<trkpt lat="47.298902" lon="8.490904"><ele>596.0</ele><time>2016-06-21T22:00:03Z</time></trkpt>
<trkpt lat="47.298997" lon="8.491077"><ele>596.0</ele><time>2016-06-21T22:00:04Z</time></trkpt>
<trkpt lat="47.299087" lon="8.491188"><ele>596.0</ele><time>2016-06-21T22:00:05Z</time></trkpt>
<trkpt lat="47.299182" lon="8.491264"><ele>609.0</ele><time>2016-06-21T22:00:06Z</time></trkpt>
<trkpt lat="47.299288" lon="8.491316"><ele>609.0</ele><time>2016-06-21T22:00:07Z</time></trkpt>
<trkpt lat="47.299495" lon="8.491349"><ele>609.0</ele><time>2016-06-21T22:00:08Z</time></trkpt>
<trkpt lat="47.299582" lon="8.491321"><ele>609.0</ele><time>2016-06-21T22:00:09Z</time></trkpt>
<trkpt lat="47.299743" lon="8.491201"><ele>609.0</ele><time>2016-06-21T22:00:10Z</time></trkpt>
<trkpt lat="47.300049" lon="8.490912"><ele>632.0</ele><time>2016-06-21T22:00:12Z</time></trkpt>
<trkpt lat="47.300401" lon="8.490664"><ele>608.0</ele><time>2016-06-21T22:00:15Z</time></trkpt>
<trkpt lat="47.301093" lon="8.49033"><ele>631.0</ele><time>2016-06-21T22:00:20Z</time></trkpt>
<trkpt lat="47.301528" lon="8.490035"><ele>631.0</ele><time>2016-06-21T22:00:23Z</time></trkpt>
<trkpt lat="47.302033" lon="8.489747"><ele>626.0</ele><time>2016-06-21T22:00:26Z</time></trkpt>
<trkpt lat="47.30208" lon="8.489728"><ele>626.0</ele><time>2016-06-21T22:00:27Z</time></trkpt>
<trkpt lat="47.30215" lon="8.489745"><ele>626.0</ele><time>2016-06-21T22:00:27Z</time></trkpt>
<trkpt lat="47.302182" lon="8.489851"><ele>626.0</ele><time>2016-06-21T22:00:27Z</time></trkpt>
<trkpt lat="47.302154" lon="8.48994"><ele>626.0</ele><time>2016-06-21T22:00:28Z</time></trkpt>
<trkpt lat="47.302116" lon="8.490001"><ele>653.0</ele><time>2016-06-21T22:00:29Z</time></trkpt>
<trkpt lat="47.301675" lon="8.490606"><ele>653.0</ele><time>2016-06-21T22:00:33Z</time></trkpt>
<trkpt lat="47.30156" lon="8.490786"><ele>631.0</ele><time>2016-06-21T22:00:35Z</time></trkpt>
<trkpt lat="47.301075" lon="8.491383"><ele>654.0</ele><time>2016-06-21T22:00:39Z</time></trkpt>
<trkpt lat="47.300491" lon="8.492313"><ele>654.0</ele><time>2016-06-21T22:00:44Z</time></trkpt>
<trkpt lat="47.300444" lon="8.492413"><ele>654.0</ele><time>2016-06-21T22:00:45Z</time></trkpt>
<trkpt lat="47.300409" lon="8.492619"><ele>674.0</ele><time>2016-06-21T22:00:46Z</time></trkpt>
<trkpt lat="47.300444" lon="8.492836"><ele>674.0</ele><time>2016-06-21T22:00:47Z</time></trkpt>
<trkpt lat="47.300573" lon="8.493114"><ele>674.0</ele><time>2016-06-21T22:00:49Z</time></trkpt>
<trkpt lat="47.300766" lon="8.493586"><ele>683.0</ele><time>2016-06-21T22:00:51Z</time></trkpt>
<trkpt lat="47.300803" lon="8.493709"><ele>683.0</ele><time>2016-06-21T22:00:52Z</time></trkpt>
<trkpt lat="47.300937" lon="8.494526"><ele>703.0</ele><time>2016-06-21T22:00:55Z</time></trkpt>
<trkpt lat="47.301006" lon="8.495241"><ele>701.0</ele><time>2016-06-21T22:00:58Z</time></trkpt>
<trkpt lat="47.301045" lon="8.496615"><ele>700.0</ele><time>2016-06-21T22:01:04Z</time></trkpt>
<trkpt lat="47.301093" lon="8.497146"><ele>701.0</ele><time>2016-06-21T22:01:07Z</time></trkpt>
<trkpt lat="47.301139" lon="8.497354"><ele>701.0</ele><time>2016-06-21T22:01:07Z</time></trkpt>
<trkpt lat="47.301253" lon="8.497635"><ele>704.0</ele><time>2016-06-21T22:01:09Z</time></trkpt>
<trkpt lat="47.301811" lon="8.498532"><ele>723.0</ele><time>2016-06-21T22:01:14Z</time></trkpt>
<trkpt lat="47.3019" lon="8.498755"><ele>723.0</ele><time>2016-06-21T22:01:15Z</time></trkpt>
<trkpt lat="47.301933" lon="8.498987"><ele>723.0</ele><time>2016-06-21T22:01:16Z</time></trkpt>
<trkpt lat="47.301907" lon="8.499375"><ele>720.0</ele><time>2016-06-21T22:01:18Z</time></trkpt>
<trkpt lat="47.301814" lon="8.499714"><ele>720.0</ele><time>2016-06-21T22:01:19Z</time></trkpt>
<trkpt lat="47.301691" lon="8.499959"><ele>720.0</ele><time>2016-06-21T22:01:21Z</time></trkpt>
<trkpt lat="47.301258" lon="8.500654"><ele>715.0</ele><time>2016-06-21T22:01:25Z</time></trkpt>
<trkpt lat="47.301079" lon="8.500859"><ele>724.0</ele><time>2016-06-21T22:01:26Z</time></trkpt>
<trkpt lat="47.300879" lon="8.501011"><ele>724.0</ele><time>2016-06-21T22:01:28Z</time></trkpt>
<trkpt lat="47.300578" lon="8.501137"><ele>722.0</ele><time>2016-06-21T22:01:30Z</time></trkpt>
<trkpt lat="47.299898" lon="8.501361"><ele>725.0</ele><time>2016-06-21T22:01:34Z</time></trkpt>
<trkpt lat="47.299666" lon="8.501485"><ele>725.0</ele><time>2016-06-21T22:01:36Z</time></trkpt>
<trkpt lat="47.299506" lon="8.501666"><ele>725.0</ele><time>2016-06-21T22:01:37Z</time></trkpt>
<trkpt lat="47.299442" lon="8.501795"><ele>736.0</ele><time>2016-06-21T22:01:38Z</time></trkpt>
<trkpt lat="47.299281" lon="8.502269"><ele>736.0</ele><time>2016-06-21T22:01:40Z</time></trkpt>
<trkpt lat="47.299198" lon="8.502398"><ele>736.0</ele><time>2016-06-21T22:01:41Z</time></trkpt>
<trkpt lat="47.298385" lon="8.503049"><ele>750.0</ele><time>2016-06-21T22:01:47Z</time></trkpt>
<trkpt lat="47.298206" lon="8.503223"><ele>752.0</ele><time>2016-06-21T22:01:48Z</time></trkpt>
<trkpt lat="47.298019" lon="8.503463"><ele>757.0</ele><time>2016-06-21T22:01:49Z</time></trkpt>
<trkpt lat="47.297842" lon="8.503799"><ele>757.0</ele><time>2016-06-21T22:01:51Z</time></trkpt>
<trkpt lat="47.296949" lon="8.50593"><ele>777.0</ele><time>2016-06-21T22:02:02Z</time></trkpt>
<trkpt lat="47.296416" lon="8.507288"><ele>779.0</ele><time>2016-06-21T22:02:09Z</time></trkpt>
<trkpt lat="47.29626" lon="8.507647"><ele>784.0</ele><time>2016-06-21T22:02:10Z</time></trkpt>
<trkpt lat="47.296163" lon="8.507797"><ele>784.0</ele><time>2016-06-21T22:02:11Z</time></trkpt>
<trkpt lat="47.296078" lon="8.507849"><ele>784.0</ele><time>2016-06-21T22:02:12Z</time></trkpt>
<trkpt lat="47.29603" lon="8.507859"><ele>784.0</ele><time>2016-06-21T22:02:12Z</time></trkpt>
<trkpt lat="47.295538" lon="8.507819"><ele>784.0</ele><time>2016-06-21T22:02:15Z</time></trkpt>
<trkpt lat="47.295387" lon="8.507889"><ele>784.0</ele><time>2016-06-21T22:02:16Z</time></trkpt>
<trkpt lat="47.295318" lon="8.507984"><ele>784.0</ele><time>2016-06-21T22:02:17Z</time></trkpt>
<trkpt lat="47.295245" lon="8.508249"><ele>784.0</ele><time>2016-06-21T22:02:18Z</time></trkpt>
<trkpt lat="47.295111" lon="8.509094"><ele>782.0</ele><time>2016-06-21T22:02:22Z</time></trkpt>
<trkpt lat="47.295063" lon="8.509276"><ele>775.0</ele><time>2016-06-21T22:02:23Z</time></trkpt>
<trkpt lat="47.294981" lon="8.509766"><ele>784.0</ele><time>2016-06-21T22:02:25Z</time></trkpt>
<trkpt lat="47.294841" lon="8.510055"><ele>780.0</ele><time>2016-06-21T22:02:26Z</time></trkpt>
<trkpt lat="47.294789" lon="8.510203"><ele>780.0</ele><time>2016-06-21T22:02:27Z</time></trkpt>
<trkpt lat="47.294703" lon="8.510744"><ele>780.0</ele><time>2016-06-21T22:02:29Z</time></trkpt>
<trkpt lat="47.294642" lon="8.510898"><ele>779.0</ele><time>2016-06-21T22:02:30Z</time></trkpt>
<trkpt lat="47.29458" lon="8.510944"><ele>779.0</ele><time>2016-06-21T22:02:31Z</time></trkpt>
<trkpt lat="47.294505" lon="8.510945"><ele>779.0</ele><time>2016-06-21T22:02:31Z</time></trkpt>
<trkpt lat="47.294279" lon="8.510853"><ele>779.0</ele><time>2016-06-21T22:02:33Z</time></trkpt>
<trkpt lat="47.293923" lon="8.510817"><ele>794.0</ele><time>2016-06-21T22:02:35Z</time></trkpt>
<trkpt lat="47.293785" lon="8.510783"><ele>794.0</ele><time>2016-06-21T22:02:36Z</time></trkpt>
<trkpt lat="47.2935" lon="8.510669"><ele>794.0</ele><time>2016-06-21T22:02:38Z</time></trkpt>
<trkpt lat="47.293419" lon="8.510688"><ele>794.0</ele><time>2016-06-21T22:02:38Z</time></trkpt>
<trkpt lat="47.293354" lon="8.510774"><ele>794.0</ele><time>2016-06-21T22:02:39Z</time></trkpt>
<trkpt lat="47.293212" lon="8.511138"><ele>784.0</ele><time>2016-06-21T22:02:41Z</time></trkpt>
<trkpt lat="47.293146" lon="8.511252"><ele>784.0</ele><time>2016-06-21T22:02:41Z</time></trkpt>
<trkpt lat="47.292702" lon="8.511794"><ele>775.0</ele><time>2016-06-21T22:02:45Z</time></trkpt>
<trkpt lat="47.292648" lon="8.511871"><ele>775.0</ele><time>2016-06-21T22:02:45Z</time></trkpt>
<trkpt lat="47.292582" lon="8.512037"><ele>775.0</ele><time>2016-06-21T22:02:46Z</time></trkpt>
<trkpt lat="47.292568" lon="8.512201"><ele>775.0</ele><time>2016-06-21T22:02:47Z</time></trkpt>
<trkpt lat="47.292605" lon="8.512357"><ele>775.0</ele><time>2016-06-21T22:02:48Z</time></trkpt>
<trkpt lat="47.292662" lon="8.512449"><ele>775.0</ele><time>2016-06-21T22:02:48Z</time></trkpt>
<trkpt lat="47.292749" lon="8.512516"><ele>765.0</ele><time>2016-06-21T22:02:49Z</time></trkpt>
<trkpt lat="47.292864" lon="8.512531"><ele>765.0</ele><time>2016-06-21T22:02:50Z</time></trkpt>
<trkpt lat="47.292926" lon="8.512517"><ele>765.0</ele><time>2016-06-21T22:02:50Z</time></trkpt>
<trkpt lat="47.293219" lon="8.512405"><ele>775.0</ele><time>2016-06-21T22:02:52Z</time></trkpt>
<trkpt lat="47.293588" lon="8.512393"><ele>786.0</ele><time>2016-06-21T22:02:54Z</time></trkpt>
<trkpt lat="47.294176" lon="8.512495"><ele>781.0</ele><time>2016-06-21T22:02:58Z</time></trkpt>
<trkpt lat="47.29425" lon="8.512569"><ele>756.0</ele><time>2016-06-21T22:03:00Z</time></trkpt>
<trkpt lat="47.294264" lon="8.512684"><ele>756.0</ele><time>2016-06-21T22:03:00Z</time></trkpt>
<trkpt lat="47.294234" lon="8.512747"><ele>756.0</ele><time>2016-06-21T22:03:01Z</time></trkpt>
<trkpt lat="47.293886" lon="8.51317"><ele>762.0</ele><time>2016-06-21T22:03:03Z</time></trkpt>
<trkpt lat="47.293821" lon="8.513282"><ele>762.0</ele><time>2016-06-21T22:03:04Z</time></trkpt>
<trkpt lat="47.293782" lon="8.513412"><ele>744.0</ele><time>2016-06-21T22:03:05Z</time></trkpt>
<trkpt lat="47.293767" lon="8.513563"><ele>744.0</ele><time>2016-06-21T22:03:06Z</time></trkpt>
<trkpt lat="47.293764" lon="8.51398"><ele>744.0</ele><time>2016-06-21T22:03:08Z</time></trkpt>
<trkpt lat="47.29372" lon="8.514264"><ele>735.0</ele><time>2016-06-21T22:03:09Z</time></trkpt>
<trkpt lat="47.293669" lon="8.514529"><ele>735.0</ele><time>2016-06-21T22:03:10Z</time></trkpt>
<trkpt lat="47.293629" lon="8.51467"><ele>735.0</ele><time>2016-06-21T22:03:11Z</time></trkpt>
<trkpt lat="47.293575" lon="8.514792"><ele>735.0</ele><time>2016-06-21T22:03:11Z</time></trkpt>
<trkpt lat="47.293455" lon="8.51496"><ele>735.0</ele><time>2016-06-21T22:03:12Z</time></trkpt>
<trkpt lat="47.292947" lon="8.515385"><ele>742.0</ele><time>2016-06-21T22:03:16Z</time></trkpt>
<trkpt lat="47.292826" lon="8.51546"><ele>742.0</ele><time>2016-06-21T22:03:17Z</time></trkpt>
<trkpt lat="47.292502" lon="8.515558"><ele>742.0</ele><time>2016-06-21T22:03:19Z</time></trkpt>
<trkpt lat="47.29234" lon="8.515676"><ele>755.0</ele><time>2016-06-21T22:03:20Z</time></trkpt>
<trkpt lat="47.292252" lon="8.515859"><ele>729.0</ele><time>2016-06-21T22:03:22Z</time></trkpt>
<trkpt lat="47.292242" lon="8.515936"><ele>729.0</ele><time>2016-06-21T22:03:22Z</time></trkpt>
<trkpt lat="47.292285" lon="8.516055"><ele>729.0</ele><time>2016-06-21T22:03:23Z</time></trkpt>
<trkpt lat="47.292316" lon="8.516076"><ele>729.0</ele><time>2016-06-21T22:03:23Z</time></trkpt>
<trkpt lat="47.292356" lon="8.516078"><ele>729.0</ele><time>2016-06-21T22:03:23Z</time></trkpt>
<trkpt lat="47.292536" lon="8.515912"><ele>711.0</ele><time>2016-06-21T22:03:25Z</time></trkpt>
<trkpt lat="47.292646" lon="8.515864"><ele>711.0</ele><time>2016-06-21T22:03:26Z</time></trkpt>
<trkpt lat="47.293288" lon="8.515852"><ele>711.0</ele><time>2016-06-21T22:03:30Z</time></trkpt>
<trkpt lat="47.293824" lon="8.516035"><ele>694.0</ele><time>2016-06-21T22:03:33Z</time></trkpt>
<trkpt lat="47.293871" lon="8.516032"><ele>694.0</ele><time>2016-06-21T22:03:34Z</time></trkpt>
<trkpt lat="47.293954" lon="8.515968"><ele>694.0</ele><time>2016-06-21T22:03:34Z</time></trkpt>
<trkpt lat="47.294134" lon="8.515677"><ele>720.0</ele><time>2016-06-21T22:03:36Z</time></trkpt>
<trkpt lat="47.294307" lon="8.515539"><ele>690.0</ele><time>2016-06-21T22:03:39Z</time></trkpt>
<trkpt lat="47.294464" lon="8.515365"><ele>690.0</ele><time>2016-06-21T22:03:40Z</time></trkpt>
<trkpt lat="47.294589" lon="8.515159"><ele>690.0</ele><time>2016-06-21T22:03:41Z</time></trkpt>
<trkpt lat="47.294629" lon="8.515126"><ele>690.0</ele><time>2016-06-21T22:03:41Z</time></trkpt>
<trkpt lat="47.295097" lon="8.515089"><ele>677.0</ele><time>2016-06-21T22:03:44Z</time></trkpt>
<trkpt lat="47.295327" lon="8.514978"><ele>679.0</ele><time>2016-06-21T22:03:46Z</time></trkpt>
<trkpt lat="47.295571" lon="8.515009"><ele>677.0</ele><time>2016-06-21T22:03:47Z</time></trkpt>
<trkpt lat="47.29573" lon="8.514993"><ele>679.0</ele><time>2016-06-21T22:03:48Z</time></trkpt>
<trkpt lat="47.295915" lon="8.514932"><ele>657.0</ele><time>2016-06-21T22:03:50Z</time></trkpt>
<trkpt lat="47.296051" lon="8.514857"><ele>657.0</ele><time>2016-06-21T22:03:51Z</time></trkpt>
<trkpt lat="47.296156" lon="8.514756"><ele>657.0</ele><time>2016-06-21T22:03:52Z</time></trkpt>
<trkpt lat="47.296246" lon="8.514625"><ele>657.0</ele><time>2016-06-21T22:03:53Z</time></trkpt>
<trkpt lat="47.296355" lon="8.514401"><ele>657.0</ele><time>2016-06-21T22:03:54Z</time></trkpt>
<trkpt lat="47.296413" lon="8.514369"><ele>657.0</ele><time>2016-06-21T22:03:54Z</time></trkpt>
<trkpt lat="47.296894" lon="8.51462"><ele>655.0</ele><time>2016-06-21T22:03:57Z</time></trkpt>
<trkpt lat="47.297496" lon="8.515025"><ele>640.0</ele><time>2016-06-21T22:04:02Z</time></trkpt>
<trkpt lat="47.297568" lon="8.515125"><ele>643.0</ele><time>2016-06-21T22:04:02Z</time></trkpt>
<trkpt lat="47.297572" lon="8.515189"><ele>643.0</ele><time>2016-06-21T22:04:02Z</time></trkpt>
<trkpt lat="47.297567" lon="8.51526"><ele>643.0</ele><time>2016-06-21T22:04:03Z</time></trkpt>
<trkpt lat="47.297509" lon="8.515321"><ele>643.0</ele><time>2016-06-21T22:04:03Z</time></trkpt>
<trkpt lat="47.297173" lon="8.515286"><ele>640.0</ele><time>2016-06-21T22:04:05Z</time></trkpt>
<trkpt lat="47.297072" lon="8.515345"><ele>640.0</ele><time>2016-06-21T22:04:06Z</time></trkpt>
<trkpt lat="47.296981" lon="8.515469"><ele>640.0</ele><time>2016-06-21T22:04:07Z</time></trkpt>
<trkpt lat="47.296954" lon="8.515631"><ele>640.0</ele><time>2016-06-21T22:04:07Z</time></trkpt>
<trkpt lat="47.296967" lon="8.516205"><ele>625.0</ele><time>2016-06-21T22:04:10Z</time></trkpt>
<trkpt lat="47.296936" lon="8.516331"><ele>625.0</ele><time>2016-06-21T22:04:11Z</time></trkpt>
<trkpt lat="47.296822" lon="8.516608"><ele>625.0</ele><time>2016-06-21T22:04:12Z</time></trkpt>
<trkpt lat="47.296797" lon="8.516765"><ele>616.0</ele><time>2016-06-21T22:04:13Z</time></trkpt>
<trkpt lat="47.296777" lon="8.517188"><ele>616.0</ele><time>2016-06-21T22:04:15Z</time></trkpt>
<trkpt lat="47.296734" lon="8.517298"><ele>616.0</ele><time>2016-06-21T22:04:15Z</time></trkpt>
<trkpt lat="47.296542" lon="8.517588"><ele>613.0</ele><time>2016-06-21T22:04:17Z</time></trkpt>
<trkpt lat="47.296462" lon="8.517661"><ele>613.0</ele><time>2016-06-21T22:04:17Z</time></trkpt>
<trkpt lat="47.29633" lon="8.517725"><ele>613.0</ele><time>2016-06-21T22:04:18Z</time></trkpt>
<trkpt lat="47.296148" lon="8.517749"><ele>613.0</ele><time>2016-06-21T22:04:19Z</time></trkpt>
<trkpt lat="47.296005" lon="8.517845"><ele>613.0</ele><time>2016-06-21T22:04:20Z</time></trkpt>
<trkpt lat="47.295617" lon="8.51857"><ele>604.0</ele><time>2016-06-21T22:04:24Z</time></trkpt>
<trkpt lat="47.295589" lon="8.518682"><ele>604.0</ele><time>2016-06-21T22:04:25Z</time></trkpt>
<trkpt lat="47.295588" lon="8.518757"><ele>604.0</ele><time>2016-06-21T22:04:25Z</time></trkpt>
<trkpt lat="47.295691" lon="8.51922"><ele>596.0</ele><time>2016-06-21T22:04:27Z</time></trkpt>
<trkpt lat="47.295721" lon="8.519521"><ele>596.0</ele><time>2016-06-21T22:04:29Z</time></trkpt>
<trkpt lat="47.295713" lon="8.519828"><ele>596.0</ele><time>2016-06-21T22:04:30Z</time></trkpt>
<trkpt lat="47.295644" lon="8.520076"><ele>585.0</ele><time>2016-06-21T22:04:31Z</time></trkpt>
<trkpt lat="47.295589" lon="8.52014"><ele>585.0</ele><time>2016-06-21T22:04:32Z</time></trkpt>
<trkpt lat="47.295517" lon="8.520152"><ele>585.0</ele><time>2016-06-21T22:04:32Z</time></trkpt>
<trkpt lat="47.29541" lon="8.520078"><ele>585.0</ele><time>2016-06-21T22:04:33Z</time></trkpt>
<trkpt lat="47.295174" lon="8.519814"><ele>596.0</ele><time>2016-06-21T22:04:35Z</time></trkpt>
<trkpt lat="47.295111" lon="8.519807"><ele>596.0</ele><time>2016-06-21T22:04:35Z</time></trkpt>
<trkpt lat="47.295055" lon="8.519839"><ele>596.0</ele><time>2016-06-21T22:04:36Z</time></trkpt>
<trkpt lat="47.295009" lon="8.519906"><ele>596.0</ele><time>2016-06-21T22:04:36Z</time></trkpt>
<trkpt lat="47.294764" lon="8.520711"><ele>591.0</ele><time>2016-06-21T22:04:40Z</time></trkpt>
<trkpt lat="47.294443" lon="8.521206"><ele>572.0</ele><time>2016-06-21T22:04:43Z</time></trkpt>
<trkpt lat="47.294335" lon="8.521322"><ele>572.0</ele><time>2016-06-21T22:04:44Z</time></trkpt>
<trkpt lat="47.294228" lon="8.521394"><ele>572.0</ele><time>2016-06-21T22:04:44Z</time></trkpt>
<trkpt lat="47.294" lon="8.521481"><ele>586.0</ele><time>2016-06-21T22:04:46Z</time></trkpt>
<trkpt lat="47.293915" lon="8.52156"><ele>586.0</ele><time>2016-06-21T22:04:47Z</time></trkpt>
<trkpt lat="47.293801" lon="8.521803"><ele>568.0</ele><time>2016-06-21T22:04:48Z</time></trkpt>
<trkpt lat="47.293689" lon="8.521955"><ele>568.0</ele><time>2016-06-21T22:04:49Z</time></trkpt>
<trkpt lat="47.293201" lon="8.522415"><ele>581.0</ele><time>2016-06-21T22:04:53Z</time></trkpt>
<trkpt lat="47.293046" lon="8.522614"><ele>558.0</ele><time>2016-06-21T22:04:55Z</time></trkpt>
<trkpt lat="47.292984" lon="8.522796"><ele>558.0</ele><time>2016-06-21T22:04:56Z</time></trkpt>
<trkpt lat="47.292964" lon="8.52298"><ele>558.0</ele><time>2016-06-21T22:04:56Z</time></trkpt>
<trkpt lat="47.292974" lon="8.523211"><ele>558.0</ele><time>2016-06-21T22:04:57Z</time></trkpt>
<trkpt lat="47.293082" lon="8.52372"><ele>547.0</ele><time>2016-06-21T22:05:00Z</time></trkpt>
<trkpt lat="47.293174" lon="8.524705"><ele>546.0</ele><time>2016-06-21T22:05:04Z</time></trkpt>
<trkpt lat="47.29316" lon="8.524828"><ele>546.0</ele><time>2016-06-21T22:05:05Z</time></trkpt>
<trkpt lat="47.293105" lon="8.525042"><ele>542.0</ele><time>2016-06-21T22:05:06Z</time></trkpt>
<trkpt lat="47.292828" lon="8.525622"><ele>542.0</ele><time>2016-06-21T22:05:09Z</time></trkpt>
<trkpt lat="47.292748" lon="8.525935"><ele>537.0</ele><time>2016-06-21T22:05:10Z</time></trkpt>
<trkpt lat="47.292717" lon="8.526116"><ele>537.0</ele><time>2016-06-21T22:05:11Z</time></trkpt>
<trkpt lat="47.292698" lon="8.526245"><ele>537.0</ele><time>2016-06-21T22:05:11Z</time></trkpt>
<trkpt lat="47.29269" lon="8.52647"><ele>537.0</ele><time>2016-06-21T22:05:12Z</time></trkpt>
<trkpt lat="47.292721" lon="8.52676"><ele>537.0</ele><time>2016-06-21T22:05:20Z</time></trkpt>
<trkpt lat="47.292399" lon="8.526964"><ele>535.0</ele><time>2016-06-21T22:05:21Z</time></trkpt>
<trkpt lat="47.291598" lon="8.527609"><ele>544.0</ele><time>2016-06-21T22:05:26Z</time></trkpt>
<trkpt lat="47.291319" lon="8.527821"><ele>548.0</ele><time>2016-06-21T22:05:28Z</time></trkpt>
<trkpt lat="47.291319" lon="8.527821"><ele>548.0</ele><time>2016-06-21T22:05:28Z</time></trkpt>
<trkpt lat="47.290365" lon="8.528562"><ele>551.0</ele><time>2016-06-21T22:05:33Z</time></trkpt>
<trkpt lat="47.290128" lon="8.528724"><ele>551.0</ele><time>2016-06-21T22:05:35Z</time></trkpt>
<trkpt lat="47.289856" lon="8.528867"><ele>555.0</ele><time>2016-06-21T22:05:36Z</time></trkpt>
<trkpt lat="47.289627" lon="8.528917"><ele>555.0</ele><time>2016-06-21T22:05:37Z</time></trkpt>
<trkpt lat="47.28932" lon="8.52888"><ele>555.0</ele><time>2016-06-21T22:05:39Z</time></trkpt>
<trkpt lat="47.288333" lon="8.528602"><ele>560.0</ele><time>2016-06-21T22:05:44Z</time></trkpt>
<trkpt lat="47.286773" lon="8.528083"><ele>568.0</ele><time>2016-06-21T22:05:52Z</time></trkpt>
<trkpt lat="47.285507" lon="8.527851"><ele>572.0</ele><time>2016-06-21T22:05:59Z</time></trkpt>
<trkpt lat="47.285196" lon="8.527843"><ele>572.0</ele><time>2016-06-21T22:06:01Z</time></trkpt>
<trkpt lat="47.285101" lon="8.527872"><ele>572.0</ele><time>2016-06-21T22:06:01Z</time></trkpt>
<trkpt lat="47.284771" lon="8.52805"><ele>581.0</ele><time>2016-06-21T22:06:03Z</time></trkpt>
<trkpt lat="47.284282" lon="8.528431"><ele>572.0</ele><time>2016-06-21T22:06:06Z</time></trkpt>
<trkpt lat="47.283734" lon="8.529049"><ele>584.0</ele><time>2016-06-21T22:06:09Z</time></trkpt>
<trkpt lat="47.28338" lon="8.5294"><ele>576.0</ele><time>2016-06-21T22:06:12Z</time></trkpt>
<trkpt lat="47.282978" lon="8.529691"><ele>595.0</ele><time>2016-06-21T22:06:14Z</time></trkpt>
<trkpt lat="47.282479" lon="8.529991"><ele>618.0</ele><time>2016-06-21T22:06:17Z</time></trkpt>
<trkpt lat="47.281799" lon="8.530565"><ele>605.0</ele><time>2016-06-21T22:06:21Z</time></trkpt>
<trkpt lat="47.281666" lon="8.530644"><ele>635.0</ele><time>2016-06-21T22:06:23Z</time></trkpt>
<trkpt lat="47.281395" lon="8.530707"><ele>635.0</ele><time>2016-06-21T22:06:24Z</time></trkpt>
<trkpt lat="47.280547" lon="8.530618"><ele>645.0</ele><time>2016-06-21T22:06:29Z</time></trkpt>
<trkpt lat="47.279998" lon="8.530794"><ele>647.0</ele><time>2016-06-21T22:06:32Z</time></trkpt>
<trkpt lat="47.279855" lon="8.530819"><ele>647.0</ele><time>2016-06-21T22:06:32Z</time></trkpt>
<trkpt lat="47.279655" lon="8.53082"><ele>647.0</ele><time>2016-06-21T22:06:33Z</time></trkpt>
<trkpt lat="47.279608" lon="8.530793"><ele>647.0</ele><time>2016-06-21T22:06:34Z</time></trkpt>
<trkpt lat="47.279554" lon="8.530666"><ele>647.0</ele><time>2016-06-21T22:06:34Z</time></trkpt>
<trkpt lat="47.279557" lon="8.530591"><ele>647.0</ele><time>2016-06-21T22:06:34Z</time></trkpt>
<trkpt lat="47.27958" lon="8.530521"><ele>647.0</ele><time>2016-06-21T22:06:35Z</time></trkpt>
<trkpt lat="47.27962" lon="8.530468"><ele>647.0</ele><time>2016-06-21T22:06:35Z</time></trkpt>
<trkpt lat="47.280051" lon="8.530311"><ele>645.0</ele><time>2016-06-21T22:06:37Z</time></trkpt>
<trkpt lat="47.280561" lon="8.530086"><ele>645.0</ele><time>2016-06-21T22:06:40Z</time></trkpt>
<trkpt lat="47.280835" lon="8.529868"><ele>659.0</ele><time>2016-06-21T22:06:42Z</time></trkpt>
<trkpt lat="47.281049" lon="8.529637"><ele>659.0</ele><time>2016-06-21T22:06:43Z</time></trkpt>
<trkpt lat="47.281784" lon="8.528458"><ele>630.0</ele><time>2016-06-21T22:06:49Z</time></trkpt>
<trkpt lat="47.281896" lon="8.528238"><ele>652.0</ele><time>2016-06-21T22:06:50Z</time></trkpt>
<trkpt lat="47.281952" lon="8.528067"><ele>652.0</ele><time>2016-06-21T22:06:51Z</time></trkpt>
<trkpt lat="47.281954" lon="8.527905"><ele>652.0</ele><time>2016-06-21T22:06:52Z</time></trkpt>
<trkpt lat="47.281891" lon="8.527775"><ele>652.0</ele><time>2016-06-21T22:06:52Z</time></trkpt>
<trkpt lat="47.281789" lon="8.527723"><ele>652.0</ele><time>2016-06-21T22:06:53Z</time></trkpt>
<trkpt lat="47.281685" lon="8.527764"><ele>652.0</ele><time>2016-06-21T22:06:53Z</time></trkpt>
<trkpt lat="47.281475" lon="8.528049"><ele>684.0</ele><time>2016-06-21T22:06:55Z</time></trkpt>
<trkpt lat="47.281237" lon="8.528309"><ele>684.0</ele><time>2016-06-21T22:06:57Z</time></trkpt>
<trkpt lat="47.280922" lon="8.528614"><ele>669.0</ele><time>2016-06-21T22:06:59Z</time></trkpt>
<trkpt lat="47.280614" lon="8.528839"><ele>691.0</ele><time>2016-06-21T22:07:01Z</time></trkpt>
<trkpt lat="47.280456" lon="8.528877"><ele>691.0</ele><time>2016-06-21T22:07:02Z</time></trkpt>
<trkpt lat="47.280117" lon="8.528854"><ele>691.0</ele><time>2016-06-21T22:07:04Z</time></trkpt>
<trkpt lat="47.279575" lon="8.528715"><ele>697.0</ele><time>2016-06-21T22:07:06Z</time></trkpt>
<trkpt lat="47.278668" lon="8.528963"><ele>705.0</ele><time>2016-06-21T22:07:11Z</time></trkpt>
<trkpt lat="47.278222" lon="8.529002"><ele>723.0</ele><time>2016-06-21T22:07:14Z</time></trkpt>
<trkpt lat="47.278115" lon="8.529054"><ele>723.0</ele><time>2016-06-21T22:07:14Z</time></trkpt>
<trkpt lat="47.27797" lon="8.529195"><ele>705.0</ele><time>2016-06-21T22:07:15Z</time></trkpt>
<trkpt lat="47.277718" lon="8.529595"><ele>705.0</ele><time>2016-06-21T22:07:17Z</time></trkpt>
<trkpt lat="47.277598" lon="8.529729"><ele>705.0</ele><time>2016-06-21T22:07:18Z</time></trkpt>
<trkpt lat="47.276858" lon="8.530024"><ele>704.0</ele><time>2016-06-21T22:07:22Z</time></trkpt>
<trkpt lat="47.276743" lon="8.530026"><ele>704.0</ele><time>2016-06-21T22:07:23Z</time></trkpt>
<trkpt lat="47.276233" lon="8.529795"><ele>726.0</ele><time>2016-06-21T22:07:26Z</time></trkpt>
<trkpt lat="47.275929" lon="8.529733"><ele>726.0</ele><time>2016-06-21T22:07:27Z</time></trkpt>
<trkpt lat="47.275667" lon="8.529733"><ele>723.0</ele><time>2016-06-21T22:07:29Z</time></trkpt>
<trkpt lat="47.27529" lon="8.529817"><ele>723.0</ele><time>2016-06-21T22:07:31Z</time></trkpt>
<trkpt lat="47.275191" lon="8.529795"><ele>723.0</ele><time>2016-06-21T22:07:31Z</time></trkpt>
<trkpt lat="47.275122" lon="8.529709"><ele>723.0</ele><time>2016-06-21T22:07:32Z</time></trkpt>
<trkpt lat="47.275089" lon="8.529563"><ele>723.0</ele><time>2016-06-21T22:07:32Z</time></trkpt>
<trkpt lat="47.275099" lon="8.529486"><ele>723.0</ele><time>2016-06-21T22:07:32Z</time></trkpt>
<trkpt lat="47.275161" lon="8.529357"><ele>723.0</ele><time>2016-06-21T22:07:33Z</time></trkpt>
<trkpt lat="47.275313" lon="8.529212"><ele>723.0</ele><time>2016-06-21T22:07:34Z</time></trkpt>
<trkpt lat="47.275819" lon="8.528846"><ele>729.0</ele><time>2016-06-21T22:07:37Z</time></trkpt>
<trkpt lat="47.276086" lon="8.528587"><ele>728.0</ele><time>2016-06-21T22:07:38Z</time></trkpt>
<trkpt lat="47.276198" lon="8.528419"><ele>728.0</ele><time>2016-06-21T22:07:39Z</time></trkpt>
<trkpt lat="47.276236" lon="8.528313"><ele>730.0</ele><time>2016-06-21T22:07:40Z</time></trkpt>
<trkpt lat="47.276253" lon="8.528198"><ele>730.0</ele><time>2016-06-21T22:07:40Z</time></trkpt>
<trkpt lat="47.276248" lon="8.528096"><ele>730.0</ele><time>2016-06-21T22:07:40Z</time></trkpt>
<trkpt lat="47.276191" lon="8.527916"><ele>730.0</ele><time>2016-06-21T22:07:41Z</time></trkpt>
<trkpt lat="47.276081" lon="8.527809"><ele>730.0</ele><time>2016-06-21T22:07:42Z</time></trkpt>
<trkpt lat="47.275942" lon="8.527775"><ele>730.0</ele><time>2016-06-21T22:07:43Z</time></trkpt>
<trkpt lat="47.275524" lon="8.527776"><ele>736.0</ele><time>2016-06-21T22:07:45Z</time></trkpt>
<trkpt lat="47.275459" lon="8.527737"><ele>736.0</ele><time>2016-06-21T22:07:45Z</time></trkpt>
<trkpt lat="47.275404" lon="8.527659"><ele>736.0</ele><time>2016-06-21T22:07:46Z</time></trkpt>
<trkpt lat="47.275368" lon="8.527561"><ele>736.0</ele><time>2016-06-21T22:07:46Z</time></trkpt>
<trkpt lat="47.275353" lon="8.527444"><ele>742.0</ele><time>2016-06-21T22:07:46Z</time></trkpt>
<trkpt lat="47.275377" lon="8.527118"><ele>742.0</ele><time>2016-06-21T22:07:48Z</time></trkpt>
<trkpt lat="47.275418" lon="8.526909"><ele>742.0</ele><time>2016-06-21T22:07:48Z</time></trkpt>
<trkpt lat="47.275577" lon="8.526399"><ele>754.0</ele><time>2016-06-21T22:07:50Z</time></trkpt>
<trkpt lat="47.27574" lon="8.526017"><ele>754.0</ele><time>2016-06-21T22:07:52Z</time></trkpt>
<trkpt lat="47.275884" lon="8.525743"><ele>752.0</ele><time>2016-06-21T22:07:53Z</time></trkpt>
<trkpt lat="47.276235" lon="8.525234"><ele>752.0</ele><time>2016-06-21T22:07:56Z</time></trkpt>
<trkpt lat="47.276443" lon="8.524861"><ele>761.0</ele><time>2016-06-21T22:07:57Z</time></trkpt>
<trkpt lat="47.276537" lon="8.524607"><ele>761.0</ele><time>2016-06-21T22:07:58Z</time></trkpt>
<trkpt lat="47.276571" lon="8.524457"><ele>761.0</ele><time>2016-06-21T22:07:59Z</time></trkpt>
<trkpt lat="47.276663" lon="8.523892"><ele>774.0</ele><time>2016-06-21T22:08:01Z</time></trkpt>
<trkpt lat="47.276704" lon="8.523771"><ele>764.0</ele><time>2016-06-21T22:08:02Z</time></trkpt>
<trkpt lat="47.2768" lon="8.523575"><ele>764.0</ele><time>2016-06-21T22:08:03Z</time></trkpt>
<trkpt lat="47.276933" lon="8.52338"><ele>764.0</ele><time>2016-06-21T22:08:04Z</time></trkpt>
<trkpt lat="47.277111" lon="8.523185"><ele>776.0</ele><time>2016-06-21T22:08:05Z</time></trkpt>
<trkpt lat="47.277317" lon="8.523026"><ele>776.0</ele><time>2016-06-21T22:08:06Z</time></trkpt>
<trkpt lat="47.277684" lon="8.522829"><ele>762.0</ele><time>2016-06-21T22:08:08Z</time></trkpt>
<trkpt lat="47.277763" lon="8.522726"><ele>762.0</ele><time>2016-06-21T22:08:09Z</time></trkpt>
<trkpt lat="47.277785" lon="8.522661"><ele>762.0</ele><time>2016-06-21T22:08:09Z</time></trkpt>
<trkpt lat="47.277787" lon="8.522582"><ele>762.0</ele><time>2016-06-21T22:08:09Z</time></trkpt>
<trkpt lat="47.277772" lon="8.522511"><ele>762.0</ele><time>2016-06-21T22:08:10Z</time></trkpt>
<trkpt lat="47.277738" lon="8.522456"><ele>779.0</ele><time>2016-06-21T22:08:10Z</time></trkpt>
<trkpt lat="47.277642" lon="8.522421"><ele>779.0</ele><time>2016-06-21T22:08:11Z</time></trkpt>
<trkpt lat="47.276974" lon="8.522668"><ele>776.0</ele><time>2016-06-21T22:08:14Z</time></trkpt>
<trkpt lat="47.276894" lon="8.522683"><ele>776.0</ele><time>2016-06-21T22:08:15Z</time></trkpt>
<trkpt lat="47.276736" lon="8.522662"><ele>776.0</ele><time>2016-06-21T22:08:16Z</time></trkpt>
<trkpt lat="47.276641" lon="8.52262"><ele>784.0</ele><time>2016-06-21T22:08:16Z</time></trkpt>
<trkpt lat="47.276487" lon="8.522474"><ele>788.0</ele><time>2016-06-21T22:08:17Z</time></trkpt>
<trkpt lat="47.276436" lon="8.522398"><ele>788.0</ele><time>2016-06-21T22:08:18Z</time></trkpt>
<trkpt lat="47.276154" lon="8.521881"><ele>788.0</ele><time>2016-06-21T22:08:20Z</time></trkpt>
<trkpt lat="47.276026" lon="8.521533"><ele>792.0</ele><time>2016-06-21T22:08:21Z</time></trkpt>
<trkpt lat="47.27601" lon="8.521422"><ele>792.0</ele><time>2016-06-21T22:08:26Z</time></trkpt>
<trkpt lat="47.276002" lon="8.521145"><ele>792.0</ele><time>2016-06-21T22:08:28Z</time></trkpt>
<trkpt lat="47.276052" lon="8.520876"><ele>792.0</ele><time>2016-06-21T22:08:31Z</time></trkpt>
<trkpt lat="47.276099" lon="8.5207"><ele>793.0</ele><time>2016-06-21T22:08:32Z</time></trkpt>
<trkpt lat="47.276198" lon="8.520412"><ele>793.0</ele><time>2016-06-21T22:08:34Z</time></trkpt>
<trkpt lat="47.276273" lon="8.520099"><ele>793.0</ele><time>2016-06-21T22:08:35Z</time></trkpt>
<trkpt lat="47.276281" lon="8.519823"><ele>795.0</ele><time>2016-06-21T22:08:37Z</time></trkpt>
<trkpt lat="47.276267" lon="8.519682"><ele>795.0</ele><time>2016-06-21T22:08:37Z</time></trkpt>
<trkpt lat="47.276189" lon="8.519338"><ele>795.0</ele><time>2016-06-21T22:08:39Z</time></trkpt>
<trkpt lat="47.276122" lon="8.519146"><ele>793.0</ele><time>2016-06-21T22:08:40Z</time></trkpt>
<trkpt lat="47.27598" lon="8.518844"><ele>793.0</ele><time>2016-06-21T22:08:42Z</time></trkpt>
<trkpt lat="47.275819" lon="8.518604"><ele>780.0</ele><time>2016-06-21T22:08:44Z</time></trkpt>
<trkpt lat="47.275558" lon="8.51834"><ele>780.0</ele><time>2016-06-21T22:08:46Z</time></trkpt>
<trkpt lat="47.275443" lon="8.518261"><ele>779.0</ele><time>2016-06-21T22:08:47Z</time></trkpt>
<trkpt lat="47.274874" lon="8.517958"><ele>770.0</ele><time>2016-06-21T22:08:52Z</time></trkpt>
<trkpt lat="47.274758" lon="8.517865"><ele>770.0</ele><time>2016-06-21T22:08:53Z</time></trkpt>
<trkpt lat="47.274582" lon="8.51763"><ele>770.0</ele><time>2016-06-21T22:08:55Z</time></trkpt>
<trkpt lat="47.274456" lon="8.517305"><ele>771.0</ele><time>2016-06-21T22:08:56Z</time></trkpt>
<trkpt lat="47.274165" lon="8.516351"><ele>773.0</ele><time>2016-06-21T22:09:02Z</time></trkpt>
<trkpt lat="47.274138" lon="8.516224"><ele>773.0</ele><time>2016-06-21T22:09:02Z</time></trkpt>
<trkpt lat="47.274133" lon="8.51599"><ele>773.0</ele><time>2016-06-21T22:09:04Z</time></trkpt>
<trkpt lat="47.27416" lon="8.515638"><ele>768.0</ele><time>2016-06-21T22:09:05Z</time></trkpt>
<trkpt lat="47.274155" lon="8.515507"><ele>768.0</ele><time>2016-06-21T22:09:06Z</time></trkpt>
<trkpt lat="47.274134" lon="8.515389"><ele>768.0</ele><time>2016-06-21T22:09:07Z</time></trkpt>
<trkpt lat="47.274049" lon="8.515207"><ele>768.0</ele><time>2016-06-21T22:09:08Z</time></trkpt>
<trkpt lat="47.273987" lon="8.515136"><ele>768.0</ele><time>2016-06-21T22:09:08Z</time></trkpt>
<trkpt lat="47.273909" lon="8.515083"><ele>768.0</ele><time>2016-06-21T22:09:09Z</time></trkpt>
<trkpt lat="47.273599" lon="8.515036"><ele>768.0</ele><time>2016-06-21T22:09:11Z</time></trkpt>
<trkpt lat="47.273507" lon="8.514996"><ele>767.0</ele><time>2016-06-21T22:09:12Z</time></trkpt>
<trkpt lat="47.272956" lon="8.514553"><ele>770.0</ele><time>2016-06-21T22:09:17Z</time></trkpt>
<trkpt lat="47.272828" lon="8.514513"><ele>770.0</ele><time>2016-06-21T22:09:18Z</time></trkpt>
<trkpt lat="47.271459" lon="8.514341"><ele>745.0</ele><time>2016-06-21T22:09:28Z</time></trkpt>
<trkpt lat="47.270426" lon="8.514483"><ele>735.0</ele><time>2016-06-21T22:09:35Z</time></trkpt>
<trkpt lat="47.270136" lon="8.51462"><ele>735.0</ele><time>2016-06-21T22:09:38Z</time></trkpt>
<trkpt lat="47.269676" lon="8.515117"><ele>748.0</ele><time>2016-06-21T22:09:42Z</time></trkpt>
<trkpt lat="47.269426" lon="8.515185"><ele>748.0</ele><time>2016-06-21T22:09:44Z</time></trkpt>
<trkpt lat="47.268845" lon="8.514837"><ele>705.0</ele><time>2016-06-21T22:09:49Z</time></trkpt>
<trkpt lat="47.268742" lon="8.514839"><ele>705.0</ele><time>2016-06-21T22:09:50Z</time></trkpt>
<trkpt lat="47.268657" lon="8.514917"><ele>705.0</ele><time>2016-06-21T22:09:51Z</time></trkpt>
<trkpt lat="47.268488" lon="8.515309"><ele>730.0</ele><time>2016-06-21T22:09:54Z</time></trkpt>
<trkpt lat="47.268357" lon="8.51544"><ele>730.0</ele><time>2016-06-21T22:09:55Z</time></trkpt>
<trkpt lat="47.267851" lon="8.515693"><ele>710.0</ele><time>2016-06-21T22:09:59Z</time></trkpt>
<trkpt lat="47.267633" lon="8.515764"><ele>710.0</ele><time>2016-06-21T22:10:01Z</time></trkpt>
<trkpt lat="47.267483" lon="8.515744"><ele>693.0</ele><time>2016-06-21T22:10:02Z</time></trkpt>
<trkpt lat="47.267366" lon="8.515679"><ele>693.0</ele><time>2016-06-21T22:10:03Z</time></trkpt>
<trkpt lat="47.267271" lon="8.515546"><ele>693.0</ele><time>2016-06-21T22:10:04Z</time></trkpt>
<trkpt lat="47.267205" lon="8.515376"><ele>693.0</ele><time>2016-06-21T22:10:05Z</time></trkpt>
<trkpt lat="47.267048" lon="8.514673"><ele>676.0</ele><time>2016-06-21T22:10:09Z</time></trkpt>
<trkpt lat="47.266948" lon="8.514475"><ele>676.0</ele><time>2016-06-21T22:10:10Z</time></trkpt>
<trkpt lat="47.266839" lon="8.514383"><ele>676.0</ele><time>2016-06-21T22:10:11Z</time></trkpt>
<trkpt lat="47.266761" lon="8.51436"><ele>676.0</ele><time>2016-06-21T22:10:12Z</time></trkpt>
<trkpt lat="47.266393" lon="8.514509"><ele>682.0</ele><time>2016-06-21T22:10:15Z</time></trkpt>
<trkpt lat="47.265883" lon="8.51481"><ele>682.0</ele><time>2016-06-21T22:10:19Z</time></trkpt>
<trkpt lat="47.265503" lon="8.515227"><ele>696.0</ele><time>2016-06-21T22:10:22Z</time></trkpt>
<trkpt lat="47.264966" lon="8.515882"><ele>683.0</ele><time>2016-06-21T22:10:28Z</time></trkpt>
<trkpt lat="47.26435" lon="8.516386"><ele>683.0</ele><time>2016-06-21T22:10:33Z</time></trkpt>
<trkpt lat="47.263848" lon="8.516696"><ele>677.0</ele><time>2016-06-21T22:10:37Z</time></trkpt>
<trkpt lat="47.26318" lon="8.517088"><ele>660.0</ele><time>2016-06-21T22:10:44Z</time></trkpt>
<trkpt lat="47.262461" lon="8.517564"><ele>660.0</ele><time>2016-06-21T22:10:51Z</time></trkpt>
<trkpt lat="47.261869" lon="8.518144"><ele>660.0</ele><time>2016-06-21T22:10:57Z</time></trkpt>
<trkpt lat="47.261206" lon="8.51888"><ele>661.0</ele><time>2016-06-21T22:11:04Z</time></trkpt>
<trkpt lat="47.260453" lon="8.519889"><ele>666.0</ele><time>2016-06-21T22:11:13Z</time></trkpt>
<trkpt lat="47.259716" lon="8.521012"><ele>668.0</ele><time>2016-06-21T22:11:22Z</time></trkpt>
<trkpt lat="47.259572" lon="8.521268"><ele>668.0</ele><time>2016-06-21T22:11:24Z</time></trkpt>
<trkpt lat="47.259486" lon="8.521412"><ele>668.0</ele><time>2016-06-21T22:11:25Z</time></trkpt>
<trkpt lat="47.259031" lon="8.522172"><ele>668.0</ele><time>2016-06-21T22:11:29Z</time></trkpt>
<trkpt lat="47.257811" lon="8.524139"><ele>669.0</ele><time>2016-06-21T22:11:39Z</time></trkpt>
<trkpt lat="47.256582" lon="8.52601"><ele>679.0</ele><time>2016-06-21T22:11:48Z</time></trkpt>
<trkpt lat="47.256233" lon="8.526309"><ele>679.0</ele><time>2016-06-21T22:11:51Z</time></trkpt>
<trkpt lat="47.255813" lon="8.52657"><ele>692.0</ele><time>2016-06-21T22:11:53Z</time></trkpt>
<trkpt lat="47.25538" lon="8.526748"><ele>674.0</ele><time>2016-06-21T22:11:56Z</time></trkpt>
<trkpt lat="47.255114" lon="8.526771"><ele>674.0</ele><time>2016-06-21T22:11:57Z</time></trkpt>
<trkpt lat="47.25363" lon="8.52674"><ele>662.0</ele><time>2016-06-21T22:12:05Z</time></trkpt>
<trkpt lat="47.253356" lon="8.526772"><ele>662.0</ele><time>2016-06-21T22:12:07Z</time></trkpt>
<trkpt lat="47.25309" lon="8.52685"><ele>650.0</ele><time>2016-06-21T22:12:09Z</time></trkpt>
<trkpt lat="47.252811" lon="8.527012"><ele>650.0</ele><time>2016-06-21T22:12:10Z</time></trkpt>
<trkpt lat="47.250667" lon="8.528517"><ele>630.0</ele><time>2016-06-21T22:12:23Z</time></trkpt>
<trkpt lat="47.250018" lon="8.528933"><ele>630.0</ele><time>2016-06-21T22:12:27Z</time></trkpt>
<trkpt lat="47.249738" lon="8.529138"><ele>622.0</ele><time>2016-06-21T22:12:29Z</time></trkpt>
<trkpt lat="47.249336" lon="8.529487"><ele>625.0</ele><time>2016-06-21T22:12:31Z</time></trkpt>
<trkpt lat="47.249229" lon="8.529612"><ele>623.0</ele><time>2016-06-21T22:12:32Z</time></trkpt>
<trkpt lat="47.249229" lon="8.529612"><ele>623.0</ele><time>2016-06-21T22:12:32Z</time></trkpt>
<trkpt lat="47.247643" lon="8.531515"><ele>619.0</ele><time>2016-06-21T22:12:46Z</time></trkpt>
<trkpt lat="47.247337" lon="8.53183"><ele>617.0</ele><time>2016-06-21T22:12:49Z</time></trkpt>
<trkpt lat="47.246898" lon="8.532105"><ele>617.0</ele><time>2016-06-21T22:12:52Z</time></trkpt>
<trkpt lat="47.246069" lon="8.532546"><ele>619.0</ele><time>2016-06-21T22:12:58Z</time></trkpt>
<trkpt lat="47.245207" lon="8.533025"><ele>611.0</ele><time>2016-06-21T22:13:04Z</time></trkpt>
<trkpt lat="47.245111" lon="8.53309"><ele>611.0</ele><time>2016-06-21T22:13:05Z</time></trkpt>
<trkpt lat="47.244874" lon="8.53327"><ele>611.0</ele><time>2016-06-21T22:13:06Z</time></trkpt>
<trkpt lat="47.244803" lon="8.532949"><ele>611.0</ele><time>2016-06-21T22:13:09Z</time></trkpt>
<trkpt lat="47.244583" lon="8.531222"><ele>606.0</ele><time>2016-06-21T22:13:20Z</time></trkpt>
<trkpt lat="47.244443" lon="8.53027"><ele>606.0</ele><time>2016-06-21T22:13:27Z</time></trkpt>
<trkpt lat="47.244375" lon="8.529829"><ele>605.0</ele><time>2016-06-21T22:13:30Z</time></trkpt>
<trkpt lat="47.24436" lon="8.529732"><ele>605.0</ele><time>2016-06-21T22:13:31Z</time></trkpt>
<trkpt lat="47.244275" lon="8.529187"><ele>605.0</ele><time>2016-06-21T22:13:35Z</time></trkpt>
<trkpt lat="47.244176" lon="8.52814"><ele>599.0</ele><time>2016-06-21T22:13:40Z</time></trkpt>
<trkpt lat="47.243655" lon="8.521476"><ele>594.0</ele><time>2016-06-21T22:14:13Z</time></trkpt>
<trkpt lat="47.243498" lon="8.519653"><ele>597.0</ele><time>2016-06-21T22:14:22Z</time></trkpt>
<trkpt lat="47.243336" lon="8.518038"><ele>603.0</ele><time>2016-06-21T22:14:30Z</time></trkpt>
<trkpt lat="47.243227" lon="8.515085"><ele>600.0</ele><time>2016-06-21T22:14:45Z</time></trkpt>
<trkpt lat="47.243224" lon="8.514904"><ele>598.0</ele><time>2016-06-21T22:14:46Z</time></trkpt>
<trkpt lat="47.243198" lon="8.513859"><ele>596.0</ele><time>2016-06-21T22:14:52Z</time></trkpt>
<trkpt lat="47.243218" lon="8.509046"><ele>591.0</ele><time>2016-06-21T22:15:20Z</time></trkpt>
<trkpt lat="47.243191" lon="8.508627"><ele>591.0</ele><time>2016-06-21T22:15:23Z</time></trkpt>
<trkpt lat="47.243143" lon="8.508229"><ele>593.0</ele><time>2016-06-21T22:15:25Z</time></trkpt>
<trkpt lat="47.24308" lon="8.507882"><ele>593.0</ele><time>2016-06-21T22:15:27Z</time></trkpt>
<trkpt lat="47.242926" lon="8.507212"><ele>594.0</ele><time>2016-06-21T22:15:31Z</time></trkpt>
<trkpt lat="47.242407" lon="8.505234"><ele>594.0</ele><time>2016-06-21T22:15:44Z</time></trkpt>
<trkpt lat="47.242181" lon="8.504245"><ele>597.0</ele><time>2016-06-21T22:15:50Z</time></trkpt>
<trkpt lat="47.241654" lon="8.501782"><ele>599.0</ele><time>2016-06-21T22:16:05Z</time></trkpt>
<trkpt lat="47.241548" lon="8.501461"><ele>597.0</ele><time>2016-06-21T22:16:07Z</time></trkpt>
<trkpt lat="47.241045" lon="8.500361"><ele>595.0</ele><time>2016-06-21T22:16:15Z</time></trkpt>
<trkpt lat="47.240994" lon="8.500172"><ele>595.0</ele><time>2016-06-21T22:16:16Z</time></trkpt>
<trkpt lat="47.240976" lon="8.499969"><ele>592.0</ele><time>2016-06-21T22:16:17Z</time></trkpt>
<trkpt lat="47.240991" lon="8.499696"><ele>592.0</ele><time>2016-06-21T22:16:19Z</time></trkpt>
<trkpt lat="47.241039" lon="8.499449"><ele>592.0</ele><time>2016-06-21T22:16:21Z</time></trkpt>
<trkpt lat="47.241716" lon="8.496965"><ele>581.0</ele><time>2016-06-21T22:16:36Z</time></trkpt>
<trkpt lat="47.241846" lon="8.496142"><ele>582.0</ele><time>2016-06-21T22:16:41Z</time></trkpt>
<trkpt lat="47.241859" lon="8.496016"><ele>582.0</ele><time>2016-06-21T22:16:42Z</time></trkpt>
<trkpt lat="47.242102" lon="8.493971"><ele>585.0</ele><time>2016-06-21T22:16:56Z</time></trkpt>
<trkpt lat="47.242239" lon="8.493267"><ele>583.0</ele><time>2016-06-21T22:17:00Z</time></trkpt>
<trkpt lat="47.242379" lon="8.492753"><ele>583.0</ele><time>2016-06-21T22:17:04Z</time></trkpt>
<trkpt lat="47.242563" lon="8.492212"><ele>579.0</ele><time>2016-06-21T22:17:08Z</time></trkpt>
<trkpt lat="47.243743" lon="8.489365"><ele>576.0</ele><time>2016-06-21T22:17:29Z</time></trkpt>
<trkpt lat="47.243828" lon="8.489118"><ele>575.0</ele><time>2016-06-21T22:17:31Z</time></trkpt>
<trkpt lat="47.243877" lon="8.488856"><ele>575.0</ele><time>2016-06-21T22:17:33Z</time></trkpt>
<trkpt lat="47.243897" lon="8.488598"><ele>575.0</ele><time>2016-06-21T22:17:35Z</time></trkpt>
<trkpt lat="47.243882" lon="8.488324"><ele>575.0</ele><time>2016-06-21T22:17:36Z</time></trkpt>
<trkpt lat="47.243843" lon="8.488071"><ele>575.0</ele><time>2016-06-21T22:17:38Z</time></trkpt>
<trkpt lat="47.24317" lon="8.485358"><ele>571.0</ele><time>2016-06-21T22:17:57Z</time></trkpt>
<trkpt lat="47.24305" lon="8.484724"><ele>571.0</ele><time>2016-06-21T22:18:01Z</time></trkpt>
<trkpt lat="47.243014" lon="8.484352"><ele>571.0</ele><time>2016-06-21T22:18:03Z</time></trkpt>
<trkpt lat="47.243012" lon="8.483981"><ele>570.0</ele><time>2016-06-21T22:18:06Z</time></trkpt>
<trkpt lat="47.243065" lon="8.483392"><ele>570.0</ele><time>2016-06-21T22:18:10Z</time></trkpt>
<trkpt lat="47.243294" lon="8.48181"><ele>569.0</ele><time>2016-06-21T22:18:20Z</time></trkpt>
<trkpt lat="47.243325" lon="8.481702"><ele>569.0</ele><time>2016-06-21T22:18:21Z</time></trkpt>
<trkpt lat="47.243371" lon="8.481608"><ele>574.0</ele><time>2016-06-21T22:18:22Z</time></trkpt>
<trkpt lat="47.242692" lon="8.479473"><ele>561.0</ele><time>2016-06-21T22:18:37Z</time></trkpt>
<trkpt lat="47.242606" lon="8.47905"><ele>558.0</ele><time>2016-06-21T22:18:40Z</time></trkpt>
<trkpt lat="47.242571" lon="8.478669"><ele>558.0</ele><time>2016-06-21T22:18:42Z</time></trkpt>
<trkpt lat="47.242577" lon="8.478294"><ele>553.0</ele><time>2016-06-21T22:18:45Z</time></trkpt>
<trkpt lat="47.242618" lon="8.477762"><ele>553.0</ele><time>2016-06-21T22:18:48Z</time></trkpt>
<trkpt lat="47.242707" lon="8.477206"><ele>545.0</ele><time>2016-06-21T22:18:52Z</time></trkpt>
<trkpt lat="47.242794" lon="8.476919"><ele>545.0</ele><time>2016-06-21T22:18:54Z</time></trkpt>
<trkpt lat="47.242976" lon="8.476567"><ele>536.0</ele><time>2016-06-21T22:18:57Z</time></trkpt>
<trkpt lat="47.24328" lon="8.476125"><ele>536.0</ele><time>2016-06-21T22:19:01Z</time></trkpt>
<trkpt lat="47.243515" lon="8.475838"><ele>543.0</ele><time>2016-06-21T22:19:04Z</time></trkpt>
<trkpt lat="47.244366" lon="8.475034"><ele>541.0</ele><time>2016-06-21T22:19:14Z</time></trkpt>
<trkpt lat="47.244477" lon="8.474842"><ele>531.0</ele><time>2016-06-21T22:19:15Z</time></trkpt>
<trkpt lat="47.244558" lon="8.47464"><ele>531.0</ele><time>2016-06-21T22:19:17Z</time></trkpt>
<trkpt lat="47.244606" lon="8.474468"><ele>531.0</ele><time>2016-06-21T22:19:18Z</time></trkpt>
<trkpt lat="47.244633" lon="8.474286"><ele>531.0</ele><time>2016-06-21T22:19:19Z</time></trkpt>
<trkpt lat="47.244671" lon="8.47369"><ele>524.0</ele><time>2016-06-21T22:19:23Z</time></trkpt>
<trkpt lat="47.244708" lon="8.473374"><ele>524.0</ele><time>2016-06-21T22:19:25Z</time></trkpt>
<trkpt lat="47.244755" lon="8.473158"><ele>517.0</ele><time>2016-06-21T22:19:27Z</time></trkpt>
<trkpt lat="47.244845" lon="8.472908"><ele>517.0</ele><time>2016-06-21T22:19:29Z</time></trkpt>
<trkpt lat="47.245051" lon="8.472485"><ele>513.0</ele><time>2016-06-21T22:19:32Z</time></trkpt>
<trkpt lat="47.245274" lon="8.47208"><ele>513.0</ele><time>2016-06-21T22:19:36Z</time></trkpt>
<trkpt lat="47.245882" lon="8.471412"><ele>513.0</ele><time>2016-06-21T22:19:43Z</time></trkpt>
<trkpt lat="47.245929" lon="8.471271"><ele>513.0</ele><time>2016-06-21T22:19:44Z</time></trkpt>
<trkpt lat="47.245936" lon="8.471097"><ele>513.0</ele><time>2016-06-21T22:19:45Z</time></trkpt>
<trkpt lat="47.245904" lon="8.47075"><ele>507.0</ele><time>2016-06-21T22:19:47Z</time></trkpt>
<trkpt lat="47.245904" lon="8.470568"><ele>507.0</ele><time>2016-06-21T22:19:48Z</time></trkpt>
<trkpt lat="47.245971" lon="8.470085"><ele>507.0</ele><time>2016-06-21T22:19:52Z</time></trkpt>
<trkpt lat="47.246059" lon="8.46982"><ele>503.0</ele><time>2016-06-21T22:19:54Z</time></trkpt>
<trkpt lat="47.246347" lon="8.469087"><ele>501.0</ele><time>2016-06-21T22:19:59Z</time></trkpt>
<trkpt lat="47.246401" lon="8.468894"><ele>501.0</ele><time>2016-06-21T22:20:00Z</time></trkpt>
<trkpt lat="47.246457" lon="8.468545"><ele>501.0</ele><time>2016-06-21T22:20:03Z</time></trkpt>
<trkpt lat="47.246461" lon="8.468223"><ele>498.0</ele><time>2016-06-21T22:20:05Z</time></trkpt>
<trkpt lat="47.24644" lon="8.468026"><ele>498.0</ele><time>2016-06-21T22:20:06Z</time></trkpt>
<trkpt lat="47.246403" lon="8.467887"><ele>498.0</ele><time>2016-06-21T22:20:07Z</time></trkpt>
<trkpt lat="47.24635" lon="8.467772"><ele>498.0</ele><time>2016-06-21T22:20:08Z</time></trkpt>
<trkpt lat="47.246266" lon="8.467655"><ele>498.0</ele><time>2016-06-21T22:20:09Z</time></trkpt>
<trkpt lat="47.246039" lon="8.467495"><ele>495.0</ele><time>2016-06-21T22:20:11Z</time></trkpt>
<trkpt lat="47.245971" lon="8.467427"><ele>495.0</ele><time>2016-06-21T22:20:12Z</time></trkpt>
<trkpt lat="47.244965" lon="8.466212"><ele>481.0</ele><time>2016-06-21T22:20:25Z</time></trkpt>
<trkpt lat="47.244119" lon="8.464773"><ele>475.0</ele><time>2016-06-21T22:20:37Z</time></trkpt>
<trkpt lat="47.243614" lon="8.463438"><ele>470.0</ele><time>2016-06-21T22:20:47Z</time></trkpt>
<trkpt lat="47.243547" lon="8.463312"><ele>467.0</ele><time>2016-06-21T22:20:48Z</time></trkpt>
<trkpt lat="47.243579" lon="8.463143"><ele>467.0</ele><time>2016-06-21T22:20:50Z</time></trkpt>
<trkpt lat="47.243625" lon="8.462995"><ele>467.0</ele><time>2016-06-21T22:20:51Z</time></trkpt>
<trkpt lat="47.243687" lon="8.462858"><ele>467.0</ele><time>2016-06-21T22:20:53Z</time></trkpt>
<trkpt lat="47.243724" lon="8.462889"><ele>467.0</ele><time>2016-06-21T22:20:53Z</time></trkpt>
<trkpt lat="47.243805" lon="8.462876"><ele>467.0</ele><time>2016-06-21T22:20:54Z</time></trkpt>
<trkpt lat="47.243855" lon="8.462779"><ele>467.0</ele><time>2016-06-21T22:20:55Z</time></trkpt>
<trkpt lat="47.243856" lon="8.462717"><ele>467.0</ele><time>2016-06-21T22:20:55Z</time></trkpt>
<trkpt lat="47.243842" lon="8.462666"><ele>467.0</ele><time>2016-06-21T22:20:55Z</time></trkpt>
<trkpt lat="47.243784" lon="8.4626"><ele>467.0</ele><time>2016-06-21T22:20:56Z</time></trkpt>
<trkpt lat="47.243711" lon="8.462609"><ele>467.0</ele><time>2016-06-21T22:20:57Z</time></trkpt>
<trkpt lat="47.24368" lon="8.462642"><ele>467.0</ele><time>2016-06-21T22:20:57Z</time></trkpt>
<trkpt lat="47.243567" lon="8.462289"><ele>463.0</ele><time>2016-06-21T22:20:59Z</time></trkpt>
<trkpt lat="47.243525" lon="8.462024"><ele>463.0</ele><time>2016-06-21T22:21:01Z</time></trkpt>
<trkpt lat="47.243391" lon="8.4606"><ele>461.0</ele><time>2016-06-21T22:21:09Z</time></trkpt>
<trkpt lat="47.243268" lon="8.459516"><ele>461.0</ele><time>2016-06-21T22:21:16Z</time></trkpt>
<trkpt lat="47.243224" lon="8.459253"><ele>461.0</ele><time>2016-06-21T22:21:17Z</time></trkpt>
<trkpt lat="47.242778" lon="8.457979"><ele>458.0</ele><time>2016-06-21T22:21:26Z</time></trkpt>
<trkpt lat="47.242743" lon="8.457794"><ele>458.0</ele><time>2016-06-21T22:21:27Z</time></trkpt>
<trkpt lat="47.242574" lon="8.456706"><ele>458.0</ele><time>2016-06-21T22:21:33Z</time></trkpt>
<trkpt lat="47.242489" lon="8.456325"><ele>466.0</ele><time>2016-06-21T22:21:35Z</time></trkpt>
<trkpt lat="47.242436" lon="8.456165"><ele>466.0</ele><time>2016-06-21T22:21:36Z</time></trkpt>
<trkpt lat="47.242108" lon="8.455448"><ele>465.0</ele><time>2016-06-21T22:21:41Z</time></trkpt>
<trkpt lat="47.241804" lon="8.454837"><ele>463.0</ele><time>2016-06-21T22:21:45Z</time></trkpt>
<trkpt lat="47.241557" lon="8.454391"><ele>460.0</ele><time>2016-06-21T22:21:48Z</time></trkpt>
<trkpt lat="47.241419" lon="8.454195"><ele>460.0</ele><time>2016-06-21T22:21:50Z</time></trkpt>
<trkpt lat="47.241217" lon="8.453979"><ele>459.0</ele><time>2016-06-21T22:21:52Z</time></trkpt>
<trkpt lat="47.240353" lon="8.453262"><ele>459.0</ele><time>2016-06-21T22:22:00Z</time></trkpt>
<trkpt lat="47.240073" lon="8.453005"><ele>459.0</ele><time>2016-06-21T22:22:03Z</time></trkpt>
<trkpt lat="47.239904" lon="8.452813"><ele>462.0</ele><time>2016-06-21T22:22:04Z</time></trkpt>
<trkpt lat="47.239166" lon="8.451837"><ele>466.0</ele><time>2016-06-21T22:22:12Z</time></trkpt>
<trkpt lat="47.238965" lon="8.451644"><ele>467.0</ele><time>2016-06-21T22:22:14Z</time></trkpt>
<trkpt lat="47.238415" lon="8.451287"><ele>467.0</ele><time>2016-06-21T22:22:19Z</time></trkpt>
<trkpt lat="47.236719" lon="8.450332"><ele>455.0</ele><time>2016-06-21T22:22:34Z</time></trkpt>
<trkpt lat="47.23492" lon="8.449371"><ele>455.0</ele><time>2016-06-21T22:22:49Z</time></trkpt>
<trkpt lat="47.234628" lon="8.449247"><ele>455.0</ele><time>2016-06-21T22:22:52Z</time></trkpt>
<trkpt lat="47.234385" lon="8.449108"><ele>461.0</ele><time>2016-06-21T22:22:54Z</time></trkpt>
<trkpt lat="47.234211" lon="8.448881"><ele>461.0</ele><time>2016-06-21T22:22:56Z</time></trkpt>
<trkpt lat="47.234169" lon="8.44877"><ele>461.0</ele><time>2016-06-21T22:22:56Z</time></trkpt>
<trkpt lat="47.234149" lon="8.44862"><ele>451.0</ele><time>2016-06-21T22:22:57Z</time></trkpt>
<trkpt lat="47.234154" lon="8.448488"><ele>451.0</ele><time>2016-06-21T22:22:58Z</time></trkpt>
<trkpt lat="47.234187" lon="8.44832"><ele>461.0</ele><time>2016-06-21T22:22:59Z</time></trkpt>
<trkpt lat="47.234513" lon="8.447557"><ele>461.0</ele><time>2016-06-21T22:23:04Z</time></trkpt>
<trkpt lat="47.234596" lon="8.447293"><ele>459.0</ele><time>2016-06-21T22:23:06Z</time></trkpt>
<trkpt lat="47.234636" lon="8.447081"><ele>459.0</ele><time>2016-06-21T22:23:07Z</time></trkpt>
<trkpt lat="47.234655" lon="8.446763"><ele>459.0</ele><time>2016-06-21T22:23:09Z</time></trkpt>
<trkpt lat="47.234652" lon="8.446146"><ele>461.0</ele><time>2016-06-21T22:23:12Z</time></trkpt>
<trkpt lat="47.234638" lon="8.445831"><ele>461.0</ele><time>2016-06-21T22:23:14Z</time></trkpt>
<trkpt lat="47.234603" lon="8.445542"><ele>461.0</ele><time>2016-06-21T22:23:16Z</time></trkpt>
<trkpt lat="47.234532" lon="8.445262"><ele>461.0</ele><time>2016-06-21T22:23:17Z</time></trkpt>
<trkpt lat="47.234455" lon="8.445063"><ele>461.0</ele><time>2016-06-21T22:23:18Z</time></trkpt>
<trkpt lat="47.234243" lon="8.444648"><ele>456.0</ele><time>2016-06-21T22:23:21Z</time></trkpt>
<trkpt lat="47.234155" lon="8.444438"><ele>440.0</ele><time>2016-06-21T22:23:23Z</time></trkpt>
<trkpt lat="47.23412" lon="8.444315"><ele>440.0</ele><time>2016-06-21T22:23:24Z</time></trkpt>
<trkpt lat="47.234109" lon="8.444159"><ele>434.0</ele><time>2016-06-21T22:23:25Z</time></trkpt>
<trkpt lat="47.234132" lon="8.443985"><ele>434.0</ele><time>2016-06-21T22:23:26Z</time></trkpt>
<trkpt lat="47.234184" lon="8.443815"><ele>446.0</ele><time>2016-06-21T22:23:27Z</time></trkpt>
<trkpt lat="47.234814" lon="8.442487"><ele>432.0</ele><time>2016-06-21T22:23:36Z</time></trkpt>
<trkpt lat="47.234989" lon="8.442073"><ele>432.0</ele><time>2016-06-21T22:23:39Z</time></trkpt>
<trkpt lat="47.235105" lon="8.441754"><ele>444.0</ele><time>2016-06-21T22:23:41Z</time></trkpt>
<trkpt lat="47.235209" lon="8.44141"><ele>437.0</ele><time>2016-06-21T22:23:43Z</time></trkpt>
<trkpt lat="47.235295" lon="8.441021"><ele>437.0</ele><time>2016-06-21T22:23:45Z</time></trkpt>
<trkpt lat="47.235371" lon="8.440573"><ele>433.0</ele><time>2016-06-21T22:23:48Z</time></trkpt>
<trkpt lat="47.235427" lon="8.44005"><ele>433.0</ele><time>2016-06-21T22:23:51Z</time></trkpt>
<trkpt lat="47.235526" lon="8.438755"><ele>424.0</ele><time>2016-06-21T22:23:58Z</time></trkpt>
<trkpt lat="47.235579" lon="8.438442"><ele>424.0</ele><time>2016-06-21T22:24:00Z</time></trkpt>
<trkpt lat="47.235662" lon="8.438125"><ele>419.0</ele><time>2016-06-21T22:24:01Z</time></trkpt>
<trkpt lat="47.235954" lon="8.437198"><ele>423.0</ele><time>2016-06-21T22:24:07Z</time></trkpt>
<trkpt lat="47.236057" lon="8.43672"><ele>423.0</ele><time>2016-06-21T22:24:10Z</time></trkpt>
<trkpt lat="47.23611" lon="8.436354"><ele>419.0</ele><time>2016-06-21T22:24:12Z</time></trkpt>
<trkpt lat="47.236143" lon="8.435963"><ele>419.0</ele><time>2016-06-21T22:24:14Z</time></trkpt>
<trkpt lat="47.236168" lon="8.435157"><ele>418.0</ele><time>2016-06-21T22:24:18Z</time></trkpt>
<trkpt lat="47.236208" lon="8.434828"><ele>418.0</ele><time>2016-06-21T22:24:20Z</time></trkpt>
<trkpt lat="47.236278" lon="8.434478"><ele>418.0</ele><time>2016-06-21T22:24:22Z</time></trkpt>
<trkpt lat="47.236195" lon="8.434386"><ele>418.0</ele><time>2016-06-21T22:24:24Z</time></trkpt>
<trkpt lat="47.236004" lon="8.434063"><ele>417.0</ele><time>2016-06-21T22:24:28Z</time></trkpt>
<trkpt lat="47.235968" lon="8.433925"><ele>417.0</ele><time>2016-06-21T22:24:29Z</time></trkpt>
<trkpt lat="47.235814" lon="8.432602"><ele>408.0</ele><time>2016-06-21T22:24:41Z</time></trkpt>
<trkpt lat="47.23556" lon="8.43165"><ele>408.0</ele><time>2016-06-21T22:24:50Z</time></trkpt>
<trkpt lat="47.235246" lon="8.429641"><ele>410.0</ele><time>2016-06-21T22:25:08Z</time></trkpt>
<trkpt lat="47.235065" lon="8.428653"><ele>411.0</ele><time>2016-06-21T22:25:17Z</time></trkpt>
<trkpt lat="47.234731" lon="8.427661"><ele>405.0</ele><time>2016-06-21T22:25:26Z</time></trkpt>
<trkpt lat="47.23465" lon="8.427271"><ele>403.0</ele><time>2016-06-21T22:25:30Z</time></trkpt>
<trkpt lat="47.234609" lon="8.426949"><ele>403.0</ele><time>2016-06-21T22:25:33Z</time></trkpt>
<trkpt lat="47.234623" lon="8.426618"><ele>403.0</ele><time>2016-06-21T22:25:36Z</time></trkpt>
<trkpt lat="47.234838" lon="8.425847"><ele>403.0</ele><time>2016-06-21T22:25:43Z</time></trkpt>
<trkpt lat="47.234814" lon="8.425511"><ele>405.0</ele><time>2016-06-21T22:25:46Z</time></trkpt>
<trkpt lat="47.234774" lon="8.425269"><ele>405.0</ele><time>2016-06-21T22:25:48Z</time></trkpt>
<trkpt lat="47.23474" lon="8.425181"><ele>405.0</ele><time>2016-06-21T22:25:49Z</time></trkpt>
<trkpt lat="47.234639" lon="8.425009"><ele>405.0</ele><time>2016-06-21T22:25:51Z</time></trkpt>
<trkpt lat="47.234551" lon="8.424798"><ele>404.0</ele><time>2016-06-21T22:25:53Z</time></trkpt>
<trkpt lat="47.234398" lon="8.42417"><ele>404.0</ele><time>2016-06-21T22:25:59Z</time></trkpt>
<trkpt lat="47.234345" lon="8.424015"><ele>405.0</ele><time>2016-06-21T22:26:01Z</time></trkpt>
<trkpt lat="47.23426" lon="8.423862"><ele>405.0</ele><time>2016-06-21T22:26:02Z</time></trkpt>
<trkpt lat="47.234154" lon="8.423538"><ele>398.0</ele><time>2016-06-21T22:26:05Z</time></trkpt>
<trkpt lat="47.234108" lon="8.423083"><ele>398.0</ele><time>2016-06-21T22:26:10Z</time></trkpt>
<trkpt lat="47.234081" lon="8.422422"><ele>394.0</ele><time>2016-06-21T22:26:15Z</time></trkpt>
<trkpt lat="47.23402" lon="8.419615"><ele>390.0</ele><time>2016-06-21T22:26:40Z</time></trkpt>
<trkpt lat="47.233896" lon="8.417786"><ele>386.0</ele><time>2016-06-21T22:26:56Z</time></trkpt>
<trkpt lat="47.23384" lon="8.4172"><ele>386.0</ele><time>2016-06-21T22:27:01Z</time></trkpt>
<trkpt lat="47.233772" lon="8.416899"><ele>386.0</ele><time>2016-06-21T22:27:04Z</time></trkpt>
<trkpt lat="47.233719" lon="8.416802"><ele>386.0</ele><time>2016-06-21T22:27:05Z</time></trkpt>
<trkpt lat="47.233644" lon="8.416734"><ele>386.0</ele><time>2016-06-21T22:27:06Z</time></trkpt>
<trkpt lat="47.232972" lon="8.416644"><ele>386.0</ele><time>2016-06-21T22:27:10Z</time></trkpt>
<trkpt lat="47.23257" lon="8.416545"><ele>386.0</ele><time>2016-06-21T22:27:13Z</time></trkpt>
<trkpt lat="47.23164" lon="8.416123"><ele>388.0</ele><time>2016-06-21T22:27:19Z</time></trkpt>
<trkpt lat="47.230703" lon="8.41555"><ele>386.0</ele><time>2016-06-21T22:27:25Z</time></trkpt>
<trkpt lat="47.230216" lon="8.415344"><ele>386.0</ele><time>2016-06-21T22:27:28Z</time></trkpt>
<trkpt lat="47.229296" lon="8.415192"><ele>387.0</ele><time>2016-06-21T22:27:34Z</time></trkpt>
<trkpt lat="47.224903" lon="8.414819"><ele>387.0</ele><time>2016-06-21T22:28:02Z</time></trkpt>
<trkpt lat="47.224196" lon="8.414759"><ele>387.0</ele><time>2016-06-21T22:28:06Z</time></trkpt>
<trkpt lat="47.22691" lon="8.408069"><ele>388.0</ele><time>2016-06-21T22:28:44Z</time></trkpt>
<trkpt lat="47.227081" lon="8.407554"><ele>388.0</ele><time>2016-06-21T22:28:47Z</time></trkpt>
<trkpt lat="47.227176" lon="8.407109"><ele>387.0</ele><time>2016-06-21T22:28:49Z</time></trkpt>
<trkpt lat="47.227227" lon="8.406606"><ele>386.0</ele><time>2016-06-21T22:28:51Z</time></trkpt>
<trkpt lat="47.227473" lon="8.402018"><ele>387.0</ele><time>2016-06-21T22:29:14Z</time></trkpt>
<trkpt lat="47.227674" lon="8.397962"><ele>387.0</ele><time>2016-06-21T22:29:33Z</time></trkpt>
<trkpt lat="47.227736" lon="8.397006"><ele>388.0</ele><time>2016-06-21T22:29:38Z</time></trkpt>
<trkpt lat="47.227784" lon="8.396519"><ele>389.0</ele><time>2016-06-21T22:29:40Z</time></trkpt>
<trkpt lat="47.227851" lon="8.396141"><ele>389.0</ele><time>2016-06-21T22:29:42Z</time></trkpt>
<trkpt lat="47.22786" lon="8.396101"><ele>389.0</ele><time>2016-06-21T22:29:42Z</time></trkpt>
<trkpt lat="47.227985" lon="8.395555"><ele>390.0</ele><time>2016-06-21T22:29:45Z</time></trkpt>
<trkpt lat="47.228083" lon="8.395089"><ele>390.0</ele><time>2016-06-21T22:29:48Z</time></trkpt>
<trkpt lat="47.22815" lon="8.394708"><ele>389.0</ele><time>2016-06-21T22:29:51Z</time></trkpt>
<trkpt lat="47.228157" lon="8.394413"><ele>389.0</ele><time>2016-06-21T22:29:53Z</time></trkpt>
<trkpt lat="47.22811" lon="8.393995"><ele>389.0</ele><time>2016-06-21T22:29:57Z</time></trkpt>
<trkpt lat="47.227985" lon="8.393302"><ele>391.0</ele><time>2016-06-21T22:30:03Z</time></trkpt>
<trkpt lat="47.227941" lon="8.392842"><ele>391.0</ele><time>2016-06-21T22:30:07Z</time></trkpt>
<trkpt lat="47.228005" lon="8.392239"><ele>391.0</ele><time>2016-06-21T22:30:12Z</time></trkpt>
<trkpt lat="47.228105" lon="8.391682"><ele>391.0</ele><time>2016-06-21T22:30:17Z</time></trkpt>
<trkpt lat="47.228238" lon="8.391126"><ele>395.0</ele><time>2016-06-21T22:30:22Z</time></trkpt>
<trkpt lat="47.228343" lon="8.390759"><ele>394.0</ele><time>2016-06-21T22:30:26Z</time></trkpt>
<trkpt lat="47.228392" lon="8.390507"><ele>394.0</ele><time>2016-06-21T22:30:28Z</time></trkpt>
<trkpt lat="47.228388" lon="8.390284"><ele>394.0</ele><time>2016-06-21T22:30:30Z</time></trkpt>
<trkpt lat="47.228368" lon="8.390174"><ele>394.0</ele><time>2016-06-21T22:30:31Z</time></trkpt>
<trkpt lat="47.228355" lon="8.390071"><ele>394.0</ele><time>2016-06-21T22:30:32Z</time></trkpt>
<trkpt lat="47.229263" lon="8.389455"><ele>397.0</ele><time>2016-06-21T22:30:44Z</time></trkpt>
<trkpt lat="47.229566" lon="8.389354"><ele>397.0</ele><time>2016-06-21T22:30:48Z</time></trkpt>
<trkpt lat="47.229824" lon="8.38933"><ele>397.0</ele><time>2016-06-21T22:30:51Z</time></trkpt>
<trkpt lat="47.229819" lon="8.389167"><ele>397.0</ele><time>2016-06-21T22:30:52Z</time></trkpt>
<trkpt lat="47.229936" lon="8.388593"><ele>401.0</ele><time>2016-06-21T22:30:57Z</time></trkpt>
<trkpt lat="47.229941" lon="8.388482"><ele>401.0</ele><time>2016-06-21T22:30:58Z</time></trkpt>
<trkpt lat="47.22991" lon="8.388289"><ele>407.0</ele><time>2016-06-21T22:30:59Z</time></trkpt>
<trkpt lat="47.229786" lon="8.387969"><ele>407.0</ele><time>2016-06-21T22:31:02Z</time></trkpt>
<trkpt lat="47.229752" lon="8.387755"><ele>407.0</ele><time>2016-06-21T22:31:03Z</time></trkpt>
<trkpt lat="47.229739" lon="8.387438"><ele>412.0</ele><time>2016-06-21T22:31:06Z</time></trkpt>
<trkpt lat="47.229868" lon="8.387105"><ele>412.0</ele><time>2016-06-21T22:31:09Z</time></trkpt>
<trkpt lat="47.229873" lon="8.386943"><ele>412.0</ele><time>2016-06-21T22:31:10Z</time></trkpt>
<trkpt lat="47.229831" lon="8.386799"><ele>412.0</ele><time>2016-06-21T22:31:11Z</time></trkpt>
<trkpt lat="47.229356" lon="8.385898"><ele>419.0</ele><time>2016-06-21T22:31:19Z</time></trkpt>
<trkpt lat="47.229242" lon="8.385611"><ele>421.0</ele><time>2016-06-21T22:31:22Z</time></trkpt>
<trkpt lat="47.229213" lon="8.385436"><ele>421.0</ele><time>2016-06-21T22:31:23Z</time></trkpt>
<trkpt lat="47.229172" lon="8.384962"><ele>429.0</ele><time>2016-06-21T22:31:26Z</time></trkpt>
<trkpt lat="47.229126" lon="8.384734"><ele>439.0</ele><time>2016-06-21T22:31:28Z</time></trkpt>
<trkpt lat="47.229047" lon="8.384464"><ele>439.0</ele><time>2016-06-21T22:31:30Z</time></trkpt>
<trkpt lat="47.228864" lon="8.384023"><ele>442.0</ele><time>2016-06-21T22:31:34Z</time></trkpt>
<trkpt lat="47.228774" lon="8.383867"><ele>442.0</ele><time>2016-06-21T22:31:36Z</time></trkpt>
<trkpt lat="47.228504" lon="8.383542"><ele>442.0</ele><time>2016-06-21T22:31:39Z</time></trkpt>
<trkpt lat="47.228431" lon="8.383416"><ele>442.0</ele><time>2016-06-21T22:31:41Z</time></trkpt>
<trkpt lat="47.228169" lon="8.38266"><ele>448.0</ele><time>2016-06-21T22:31:47Z</time></trkpt>
<trkpt lat="47.228114" lon="8.382292"><ele>455.0</ele><time>2016-06-21T22:31:50Z</time></trkpt>
<trkpt lat="47.228113" lon="8.381375"><ele>470.0</ele><time>2016-06-21T22:31:56Z</time></trkpt>
<trkpt lat="47.228245" lon="8.380665"><ele>474.0</ele><time>2016-06-21T22:32:02Z</time></trkpt>
<trkpt lat="47.228283" lon="8.380112"><ele>474.0</ele><time>2016-06-21T22:32:06Z</time></trkpt>
<trkpt lat="47.228261" lon="8.379725"><ele>468.0</ele><time>2016-06-21T22:32:09Z</time></trkpt>
<trkpt lat="47.228242" lon="8.379483"><ele>468.0</ele><time>2016-06-21T22:32:11Z</time></trkpt>
<trkpt lat="47.228215" lon="8.378742"><ele>465.0</ele><time>2016-06-21T22:32:14Z</time></trkpt>
<trkpt lat="47.228235" lon="8.378418"><ele>465.0</ele><time>2016-06-21T22:32:15Z</time></trkpt>
<trkpt lat="47.228305" lon="8.377819"><ele>466.0</ele><time>2016-06-21T22:32:18Z</time></trkpt>
<trkpt lat="47.228396" lon="8.377248"><ele>467.0</ele><time>2016-06-21T22:32:21Z</time></trkpt>
<trkpt lat="47.228543" lon="8.376507"><ele>472.0</ele><time>2016-06-21T22:32:24Z</time></trkpt>
<trkpt lat="47.22872" lon="8.375766"><ele>477.0</ele><time>2016-06-21T22:32:27Z</time></trkpt>
<trkpt lat="47.228861" lon="8.375305"><ele>477.0</ele><time>2016-06-21T22:32:30Z</time></trkpt>
<trkpt lat="47.229318" lon="8.37399"><ele>475.0</ele><time>2016-06-21T22:32:36Z</time></trkpt>
<trkpt lat="47.229354" lon="8.373763"><ele>475.0</ele><time>2016-06-21T22:32:37Z</time></trkpt>
<trkpt lat="47.22936" lon="8.373596"><ele>475.0</ele><time>2016-06-21T22:32:38Z</time></trkpt>
<trkpt lat="47.229347" lon="8.373388"><ele>475.0</ele><time>2016-06-21T22:32:39Z</time></trkpt>
<trkpt lat="47.229303" lon="8.37319"><ele>475.0</ele><time>2016-06-21T22:32:40Z</time></trkpt>
<trkpt lat="47.229231" lon="8.372987"><ele>475.0</ele><time>2016-06-21T22:32:41Z</time></trkpt>
<trkpt lat="47.228819" lon="8.372179"><ele>480.0</ele><time>2016-06-21T22:32:45Z</time></trkpt>
<trkpt lat="47.228737" lon="8.371945"><ele>480.0</ele><time>2016-06-21T22:32:46Z</time></trkpt>
<trkpt lat="47.22843" lon="8.370515"><ele>480.0</ele><time>2016-06-21T22:32:53Z</time></trkpt>
<trkpt lat="47.228341" lon="8.369835"><ele>479.0</ele><time>2016-06-21T22:32:56Z</time></trkpt>
<trkpt lat="47.228245" lon="8.369523"><ele>479.0</ele><time>2016-06-21T22:32:57Z</time></trkpt>
<trkpt lat="47.227946" lon="8.368975"><ele>477.0</ele><time>2016-06-21T22:33:00Z</time></trkpt>
<trkpt lat="47.227793" lon="8.368602"><ele>477.0</ele><time>2016-06-21T22:33:02Z</time></trkpt>
<trkpt lat="47.227547" lon="8.367873"><ele>477.0</ele><time>2016-06-21T22:33:06Z</time></trkpt>
<trkpt lat="47.227518" lon="8.367652"><ele>477.0</ele><time>2016-06-21T22:33:07Z</time></trkpt>
<trkpt lat="47.227465" lon="8.366373"><ele>487.0</ele><time>2016-06-21T22:33:12Z</time></trkpt>
<trkpt lat="47.227448" lon="8.366171"><ele>487.0</ele><time>2016-06-21T22:33:13Z</time></trkpt>
<trkpt lat="47.227513" lon="8.366136"><ele>487.0</ele><time>2016-06-21T22:33:14Z</time></trkpt>
<trkpt lat="47.227316" lon="8.365409"><ele>492.0</ele><time>2016-06-21T22:33:18Z</time></trkpt>
<trkpt lat="47.227245" lon="8.365206"><ele>492.0</ele><time>2016-06-21T22:33:20Z</time></trkpt>
<trkpt lat="47.227192" lon="8.364991"><ele>497.0</ele><time>2016-06-21T22:33:21Z</time></trkpt>
<trkpt lat="47.227159" lon="8.364699"><ele>497.0</ele><time>2016-06-21T22:33:22Z</time></trkpt>
<trkpt lat="47.227179" lon="8.364398"><ele>497.0</ele><time>2016-06-21T22:33:24Z</time></trkpt>
<trkpt lat="47.227257" lon="8.364046"><ele>504.0</ele><time>2016-06-21T22:33:26Z</time></trkpt>
<trkpt lat="47.227559" lon="8.363093"><ele>511.0</ele><time>2016-06-21T22:33:32Z</time></trkpt>
<trkpt lat="47.227752" lon="8.362652"><ele>511.0</ele><time>2016-06-21T22:33:34Z</time></trkpt>
<trkpt lat="47.228589" lon="8.361181"><ele>518.0</ele><time>2016-06-21T22:33:45Z</time></trkpt>
<trkpt lat="47.228683" lon="8.360859"><ele>518.0</ele><time>2016-06-21T22:33:46Z</time></trkpt>
<trkpt lat="47.228751" lon="8.360483"><ele>533.0</ele><time>2016-06-21T22:33:49Z</time></trkpt>
<trkpt lat="47.228857" lon="8.360124"><ele>533.0</ele><time>2016-06-21T22:33:51Z</time></trkpt>
<trkpt lat="47.229015" lon="8.35987"><ele>547.0</ele><time>2016-06-21T22:33:53Z</time></trkpt>
<trkpt lat="47.229379" lon="8.359466"><ele>541.0</ele><time>2016-06-21T22:33:56Z</time></trkpt>
<trkpt lat="47.229506" lon="8.359284"><ele>541.0</ele><time>2016-06-21T22:33:58Z</time></trkpt>
<trkpt lat="47.229671" lon="8.358914"><ele>538.0</ele><time>2016-06-21T22:34:00Z</time></trkpt>
<trkpt lat="47.229857" lon="8.358421"><ele>538.0</ele><time>2016-06-21T22:34:03Z</time></trkpt>
<trkpt lat="47.229955" lon="8.3581"><ele>538.0</ele><time>2016-06-21T22:34:05Z</time></trkpt>
<trkpt lat="47.230006" lon="8.357738"><ele>537.0</ele><time>2016-06-21T22:34:07Z</time></trkpt>
<trkpt lat="47.230051" lon="8.357164"><ele>541.0</ele><time>2016-06-21T22:34:10Z</time></trkpt>
<trkpt lat="47.230126" lon="8.356635"><ele>546.0</ele><time>2016-06-21T22:34:13Z</time></trkpt>
<trkpt lat="47.230491" lon="8.35509"><ele>548.0</ele><time>2016-06-21T22:34:21Z</time></trkpt>
<trkpt lat="47.230568" lon="8.354851"><ele>554.0</ele><time>2016-06-21T22:34:23Z</time></trkpt>
<trkpt lat="47.230708" lon="8.354602"><ele>554.0</ele><time>2016-06-21T22:34:25Z</time></trkpt>
<trkpt lat="47.230868" lon="8.354448"><ele>558.0</ele><time>2016-06-21T22:34:26Z</time></trkpt>
<trkpt lat="47.231065" lon="8.354357"><ele>558.0</ele><time>2016-06-21T22:34:28Z</time></trkpt>
<trkpt lat="47.23133" lon="8.354277"><ele>558.0</ele><time>2016-06-21T22:34:30Z</time></trkpt>
<trkpt lat="47.231491" lon="8.354147"><ele>560.0</ele><time>2016-06-21T22:34:31Z</time></trkpt>
<trkpt lat="47.231909" lon="8.353253"><ele>558.0</ele><time>2016-06-21T22:34:37Z</time></trkpt>
<trkpt lat="47.232293" lon="8.352664"><ele>558.0</ele><time>2016-06-21T22:34:41Z</time></trkpt>
<trkpt lat="47.232511" lon="8.352119"><ele>553.0</ele><time>2016-06-21T22:34:45Z</time></trkpt>
<trkpt lat="47.232591" lon="8.351779"><ele>553.0</ele><time>2016-06-21T22:34:47Z</time></trkpt>
<trkpt lat="47.23272" lon="8.351369"><ele>550.0</ele><time>2016-06-21T22:34:49Z</time></trkpt>
<trkpt lat="47.232762" lon="8.35102"><ele>550.0</ele><time>2016-06-21T22:34:51Z</time></trkpt>
<trkpt lat="47.232721" lon="8.350746"><ele>554.0</ele><time>2016-06-21T22:34:52Z</time></trkpt>
<trkpt lat="47.232459" lon="8.349844"><ele>560.0</ele><time>2016-06-21T22:34:58Z</time></trkpt>
<trkpt lat="47.232406" lon="8.349446"><ele>560.0</ele><time>2016-06-21T22:35:00Z</time></trkpt>
<trkpt lat="47.232404" lon="8.349035"><ele>563.0</ele><time>2016-06-21T22:35:02Z</time></trkpt>
<trkpt lat="47.232514" lon="8.348253"><ele>568.0</ele><time>2016-06-21T22:35:06Z</time></trkpt>
<trkpt lat="47.232568" lon="8.348145"><ele>568.0</ele><time>2016-06-21T22:35:07Z</time></trkpt>
<trkpt lat="47.231959" lon="8.34666"><ele>576.0</ele><time>2016-06-21T22:35:21Z</time></trkpt>
<trkpt lat="47.231838" lon="8.346486"><ele>576.0</ele><time>2016-06-21T22:35:23Z</time></trkpt>
<trkpt lat="47.231711" lon="8.346352"><ele>576.0</ele><time>2016-06-21T22:35:25Z</time></trkpt>
<trkpt lat="47.231559" lon="8.346282"><ele>574.0</ele><time>2016-06-21T22:35:27Z</time></trkpt>
<trkpt lat="47.230981" lon="8.346259"><ele>574.0</ele><time>2016-06-21T22:35:34Z</time></trkpt>
<trkpt lat="47.230776" lon="8.346209"><ele>578.0</ele><time>2016-06-21T22:35:37Z</time></trkpt>
<trkpt lat="47.230568" lon="8.346057"><ele>578.0</ele><time>2016-06-21T22:35:40Z</time></trkpt>
<trkpt lat="47.230428" lon="8.345877"><ele>578.0</ele><time>2016-06-21T22:35:42Z</time></trkpt>
<trkpt lat="47.230346" lon="8.345695"><ele>577.0</ele><time>2016-06-21T22:35:44Z</time></trkpt>
<trkpt lat="47.230259" lon="8.345406"><ele>577.0</ele><time>2016-06-21T22:35:46Z</time></trkpt>
<trkpt lat="47.230124" lon="8.344808"><ele>579.0</ele><time>2016-06-21T22:35:51Z</time></trkpt>
<trkpt lat="47.23006" lon="8.344436"><ele>579.0</ele><time>2016-06-21T22:35:54Z</time></trkpt>
<trkpt lat="47.230005" lon="8.343964"><ele>581.0</ele><time>2016-06-21T22:35:57Z</time></trkpt>
<trkpt lat="47.229991" lon="8.343572"><ele>583.0</ele><time>2016-06-21T22:36:00Z</time></trkpt>
<trkpt lat="47.230007" lon="8.343232"><ele>585.0</ele><time>2016-06-21T22:36:03Z</time></trkpt>
<trkpt lat="47.230053" lon="8.343043"><ele>585.0</ele><time>2016-06-21T22:36:04Z</time></trkpt>
<trkpt lat="47.230137" lon="8.342909"><ele>585.0</ele><time>2016-06-21T22:36:06Z</time></trkpt>
<trkpt lat="47.23033" lon="8.342734"><ele>585.0</ele><time>2016-06-21T22:36:09Z</time></trkpt>
<trkpt lat="47.230529" lon="8.342482"><ele>588.0</ele><time>2016-06-21T22:36:12Z</time></trkpt>
<trkpt lat="47.230773" lon="8.34198"><ele>588.0</ele><time>2016-06-21T22:36:17Z</time></trkpt>
<trkpt lat="47.230997" lon="8.341671"><ele>588.0</ele><time>2016-06-21T22:36:20Z</time></trkpt>
<trkpt lat="47.23124" lon="8.34146"><ele>592.0</ele><time>2016-06-21T22:36:24Z</time></trkpt>
<trkpt lat="47.232147" lon="8.341018"><ele>589.0</ele><time>2016-06-21T22:36:35Z</time></trkpt>
<trkpt lat="47.232218" lon="8.340958"><ele>589.0</ele><time>2016-06-21T22:36:36Z</time></trkpt>
<trkpt lat="47.232313" lon="8.340856"><ele>589.0</ele><time>2016-06-21T22:36:37Z</time></trkpt>
<trkpt lat="47.23242" lon="8.340654"><ele>594.0</ele><time>2016-06-21T22:36:38Z</time></trkpt>
<trkpt lat="47.232569" lon="8.340243"><ele>592.0</ele><time>2016-06-21T22:36:40Z</time></trkpt>
<trkpt lat="47.23267" lon="8.33989"><ele>602.0</ele><time>2016-06-21T22:36:42Z</time></trkpt>
<trkpt lat="47.232789" lon="8.339643"><ele>602.0</ele><time>2016-06-21T22:36:43Z</time></trkpt>
<trkpt lat="47.232952" lon="8.339503"><ele>602.0</ele><time>2016-06-21T22:36:45Z</time></trkpt>
<trkpt lat="47.233244" lon="8.339364"><ele>602.0</ele><time>2016-06-21T22:36:46Z</time></trkpt>
<trkpt lat="47.233405" lon="8.339206"><ele>600.0</ele><time>2016-06-21T22:36:48Z</time></trkpt>
<trkpt lat="47.233524" lon="8.338987"><ele>606.0</ele><time>2016-06-21T22:36:49Z</time></trkpt>
<trkpt lat="47.233641" lon="8.338722"><ele>606.0</ele><time>2016-06-21T22:36:50Z</time></trkpt>
<trkpt lat="47.233779" lon="8.33835"><ele>606.0</ele><time>2016-06-21T22:36:52Z</time></trkpt>
<trkpt lat="47.233935" lon="8.338046"><ele>615.0</ele><time>2016-06-21T22:36:54Z</time></trkpt>
<trkpt lat="47.234067" lon="8.337851"><ele>615.0</ele><time>2016-06-21T22:36:55Z</time></trkpt>
<trkpt lat="47.234442" lon="8.337453"><ele>619.0</ele><time>2016-06-21T22:36:58Z</time></trkpt>
<trkpt lat="47.23472" lon="8.337194"><ele>619.0</ele><time>2016-06-21T22:37:00Z</time></trkpt>
<trkpt lat="47.234755" lon="8.337109"><ele>619.0</ele><time>2016-06-21T22:37:01Z</time></trkpt>
<trkpt lat="47.234769" lon="8.337015"><ele>619.0</ele><time>2016-06-21T22:37:01Z</time></trkpt>
<trkpt lat="47.234749" lon="8.336878"><ele>619.0</ele><time>2016-06-21T22:37:02Z</time></trkpt>
<trkpt lat="47.234666" lon="8.336782"><ele>619.0</ele><time>2016-06-21T22:37:02Z</time></trkpt>
<trkpt lat="47.234553" lon="8.336738"><ele>619.0</ele><time>2016-06-21T22:37:03Z</time></trkpt>
<trkpt lat="47.233376" lon="8.336475"><ele>632.0</ele><time>2016-06-21T22:37:11Z</time></trkpt>
<trkpt lat="47.233226" lon="8.336417"><ele>635.0</ele><time>2016-06-21T22:37:12Z</time></trkpt>
<trkpt lat="47.233056" lon="8.336301"><ele>635.0</ele><time>2016-06-21T22:37:13Z</time></trkpt>
<trkpt lat="47.232708" lon="8.335953"><ele>635.0</ele><time>2016-06-21T22:37:16Z</time></trkpt>
<trkpt lat="47.232497" lon="8.335798"><ele>644.0</ele><time>2016-06-21T22:37:17Z</time></trkpt>
<trkpt lat="47.232292" lon="8.335696"><ele>644.0</ele><time>2016-06-21T22:37:19Z</time></trkpt>
<trkpt lat="47.232206" lon="8.335541"><ele>644.0</ele><time>2016-06-21T22:37:19Z</time></trkpt>
<trkpt lat="47.2322" lon="8.335397"><ele>644.0</ele><time>2016-06-21T22:37:20Z</time></trkpt>
<trkpt lat="47.232274" lon="8.335235"><ele>644.0</ele><time>2016-06-21T22:37:21Z</time></trkpt>
<trkpt lat="47.232668" lon="8.33507"><ele>643.0</ele><time>2016-06-21T22:37:24Z</time></trkpt>
<trkpt lat="47.23314" lon="8.334783"><ele>656.0</ele><time>2016-06-21T22:37:27Z</time></trkpt>
<trkpt lat="47.234474" lon="8.333782"><ele>662.0</ele><time>2016-06-21T22:37:36Z</time></trkpt>
<trkpt lat="47.23473" lon="8.333503"><ele>662.0</ele><time>2016-06-21T22:37:39Z</time></trkpt>
<trkpt lat="47.234919" lon="8.333151"><ele>669.0</ele><time>2016-06-21T22:37:41Z</time></trkpt>
<trkpt lat="47.23532" lon="8.331938"><ele>669.0</ele><time>2016-06-21T22:37:46Z</time></trkpt>
<trkpt lat="47.235623" lon="8.331359"><ele>679.0</ele><time>2016-06-21T22:37:50Z</time></trkpt>
<trkpt lat="47.235973" lon="8.330906"><ele>680.0</ele><time>2016-06-21T22:37:53Z</time></trkpt>
<trkpt lat="47.236015" lon="8.330801"><ele>691.0</ele><time>2016-06-21T22:37:53Z</time></trkpt>
<trkpt lat="47.236045" lon="8.330591"><ele>691.0</ele><time>2016-06-21T22:37:54Z</time></trkpt>
<trkpt lat="47.235943" lon="8.330454"><ele>691.0</ele><time>2016-06-21T22:37:55Z</time></trkpt>
<trkpt lat="47.23582" lon="8.330428"><ele>688.0</ele><time>2016-06-21T22:37:56Z</time></trkpt>
<trkpt lat="47.235274" lon="8.330618"><ele>688.0</ele><time>2016-06-21T22:38:00Z</time></trkpt>
<trkpt lat="47.234071" lon="8.330809"><ele>699.0</ele><time>2016-06-21T22:38:07Z</time></trkpt>
<trkpt lat="47.233924" lon="8.330756"><ele>699.0</ele><time>2016-06-21T22:38:08Z</time></trkpt>
<trkpt lat="47.233508" lon="8.330474"><ele>699.0</ele><time>2016-06-21T22:38:11Z</time></trkpt>
<trkpt lat="47.233382" lon="8.330358"><ele>699.0</ele><time>2016-06-21T22:38:12Z</time></trkpt>
<trkpt lat="47.233247" lon="8.330185"><ele>701.0</ele><time>2016-06-21T22:38:14Z</time></trkpt>
<trkpt lat="47.233135" lon="8.330172"><ele>701.0</ele><time>2016-06-21T22:38:15Z</time></trkpt>
<trkpt lat="47.23242" lon="8.329545"><ele>713.0</ele><time>2016-06-21T22:38:28Z</time></trkpt>
<trkpt lat="47.232298" lon="8.329236"><ele>713.0</ele><time>2016-06-21T22:38:31Z</time></trkpt>
<trkpt lat="47.232054" lon="8.328407"><ele>716.0</ele><time>2016-06-21T22:38:40Z</time></trkpt>
<trkpt lat="47.232048" lon="8.328262"><ele>719.0</ele><time>2016-06-21T22:38:42Z</time></trkpt>
<trkpt lat="47.231897" lon="8.327766"><ele>719.0</ele><time>2016-06-21T22:38:47Z</time></trkpt>
<trkpt lat="47.231828" lon="8.327464"><ele>728.0</ele><time>2016-06-21T22:38:51Z</time></trkpt>
<trkpt lat="47.231788" lon="8.327353"><ele>728.0</ele><time>2016-06-21T22:38:52Z</time></trkpt>
<trkpt lat="47.231528" lon="8.326997"><ele>735.0</ele><time>2016-06-21T22:38:57Z</time></trkpt>
<trkpt lat="47.231482" lon="8.326905"><ele>735.0</ele><time>2016-06-21T22:38:58Z</time></trkpt>
<trkpt lat="47.23136" lon="8.326529"><ele>742.0</ele><time>2016-06-21T22:39:02Z</time></trkpt>
<trkpt lat="47.231283" lon="8.326207"><ele>742.0</ele><time>2016-06-21T22:39:06Z</time></trkpt>
<trkpt lat="47.231229" lon="8.325758"><ele>754.0</ele><time>2016-06-21T22:39:11Z</time></trkpt>
<trkpt lat="47.231202" lon="8.32513"><ele>754.0</ele><time>2016-06-21T22:39:17Z</time></trkpt>
<trkpt lat="47.231087" lon="8.325168"><ele>754.0</ele><time>2016-06-21T22:39:19Z</time></trkpt>
<trkpt lat="47.230871" lon="8.325366"><ele>754.0</ele><time>2016-06-21T22:39:22Z</time></trkpt>
<trkpt lat="47.230655" lon="8.325637"><ele>768.0</ele><time>2016-06-21T22:39:27Z</time></trkpt>
<trkpt lat="47.230374" lon="8.325724"><ele>768.0</ele><time>2016-06-21T22:39:31Z</time></trkpt>
<trkpt lat="47.230031" lon="8.325707"><ele>768.0</ele><time>2016-06-21T22:39:36Z</time></trkpt>
<trkpt lat="47.229713" lon="8.325719"><ele>790.0</ele><time>2016-06-21T22:39:42Z</time></trkpt>
<trkpt lat="47.229407" lon="8.325815"><ele>790.0</ele><time>2016-06-21T22:39:46Z</time></trkpt>
<trkpt lat="47.229073" lon="8.32596"><ele>786.0</ele><time>2016-06-21T22:39:51Z</time></trkpt>
<trkpt lat="47.22874" lon="8.325993"><ele>786.0</ele><time>2016-06-21T22:39:56Z</time></trkpt>
<trkpt lat="47.228367" lon="8.325804"><ele>807.0</ele><time>2016-06-21T22:40:03Z</time></trkpt>
<trkpt lat="47.227991" lon="8.325507"><ele>812.0</ele><time>2016-06-21T22:40:09Z</time></trkpt>
<trkpt lat="47.227691" lon="8.325416"><ele>812.0</ele><time>2016-06-21T22:40:13Z</time></trkpt>
<trkpt lat="47.227349" lon="8.325398"><ele>814.0</ele><time>2016-06-21T22:40:18Z</time></trkpt>
<trkpt lat="47.226994" lon="8.32545"><ele>814.0</ele><time>2016-06-21T22:40:24Z</time></trkpt>
<trkpt lat="47.22661" lon="8.325636"><ele>818.0</ele><time>2016-06-21T22:40:30Z</time></trkpt>
<trkpt lat="47.226049" lon="8.325708"><ele>818.0</ele><time>2016-06-21T22:40:38Z</time></trkpt>
<trkpt lat="47.225765" lon="8.325831"><ele>825.0</ele><time>2016-06-21T22:40:42Z</time></trkpt>
<trkpt lat="47.225384" lon="8.326095"><ele>808.0</ele><time>2016-06-21T22:40:49Z</time></trkpt>
<trkpt lat="47.225191" lon="8.326339"><ele>808.0</ele><time>2016-06-21T22:40:53Z</time></trkpt>
<trkpt lat="47.224974" lon="8.326516"><ele>812.0</ele><time>2016-06-21T22:40:56Z</time></trkpt>
<trkpt lat="47.224625" lon="8.326634"><ele>812.0</ele><time>2016-06-21T22:41:02Z</time></trkpt>
<trkpt lat="47.223941" lon="8.326559"><ele>818.0</ele><time>2016-06-21T22:41:12Z</time></trkpt>
<trkpt lat="47.223618" lon="8.326465"><ele>818.0</ele><time>2016-06-21T22:41:16Z</time></trkpt>
<trkpt lat="47.223115" lon="8.326264"><ele>821.0</ele><time>2016-06-21T22:41:24Z</time></trkpt>
<trkpt lat="47.222739" lon="8.325981"><ele>821.0</ele><time>2016-06-21T22:41:30Z</time></trkpt>
<trkpt lat="47.222418" lon="8.325798"><ele>821.0</ele><time>2016-06-21T22:41:35Z</time></trkpt>
<trkpt lat="47.221127" lon="8.325496"><ele>814.0</ele><time>2016-06-21T22:41:54Z</time></trkpt>
<trkpt lat="47.22077" lon="8.325371"><ele>814.0</ele><time>2016-06-21T22:42:00Z</time></trkpt>
<trkpt lat="47.220543" lon="8.325345"><ele>814.0</ele><time>2016-06-21T22:42:03Z</time></trkpt>
<trkpt lat="47.220365" lon="8.325432"><ele>814.0</ele><time>2016-06-21T22:42:06Z</time></trkpt>
<trkpt lat="47.220151" lon="8.325705"><ele>814.0</ele><time>2016-06-21T22:42:11Z</time></trkpt>
<trkpt lat="47.220061" lon="8.32582"><ele>814.0</ele><time>2016-06-21T22:42:13Z</time></trkpt>
<trkpt lat="47.219663" lon="8.326213"><ele>817.0</ele><time>2016-06-21T22:42:19Z</time></trkpt>
<trkpt lat="47.219526" lon="8.326311"><ele>817.0</ele><time>2016-06-21T22:42:22Z</time></trkpt>
<trkpt lat="47.219333" lon="8.326301"><ele>817.0</ele><time>2016-06-21T22:42:24Z</time></trkpt>
<trkpt lat="47.219" lon="8.326179"><ele>819.0</ele><time>2016-06-21T22:42:29Z</time></trkpt>
<trkpt lat="47.216793" lon="8.325828"><ele>820.0</ele><time>2016-06-21T22:43:01Z</time></trkpt>
<trkpt lat="47.215868" lon="8.32556"><ele>824.0</ele><time>2016-06-21T22:43:15Z</time></trkpt>
<trkpt lat="47.215352" lon="8.325373"><ele>826.0</ele><time>2016-06-21T22:43:22Z</time></trkpt>
<trkpt lat="47.212943" lon="8.324603"><ele>823.0</ele><time>2016-06-21T22:43:57Z</time></trkpt>
<trkpt lat="47.212771" lon="8.32452"><ele>823.0</ele><time>2016-06-21T22:44:00Z</time></trkpt>
<trkpt lat="47.212632" lon="8.324399"><ele>823.0</ele><time>2016-06-21T22:44:02Z</time></trkpt>
<trkpt lat="47.212389" lon="8.324049"><ele>822.0</ele><time>2016-06-21T22:44:07Z</time></trkpt>
<trkpt lat="47.212213" lon="8.323835"><ele>822.0</ele><time>2016-06-21T22:44:10Z</time></trkpt>
<trkpt lat="47.212034" lon="8.323694"><ele>822.0</ele><time>2016-06-21T22:44:13Z</time></trkpt>
<trkpt lat="47.211848" lon="8.32362"><ele>822.0</ele><time>2016-06-21T22:44:16Z</time></trkpt>
<trkpt lat="47.211597" lon="8.323625"><ele>812.0</ele><time>2016-06-21T22:44:20Z</time></trkpt>
<trkpt lat="47.210186" lon="8.323903"><ele>810.0</ele><time>2016-06-21T22:44:40Z</time></trkpt>
<trkpt lat="47.209928" lon="8.323899"><ele>818.0</ele><time>2016-06-21T22:44:44Z</time></trkpt>
<trkpt lat="47.209614" lon="8.323834"><ele>818.0</ele><time>2016-06-21T22:44:49Z</time></trkpt>
<trkpt lat="47.208866" lon="8.32357"><ele>814.0</ele><time>2016-06-21T22:45:00Z</time></trkpt>
<trkpt lat="47.20869" lon="8.323596"><ele>814.0</ele><time>2016-06-21T22:45:02Z</time></trkpt>
<trkpt lat="47.208281" lon="8.323755"><ele>805.0</ele><time>2016-06-21T22:45:08Z</time></trkpt>
<trkpt lat="47.207852" lon="8.32384"><ele>805.0</ele><time>2016-06-21T22:45:14Z</time></trkpt>
<trkpt lat="47.207547" lon="8.323846"><ele>805.0</ele><time>2016-06-21T22:45:19Z</time></trkpt>
<trkpt lat="47.205242" lon="8.323759"><ele>780.0</ele><time>2016-06-21T22:45:52Z</time></trkpt>
<trkpt lat="47.205015" lon="8.323691"><ele>780.0</ele><time>2016-06-21T22:45:55Z</time></trkpt>
<trkpt lat="47.204781" lon="8.32353"><ele>778.0</ele><time>2016-06-21T22:45:59Z</time></trkpt>
<trkpt lat="47.204573" lon="8.323334"><ele>778.0</ele><time>2016-06-21T22:46:03Z</time></trkpt>
<trkpt lat="47.204428" lon="8.323233"><ele>781.0</ele><time>2016-06-21T22:46:05Z</time></trkpt>
<trkpt lat="47.204044" lon="8.323096"><ele>774.0</ele><time>2016-06-21T22:46:11Z</time></trkpt>
<trkpt lat="47.204044" lon="8.323096"><ele>774.0</ele><time>2016-06-21T22:46:11Z</time></trkpt>
<trkpt lat="47.203832" lon="8.32302"><ele>767.0</ele><time>2016-06-21T22:46:14Z</time></trkpt>
<trkpt lat="47.203178" lon="8.322673"><ele>757.0</ele><time>2016-06-21T22:46:24Z</time></trkpt>
<trkpt lat="47.202266" lon="8.322244"><ele>745.0</ele><time>2016-06-21T22:46:38Z</time></trkpt>
<trkpt lat="47.20164" lon="8.322072"><ele>734.0</ele><time>2016-06-21T22:46:47Z</time></trkpt>
<trkpt lat="47.201531" lon="8.321994"><ele>734.0</ele><time>2016-06-21T22:46:49Z</time></trkpt>
<trkpt lat="47.2014" lon="8.321861"><ele>734.0</ele><time>2016-06-21T22:46:51Z</time></trkpt>
<trkpt lat="47.201061" lon="8.321483"><ele>729.0</ele><time>2016-06-21T22:46:57Z</time></trkpt>
<trkpt lat="47.20088" lon="8.321244"><ele>729.0</ele><time>2016-06-21T22:47:01Z</time></trkpt>
<trkpt lat="47.200799" lon="8.321106"><ele>721.0</ele><time>2016-06-21T22:47:03Z</time></trkpt>
<trkpt lat="47.200759" lon="8.320978"><ele>721.0</ele><time>2016-06-21T22:47:04Z</time></trkpt>
<trkpt lat="47.20049" lon="8.31994"><ele>708.0</ele><time>2016-06-21T22:47:15Z</time></trkpt>
<trkpt lat="47.200352" lon="8.319524"><ele>708.0</ele><time>2016-06-21T22:47:20Z</time></trkpt>
<trkpt lat="47.200214" lon="8.31889"><ele>704.0</ele><time>2016-06-21T22:47:26Z</time></trkpt>
<trkpt lat="47.199916" lon="8.317676"><ele>691.0</ele><time>2016-06-21T22:47:39Z</time></trkpt>
<trkpt lat="47.199784" lon="8.317063"><ele>689.0</ele><time>2016-06-21T22:47:45Z</time></trkpt>
<trkpt lat="47.199751" lon="8.316749"><ele>689.0</ele><time>2016-06-21T22:47:48Z</time></trkpt>
<trkpt lat="47.199707" lon="8.316546"><ele>686.0</ele><time>2016-06-21T22:47:50Z</time></trkpt>
<trkpt lat="47.199516" lon="8.315965"><ele>686.0</ele><time>2016-06-21T22:47:56Z</time></trkpt>
<trkpt lat="47.199478" lon="8.315616"><ele>685.0</ele><time>2016-06-21T22:48:00Z</time></trkpt>
<trkpt lat="47.199482" lon="8.315297"><ele>685.0</ele><time>2016-06-21T22:48:03Z</time></trkpt>
<trkpt lat="47.199534" lon="8.314895"><ele>682.0</ele><time>2016-06-21T22:48:07Z</time></trkpt>
<trkpt lat="47.199617" lon="8.314656"><ele>682.0</ele><time>2016-06-21T22:48:09Z</time></trkpt>
<trkpt lat="47.199645" lon="8.314471"><ele>682.0</ele><time>2016-06-21T22:48:11Z</time></trkpt>
<trkpt lat="47.19963" lon="8.314332"><ele>682.0</ele><time>2016-06-21T22:48:13Z</time></trkpt>
<trkpt lat="47.199582" lon="8.314197"><ele>682.0</ele><time>2016-06-21T22:48:14Z</time></trkpt>
<trkpt lat="47.199466" lon="8.313968"><ele>680.0</ele><time>2016-06-21T22:48:17Z</time></trkpt>
<trkpt lat="47.199364" lon="8.313686"><ele>680.0</ele><time>2016-06-21T22:48:20Z</time></trkpt>
<trkpt lat="47.199299" lon="8.313453"><ele>680.0</ele><time>2016-06-21T22:48:23Z</time></trkpt>
<trkpt lat="47.199273" lon="8.313211"><ele>681.0</ele><time>2016-06-21T22:48:25Z</time></trkpt>
<trkpt lat="47.199473" lon="8.311637"><ele>678.0</ele><time>2016-06-21T22:48:40Z</time></trkpt>
<trkpt lat="47.199514" lon="8.311413"><ele>678.0</ele><time>2016-06-21T22:48:43Z</time></trkpt>
<trkpt lat="47.199666" lon="8.311086"><ele>678.0</ele><time>2016-06-21T22:48:47Z</time></trkpt>
<trkpt lat="47.200197" lon="8.310235"><ele>688.0</ele><time>2016-06-21T22:48:58Z</time></trkpt>
<trkpt lat="47.200363" lon="8.310008"><ele>688.0</ele><time>2016-06-21T22:49:01Z</time></trkpt>
<trkpt lat="47.200547" lon="8.309648"><ele>683.0</ele><time>2016-06-21T22:49:06Z</time></trkpt>
<trkpt lat="47.20065" lon="8.309228"><ele>683.0</ele><time>2016-06-21T22:49:10Z</time></trkpt>
<trkpt lat="47.200685" lon="8.308874"><ele>678.0</ele><time>2016-06-21T22:49:13Z</time></trkpt>
<trkpt lat="47.200652" lon="8.308503"><ele>678.0</ele><time>2016-06-21T22:49:17Z</time></trkpt>
<trkpt lat="47.200643" lon="8.308049"><ele>670.0</ele><time>2016-06-21T22:49:22Z</time></trkpt>
<trkpt lat="47.200723" lon="8.307222"><ele>662.0</ele><time>2016-06-21T22:49:30Z</time></trkpt>
<trkpt lat="47.200725" lon="8.307045"><ele>662.0</ele><time>2016-06-21T22:49:31Z</time></trkpt>
<trkpt lat="47.20064" lon="8.306691"><ele>662.0</ele><time>2016-06-21T22:49:35Z</time></trkpt>
<trkpt lat="47.200552" lon="8.306427"><ele>656.0</ele><time>2016-06-21T22:49:38Z</time></trkpt>
<trkpt lat="47.200437" lon="8.305895"><ele>656.0</ele><time>2016-06-21T22:49:43Z</time></trkpt>
<trkpt lat="47.200306" lon="8.305019"><ele>652.0</ele><time>2016-06-21T22:49:52Z</time></trkpt>
<trkpt lat="47.20024" lon="8.304792"><ele>641.0</ele><time>2016-06-21T22:49:55Z</time></trkpt>
<trkpt lat="47.200149" lon="8.30459"><ele>641.0</ele><time>2016-06-21T22:49:57Z</time></trkpt>
<trkpt lat="47.200059" lon="8.304463"><ele>641.0</ele><time>2016-06-21T22:49:59Z</time></trkpt>
<trkpt lat="47.199707" lon="8.304066"><ele>618.0</ele><time>2016-06-21T22:50:06Z</time></trkpt>
<trkpt lat="47.199585" lon="8.303821"><ele>618.0</ele><time>2016-06-21T22:50:09Z</time></trkpt>
<trkpt lat="47.199542" lon="8.303594"><ele>618.0</ele><time>2016-06-21T22:50:11Z</time></trkpt>
<trkpt lat="47.199557" lon="8.303345"><ele>618.0</ele><time>2016-06-21T22:50:14Z</time></trkpt>
<trkpt lat="47.199638" lon="8.302954"><ele>609.0</ele><time>2016-06-21T22:50:18Z</time></trkpt>
<trkpt lat="47.199642" lon="8.302732"><ele>609.0</ele><time>2016-06-21T22:50:20Z</time></trkpt>
<trkpt lat="47.199621" lon="8.302527"><ele>609.0</ele><time>2016-06-21T22:50:22Z</time></trkpt>
<trkpt lat="47.199408" lon="8.301619"><ele>598.0</ele><time>2016-06-21T22:50:32Z</time></trkpt>
<trkpt lat="47.199268" lon="8.301147"><ele>598.0</ele><time>2016-06-21T22:50:37Z</time></trkpt>
<trkpt lat="47.199136" lon="8.300802"><ele>587.0</ele><time>2016-06-21T22:50:41Z</time></trkpt>
<trkpt lat="47.198817" lon="8.300222"><ele>587.0</ele><time>2016-06-21T22:50:48Z</time></trkpt>
<trkpt lat="47.199182" lon="8.299968"><ele>588.0</ele><time>2016-06-21T22:50:53Z</time></trkpt>
<trkpt lat="47.199612" lon="8.299711"><ele>588.0</ele><time>2016-06-21T22:50:58Z</time></trkpt>
<trkpt lat="47.199768" lon="8.299658"><ele>588.0</ele><time>2016-06-21T22:51:00Z</time></trkpt>
<trkpt lat="47.199982" lon="8.299627"><ele>588.0</ele><time>2016-06-21T22:51:02Z</time></trkpt>
<trkpt lat="47.201829" lon="8.299494"><ele>609.0</ele><time>2016-06-21T22:51:23Z</time></trkpt>
<trkpt lat="47.201971" lon="8.299449"><ele>609.0</ele><time>2016-06-21T22:51:25Z</time></trkpt>
<trkpt lat="47.202165" lon="8.299285"><ele>609.0</ele><time>2016-06-21T22:51:27Z</time></trkpt>
<trkpt lat="47.202246" lon="8.29915"><ele>602.0</ele><time>2016-06-21T22:51:29Z</time></trkpt>
<trkpt lat="47.202383" lon="8.29883"><ele>602.0</ele><time>2016-06-21T22:51:31Z</time></trkpt>
<trkpt lat="47.202514" lon="8.298605"><ele>611.0</ele><time>2016-06-21T22:51:34Z</time></trkpt>
<trkpt lat="47.202643" lon="8.298502"><ele>611.0</ele><time>2016-06-21T22:51:35Z</time></trkpt>
<trkpt lat="47.202839" lon="8.298404"><ele>611.0</ele><time>2016-06-21T22:51:38Z</time></trkpt>
<trkpt lat="47.203961" lon="8.298108"><ele>612.0</ele><time>2016-06-21T22:51:50Z</time></trkpt>
<trkpt lat="47.204094" lon="8.29811"><ele>612.0</ele><time>2016-06-21T22:51:52Z</time></trkpt>
<trkpt lat="47.204233" lon="8.29815"><ele>619.0</ele><time>2016-06-21T22:51:54Z</time></trkpt>
<trkpt lat="47.204408" lon="8.298261"><ele>619.0</ele><time>2016-06-21T22:51:56Z</time></trkpt>
<trkpt lat="47.204803" lon="8.298604"><ele>621.0</ele><time>2016-06-21T22:52:01Z</time></trkpt>
<trkpt lat="47.205086" lon="8.298798"><ele>631.0</ele><time>2016-06-21T22:52:04Z</time></trkpt>
<trkpt lat="47.205684" lon="8.299141"><ele>631.0</ele><time>2016-06-21T22:52:12Z</time></trkpt>
<trkpt lat="47.205868" lon="8.29917"><ele>645.0</ele><time>2016-06-21T22:52:14Z</time></trkpt>
<trkpt lat="47.206017" lon="8.299124"><ele>644.0</ele><time>2016-06-21T22:52:16Z</time></trkpt>
<trkpt lat="47.206119" lon="8.299044"><ele>644.0</ele><time>2016-06-21T22:52:17Z</time></trkpt>
<trkpt lat="47.206529" lon="8.298618"><ele>644.0</ele><time>2016-06-21T22:52:23Z</time></trkpt>
<trkpt lat="47.206613" lon="8.298564"><ele>644.0</ele><time>2016-06-21T22:52:24Z</time></trkpt>
<trkpt lat="47.206732" lon="8.29852"><ele>649.0</ele><time>2016-06-21T22:52:25Z</time></trkpt>
<trkpt lat="47.206872" lon="8.298508"><ele>649.0</ele><time>2016-06-21T22:52:27Z</time></trkpt>
<trkpt lat="47.207216" lon="8.29856"><ele>649.0</ele><time>2016-06-21T22:52:31Z</time></trkpt>
<trkpt lat="47.207291" lon="8.298572"><ele>649.0</ele><time>2016-06-21T22:52:32Z</time></trkpt>
<trkpt lat="47.207571" lon="8.298554"><ele>655.0</ele><time>2016-06-21T22:52:35Z</time></trkpt>
<trkpt lat="47.207719" lon="8.298483"><ele>655.0</ele><time>2016-06-21T22:52:37Z</time></trkpt>
<trkpt lat="47.207775" lon="8.298404"><ele>655.0</ele><time>2016-06-21T22:52:38Z</time></trkpt>
<trkpt lat="47.207811" lon="8.2983"><ele>647.0</ele><time>2016-06-21T22:52:40Z</time></trkpt>
<trkpt lat="47.207841" lon="8.297907"><ele>647.0</ele><time>2016-06-21T22:52:43Z</time></trkpt>
<trkpt lat="47.207873" lon="8.297726"><ele>647.0</ele><time>2016-06-21T22:52:45Z</time></trkpt>
<trkpt lat="47.208178" lon="8.296626"><ele>640.0</ele><time>2016-06-21T22:52:56Z</time></trkpt>
<trkpt lat="47.208225" lon="8.296501"><ele>640.0</ele><time>2016-06-21T22:52:57Z</time></trkpt>
<trkpt lat="47.208335" lon="8.296257"><ele>640.0</ele><time>2016-06-21T22:53:00Z</time></trkpt>
<trkpt lat="47.2085" lon="8.29607"><ele>640.0</ele><time>2016-06-21T22:53:01Z</time></trkpt>
<trkpt lat="47.20884" lon="8.29588"><ele>640.0</ele><time>2016-06-21T22:53:05Z</time></trkpt>
<trkpt lat="47.210657" lon="8.294109"><ele>643.0</ele><time>2016-06-21T22:53:25Z</time></trkpt>
<trkpt lat="47.210789" lon="8.293943"><ele>643.0</ele><time>2016-06-21T22:53:26Z</time></trkpt>
<trkpt lat="47.210896" lon="8.293767"><ele>657.0</ele><time>2016-06-21T22:53:28Z</time></trkpt>
<trkpt lat="47.212475" lon="8.289975"><ele>649.0</ele><time>2016-06-21T22:53:56Z</time></trkpt>
<trkpt lat="47.212542" lon="8.289819"><ele>659.0</ele><time>2016-06-21T22:53:57Z</time></trkpt>
<trkpt lat="47.212738" lon="8.289334"><ele>659.0</ele><time>2016-06-21T22:54:01Z</time></trkpt>
<trkpt lat="47.212847" lon="8.289174"><ele>659.0</ele><time>2016-06-21T22:54:03Z</time></trkpt>
<trkpt lat="47.213016" lon="8.289037"><ele>647.0</ele><time>2016-06-21T22:54:06Z</time></trkpt>
<trkpt lat="47.213206" lon="8.288975"><ele>647.0</ele><time>2016-06-21T22:54:08Z</time></trkpt>
<trkpt lat="47.214979" lon="8.288588"><ele>660.0</ele><time>2016-06-21T22:54:28Z</time></trkpt>
<trkpt lat="47.21525" lon="8.288569"><ele>658.0</ele><time>2016-06-21T22:54:31Z</time></trkpt>
<trkpt lat="47.215365" lon="8.288596"><ele>658.0</ele><time>2016-06-21T22:54:32Z</time></trkpt>
<trkpt lat="47.215534" lon="8.288679"><ele>658.0</ele><time>2016-06-21T22:54:34Z</time></trkpt>
<trkpt lat="47.216066" lon="8.289096"><ele>653.0</ele><time>2016-06-21T22:54:41Z</time></trkpt>
<trkpt lat="47.216158" lon="8.289133"><ele>653.0</ele><time>2016-06-21T22:54:42Z</time></trkpt>
<trkpt lat="47.216249" lon="8.2891"><ele>653.0</ele><time>2016-06-21T22:54:43Z</time></trkpt>
<trkpt lat="47.216337" lon="8.289033"><ele>653.0</ele><time>2016-06-21T22:54:44Z</time></trkpt>
<trkpt lat="47.217049" lon="8.287859"><ele>652.0</ele><time>2016-06-21T22:54:56Z</time></trkpt>
<trkpt lat="47.217132" lon="8.287746"><ele>652.0</ele><time>2016-06-21T22:54:57Z</time></trkpt>
<trkpt lat="47.217261" lon="8.287676"><ele>652.0</ele><time>2016-06-21T22:54:59Z</time></trkpt>
<trkpt lat="47.217389" lon="8.287661"><ele>652.0</ele><time>2016-06-21T22:55:00Z</time></trkpt>
<trkpt lat="47.217513" lon="8.287702"><ele>651.0</ele><time>2016-06-21T22:55:02Z</time></trkpt>
<trkpt lat="47.217656" lon="8.287843"><ele>651.0</ele><time>2016-06-21T22:55:03Z</time></trkpt>
<trkpt lat="47.217895" lon="8.288217"><ele>651.0</ele><time>2016-06-21T22:55:07Z</time></trkpt>
<trkpt lat="47.218018" lon="8.288308"><ele>651.0</ele><time>2016-06-21T22:55:09Z</time></trkpt>
<trkpt lat="47.218132" lon="8.288334"><ele>658.0</ele><time>2016-06-21T22:55:10Z</time></trkpt>
<trkpt lat="47.218228" lon="8.288317"><ele>651.0</ele><time>2016-06-21T22:55:12Z</time></trkpt>
<trkpt lat="47.218362" lon="8.288213"><ele>665.0</ele><time>2016-06-21T22:55:14Z</time></trkpt>
<trkpt lat="47.218447" lon="8.288005"><ele>665.0</ele><time>2016-06-21T22:55:16Z</time></trkpt>
<trkpt lat="47.218449" lon="8.287702"><ele>665.0</ele><time>2016-06-21T22:55:18Z</time></trkpt>
<trkpt lat="47.218429" lon="8.287541"><ele>665.0</ele><time>2016-06-21T22:55:19Z</time></trkpt>
<trkpt lat="47.218428" lon="8.287267"><ele>659.0</ele><time>2016-06-21T22:55:21Z</time></trkpt>
<trkpt lat="47.218471" lon="8.287023"><ele>659.0</ele><time>2016-06-21T22:55:23Z</time></trkpt>
<trkpt lat="47.218615" lon="8.28676"><ele>659.0</ele><time>2016-06-21T22:55:26Z</time></trkpt>
<trkpt lat="47.219284" lon="8.28603"><ele>662.0</ele><time>2016-06-21T22:55:35Z</time></trkpt>
<trkpt lat="47.219527" lon="8.285877"><ele>662.0</ele><time>2016-06-21T22:55:38Z</time></trkpt>
<trkpt lat="47.21977" lon="8.285785"><ele>658.0</ele><time>2016-06-21T22:55:41Z</time></trkpt>
<trkpt lat="47.219985" lon="8.285609"><ele>658.0</ele><time>2016-06-21T22:55:44Z</time></trkpt>
<trkpt lat="47.220094" lon="8.285474"><ele>668.0</ele><time>2016-06-21T22:55:45Z</time></trkpt>
<trkpt lat="47.22017" lon="8.285329"><ele>668.0</ele><time>2016-06-21T22:55:47Z</time></trkpt>
<trkpt lat="47.220223" lon="8.28519"><ele>668.0</ele><time>2016-06-21T22:55:48Z</time></trkpt>
<trkpt lat="47.220406" lon="8.284297"><ele>662.0</ele><time>2016-06-21T22:55:52Z</time></trkpt>
<trkpt lat="47.220439" lon="8.284022"><ele>657.0</ele><time>2016-06-21T22:55:53Z</time></trkpt>
<trkpt lat="47.22045" lon="8.283698"><ele>657.0</ele><time>2016-06-21T22:55:54Z</time></trkpt>
<trkpt lat="47.220473" lon="8.283398"><ele>657.0</ele><time>2016-06-21T22:55:56Z</time></trkpt>
<trkpt lat="47.220514" lon="8.283196"><ele>650.0</ele><time>2016-06-21T22:55:57Z</time></trkpt>
<trkpt lat="47.220647" lon="8.282845"><ele>650.0</ele><time>2016-06-21T22:56:00Z</time></trkpt>
<trkpt lat="47.220683" lon="8.2827"><ele>650.0</ele><time>2016-06-21T22:56:01Z</time></trkpt>
<trkpt lat="47.220691" lon="8.282548"><ele>650.0</ele><time>2016-06-21T22:56:01Z</time></trkpt>
<trkpt lat="47.220662" lon="8.282364"><ele>640.0</ele><time>2016-06-21T22:56:03Z</time></trkpt>
<trkpt lat="47.220527" lon="8.282047"><ele>640.0</ele><time>2016-06-21T22:56:05Z</time></trkpt>
<trkpt lat="47.220098" lon="8.281152"><ele>634.0</ele><time>2016-06-21T22:56:11Z</time></trkpt>
<trkpt lat="47.220098" lon="8.281152"><ele>634.0</ele><time>2016-06-21T22:56:11Z</time></trkpt>
<trkpt lat="47.219822" lon="8.280578"><ele>628.0</ele><time>2016-06-21T22:56:14Z</time></trkpt>
<trkpt lat="47.219237" lon="8.279255"><ele>622.0</ele><time>2016-06-21T22:56:21Z</time></trkpt>
<trkpt lat="47.218768" lon="8.278389"><ele>615.0</ele><time>2016-06-21T22:56:26Z</time></trkpt>
<trkpt lat="47.21867" lon="8.278273"><ele>610.0</ele><time>2016-06-21T22:56:26Z</time></trkpt>
<trkpt lat="47.218578" lon="8.278239"><ele>610.0</ele><time>2016-06-21T22:56:27Z</time></trkpt>
<trkpt lat="47.218488" lon="8.278268"><ele>610.0</ele><time>2016-06-21T22:56:28Z</time></trkpt>
<trkpt lat="47.218419" lon="8.278383"><ele>615.0</ele><time>2016-06-21T22:56:28Z</time></trkpt>
<trkpt lat="47.218029" lon="8.279304"><ele>608.0</ele><time>2016-06-21T22:56:33Z</time></trkpt>
<trkpt lat="47.217501" lon="8.280426"><ele>609.0</ele><time>2016-06-21T22:56:39Z</time></trkpt>
<trkpt lat="47.217426" lon="8.280503"><ele>594.0</ele><time>2016-06-21T22:56:40Z</time></trkpt>
<trkpt lat="47.2173" lon="8.28054"><ele>594.0</ele><time>2016-06-21T22:56:41Z</time></trkpt>
<trkpt lat="47.217161" lon="8.280431"><ele>594.0</ele><time>2016-06-21T22:56:41Z</time></trkpt>
<trkpt lat="47.217098" lon="8.280292"><ele>594.0</ele><time>2016-06-21T22:56:42Z</time></trkpt>
<trkpt lat="47.217019" lon="8.279846"><ele>592.0</ele><time>2016-06-21T22:56:44Z</time></trkpt>
<trkpt lat="47.216863" lon="8.279152"><ele>590.0</ele><time>2016-06-21T22:56:47Z</time></trkpt>
<trkpt lat="47.216622" lon="8.277918"><ele>569.0</ele><time>2016-06-21T22:56:53Z</time></trkpt>
<trkpt lat="47.216414" lon="8.277126"><ele>567.0</ele><time>2016-06-21T22:56:56Z</time></trkpt>
<trkpt lat="47.216239" lon="8.276695"><ele>567.0</ele><time>2016-06-21T22:56:59Z</time></trkpt>
<trkpt lat="47.216191" lon="8.276539"><ele>564.0</ele><time>2016-06-21T22:56:59Z</time></trkpt>
<trkpt lat="47.215901" lon="8.276029"><ele>564.0</ele><time>2016-06-21T22:57:02Z</time></trkpt>
<trkpt lat="47.215727" lon="8.275895"><ele>561.0</ele><time>2016-06-21T22:57:03Z</time></trkpt>
<trkpt lat="47.215491" lon="8.275839"><ele>561.0</ele><time>2016-06-21T22:57:05Z</time></trkpt>
<trkpt lat="47.215461" lon="8.275839"><ele>561.0</ele><time>2016-06-21T22:57:05Z</time></trkpt>
<trkpt lat="47.215073" lon="8.275825"><ele>553.0</ele><time>2016-06-21T22:57:09Z</time></trkpt>
<trkpt lat="47.214918" lon="8.27573"><ele>545.0</ele><time>2016-06-21T22:57:10Z</time></trkpt>
<trkpt lat="47.214763" lon="8.275466"><ele>545.0</ele><time>2016-06-21T22:57:13Z</time></trkpt>
<trkpt lat="47.214702" lon="8.275119"><ele>545.0</ele><time>2016-06-21T22:57:15Z</time></trkpt>
<trkpt lat="47.214745" lon="8.274595"><ele>537.0</ele><time>2016-06-21T22:57:18Z</time></trkpt>
<trkpt lat="47.214796" lon="8.274393"><ele>537.0</ele><time>2016-06-21T22:57:20Z</time></trkpt>
<trkpt lat="47.214898" lon="8.274155"><ele>534.0</ele><time>2016-06-21T22:57:21Z</time></trkpt>
<trkpt lat="47.215102" lon="8.273839"><ele>533.0</ele><time>2016-06-21T22:57:24Z</time></trkpt>
<trkpt lat="47.215418" lon="8.273258"><ele>526.0</ele><time>2016-06-21T22:57:29Z</time></trkpt>
<trkpt lat="47.215525" lon="8.272905"><ele>526.0</ele><time>2016-06-21T22:57:31Z</time></trkpt>
<trkpt lat="47.215556" lon="8.272512"><ele>526.0</ele><time>2016-06-21T22:57:33Z</time></trkpt>
<trkpt lat="47.215511" lon="8.272173"><ele>518.0</ele><time>2016-06-21T22:57:36Z</time></trkpt>
<trkpt lat="47.215432" lon="8.271902"><ele>518.0</ele><time>2016-06-21T22:57:38Z</time></trkpt>
<trkpt lat="47.215408" lon="8.271656"><ele>513.0</ele><time>2016-06-21T22:57:39Z</time></trkpt>
<trkpt lat="47.215459" lon="8.271286"><ele>513.0</ele><time>2016-06-21T22:57:42Z</time></trkpt>
<trkpt lat="47.21561" lon="8.270755"><ele>509.0</ele><time>2016-06-21T22:57:45Z</time></trkpt>
<trkpt lat="47.215694" lon="8.270602"><ele>509.0</ele><time>2016-06-21T22:57:46Z</time></trkpt>
<trkpt lat="47.215818" lon="8.270462"><ele>509.0</ele><time>2016-06-21T22:57:48Z</time></trkpt>
<trkpt lat="47.215967" lon="8.270336"><ele>511.0</ele><time>2016-06-21T22:57:49Z</time></trkpt>
<trkpt lat="47.216138" lon="8.270265"><ele>511.0</ele><time>2016-06-21T22:57:51Z</time></trkpt>
<trkpt lat="47.216436" lon="8.270268"><ele>511.0</ele><time>2016-06-21T22:57:54Z</time></trkpt>
<trkpt lat="47.216565" lon="8.270233"><ele>511.0</ele><time>2016-06-21T22:57:55Z</time></trkpt>
<trkpt lat="47.216697" lon="8.270148"><ele>511.0</ele><time>2016-06-21T22:57:56Z</time></trkpt>
<trkpt lat="47.216821" lon="8.270013"><ele>511.0</ele><time>2016-06-21T22:57:58Z</time></trkpt>
<trkpt lat="47.216971" lon="8.269749"><ele>499.0</ele><time>2016-06-21T22:58:00Z</time></trkpt>
<trkpt lat="47.217276" lon="8.269143"><ele>495.0</ele><time>2016-06-21T22:58:05Z</time></trkpt>
<trkpt lat="47.217354" lon="8.268915"><ele>495.0</ele><time>2016-06-21T22:58:06Z</time></trkpt>
<trkpt lat="47.217404" lon="8.268687"><ele>495.0</ele><time>2016-06-21T22:58:08Z</time></trkpt>
<trkpt lat="47.217426" lon="8.268503"><ele>495.0</ele><time>2016-06-21T22:58:09Z</time></trkpt>
<trkpt lat="47.217417" lon="8.268276"><ele>493.0</ele><time>2016-06-21T22:58:10Z</time></trkpt>
<trkpt lat="47.217382" lon="8.268148"><ele>493.0</ele><time>2016-06-21T22:58:11Z</time></trkpt>
<trkpt lat="47.21717" lon="8.267656"><ele>493.0</ele><time>2016-06-21T22:58:15Z</time></trkpt>
<trkpt lat="47.216915" lon="8.26722"><ele>485.0</ele><time>2016-06-21T22:58:18Z</time></trkpt>
<trkpt lat="47.216731" lon="8.267059"><ele>485.0</ele><time>2016-06-21T22:58:20Z</time></trkpt>
<trkpt lat="47.215958" lon="8.266582"><ele>481.0</ele><time>2016-06-21T22:58:28Z</time></trkpt>
<trkpt lat="47.215634" lon="8.266346"><ele>479.0</ele><time>2016-06-21T22:58:31Z</time></trkpt>
<trkpt lat="47.214832" lon="8.265485"><ele>474.0</ele><time>2016-06-21T22:58:40Z</time></trkpt>
<trkpt lat="47.214779" lon="8.265352"><ele>474.0</ele><time>2016-06-21T22:58:42Z</time></trkpt>
<trkpt lat="47.21484" lon="8.2653"><ele>474.0</ele><time>2016-06-21T22:58:42Z</time></trkpt>
<trkpt lat="47.214863" lon="8.265221"><ele>474.0</ele><time>2016-06-21T22:58:43Z</time></trkpt>
<trkpt lat="47.214851" lon="8.265128"><ele>474.0</ele><time>2016-06-21T22:58:43Z</time></trkpt>
<trkpt lat="47.214825" lon="8.265084"><ele>474.0</ele><time>2016-06-21T22:58:44Z</time></trkpt>
<trkpt lat="47.214758" lon="8.265051"><ele>474.0</ele><time>2016-06-21T22:58:44Z</time></trkpt>
<trkpt lat="47.2148" lon="8.264873"><ele>472.0</ele><time>2016-06-21T22:58:46Z</time></trkpt>
<trkpt lat="47.215636" lon="8.263505"><ele>471.0</ele><time>2016-06-21T22:58:57Z</time></trkpt>
<trkpt lat="47.215703" lon="8.26338"><ele>471.0</ele><time>2016-06-21T22:58:58Z</time></trkpt>
<trkpt lat="47.215815" lon="8.26306"><ele>468.0</ele><time>2016-06-21T22:59:00Z</time></trkpt>
<trkpt lat="47.216011" lon="8.262735"><ele>468.0</ele><time>2016-06-21T22:59:03Z</time></trkpt>
<trkpt lat="47.216528" lon="8.26185"><ele>466.0</ele><time>2016-06-21T22:59:10Z</time></trkpt>
<trkpt lat="47.217905" lon="8.259511"><ele>465.0</ele><time>2016-06-21T22:59:26Z</time></trkpt>
<trkpt lat="47.221318" lon="8.253637"><ele>471.0</ele><time>2016-06-21T23:00:05Z</time></trkpt>
<trkpt lat="47.221469" lon="8.253381"><ele>471.0</ele><time>2016-06-21T23:00:07Z</time></trkpt>
<trkpt lat="47.221425" lon="8.253286"><ele>467.0</ele><time>2016-06-21T23:00:09Z</time></trkpt>
<trkpt lat="47.221336" lon="8.252898"><ele>467.0</ele><time>2016-06-21T23:00:16Z</time></trkpt>
<trkpt lat="47.221292" lon="8.252514"><ele>467.0</ele><time>2016-06-21T23:00:23Z</time></trkpt>
<trkpt lat="47.22127" lon="8.251961"><ele>467.0</ele><time>2016-06-21T23:00:32Z</time></trkpt>
<trkpt lat="47.221288" lon="8.251597"><ele>468.0</ele><time>2016-06-21T23:00:39Z</time></trkpt>
<trkpt lat="47.221171" lon="8.251385"><ele>468.0</ele><time>2016-06-21T23:00:41Z</time></trkpt>
<trkpt lat="47.22113" lon="8.251358"><ele>468.0</ele><time>2016-06-21T23:00:41Z</time></trkpt>
<trkpt lat="47.221091" lon="8.251361"><ele>468.0</ele><time>2016-06-21T23:00:41Z</time></trkpt>
<trkpt lat="47.22063" lon="8.251498"><ele>465.0</ele><time>2016-06-21T23:00:45Z</time></trkpt>
<trkpt lat="47.220484" lon="8.251496"><ele>465.0</ele><time>2016-06-21T23:00:46Z</time></trkpt>
<trkpt lat="47.220389" lon="8.251449"><ele>465.0</ele><time>2016-06-21T23:00:47Z</time></trkpt>
<trkpt lat="47.22034" lon="8.251357"><ele>465.0</ele><time>2016-06-21T23:00:48Z</time></trkpt>
<trkpt lat="47.220317" lon="8.250945"><ele>465.0</ele><time>2016-06-21T23:00:50Z</time></trkpt>
<trkpt lat="47.220091" lon="8.250215"><ele>464.0</ele><time>2016-06-21T23:00:54Z</time></trkpt>
<trkpt lat="47.219915" lon="8.249441"><ele>465.0</ele><time>2016-06-21T23:00:59Z</time></trkpt>
<trkpt lat="47.219891" lon="8.249172"><ele>465.0</ele><time>2016-06-21T23:01:00Z</time></trkpt>
<trkpt lat="47.219915" lon="8.248918"><ele>466.0</ele><time>2016-06-21T23:01:01Z</time></trkpt>
<trkpt lat="47.220001" lon="8.248693"><ele>464.0</ele><time>2016-06-21T23:01:03Z</time></trkpt>
<trkpt lat="47.220074" lon="8.248386"><ele>464.0</ele><time>2016-06-21T23:01:05Z</time></trkpt>
<trkpt lat="47.22008" lon="8.248191"><ele>465.0</ele><time>2016-06-21T23:01:06Z</time></trkpt>
<trkpt lat="47.220055" lon="8.248009"><ele>465.0</ele><time>2016-06-21T23:01:07Z</time></trkpt>
<trkpt lat="47.219904" lon="8.247441"><ele>468.0</ele><time>2016-06-21T23:01:10Z</time></trkpt>
<trkpt lat="47.219518" lon="8.246423"><ele>468.0</ele><time>2016-06-21T23:01:16Z</time></trkpt>
<trkpt lat="47.219363" lon="8.245906"><ele>468.0</ele><time>2016-06-21T23:01:19Z</time></trkpt>
<trkpt lat="47.21913" lon="8.244973"><ele>468.0</ele><time>2016-06-21T23:01:25Z</time></trkpt>
<trkpt lat="47.218966" lon="8.244127"><ele>468.0</ele><time>2016-06-21T23:01:29Z</time></trkpt>
<trkpt lat="47.218845" lon="8.243212"><ele>469.0</ele><time>2016-06-21T23:01:34Z</time></trkpt>
<trkpt lat="47.218795" lon="8.242945"><ele>469.0</ele><time>2016-06-21T23:01:36Z</time></trkpt>
<trkpt lat="47.218745" lon="8.242805"><ele>469.0</ele><time>2016-06-21T23:01:37Z</time></trkpt>
<trkpt lat="47.218681" lon="8.242754"><ele>469.0</ele><time>2016-06-21T23:01:37Z</time></trkpt>
<trkpt lat="47.218145" lon="8.242668"><ele>468.0</ele><time>2016-06-21T23:01:42Z</time></trkpt>
<trkpt lat="47.217997" lon="8.242612"><ele>468.0</ele><time>2016-06-21T23:01:43Z</time></trkpt>
<trkpt lat="47.217859" lon="8.242529"><ele>468.0</ele><time>2016-06-21T23:01:44Z</time></trkpt>
<trkpt lat="47.217465" lon="8.242224"><ele>465.0</ele><time>2016-06-21T23:01:47Z</time></trkpt>
<trkpt lat="47.217297" lon="8.242134"><ele>465.0</ele><time>2016-06-21T23:01:49Z</time></trkpt>
<trkpt lat="47.217086" lon="8.242065"><ele>465.0</ele><time>2016-06-21T23:01:51Z</time></trkpt>
<trkpt lat="47.214727" lon="8.241662"><ele>467.0</ele><time>2016-06-21T23:02:09Z</time></trkpt>
<trkpt lat="47.214529" lon="8.241646"><ele>467.0</ele><time>2016-06-21T23:02:11Z</time></trkpt>
<trkpt lat="47.213302" lon="8.241714"><ele>466.0</ele><time>2016-06-21T23:02:21Z</time></trkpt>
<trkpt lat="47.212749" lon="8.24179"><ele>466.0</ele><time>2016-06-21T23:02:25Z</time></trkpt>
<trkpt lat="47.212603" lon="8.241821"><ele>466.0</ele><time>2016-06-21T23:02:26Z</time></trkpt>
<trkpt lat="47.211653" lon="8.242216"><ele>468.0</ele><time>2016-06-21T23:02:34Z</time></trkpt>
<trkpt lat="47.211402" lon="8.242286"><ele>468.0</ele><time>2016-06-21T23:02:36Z</time></trkpt>
<trkpt lat="47.210834" lon="8.242412"><ele>468.0</ele><time>2016-06-21T23:02:41Z</time></trkpt>
<trkpt lat="47.210318" lon="8.24249"><ele>472.0</ele><time>2016-06-21T23:02:45Z</time></trkpt>
<trkpt lat="47.210091" lon="8.242502"><ele>470.0</ele><time>2016-06-21T23:02:47Z</time></trkpt>
<trkpt lat="47.209894" lon="8.242485"><ele>479.0</ele><time>2016-06-21T23:02:48Z</time></trkpt>
<trkpt lat="47.209904" lon="8.242307"><ele>479.0</ele><time>2016-06-21T23:02:49Z</time></trkpt>
<trkpt lat="47.20988" lon="8.242179"><ele>479.0</ele><time>2016-06-21T23:02:50Z</time></trkpt>
<trkpt lat="47.20983" lon="8.242116"><ele>479.0</ele><time>2016-06-21T23:02:51Z</time></trkpt>
<trkpt lat="47.209689" lon="8.242055"><ele>479.0</ele><time>2016-06-21T23:02:52Z</time></trkpt>
<trkpt lat="47.209522" lon="8.241933"><ele>479.0</ele><time>2016-06-21T23:02:53Z</time></trkpt>
<trkpt lat="47.208903" lon="8.241303"><ele>484.0</ele><time>2016-06-21T23:02:59Z</time></trkpt>
<trkpt lat="47.20875" lon="8.241191"><ele>484.0</ele><time>2016-06-21T23:03:00Z</time></trkpt>
<trkpt lat="47.208418" lon="8.241127"><ele>484.0</ele><time>2016-06-21T23:03:03Z</time></trkpt>
<trkpt lat="47.207508" lon="8.241033"><ele>488.0</ele><time>2016-06-21T23:03:10Z</time></trkpt>
<trkpt lat="47.207249" lon="8.241025"><ele>494.0</ele><time>2016-06-21T23:03:12Z</time></trkpt>
<trkpt lat="47.206528" lon="8.241131"><ele>503.0</ele><time>2016-06-21T23:03:18Z</time></trkpt>
<trkpt lat="47.206213" lon="8.241131"><ele>503.0</ele><time>2016-06-21T23:03:21Z</time></trkpt>
<trkpt lat="47.2056" lon="8.241019"><ele>511.0</ele><time>2016-06-21T23:03:26Z</time></trkpt>
<trkpt lat="47.204976" lon="8.240693"><ele>529.0</ele><time>2016-06-21T23:03:31Z</time></trkpt>
<trkpt lat="47.204926" lon="8.240625"><ele>529.0</ele><time>2016-06-21T23:03:32Z</time></trkpt>
<trkpt lat="47.204864" lon="8.240647"><ele>529.0</ele><time>2016-06-21T23:03:32Z</time></trkpt>
<trkpt lat="47.204796" lon="8.240713"><ele>529.0</ele><time>2016-06-21T23:03:33Z</time></trkpt>
<trkpt lat="47.203632" lon="8.241211"><ele>528.0</ele><time>2016-06-21T23:03:42Z</time></trkpt>
<trkpt lat="47.203513" lon="8.241227"><ele>528.0</ele><time>2016-06-21T23:03:43Z</time></trkpt>
<trkpt lat="47.203113" lon="8.241054"><ele>540.0</ele><time>2016-06-21T23:03:47Z</time></trkpt>
<trkpt lat="47.202965" lon="8.241048"><ele>540.0</ele><time>2016-06-21T23:03:48Z</time></trkpt>
<trkpt lat="47.202802" lon="8.241102"><ele>540.0</ele><time>2016-06-21T23:03:49Z</time></trkpt>
<trkpt lat="47.202016" lon="8.241578"><ele>544.0</ele><time>2016-06-21T23:03:56Z</time></trkpt>
<trkpt lat="47.201886" lon="8.241623"><ele>544.0</ele><time>2016-06-21T23:03:57Z</time></trkpt>
<trkpt lat="47.201729" lon="8.24162"><ele>544.0</ele><time>2016-06-21T23:03:58Z</time></trkpt>
<trkpt lat="47.20036" lon="8.241291"><ele>560.0</ele><time>2016-06-21T23:04:09Z</time></trkpt>
<trkpt lat="47.199868" lon="8.241208"><ele>585.0</ele><time>2016-06-21T23:04:14Z</time></trkpt>
<trkpt lat="47.199351" lon="8.241083"><ele>585.0</ele><time>2016-06-21T23:04:17Z</time></trkpt>
<trkpt lat="47.199229" lon="8.241097"><ele>585.0</ele><time>2016-06-21T23:04:18Z</time></trkpt>
<trkpt lat="47.198938" lon="8.241255"><ele>590.0</ele><time>2016-06-21T23:04:21Z</time></trkpt>
<trkpt lat="47.198412" lon="8.241585"><ele>590.0</ele><time>2016-06-21T23:04:25Z</time></trkpt>
<trkpt lat="47.197985" lon="8.241794"><ele>585.0</ele><time>2016-06-21T23:04:28Z</time></trkpt>
<trkpt lat="47.197856" lon="8.241813"><ele>585.0</ele><time>2016-06-21T23:04:29Z</time></trkpt>
<trkpt lat="47.197431" lon="8.241764"><ele>594.0</ele><time>2016-06-21T23:04:32Z</time></trkpt>
<trkpt lat="47.196739" lon="8.241729"><ele>594.0</ele><time>2016-06-21T23:04:37Z</time></trkpt>
<trkpt lat="47.19563" lon="8.24185"><ele>617.0</ele><time>2016-06-21T23:04:45Z</time></trkpt>
<trkpt lat="47.194927" lon="8.241848"><ele>622.0</ele><time>2016-06-21T23:04:50Z</time></trkpt>
<trkpt lat="47.194778" lon="8.241789"><ele>622.0</ele><time>2016-06-21T23:04:51Z</time></trkpt>
<trkpt lat="47.194709" lon="8.241663"><ele>628.0</ele><time>2016-06-21T23:04:52Z</time></trkpt>
<trkpt lat="47.195021" lon="8.241047"><ele>617.0</ele><time>2016-06-21T23:05:00Z</time></trkpt>
<trkpt lat="47.195229" lon="8.240701"><ele>628.0</ele><time>2016-06-21T23:05:05Z</time></trkpt>
<trkpt lat="47.195286" lon="8.240495"><ele>628.0</ele><time>2016-06-21T23:05:07Z</time></trkpt>
<trkpt lat="47.195324" lon="8.240259"><ele>628.0</ele><time>2016-06-21T23:05:09Z</time></trkpt>
<trkpt lat="47.195399" lon="8.239458"><ele>637.0</ele><time>2016-06-21T23:05:18Z</time></trkpt>
<trkpt lat="47.195372" lon="8.238915"><ele>646.0</ele><time>2016-06-21T23:05:23Z</time></trkpt>
<trkpt lat="47.19533" lon="8.238696"><ele>646.0</ele><time>2016-06-21T23:05:26Z</time></trkpt>
<trkpt lat="47.195315" lon="8.238451"><ele>646.0</ele><time>2016-06-21T23:05:28Z</time></trkpt>
<trkpt lat="47.195399" lon="8.238018"><ele>656.0</ele><time>2016-06-21T23:05:33Z</time></trkpt>
<trkpt lat="47.195518" lon="8.237564"><ele>656.0</ele><time>2016-06-21T23:05:38Z</time></trkpt>
<trkpt lat="47.1955" lon="8.237339"><ele>667.0</ele><time>2016-06-21T23:05:40Z</time></trkpt>
<trkpt lat="47.195368" lon="8.237191"><ele>667.0</ele><time>2016-06-21T23:05:43Z</time></trkpt>
<trkpt lat="47.195155" lon="8.237091"><ele>667.0</ele><time>2016-06-21T23:05:46Z</time></trkpt>
<trkpt lat="47.194928" lon="8.237038"><ele>687.0</ele><time>2016-06-21T23:05:50Z</time></trkpt>
<trkpt lat="47.194573" lon="8.236883"><ele>687.0</ele><time>2016-06-21T23:05:56Z</time></trkpt>
<trkpt lat="47.194509" lon="8.23648"><ele>696.0</ele><time>2016-06-21T23:06:00Z</time></trkpt>
<trkpt lat="47.194535" lon="8.236008"><ele>696.0</ele><time>2016-06-21T23:06:05Z</time></trkpt>
<trkpt lat="47.1942" lon="8.235096"><ele>707.0</ele><time>2016-06-21T23:06:15Z</time></trkpt>
<trkpt lat="47.194119" lon="8.234667"><ele>727.0</ele><time>2016-06-21T23:06:21Z</time></trkpt>
<trkpt lat="47.194218" lon="8.232692"><ele>737.0</ele><time>2016-06-21T23:06:41Z</time></trkpt>
<trkpt lat="47.194141" lon="8.232413"><ele>750.0</ele><time>2016-06-21T23:06:44Z</time></trkpt>
<trkpt lat="47.194063" lon="8.232015"><ele>750.0</ele><time>2016-06-21T23:06:48Z</time></trkpt>
<trkpt lat="47.194658" lon="8.231468"><ele>749.0</ele><time>2016-06-21T23:06:59Z</time></trkpt>
<trkpt lat="47.195016" lon="8.231197"><ele>743.0</ele><time>2016-06-21T23:07:05Z</time></trkpt>
<trkpt lat="47.195451" lon="8.230976"><ele>743.0</ele><time>2016-06-21T23:07:11Z</time></trkpt>
<trkpt lat="47.195812" lon="8.230899"><ele>743.0</ele><time>2016-06-21T23:07:17Z</time></trkpt>
<trkpt lat="47.196218" lon="8.230856"><ele>739.0</ele><time>2016-06-21T23:07:23Z</time></trkpt>
<trkpt lat="47.196637" lon="8.230847"><ele>739.0</ele><time>2016-06-21T23:07:29Z</time></trkpt>
<trkpt lat="47.197247" lon="8.230788"><ele>742.0</ele><time>2016-06-21T23:07:38Z</time></trkpt>
<trkpt lat="47.197637" lon="8.230642"><ele>737.0</ele><time>2016-06-21T23:07:44Z</time></trkpt>
<trkpt lat="47.19791" lon="8.230441"><ele>737.0</ele><time>2016-06-21T23:07:49Z</time></trkpt>
<trkpt lat="47.198193" lon="8.230118"><ele>737.0</ele><time>2016-06-21T23:07:54Z</time></trkpt>
<trkpt lat="47.199644" lon="8.228212"><ele>753.0</ele><time>2016-06-21T23:08:23Z</time></trkpt>
<trkpt lat="47.201743" lon="8.225503"><ele>774.0</ele><time>2016-06-21T23:09:04Z</time></trkpt>
<trkpt lat="47.202443" lon="8.22429"><ele>783.0</ele><time>2016-06-21T23:09:20Z</time></trkpt>
<trkpt lat="47.202886" lon="8.223217"><ele>797.0</ele><time>2016-06-21T23:09:33Z</time></trkpt>
<trkpt lat="47.203258" lon="8.221789"><ele>799.0</ele><time>2016-06-21T23:09:48Z</time></trkpt>
<trkpt lat="47.204024" lon="8.21908"><ele>791.0</ele><time>2016-06-21T23:10:18Z</time></trkpt>
<trkpt lat="47.204257" lon="8.217664"><ele>776.0</ele><time>2016-06-21T23:10:33Z</time></trkpt>
<trkpt lat="47.204288" lon="8.217229"><ele>771.0</ele><time>2016-06-21T23:10:37Z</time></trkpt>
<trkpt lat="47.204341" lon="8.215779"><ele>760.0</ele><time>2016-06-21T23:10:52Z</time></trkpt>
<trkpt lat="47.204414" lon="8.214681"><ele>755.0</ele><time>2016-06-21T23:11:03Z</time></trkpt>
<trkpt lat="47.204552" lon="8.214222"><ele>755.0</ele><time>2016-06-21T23:11:08Z</time></trkpt>
<trkpt lat="47.20474" lon="8.213839"><ele>748.0</ele><time>2016-06-21T23:11:13Z</time></trkpt>
<trkpt lat="47.204581" lon="8.213525"><ele>748.0</ele><time>2016-06-21T23:11:17Z</time></trkpt>
<trkpt lat="47.204249" lon="8.211392"><ele>722.0</ele><time>2016-06-21T23:11:39Z</time></trkpt>
<trkpt lat="47.204187" lon="8.210729"><ele>712.0</ele><time>2016-06-21T23:11:46Z</time></trkpt>
<trkpt lat="47.204236" lon="8.210023"><ele>712.0</ele><time>2016-06-21T23:11:53Z</time></trkpt>
<trkpt lat="47.204636" lon="8.208476"><ele>694.0</ele><time>2016-06-21T23:12:10Z</time></trkpt>
<trkpt lat="47.205213" lon="8.204716"><ele>667.0</ele><time>2016-06-21T23:12:48Z</time></trkpt>
<trkpt lat="47.205247" lon="8.204598"><ele>667.0</ele><time>2016-06-21T23:12:50Z</time></trkpt>
<trkpt lat="47.205309" lon="8.20451"><ele>667.0</ele><time>2016-06-21T23:12:51Z</time></trkpt>
<trkpt lat="47.205375" lon="8.204439"><ele>667.0</ele><time>2016-06-21T23:12:54Z</time></trkpt>
<trkpt lat="47.20512" lon="8.203914"><ele>667.0</ele><time>2016-06-21T23:12:59Z</time></trkpt>
<trkpt lat="47.20499" lon="8.203548"><ele>664.0</ele><time>2016-06-21T23:13:03Z</time></trkpt>
<trkpt lat="47.204465" lon="8.20181"><ele>661.0</ele><time>2016-06-21T23:13:18Z</time></trkpt>
<trkpt lat="47.204319" lon="8.20138"><ele>659.0</ele><time>2016-06-21T23:13:22Z</time></trkpt>
<trkpt lat="47.204262" lon="8.20128"><ele>659.0</ele><time>2016-06-21T23:13:23Z</time></trkpt>
<trkpt lat="47.204148" lon="8.201135"><ele>659.0</ele><time>2016-06-21T23:13:25Z</time></trkpt>
<trkpt lat="47.203951" lon="8.201386"><ele>659.0</ele><time>2016-06-21T23:13:27Z</time></trkpt>
<trkpt lat="47.203682" lon="8.201646"><ele>659.0</ele><time>2016-06-21T23:13:30Z</time></trkpt>
<trkpt lat="47.20348" lon="8.201773"><ele>658.0</ele><time>2016-06-21T23:13:31Z</time></trkpt>
<trkpt lat="47.203234" lon="8.20188"><ele>654.0</ele><time>2016-06-21T23:13:33Z</time></trkpt>
<trkpt lat="47.201579" lon="8.202449"><ele>654.0</ele><time>2016-06-21T23:13:46Z</time></trkpt>
<trkpt lat="47.201359" lon="8.202546"><ele>655.0</ele><time>2016-06-21T23:13:48Z</time></trkpt>
<trkpt lat="47.199486" lon="8.203166"><ele>651.0</ele><time>2016-06-21T23:14:03Z</time></trkpt>
<trkpt lat="47.187518" lon="8.207318"><ele>652.0</ele><time>2016-06-21T23:15:37Z</time></trkpt>
<trkpt lat="47.186145" lon="8.207797"><ele>655.0</ele><time>2016-06-21T23:15:48Z</time></trkpt>
<trkpt lat="47.185301" lon="8.208087"><ele>656.5</ele><time>2016-06-21T23:15:56Z</time></trkpt>
<trkpt lat="47.185301" lon="8.208087"><ele>656.5</ele><time>2016-06-21T23:15:56Z</time></trkpt>
<trkpt lat="47.182579" lon="8.209022"><ele>657.0</ele><time>2016-06-21T23:16:30Z</time></trkpt>
<trkpt lat="47.182145" lon="8.209142"><ele>657.0</ele><time>2016-06-21T23:16:35Z</time></trkpt>
<trkpt lat="47.181436" lon="8.209266"><ele>661.0</ele><time>2016-06-21T23:16:44Z</time></trkpt>
<trkpt lat="47.180919" lon="8.209305"><ele>661.0</ele><time>2016-06-21T23:16:50Z</time></trkpt>
<trkpt lat="47.18008" lon="8.209197"><ele>662.0</ele><time>2016-06-21T23:17:00Z</time></trkpt>
<trkpt lat="47.17939" lon="8.209188"><ele>664.0</ele><time>2016-06-21T23:17:08Z</time></trkpt>
<trkpt lat="47.178311" lon="8.209344"><ele>668.0</ele><time>2016-06-21T23:17:21Z</time></trkpt>
<trkpt lat="47.177894" lon="8.209342"><ele>668.0</ele><time>2016-06-21T23:17:26Z</time></trkpt>
<trkpt lat="47.177528" lon="8.209276"><ele>668.0</ele><time>2016-06-21T23:17:30Z</time></trkpt>
<trkpt lat="47.176905" lon="8.209106"><ele>669.0</ele><time>2016-06-21T23:17:38Z</time></trkpt>
<trkpt lat="47.176524" lon="8.209069"><ele>673.0</ele><time>2016-06-21T23:17:43Z</time></trkpt>
<trkpt lat="47.176315" lon="8.209096"><ele>673.0</ele><time>2016-06-21T23:17:45Z</time></trkpt>
<trkpt lat="47.176128" lon="8.209172"><ele>675.0</ele><time>2016-06-21T23:17:47Z</time></trkpt>
<trkpt lat="47.175872" lon="8.209348"><ele>675.0</ele><time>2016-06-21T23:17:51Z</time></trkpt>
<trkpt lat="47.175722" lon="8.209492"><ele>678.0</ele><time>2016-06-21T23:17:53Z</time></trkpt>
<trkpt lat="47.175501" lon="8.209758"><ele>678.0</ele><time>2016-06-21T23:17:56Z</time></trkpt>
<trkpt lat="47.174377" lon="8.211244"><ele>679.0</ele><time>2016-06-21T23:18:14Z</time></trkpt>
<trkpt lat="47.173791" lon="8.212021"><ele>680.0</ele><time>2016-06-21T23:18:24Z</time></trkpt>
<trkpt lat="47.171533" lon="8.21502"><ele>695.0</ele><time>2016-06-21T23:18:48Z</time></trkpt>
<trkpt lat="47.171269" lon="8.21534"><ele>695.0</ele><time>2016-06-21T23:18:50Z</time></trkpt>
<trkpt lat="47.171052" lon="8.215567"><ele>695.0</ele><time>2016-06-21T23:18:52Z</time></trkpt>
<trkpt lat="47.170852" lon="8.215736"><ele>695.0</ele><time>2016-06-21T23:18:54Z</time></trkpt>
<trkpt lat="47.170578" lon="8.215929"><ele>699.0</ele><time>2016-06-21T23:18:56Z</time></trkpt>
<trkpt lat="47.164616" lon="8.218634"><ele>715.0</ele><time>2016-06-21T23:19:45Z</time></trkpt>
<trkpt lat="47.162121" lon="8.219793"><ele>721.0</ele><time>2016-06-21T23:20:05Z</time></trkpt>
<trkpt lat="47.160789" lon="8.220455"><ele>725.0</ele><time>2016-06-21T23:20:16Z</time></trkpt>
<trkpt lat="47.160334" lon="8.220654"><ele>725.0</ele><time>2016-06-21T23:20:19Z</time></trkpt>
<trkpt lat="47.159322" lon="8.221029"><ele>721.0</ele><time>2016-06-21T23:20:28Z</time></trkpt>
<trkpt lat="47.158283" lon="8.221407"><ele>716.0</ele><time>2016-06-21T23:20:37Z</time></trkpt>
<trkpt lat="47.156929" lon="8.221901"><ele>714.0</ele><time>2016-06-21T23:20:49Z</time></trkpt>
<trkpt lat="47.15441" lon="8.222834"><ele>710.0</ele><time>2016-06-21T23:21:17Z</time></trkpt>
<trkpt lat="47.153966" lon="8.223039"><ele>709.0</ele><time>2016-06-21T23:21:22Z</time></trkpt>
<trkpt lat="47.153525" lon="8.223354"><ele>712.0</ele><time>2016-06-21T23:21:28Z</time></trkpt>
<trkpt lat="47.153256" lon="8.223623"><ele>707.0</ele><time>2016-06-21T23:21:31Z</time></trkpt>
<trkpt lat="47.1529" lon="8.224071"><ele>707.0</ele><time>2016-06-21T23:21:36Z</time></trkpt>
<trkpt lat="47.15267" lon="8.224443"><ele>710.0</ele><time>2016-06-21T23:21:40Z</time></trkpt>
<trkpt lat="47.152517" lon="8.22475"><ele>710.0</ele><time>2016-06-21T23:21:43Z</time></trkpt>
<trkpt lat="47.152346" lon="8.225158"><ele>701.0</ele><time>2016-06-21T23:21:46Z</time></trkpt>
<trkpt lat="47.151345" lon="8.227983"><ele>689.0</ele><time>2016-06-21T23:22:10Z</time></trkpt>
<trkpt lat="47.151255" lon="8.228189"><ele>689.0</ele><time>2016-06-21T23:22:11Z</time></trkpt>
<trkpt lat="47.151063" lon="8.228547"><ele>688.0</ele><time>2016-06-21T23:22:15Z</time></trkpt>
<trkpt lat="47.151009" lon="8.228643"><ele>688.0</ele><time>2016-06-21T23:22:16Z</time></trkpt>
<trkpt lat="47.150928" lon="8.228627"><ele>688.0</ele><time>2016-06-21T23:22:16Z</time></trkpt>
<trkpt lat="47.1509" lon="8.228648"><ele>688.0</ele><time>2016-06-21T23:22:17Z</time></trkpt>
<trkpt lat="47.150878" lon="8.228696"><ele>688.0</ele><time>2016-06-21T23:22:17Z</time></trkpt>
<trkpt lat="47.150868" lon="8.228778"><ele>688.0</ele><time>2016-06-21T23:22:17Z</time></trkpt>
<trkpt lat="47.150901" lon="8.228858"><ele>688.0</ele><time>2016-06-21T23:22:18Z</time></trkpt>
<trkpt lat="47.150773" lon="8.229082"><ele>686.0</ele><time>2016-06-21T23:22:19Z</time></trkpt>
<trkpt lat="47.150688" lon="8.229166"><ele>686.0</ele><time>2016-06-21T23:22:20Z</time></trkpt>
<trkpt lat="47.150555" lon="8.229246"><ele>684.0</ele><time>2016-06-21T23:22:21Z</time></trkpt>
<trkpt lat="47.150334" lon="8.229292"><ele>684.0</ele><time>2016-06-21T23:22:22Z</time></trkpt>
<trkpt lat="47.149566" lon="8.229198"><ele>680.0</ele><time>2016-06-21T23:22:28Z</time></trkpt>
<trkpt lat="47.14906" lon="8.229216"><ele>679.0</ele><time>2016-06-21T23:22:31Z</time></trkpt>
<trkpt lat="47.148607" lon="8.229351"><ele>679.0</ele><time>2016-06-21T23:22:35Z</time></trkpt>
<trkpt lat="47.148282" lon="8.229527"><ele>677.0</ele><time>2016-06-21T23:22:37Z</time></trkpt>
<trkpt lat="47.147856" lon="8.229939"><ele>677.0</ele><time>2016-06-21T23:22:41Z</time></trkpt>
<trkpt lat="47.147641" lon="8.230237"><ele>675.0</ele><time>2016-06-21T23:22:43Z</time></trkpt>
<trkpt lat="47.147453" lon="8.230589"><ele>670.0</ele><time>2016-06-21T23:22:45Z</time></trkpt>
<trkpt lat="47.147294" lon="8.230991"><ele>668.0</ele><time>2016-06-21T23:22:47Z</time></trkpt>
<trkpt lat="47.146639" lon="8.233018"><ele>659.0</ele><time>2016-06-21T23:22:58Z</time></trkpt>
<trkpt lat="47.146461" lon="8.233422"><ele>660.0</ele><time>2016-06-21T23:23:00Z</time></trkpt>
<trkpt lat="47.146249" lon="8.2338"><ele>660.0</ele><time>2016-06-21T23:23:03Z</time></trkpt>
<trkpt lat="47.146086" lon="8.233999"><ele>660.0</ele><time>2016-06-21T23:23:04Z</time></trkpt>
<trkpt lat="47.145904" lon="8.234184"><ele>659.0</ele><time>2016-06-21T23:23:06Z</time></trkpt>
<trkpt lat="47.145286" lon="8.234775"><ele>652.0</ele><time>2016-06-21T23:23:11Z</time></trkpt>
<trkpt lat="47.144961" lon="8.235211"><ele>642.0</ele><time>2016-06-21T23:23:14Z</time></trkpt>
<trkpt lat="47.144434" lon="8.236184"><ele>643.0</ele><time>2016-06-21T23:23:20Z</time></trkpt>
<trkpt lat="47.144173" lon="8.236497"><ele>643.0</ele><time>2016-06-21T23:23:23Z</time></trkpt>
<trkpt lat="47.143883" lon="8.236709"><ele>639.0</ele><time>2016-06-21T23:23:25Z</time></trkpt>
<trkpt lat="47.138656" lon="8.238553"><ele>619.0</ele><time>2016-06-21T23:24:03Z</time></trkpt>
<trkpt lat="47.137733" lon="8.238897"><ele>616.0</ele><time>2016-06-21T23:24:10Z</time></trkpt>
<trkpt lat="47.13724" lon="8.239121"><ele>613.0</ele><time>2016-06-21T23:24:13Z</time></trkpt>
<trkpt lat="47.136412" lon="8.239558"><ele>607.0</ele><time>2016-06-21T23:24:20Z</time></trkpt>
<trkpt lat="47.134769" lon="8.240505"><ele>596.0</ele><time>2016-06-21T23:24:32Z</time></trkpt>
<trkpt lat="47.133041" lon="8.241438"><ele>587.0</ele><time>2016-06-21T23:24:45Z</time></trkpt>
<trkpt lat="47.13268" lon="8.241596"><ele>587.0</ele><time>2016-06-21T23:24:48Z</time></trkpt>
<trkpt lat="47.132417" lon="8.241699"><ele>588.0</ele><time>2016-06-21T23:24:50Z</time></trkpt>
<trkpt lat="47.132086" lon="8.241793"><ele>588.0</ele><time>2016-06-21T23:24:53Z</time></trkpt>
<trkpt lat="47.131801" lon="8.241847"><ele>588.0</ele><time>2016-06-21T23:24:55Z</time></trkpt>
<trkpt lat="47.131486" lon="8.241877"><ele>592.0</ele><time>2016-06-21T23:24:57Z</time></trkpt>
<trkpt lat="47.131113" lon="8.241879"><ele>592.0</ele><time>2016-06-21T23:25:00Z</time></trkpt>
<trkpt lat="47.130419" lon="8.24184"><ele>596.0</ele><time>2016-06-21T23:25:05Z</time></trkpt>
<trkpt lat="47.130203" lon="8.241857"><ele>596.0</ele><time>2016-06-21T23:25:06Z</time></trkpt>
<trkpt lat="47.130023" lon="8.241897"><ele>596.0</ele><time>2016-06-21T23:25:08Z</time></trkpt>
<trkpt lat="47.126977" lon="8.243217"><ele>594.0</ele><time>2016-06-21T23:25:31Z</time></trkpt>
<trkpt lat="47.126893" lon="8.243254"><ele>594.0</ele><time>2016-06-21T23:25:31Z</time></trkpt>
<trkpt lat="47.126835" lon="8.243167"><ele>594.0</ele><time>2016-06-21T23:25:32Z</time></trkpt>
<trkpt lat="47.126794" lon="8.243155"><ele>594.0</ele><time>2016-06-21T23:25:32Z</time></trkpt>
<trkpt lat="47.126788" lon="8.243018"><ele>594.0</ele><time>2016-06-21T23:25:33Z</time></trkpt>
<trkpt lat="47.126796" lon="8.24273"><ele>594.0</ele><time>2016-06-21T23:25:34Z</time></trkpt>
<trkpt lat="47.126741" lon="8.240859"><ele>594.0</ele><time>2016-06-21T23:25:44Z</time></trkpt>
<trkpt lat="47.126777" lon="8.240289"><ele>592.0</ele><time>2016-06-21T23:25:47Z</time></trkpt>
<trkpt lat="47.126831" lon="8.239975"><ele>588.0</ele><time>2016-06-21T23:25:49Z</time></trkpt>
<trkpt lat="47.126923" lon="8.23964"><ele>588.0</ele><time>2016-06-21T23:25:51Z</time></trkpt>
<trkpt lat="47.127905" lon="8.236826"><ele>568.0</ele><time>2016-06-21T23:26:07Z</time></trkpt>
<trkpt lat="47.128063" lon="8.236434"><ele>565.0</ele><time>2016-06-21T23:26:10Z</time></trkpt>
<trkpt lat="47.12816" lon="8.236192"><ele>565.0</ele><time>2016-06-21T23:26:11Z</time></trkpt>
<trkpt lat="47.12816" lon="8.236192"><ele>565.0</ele><time>2016-06-21T23:26:11Z</time></trkpt>
<trkpt lat="47.128754" lon="8.234547"><ele>568.0</ele><time>2016-06-21T23:26:20Z</time></trkpt>
<trkpt lat="47.129252" lon="8.233007"><ele>565.0</ele><time>2016-06-21T23:26:29Z</time></trkpt>
<trkpt lat="47.129701" lon="8.231759"><ele>565.0</ele><time>2016-06-21T23:26:35Z</time></trkpt>
<trkpt lat="47.129879" lon="8.231209"><ele>567.0</ele><time>2016-06-21T23:26:38Z</time></trkpt>
<trkpt lat="47.129976" lon="8.230827"><ele>566.0</ele><time>2016-06-21T23:26:40Z</time></trkpt>
<trkpt lat="47.130127" lon="8.230072"><ele>567.0</ele><time>2016-06-21T23:26:44Z</time></trkpt>
<trkpt lat="47.13112" lon="8.224609"><ele>569.0</ele><time>2016-06-21T23:27:12Z</time></trkpt>
<trkpt lat="47.13116" lon="8.22403"><ele>571.0</ele><time>2016-06-21T23:27:15Z</time></trkpt>
<trkpt lat="47.131156" lon="8.223164"><ele>572.0</ele><time>2016-06-21T23:27:19Z</time></trkpt>
<trkpt lat="47.131182" lon="8.222809"><ele>572.0</ele><time>2016-06-21T23:27:21Z</time></trkpt>
<trkpt lat="47.132135" lon="8.216727"><ele>567.0</ele><time>2016-06-21T23:27:51Z</time></trkpt>
<trkpt lat="47.132281" lon="8.215796"><ele>564.0</ele><time>2016-06-21T23:27:56Z</time></trkpt>
<trkpt lat="47.132357" lon="8.215217"><ele>564.0</ele><time>2016-06-21T23:27:59Z</time></trkpt>
<trkpt lat="47.132374" lon="8.214846"><ele>563.0</ele><time>2016-06-21T23:28:02Z</time></trkpt>
<trkpt lat="47.132348" lon="8.214394"><ele>563.0</ele><time>2016-06-21T23:28:05Z</time></trkpt>
<trkpt lat="47.132282" lon="8.213933"><ele>563.0</ele><time>2016-06-21T23:28:08Z</time></trkpt>
<trkpt lat="47.131883" lon="8.211836"><ele>563.0</ele><time>2016-06-21T23:28:22Z</time></trkpt>
<trkpt lat="47.131791" lon="8.211275"><ele>563.0</ele><time>2016-06-21T23:28:26Z</time></trkpt>
<trkpt lat="47.131727" lon="8.210514"><ele>565.0</ele><time>2016-06-21T23:28:31Z</time></trkpt>
<trkpt lat="47.131726" lon="8.209854"><ele>566.0</ele><time>2016-06-21T23:28:35Z</time></trkpt>
<trkpt lat="47.131784" lon="8.209041"><ele>563.0</ele><time>2016-06-21T23:28:40Z</time></trkpt>
<trkpt lat="47.131904" lon="8.208247"><ele>559.0</ele><time>2016-06-21T23:28:45Z</time></trkpt>
<trkpt lat="47.132686" lon="8.204435"><ele>549.0</ele><time>2016-06-21T23:29:11Z</time></trkpt>
<trkpt lat="47.132778" lon="8.203926"><ele>545.0</ele><time>2016-06-21T23:29:15Z</time></trkpt>
<trkpt lat="47.132832" lon="8.203505"><ele>545.0</ele><time>2016-06-21T23:29:18Z</time></trkpt>
<trkpt lat="47.133074" lon="8.201022"><ele>536.0</ele><time>2016-06-21T23:29:34Z</time></trkpt>
<trkpt lat="47.133442" lon="8.196947"><ele>529.0</ele><time>2016-06-21T23:30:00Z</time></trkpt>
<trkpt lat="47.133538" lon="8.195625"><ele>527.0</ele><time>2016-06-21T23:30:09Z</time></trkpt>
<trkpt lat="47.133646" lon="8.194978"><ele>522.0</ele><time>2016-06-21T23:30:13Z</time></trkpt>
<trkpt lat="47.13381" lon="8.194354"><ele>522.0</ele><time>2016-06-21T23:30:18Z</time></trkpt>
<trkpt lat="47.133961" lon="8.193949"><ele>517.0</ele><time>2016-06-21T23:30:21Z</time></trkpt>
<trkpt lat="47.134147" lon="8.19332"><ele>517.0</ele><time>2016-06-21T23:30:25Z</time></trkpt>
<trkpt lat="47.134248" lon="8.193097"><ele>517.0</ele><time>2016-06-21T23:30:27Z</time></trkpt>
<trkpt lat="47.134668" lon="8.192351"><ele>512.0</ele><time>2016-06-21T23:30:33Z</time></trkpt>
<trkpt lat="47.134691" lon="8.192298"><ele>512.0</ele><time>2016-06-21T23:30:34Z</time></trkpt>
<trkpt lat="47.134709" lon="8.192149"><ele>512.0</ele><time>2016-06-21T23:30:35Z</time></trkpt>
<trkpt lat="47.134691" lon="8.192077"><ele>512.0</ele><time>2016-06-21T23:30:35Z</time></trkpt>
<trkpt lat="47.134654" lon="8.192006"><ele>512.0</ele><time>2016-06-21T23:30:36Z</time></trkpt>
<trkpt lat="47.134277" lon="8.191504"><ele>508.0</ele><time>2016-06-21T23:30:42Z</time></trkpt>
<trkpt lat="47.133995" lon="8.191313"><ele>507.0</ele><time>2016-06-21T23:30:45Z</time></trkpt>
<trkpt lat="47.133805" lon="8.191277"><ele>507.0</ele><time>2016-06-21T23:30:47Z</time></trkpt>
<trkpt lat="47.133581" lon="8.19131"><ele>507.0</ele><time>2016-06-21T23:30:50Z</time></trkpt>
<trkpt lat="47.132412" lon="8.191639"><ele>502.0</ele><time>2016-06-21T23:31:03Z</time></trkpt>
<trkpt lat="47.12568" lon="8.193289"><ele>506.0</ele><time>2016-06-21T23:32:20Z</time></trkpt>
<trkpt lat="47.1251" lon="8.193437"><ele>505.5</ele><time>2016-06-21T23:32:26Z</time></trkpt>
<trkpt lat="47.1251" lon="8.193437"><ele>505.5</ele><time>2016-06-21T23:32:26Z</time></trkpt>
<trkpt lat="47.124124" lon="8.193703"><ele>506.0</ele><time>2016-06-21T23:32:36Z</time></trkpt>
<trkpt lat="47.121854" lon="8.19388"><ele>506.0</ele><time>2016-06-21T23:32:59Z</time></trkpt>
<trkpt lat="47.119856" lon="8.194071"><ele>507.0</ele><time>2016-06-21T23:33:19Z</time></trkpt>
<trkpt lat="47.119687" lon="8.194119"><ele>507.0</ele><time>2016-06-21T23:33:21Z</time></trkpt>
<trkpt lat="47.1196" lon="8.194173"><ele>508.0</ele><time>2016-06-21T23:33:22Z</time></trkpt>
<trkpt lat="47.119543" lon="8.194257"><ele>508.0</ele><time>2016-06-21T23:33:23Z</time></trkpt>
<trkpt lat="47.119394" lon="8.194569"><ele>508.0</ele><time>2016-06-21T23:33:25Z</time></trkpt>
<trkpt lat="47.119223" lon="8.195064"><ele>509.0</ele><time>2016-06-21T23:33:28Z</time></trkpt>
<trkpt lat="47.118899" lon="8.196319"><ele>511.0</ele><time>2016-06-21T23:33:37Z</time></trkpt>
<trkpt lat="47.118733" lon="8.196905"><ele>511.0</ele><time>2016-06-21T23:33:41Z</time></trkpt>
<trkpt lat="47.118632" lon="8.197186"><ele>511.0</ele><time>2016-06-21T23:33:43Z</time></trkpt>
<trkpt lat="47.118247" lon="8.198012"><ele>511.0</ele><time>2016-06-21T23:33:49Z</time></trkpt>
<trkpt lat="47.117285" lon="8.19956"><ele>511.0</ele><time>2016-06-21T23:34:02Z</time></trkpt>
<trkpt lat="47.116952" lon="8.20005"><ele>511.0</ele><time>2016-06-21T23:34:06Z</time></trkpt>
<trkpt lat="47.116857" lon="8.199996"><ele>511.0</ele><time>2016-06-21T23:34:07Z</time></trkpt>
<trkpt lat="47.116787" lon="8.200008"><ele>511.0</ele><time>2016-06-21T23:34:07Z</time></trkpt>
<trkpt lat="47.116735" lon="8.200046"><ele>511.0</ele><time>2016-06-21T23:34:08Z</time></trkpt>
<trkpt lat="47.116679" lon="8.200142"><ele>511.0</ele><time>2016-06-21T23:34:08Z</time></trkpt>
<trkpt lat="47.11666" lon="8.200256"><ele>515.0</ele><time>2016-06-21T23:34:09Z</time></trkpt>
<trkpt lat="47.116674" lon="8.200365"><ele>511.0</ele><time>2016-06-21T23:34:10Z</time></trkpt>
<trkpt lat="47.116728" lon="8.200471"><ele>511.0</ele><time>2016-06-21T23:34:11Z</time></trkpt>
<trkpt lat="47.11664" lon="8.200564"><ele>515.0</ele><time>2016-06-21T23:34:11Z</time></trkpt>
<trkpt lat="47.116456" lon="8.200881"><ele>514.0</ele><time>2016-06-21T23:34:14Z</time></trkpt>
<trkpt lat="47.116335" lon="8.201046"><ele>514.0</ele><time>2016-06-21T23:34:15Z</time></trkpt>
<trkpt lat="47.116096" lon="8.201282"><ele>514.0</ele><time>2016-06-21T23:34:17Z</time></trkpt>
<trkpt lat="47.115778" lon="8.201405"><ele>515.0</ele><time>2016-06-21T23:34:20Z</time></trkpt>
<trkpt lat="47.115542" lon="8.201445"><ele>515.0</ele><time>2016-06-21T23:34:22Z</time></trkpt>
<trkpt lat="47.115369" lon="8.201442"><ele>515.0</ele><time>2016-06-21T23:34:23Z</time></trkpt>
<trkpt lat="47.115149" lon="8.201397"><ele>515.0</ele><time>2016-06-21T23:34:25Z</time></trkpt>
<trkpt lat="47.114961" lon="8.201303"><ele>513.0</ele><time>2016-06-21T23:34:26Z</time></trkpt>
<trkpt lat="47.114655" lon="8.201085"><ele>513.0</ele><time>2016-06-21T23:34:29Z</time></trkpt>
<trkpt lat="47.114432" lon="8.200837"><ele>513.0</ele><time>2016-06-21T23:34:31Z</time></trkpt>
<trkpt lat="47.114192" lon="8.200474"><ele>515.0</ele><time>2016-06-21T23:34:34Z</time></trkpt>
<trkpt lat="47.113957" lon="8.199898"><ele>519.0</ele><time>2016-06-21T23:34:37Z</time></trkpt>
<trkpt lat="47.113826" lon="8.199507"><ele>519.0</ele><time>2016-06-21T23:34:40Z</time></trkpt>
<trkpt lat="47.113618" lon="8.198695"><ele>520.0</ele><time>2016-06-21T23:34:44Z</time></trkpt>
<trkpt lat="47.113481" lon="8.198295"><ele>521.0</ele><time>2016-06-21T23:34:47Z</time></trkpt>
<trkpt lat="47.112997" lon="8.197214"><ele>517.0</ele><time>2016-06-21T23:34:53Z</time></trkpt>
<trkpt lat="47.11275" lon="8.196612"><ele>516.0</ele><time>2016-06-21T23:34:57Z</time></trkpt>
<trkpt lat="47.112467" lon="8.195863"><ele>517.0</ele><time>2016-06-21T23:35:02Z</time></trkpt>
<trkpt lat="47.11223" lon="8.195186"><ele>517.0</ele><time>2016-06-21T23:35:06Z</time></trkpt>
<trkpt lat="47.112125" lon="8.194786"><ele>516.0</ele><time>2016-06-21T23:35:08Z</time></trkpt>
<trkpt lat="47.112101" lon="8.19463"><ele>516.0</ele><time>2016-06-21T23:35:09Z</time></trkpt>
<trkpt lat="47.112092" lon="8.194503"><ele>516.0</ele><time>2016-06-21T23:35:10Z</time></trkpt>
<trkpt lat="47.112164" lon="8.194437"><ele>516.0</ele><time>2016-06-21T23:35:10Z</time></trkpt>
<trkpt lat="47.112178" lon="8.194316"><ele>516.0</ele><time>2016-06-21T23:35:11Z</time></trkpt>
<trkpt lat="47.112144" lon="8.194237"><ele>516.0</ele><time>2016-06-21T23:35:12Z</time></trkpt>
<trkpt lat="47.112072" lon="8.194203"><ele>516.0</ele><time>2016-06-21T23:35:12Z</time></trkpt>
<trkpt lat="47.112015" lon="8.194235"><ele>516.0</ele><time>2016-06-21T23:35:13Z</time></trkpt>
<trkpt lat="47.111979" lon="8.194317"><ele>516.0</ele><time>2016-06-21T23:35:14Z</time></trkpt>
<trkpt lat="47.111976" lon="8.194367"><ele>516.0</ele><time>2016-06-21T23:35:14Z</time></trkpt>
<trkpt lat="47.111512" lon="8.194442"><ele>516.0</ele><time>2016-06-21T23:35:18Z</time></trkpt>
<trkpt lat="47.111156" lon="8.194555"><ele>516.0</ele><time>2016-06-21T23:35:22Z</time></trkpt>
<trkpt lat="47.110685" lon="8.194768"><ele>523.0</ele><time>2016-06-21T23:35:27Z</time></trkpt>
<trkpt lat="47.110264" lon="8.194839"><ele>523.0</ele><time>2016-06-21T23:35:31Z</time></trkpt>
<trkpt lat="47.109173" lon="8.194941"><ele>526.0</ele><time>2016-06-21T23:35:41Z</time></trkpt>
<trkpt lat="47.108742" lon="8.194962"><ele>524.0</ele><time>2016-06-21T23:35:45Z</time></trkpt>
<trkpt lat="47.108492" lon="8.19503"><ele>523.0</ele><time>2016-06-21T23:35:47Z</time></trkpt>
<trkpt lat="47.108287" lon="8.195131"><ele>529.0</ele><time>2016-06-21T23:35:50Z</time></trkpt>
<trkpt lat="47.107038" lon="8.195897"><ele>536.0</ele><time>2016-06-21T23:36:07Z</time></trkpt>
<trkpt lat="47.106734" lon="8.196208"><ele>536.0</ele><time>2016-06-21T23:36:12Z</time></trkpt>
<trkpt lat="47.106456" lon="8.196618"><ele>537.0</ele><time>2016-06-21T23:36:17Z</time></trkpt>
<trkpt lat="47.106204" lon="8.197235"><ele>542.0</ele><time>2016-06-21T23:36:23Z</time></trkpt>
<trkpt lat="47.105909" lon="8.19816"><ele>543.0</ele><time>2016-06-21T23:36:31Z</time></trkpt>
<trkpt lat="47.105597" lon="8.198868"><ele>545.0</ele><time>2016-06-21T23:36:39Z</time></trkpt>
<trkpt lat="47.105103" lon="8.199772"><ele>545.0</ele><time>2016-06-21T23:36:48Z</time></trkpt>
<trkpt lat="47.104695" lon="8.200315"><ele>547.0</ele><time>2016-06-21T23:36:55Z</time></trkpt>
<trkpt lat="47.104338" lon="8.200699"><ele>547.0</ele><time>2016-06-21T23:37:01Z</time></trkpt>
<trkpt lat="47.103987" lon="8.201006"><ele>543.0</ele><time>2016-06-21T23:37:06Z</time></trkpt>
<trkpt lat="47.103672" lon="8.201226"><ele>543.0</ele><time>2016-06-21T23:37:10Z</time></trkpt>
<trkpt lat="47.101632" lon="8.202429"><ele>553.0</ele><time>2016-06-21T23:37:38Z</time></trkpt>
<trkpt lat="47.101341" lon="8.202559"><ele>551.0</ele><time>2016-06-21T23:37:41Z</time></trkpt>
<trkpt lat="47.10018" lon="8.202882"><ele>552.0</ele><time>2016-06-21T23:37:56Z</time></trkpt>
<trkpt lat="47.099958" lon="8.202995"><ele>552.0</ele><time>2016-06-21T23:37:59Z</time></trkpt>
<trkpt lat="47.099756" lon="8.203146"><ele>552.0</ele><time>2016-06-21T23:38:02Z</time></trkpt>
<trkpt lat="47.099625" lon="8.202495"><ele>556.0</ele><time>2016-06-21T23:38:10Z</time></trkpt>
<trkpt lat="47.099235" lon="8.201033"><ele>558.0</ele><time>2016-06-21T23:38:30Z</time></trkpt>
<trkpt lat="47.09917" lon="8.200924"><ele>558.0</ele><time>2016-06-21T23:38:31Z</time></trkpt>
<trkpt lat="47.099117" lon="8.200895"><ele>563.0</ele><time>2016-06-21T23:38:33Z</time></trkpt>
<trkpt lat="47.099066" lon="8.200873"><ele>563.0</ele><time>2016-06-21T23:38:34Z</time></trkpt>
<trkpt lat="47.098928" lon="8.200916"><ele>563.0</ele><time>2016-06-21T23:38:36Z</time></trkpt>
<trkpt lat="47.098857" lon="8.200993"><ele>563.0</ele><time>2016-06-21T23:38:38Z</time></trkpt>
<trkpt lat="47.098584" lon="8.2015"><ele>563.0</ele><time>2016-06-21T23:38:46Z</time></trkpt>
<trkpt lat="47.098472" lon="8.201663"><ele>563.0</ele><time>2016-06-21T23:38:49Z</time></trkpt>
<trkpt lat="47.09834" lon="8.20178"><ele>559.0</ele><time>2016-06-21T23:38:52Z</time></trkpt>
<trkpt lat="47.098212" lon="8.201849"><ele>569.0</ele><time>2016-06-21T23:38:54Z</time></trkpt>
<trkpt lat="47.097212" lon="8.202016"><ele>579.0</ele><time>2016-06-21T23:39:13Z</time></trkpt>
<trkpt lat="47.097029" lon="8.202026"><ele>579.0</ele><time>2016-06-21T23:39:16Z</time></trkpt>
<trkpt lat="47.096862" lon="8.201991"><ele>579.0</ele><time>2016-06-21T23:39:19Z</time></trkpt>
<trkpt lat="47.096733" lon="8.201924"><ele>579.0</ele><time>2016-06-21T23:39:22Z</time></trkpt>
<trkpt lat="47.096512" lon="8.20174"><ele>586.0</ele><time>2016-06-21T23:39:26Z</time></trkpt>
<trkpt lat="47.095743" lon="8.20087"><ele>593.0</ele><time>2016-06-21T23:39:44Z</time></trkpt>
<trkpt lat="47.095572" lon="8.200642"><ele>602.0</ele><time>2016-06-21T23:39:48Z</time></trkpt>
<trkpt lat="47.095462" lon="8.200425"><ele>602.0</ele><time>2016-06-21T23:39:52Z</time></trkpt>
<trkpt lat="47.095195" lon="8.199917"><ele>604.0</ele><time>2016-06-21T23:39:58Z</time></trkpt>
<trkpt lat="47.09364" lon="8.197909"><ele>606.0</ele><time>2016-06-21T23:40:28Z</time></trkpt>
<trkpt lat="47.093543" lon="8.197696"><ele>606.0</ele><time>2016-06-21T23:40:30Z</time></trkpt>
<trkpt lat="47.093491" lon="8.19752"><ele>606.0</ele><time>2016-06-21T23:40:32Z</time></trkpt>
<trkpt lat="47.09332" lon="8.196338"><ele>609.0</ele><time>2016-06-21T23:40:44Z</time></trkpt>
<trkpt lat="47.093169" lon="8.194523"><ele>614.0</ele><time>2016-06-21T23:41:02Z</time></trkpt>
<trkpt lat="47.093113" lon="8.194027"><ele>620.0</ele><time>2016-06-21T23:41:07Z</time></trkpt>
<trkpt lat="47.093053" lon="8.193836"><ele>620.0</ele><time>2016-06-21T23:41:09Z</time></trkpt>
<trkpt lat="47.092996" lon="8.193719"><ele>620.0</ele><time>2016-06-21T23:41:10Z</time></trkpt>
<trkpt lat="47.092906" lon="8.193634"><ele>620.0</ele><time>2016-06-21T23:41:12Z</time></trkpt>
<trkpt lat="47.09271" lon="8.193548"><ele>620.0</ele><time>2016-06-21T23:41:15Z</time></trkpt>
<trkpt lat="47.091948" lon="8.19342"><ele>628.0</ele><time>2016-06-21T23:41:26Z</time></trkpt>
<trkpt lat="47.091857" lon="8.193382"><ele>628.0</ele><time>2016-06-21T23:41:27Z</time></trkpt>
<trkpt lat="47.091784" lon="8.193312"><ele>642.0</ele><time>2016-06-21T23:41:30Z</time></trkpt>
<trkpt lat="47.091731" lon="8.193225"><ele>642.0</ele><time>2016-06-21T23:41:31Z</time></trkpt>
<trkpt lat="47.091694" lon="8.1931"><ele>642.0</ele><time>2016-06-21T23:41:32Z</time></trkpt>
<trkpt lat="47.091673" lon="8.192778"><ele>642.0</ele><time>2016-06-21T23:41:35Z</time></trkpt>
<trkpt lat="47.091649" lon="8.191657"><ele>645.0</ele><time>2016-06-21T23:41:46Z</time></trkpt>
<trkpt lat="47.091755" lon="8.190774"><ele>657.0</ele><time>2016-06-21T23:41:55Z</time></trkpt>
<trkpt lat="47.09178" lon="8.190423"><ele>657.0</ele><time>2016-06-21T23:41:59Z</time></trkpt>
<trkpt lat="47.09178" lon="8.190085"><ele>657.0</ele><time>2016-06-21T23:42:02Z</time></trkpt>
<trkpt lat="47.091657" lon="8.188643"><ele>663.0</ele><time>2016-06-21T23:42:16Z</time></trkpt>
<trkpt lat="47.091662" lon="8.188393"><ele>663.0</ele><time>2016-06-21T23:42:18Z</time></trkpt>
<trkpt lat="47.091692" lon="8.188071"><ele>669.0</ele><time>2016-06-21T23:42:22Z</time></trkpt>
<trkpt lat="47.091874" lon="8.186918"><ele>676.0</ele><time>2016-06-21T23:42:33Z</time></trkpt>
<trkpt lat="47.092215" lon="8.18498"><ele>690.0</ele><time>2016-06-21T23:42:53Z</time></trkpt>
<trkpt lat="47.09228" lon="8.184724"><ele>690.0</ele><time>2016-06-21T23:42:56Z</time></trkpt>
<trkpt lat="47.093096" lon="8.182398"><ele>703.0</ele><time>2016-06-21T23:43:21Z</time></trkpt>
<trkpt lat="47.093785" lon="8.17992"><ele>720.0</ele><time>2016-06-21T23:43:47Z</time></trkpt>
<trkpt lat="47.093853" lon="8.179727"><ele>720.0</ele><time>2016-06-21T23:43:50Z</time></trkpt>
<trkpt lat="47.093939" lon="8.179572"><ele>720.0</ele><time>2016-06-21T23:43:52Z</time></trkpt>
<trkpt lat="47.094159" lon="8.17938"><ele>720.0</ele><time>2016-06-21T23:43:55Z</time></trkpt>
<trkpt lat="47.094268" lon="8.179317"><ele>720.0</ele><time>2016-06-21T23:43:57Z</time></trkpt>
<trkpt lat="47.09426" lon="8.179127"><ele>727.0</ele><time>2016-06-21T23:44:01Z</time></trkpt>
<trkpt lat="47.094347" lon="8.178692"><ele>727.0</ele><time>2016-06-21T23:44:08Z</time></trkpt>
<trkpt lat="47.094345" lon="8.178372"><ele>727.0</ele><time>2016-06-21T23:44:14Z</time></trkpt>
<trkpt lat="47.09441" lon="8.178104"><ele>732.0</ele><time>2016-06-21T23:44:19Z</time></trkpt>
<trkpt lat="47.094524" lon="8.17792"><ele>732.0</ele><time>2016-06-21T23:44:23Z</time></trkpt>
<trkpt lat="47.094538" lon="8.177867"><ele>732.0</ele><time>2016-06-21T23:44:24Z</time></trkpt>
<trkpt lat="47.094499" lon="8.177586"><ele>732.0</ele><time>2016-06-21T23:44:29Z</time></trkpt>
<trkpt lat="47.094509" lon="8.177487"><ele>737.0</ele><time>2016-06-21T23:44:31Z</time></trkpt>
<trkpt lat="47.094579" lon="8.177343"><ele>737.0</ele><time>2016-06-21T23:44:34Z</time></trkpt>
<trkpt lat="47.094632" lon="8.177328"><ele>737.0</ele><time>2016-06-21T23:44:35Z</time></trkpt>
<trkpt lat="47.09476" lon="8.177363"><ele>737.0</ele><time>2016-06-21T23:44:39Z</time></trkpt>
<trkpt lat="47.09478" lon="8.177071"><ele>737.0</ele><time>2016-06-21T23:44:42Z</time></trkpt>
<trkpt lat="47.094779" lon="8.176829"><ele>737.0</ele><time>2016-06-21T23:44:44Z</time></trkpt>
<trkpt lat="47.094745" lon="8.176599"><ele>740.0</ele><time>2016-06-21T23:44:46Z</time></trkpt>
<trkpt lat="47.094635" lon="8.176285"><ele>740.0</ele><time>2016-06-21T23:44:50Z</time></trkpt>
<trkpt lat="47.094576" lon="8.176189"><ele>740.0</ele><time>2016-06-21T23:44:51Z</time></trkpt>
<trkpt lat="47.094511" lon="8.176147"><ele>740.0</ele><time>2016-06-21T23:44:52Z</time></trkpt>
<trkpt lat="47.094062" lon="8.176064"><ele>742.0</ele><time>2016-06-21T23:44:59Z</time></trkpt>
<trkpt lat="47.093087" lon="8.17567"><ele>748.0</ele><time>2016-06-21T23:45:14Z</time></trkpt>
<trkpt lat="47.092896" lon="8.175617"><ele>748.0</ele><time>2016-06-21T23:45:17Z</time></trkpt>
<trkpt lat="47.091342" lon="8.175343"><ele>752.0</ele><time>2016-06-21T23:45:40Z</time></trkpt>
<trkpt lat="47.090947" lon="8.175255"><ele>752.0</ele><time>2016-06-21T23:45:46Z</time></trkpt>
<trkpt lat="47.090827" lon="8.175197"><ele>758.0</ele><time>2016-06-21T23:45:48Z</time></trkpt>
<trkpt lat="47.09075" lon="8.175096"><ele>758.0</ele><time>2016-06-21T23:45:49Z</time></trkpt>
<trkpt lat="47.09074" lon="8.174937"><ele>770.0</ele><time>2016-06-21T23:45:51Z</time></trkpt>
<trkpt lat="47.090754" lon="8.174809"><ele>770.0</ele><time>2016-06-21T23:45:53Z</time></trkpt>
<trkpt lat="47.090805" lon="8.174676"><ele>770.0</ele><time>2016-06-21T23:45:54Z</time></trkpt>
<trkpt lat="47.090879" lon="8.174567"><ele>759.0</ele><time>2016-06-21T23:45:56Z</time></trkpt>
<trkpt lat="47.091531" lon="8.173816"><ele>771.0</ele><time>2016-06-21T23:46:09Z</time></trkpt>
<trkpt lat="47.091707" lon="8.173576"><ele>762.0</ele><time>2016-06-21T23:46:12Z</time></trkpt>
<trkpt lat="47.093054" lon="8.171564"><ele>785.0</ele><time>2016-06-21T23:46:41Z</time></trkpt>
<trkpt lat="47.093159" lon="8.171343"><ele>785.0</ele><time>2016-06-21T23:46:43Z</time></trkpt>
<trkpt lat="47.093236" lon="8.171118"><ele>785.0</ele><time>2016-06-21T23:46:46Z</time></trkpt>
<trkpt lat="47.093293" lon="8.170646"><ele>789.0</ele><time>2016-06-21T23:46:51Z</time></trkpt>
<trkpt lat="47.093321" lon="8.167177"><ele>800.0</ele><time>2016-06-21T23:47:26Z</time></trkpt>
<trkpt lat="47.093341" lon="8.166923"><ele>794.0</ele><time>2016-06-21T23:47:28Z</time></trkpt>
<trkpt lat="47.093378" lon="8.1667"><ele>794.0</ele><time>2016-06-21T23:47:31Z</time></trkpt>
<trkpt lat="47.093444" lon="8.166454"><ele>803.0</ele><time>2016-06-21T23:47:34Z</time></trkpt>
<trkpt lat="47.093514" lon="8.166276"><ele>803.0</ele><time>2016-06-21T23:47:36Z</time></trkpt>
<trkpt lat="47.093861" lon="8.165611"><ele>807.0</ele><time>2016-06-21T23:47:44Z</time></trkpt>
<trkpt lat="47.093973" lon="8.165361"><ele>807.0</ele><time>2016-06-21T23:47:47Z</time></trkpt>
<trkpt lat="47.094047" lon="8.165069"><ele>807.0</ele><time>2016-06-21T23:47:50Z</time></trkpt>
<trkpt lat="47.094119" lon="8.16468"><ele>813.0</ele><time>2016-06-21T23:47:54Z</time></trkpt>
<trkpt lat="47.094374" lon="8.162837"><ele>811.0</ele><time>2016-06-21T23:48:13Z</time></trkpt>
<trkpt lat="47.094396" lon="8.162588"><ele>811.0</ele><time>2016-06-21T23:48:16Z</time></trkpt>
<trkpt lat="47.094419" lon="8.161867"><ele>812.0</ele><time>2016-06-21T23:48:23Z</time></trkpt>
<trkpt lat="47.094418" lon="8.161348"><ele>814.0</ele><time>2016-06-21T23:48:28Z</time></trkpt>
<trkpt lat="47.094386" lon="8.161019"><ele>814.0</ele><time>2016-06-21T23:48:31Z</time></trkpt>
<trkpt lat="47.094326" lon="8.160714"><ele>816.0</ele><time>2016-06-21T23:48:35Z</time></trkpt>
<trkpt lat="47.094203" lon="8.160317"><ele>816.0</ele><time>2016-06-21T23:48:39Z</time></trkpt>
<trkpt lat="47.093243" lon="8.157734"><ele>835.0</ele><time>2016-06-21T23:49:09Z</time></trkpt>
<trkpt lat="47.09313" lon="8.157488"><ele>835.0</ele><time>2016-06-21T23:49:12Z</time></trkpt>
<trkpt lat="47.092946" lon="8.157167"><ele>835.0</ele><time>2016-06-21T23:49:16Z</time></trkpt>
<trkpt lat="47.089408" lon="8.151862"><ele>825.0</ele><time>2016-06-21T23:50:30Z</time></trkpt>
<trkpt lat="47.088902" lon="8.150865"><ele>814.0</ele><time>2016-06-21T23:50:43Z</time></trkpt>
<trkpt lat="47.088068" lon="8.149251"><ele>801.0</ele><time>2016-06-21T23:51:04Z</time></trkpt>
<trkpt lat="47.088068" lon="8.149251"><ele>801.0</ele><time>2016-06-21T23:51:04Z</time></trkpt>
<trkpt lat="47.08729" lon="8.147745"><ele>788.0</ele><time>2016-06-21T23:51:22Z</time></trkpt>
<trkpt lat="47.087137" lon="8.147409"><ele>787.0</ele><time>2016-06-21T23:51:26Z</time></trkpt>
<trkpt lat="47.087044" lon="8.147103"><ele>787.0</ele><time>2016-06-21T23:51:29Z</time></trkpt>
<trkpt lat="47.086552" lon="8.14484"><ele>771.0</ele><time>2016-06-21T23:51:53Z</time></trkpt>
<trkpt lat="47.08651" lon="8.144475"><ele>771.0</ele><time>2016-06-21T23:51:56Z</time></trkpt>
<trkpt lat="47.0865" lon="8.143517"><ele>767.0</ele><time>2016-06-21T23:52:06Z</time></trkpt>
<trkpt lat="47.086321" lon="8.141691"><ele>756.0</ele><time>2016-06-21T23:52:24Z</time></trkpt>
<trkpt lat="47.086203" lon="8.139452"><ele>745.0</ele><time>2016-06-21T23:52:46Z</time></trkpt>
<trkpt lat="47.086178" lon="8.139241"><ele>745.0</ele><time>2016-06-21T23:52:48Z</time></trkpt>
<trkpt lat="47.086088" lon="8.138916"><ele>740.0</ele><time>2016-06-21T23:52:52Z</time></trkpt>
<trkpt lat="47.086009" lon="8.138757"><ele>740.0</ele><time>2016-06-21T23:52:53Z</time></trkpt>
<trkpt lat="47.085912" lon="8.138657"><ele>740.0</ele><time>2016-06-21T23:52:55Z</time></trkpt>
<trkpt lat="47.085803" lon="8.138613"><ele>731.0</ele><time>2016-06-21T23:52:57Z</time></trkpt>
<trkpt lat="47.085701" lon="8.138603"><ele>731.0</ele><time>2016-06-21T23:52:59Z</time></trkpt>
<trkpt lat="47.085586" lon="8.138642"><ele>731.0</ele><time>2016-06-21T23:53:00Z</time></trkpt>
<trkpt lat="47.084809" lon="8.139186"><ele>723.0</ele><time>2016-06-21T23:53:13Z</time></trkpt>
<trkpt lat="47.084689" lon="8.139249"><ele>723.0</ele><time>2016-06-21T23:53:15Z</time></trkpt>
<trkpt lat="47.084536" lon="8.139272"><ele>723.0</ele><time>2016-06-21T23:53:17Z</time></trkpt>
<trkpt lat="47.08408" lon="8.139158"><ele>710.0</ele><time>2016-06-21T23:53:24Z</time></trkpt>
<trkpt lat="47.08397" lon="8.139068"><ele>710.0</ele><time>2016-06-21T23:53:25Z</time></trkpt>
<trkpt lat="47.083905" lon="8.138974"><ele>710.0</ele><time>2016-06-21T23:53:27Z</time></trkpt>
<trkpt lat="47.083851" lon="8.13888"><ele>710.0</ele><time>2016-06-21T23:53:28Z</time></trkpt>
<trkpt lat="47.08381" lon="8.13873"><ele>710.0</ele><time>2016-06-21T23:53:30Z</time></trkpt>
<trkpt lat="47.083798" lon="8.138553"><ele>710.0</ele><time>2016-06-21T23:53:31Z</time></trkpt>
<trkpt lat="47.083911" lon="8.137206"><ele>692.0</ele><time>2016-06-21T23:53:45Z</time></trkpt>
<trkpt lat="47.083947" lon="8.137024"><ele>692.0</ele><time>2016-06-21T23:53:47Z</time></trkpt>
<trkpt lat="47.084006" lon="8.136851"><ele>692.0</ele><time>2016-06-21T23:53:49Z</time></trkpt>
<trkpt lat="47.084442" lon="8.135944"><ele>692.0</ele><time>2016-06-21T23:53:59Z</time></trkpt>
<trkpt lat="47.084473" lon="8.135785"><ele>685.0</ele><time>2016-06-21T23:54:01Z</time></trkpt>
<trkpt lat="47.084478" lon="8.135632"><ele>685.0</ele><time>2016-06-21T23:54:03Z</time></trkpt>
<trkpt lat="47.084361" lon="8.134437"><ele>684.0</ele><time>2016-06-21T23:54:15Z</time></trkpt>
<trkpt lat="47.084323" lon="8.134128"><ele>678.0</ele><time>2016-06-21T23:54:18Z</time></trkpt>
<trkpt lat="47.084234" lon="8.133625"><ele>678.0</ele><time>2016-06-21T23:54:23Z</time></trkpt>
<trkpt lat="47.08421" lon="8.133422"><ele>678.0</ele><time>2016-06-21T23:54:25Z</time></trkpt>
<trkpt lat="47.084253" lon="8.133105"><ele>673.0</ele><time>2016-06-21T23:54:30Z</time></trkpt>
<trkpt lat="47.084352" lon="8.132738"><ele>673.0</ele><time>2016-06-21T23:54:35Z</time></trkpt>
<trkpt lat="47.084386" lon="8.132505"><ele>673.0</ele><time>2016-06-21T23:54:38Z</time></trkpt>
<trkpt lat="47.084489" lon="8.129771"><ele>660.0</ele><time>2016-06-21T23:55:13Z</time></trkpt>
<trkpt lat="47.084508" lon="8.129631"><ele>660.0</ele><time>2016-06-21T23:55:15Z</time></trkpt>
<trkpt lat="47.084854" lon="8.128201"><ele>655.0</ele><time>2016-06-21T23:55:35Z</time></trkpt>
<trkpt lat="47.084838" lon="8.128091"><ele>655.0</ele><time>2016-06-21T23:55:36Z</time></trkpt>
<trkpt lat="47.084802" lon="8.128025"><ele>655.0</ele><time>2016-06-21T23:55:37Z</time></trkpt>
<trkpt lat="47.084728" lon="8.127956"><ele>655.0</ele><time>2016-06-21T23:55:39Z</time></trkpt>
<trkpt lat="47.084305" lon="8.127666"><ele>655.0</ele><time>2016-06-21T23:55:48Z</time></trkpt>
<trkpt lat="47.084057" lon="8.127284"><ele>642.0</ele><time>2016-06-21T23:55:55Z</time></trkpt>
<trkpt lat="47.083701" lon="8.126793"><ele>642.0</ele><time>2016-06-21T23:56:04Z</time></trkpt>
<trkpt lat="47.083616" lon="8.126649"><ele>643.0</ele><time>2016-06-21T23:56:07Z</time></trkpt>
<trkpt lat="47.083847" lon="8.126456"><ele>643.0</ele><time>2016-06-21T23:56:10Z</time></trkpt>
<trkpt lat="47.083963" lon="8.126341"><ele>643.0</ele><time>2016-06-21T23:56:12Z</time></trkpt>
<trkpt lat="47.08408" lon="8.12619"><ele>643.0</ele><time>2016-06-21T23:56:14Z</time></trkpt>
<trkpt lat="47.084333" lon="8.125504"><ele>658.0</ele><time>2016-06-21T23:56:20Z</time></trkpt>
<trkpt lat="47.084371" lon="8.125286"><ele>658.0</ele><time>2016-06-21T23:56:22Z</time></trkpt>
<trkpt lat="47.084474" lon="8.124242"><ele>656.0</ele><time>2016-06-21T23:56:31Z</time></trkpt>
<trkpt lat="47.084561" lon="8.123711"><ele>652.0</ele><time>2016-06-21T23:56:35Z</time></trkpt>
<trkpt lat="47.085207" lon="8.120775"><ele>660.0</ele><time>2016-06-21T23:57:00Z</time></trkpt>
<trkpt lat="47.085539" lon="8.118806"><ele>649.0</ele><time>2016-06-21T23:57:16Z</time></trkpt>
<trkpt lat="47.085646" lon="8.118328"><ele>643.0</ele><time>2016-06-21T23:57:20Z</time></trkpt>
<trkpt lat="47.085886" lon="8.117584"><ele>655.0</ele><time>2016-06-21T23:57:27Z</time></trkpt>
<trkpt lat="47.086301" lon="8.116005"><ele>646.0</ele><time>2016-06-21T23:57:41Z</time></trkpt>
<trkpt lat="47.086385" lon="8.115768"><ele>635.0</ele><time>2016-06-21T23:57:43Z</time></trkpt>
<trkpt lat="47.086481" lon="8.115581"><ele>635.0</ele><time>2016-06-21T23:57:45Z</time></trkpt>
<trkpt lat="47.086578" lon="8.115434"><ele>635.0</ele><time>2016-06-21T23:57:47Z</time></trkpt>
<trkpt lat="47.086777" lon="8.115208"><ele>640.0</ele><time>2016-06-21T23:57:50Z</time></trkpt>
<trkpt lat="47.086942" lon="8.115067"><ele>640.0</ele><time>2016-06-21T23:57:52Z</time></trkpt>
<trkpt lat="47.087098" lon="8.114969"><ele>631.0</ele><time>2016-06-21T23:57:54Z</time></trkpt>
<trkpt lat="47.087587" lon="8.114745"><ele>635.0</ele><time>2016-06-21T23:58:01Z</time></trkpt>
<trkpt lat="47.087764" lon="8.114621"><ele>635.0</ele><time>2016-06-21T23:58:03Z</time></trkpt>
<trkpt lat="47.087921" lon="8.11445"><ele>635.0</ele><time>2016-06-21T23:58:05Z</time></trkpt>
<trkpt lat="47.088035" lon="8.114288"><ele>635.0</ele><time>2016-06-21T23:58:07Z</time></trkpt>
<trkpt lat="47.088215" lon="8.11392"><ele>632.0</ele><time>2016-06-21T23:58:11Z</time></trkpt>
<trkpt lat="47.088733" lon="8.11255"><ele>634.0</ele><time>2016-06-21T23:58:23Z</time></trkpt>
<trkpt lat="47.089077" lon="8.111355"><ele>628.0</ele><time>2016-06-21T23:58:34Z</time></trkpt>
<trkpt lat="47.089665" lon="8.109518"><ele>622.0</ele><time>2016-06-21T23:58:50Z</time></trkpt>
<trkpt lat="47.091201" lon="8.105396"><ele>612.0</ele><time>2016-06-21T23:59:28Z</time></trkpt>
<trkpt lat="47.091431" lon="8.10478"><ele>608.0</ele><time>2016-06-21T23:59:35Z</time></trkpt>
<trkpt lat="47.09418" lon="8.097391"><ele>604.0</ele><time>2016-06-22T00:00:17Z</time></trkpt>
<trkpt lat="47.09428" lon="8.097061"><ele>604.0</ele><time>2016-06-22T00:00:19Z</time></trkpt>
<trkpt lat="47.094392" lon="8.09657"><ele>604.0</ele><time>2016-06-22T00:00:22Z</time></trkpt>
<trkpt lat="47.094825" lon="8.094121"><ele>598.0</ele><time>2016-06-22T00:00:34Z</time></trkpt>
<trkpt lat="47.094919" lon="8.093734"><ele>598.0</ele><time>2016-06-22T00:00:37Z</time></trkpt>
<trkpt lat="47.095036" lon="8.093377"><ele>599.0</ele><time>2016-06-22T00:00:39Z</time></trkpt>
<trkpt lat="47.096042" lon="8.091343"><ele>589.0</ele><time>2016-06-22T00:00:51Z</time></trkpt>
<trkpt lat="47.096169" lon="8.091181"><ele>589.0</ele><time>2016-06-22T00:00:52Z</time></trkpt>
<trkpt lat="47.096308" lon="8.09106"><ele>589.0</ele><time>2016-06-22T00:00:54Z</time></trkpt>
<trkpt lat="47.096474" lon="8.090984"><ele>589.0</ele><time>2016-06-22T00:00:55Z</time></trkpt>
<trkpt lat="47.100034" lon="8.089655"><ele>568.0</ele><time>2016-06-22T00:01:22Z</time></trkpt>
<trkpt lat="47.100205" lon="8.089564"><ele>568.0</ele><time>2016-06-22T00:01:24Z</time></trkpt>
<trkpt lat="47.100349" lon="8.089442"><ele>568.0</ele><time>2016-06-22T00:01:25Z</time></trkpt>
<trkpt lat="47.100488" lon="8.089258"><ele>568.0</ele><time>2016-06-22T00:01:26Z</time></trkpt>
<trkpt lat="47.100768" lon="8.088694"><ele>570.0</ele><time>2016-06-22T00:01:30Z</time></trkpt>
<trkpt lat="47.100877" lon="8.088532"><ele>564.0</ele><time>2016-06-22T00:01:31Z</time></trkpt>
<trkpt lat="47.100984" lon="8.088418"><ele>564.0</ele><time>2016-06-22T00:01:32Z</time></trkpt>
<trkpt lat="47.101214" lon="8.088254"><ele>564.0</ele><time>2016-06-22T00:01:34Z</time></trkpt>
<trkpt lat="47.104062" lon="8.086947"><ele>562.0</ele><time>2016-06-22T00:01:56Z</time></trkpt>
<trkpt lat="47.106689" lon="8.085716"><ele>559.0</ele><time>2016-06-22T00:02:16Z</time></trkpt>
<trkpt lat="47.107203" lon="8.085437"><ele>559.0</ele><time>2016-06-22T00:02:21Z</time></trkpt>
<trkpt lat="47.107484" lon="8.085225"><ele>559.0</ele><time>2016-06-22T00:02:23Z</time></trkpt>
<trkpt lat="47.107647" lon="8.085084"><ele>556.0</ele><time>2016-06-22T00:02:24Z</time></trkpt>
<trkpt lat="47.107669" lon="8.085109"><ele>556.0</ele><time>2016-06-22T00:02:25Z</time></trkpt>
<trkpt lat="47.107745" lon="8.085108"><ele>556.0</ele><time>2016-06-22T00:02:25Z</time></trkpt>
<trkpt lat="47.107785" lon="8.085031"><ele>556.0</ele><time>2016-06-22T00:02:26Z</time></trkpt>
<trkpt lat="47.107775" lon="8.084943"><ele>555.0</ele><time>2016-06-22T00:02:26Z</time></trkpt>
<trkpt lat="47.108312" lon="8.084304"><ele>555.0</ele><time>2016-06-22T00:02:33Z</time></trkpt>
<trkpt lat="47.108667" lon="8.083834"><ele>553.0</ele><time>2016-06-22T00:02:37Z</time></trkpt>
<trkpt lat="47.112646" lon="8.078498"><ele>550.0</ele><time>2016-06-22T00:03:19Z</time></trkpt>
<trkpt lat="47.112738" lon="8.078367"><ele>550.0</ele><time>2016-06-22T00:03:20Z</time></trkpt>
<trkpt lat="47.112779" lon="8.078401"><ele>550.0</ele><time>2016-06-22T00:03:21Z</time></trkpt>
<trkpt lat="47.112835" lon="8.07838"><ele>550.0</ele><time>2016-06-22T00:03:21Z</time></trkpt>
<trkpt lat="47.112861" lon="8.078308"><ele>550.0</ele><time>2016-06-22T00:03:22Z</time></trkpt>
<trkpt lat="47.112841" lon="8.078229"><ele>550.0</ele><time>2016-06-22T00:03:22Z</time></trkpt>
<trkpt lat="47.113075" lon="8.077942"><ele>550.0</ele><time>2016-06-22T00:03:25Z</time></trkpt>
<trkpt lat="47.116811" lon="8.07295"><ele>547.0</ele><time>2016-06-22T00:04:06Z</time></trkpt>
<trkpt lat="47.117021" lon="8.072708"><ele>547.0</ele><time>2016-06-22T00:04:08Z</time></trkpt>
<trkpt lat="47.12264" lon="8.067332"><ele>543.0</ele><time>2016-06-22T00:05:03Z</time></trkpt>
<trkpt lat="47.122877" lon="8.066988"><ele>543.0</ele><time>2016-06-22T00:05:06Z</time></trkpt>
<trkpt lat="47.126238" lon="8.061615"><ele>540.0</ele><time>2016-06-22T00:05:47Z</time></trkpt>
<trkpt lat="47.128387" lon="8.058179"><ele>544.0</ele><time>2016-06-22T00:06:13Z</time></trkpt>
<trkpt lat="47.132659" lon="8.051337"><ele>547.0</ele><time>2016-06-22T00:07:29Z</time></trkpt>
<trkpt lat="47.13295" lon="8.050925"><ele>547.0</ele><time>2016-06-22T00:07:33Z</time></trkpt>
<trkpt lat="47.133115" lon="8.050722"><ele>547.0</ele><time>2016-06-22T00:07:36Z</time></trkpt>
<trkpt lat="47.133284" lon="8.05054"><ele>547.0</ele><time>2016-06-22T00:07:39Z</time></trkpt>
<trkpt lat="47.133466" lon="8.050305"><ele>541.0</ele><time>2016-06-22T00:07:41Z</time></trkpt>
<trkpt lat="47.133548" lon="8.050155"><ele>541.0</ele><time>2016-06-22T00:07:43Z</time></trkpt>
<trkpt lat="47.133599" lon="8.049944"><ele>536.0</ele><time>2016-06-22T00:07:45Z</time></trkpt>
<trkpt lat="47.133623" lon="8.049758"><ele>536.0</ele><time>2016-06-22T00:07:46Z</time></trkpt>
<trkpt lat="47.133665" lon="8.048622"><ele>536.0</ele><time>2016-06-22T00:07:56Z</time></trkpt>
<trkpt lat="47.133697" lon="8.0484"><ele>536.0</ele><time>2016-06-22T00:07:57Z</time></trkpt>
<trkpt lat="47.13377" lon="8.048114"><ele>536.0</ele><time>2016-06-22T00:08:00Z</time></trkpt>
<trkpt lat="47.133831" lon="8.047935"><ele>536.0</ele><time>2016-06-22T00:08:02Z</time></trkpt>
<trkpt lat="47.133888" lon="8.047768"><ele>536.0</ele><time>2016-06-22T00:08:03Z</time></trkpt>
<trkpt lat="47.133925" lon="8.047774"><ele>536.0</ele><time>2016-06-22T00:08:03Z</time></trkpt>
<trkpt lat="47.13397" lon="8.047748"><ele>536.0</ele><time>2016-06-22T00:08:04Z</time></trkpt>
<trkpt lat="47.133993" lon="8.047681"><ele>536.0</ele><time>2016-06-22T00:08:04Z</time></trkpt>
<trkpt lat="47.133991" lon="8.047643"><ele>536.0</ele><time>2016-06-22T00:08:05Z</time></trkpt>
<trkpt lat="47.13396" lon="8.047584"><ele>536.0</ele><time>2016-06-22T00:08:05Z</time></trkpt>
<trkpt lat="47.133936" lon="8.047573"><ele>536.0</ele><time>2016-06-22T00:08:05Z</time></trkpt>
<trkpt lat="47.134002" lon="8.047191"><ele>533.0</ele><time>2016-06-22T00:08:08Z</time></trkpt>
<trkpt lat="47.134013" lon="8.045865"><ele>533.0</ele><time>2016-06-22T00:08:16Z</time></trkpt>
<trkpt lat="47.134025" lon="8.04547"><ele>533.0</ele><time>2016-06-22T00:08:19Z</time></trkpt>
<trkpt lat="47.134058" lon="8.045166"><ele>533.0</ele><time>2016-06-22T00:08:21Z</time></trkpt>
<trkpt lat="47.134391" lon="8.043959"><ele>531.0</ele><time>2016-06-22T00:08:29Z</time></trkpt>
<trkpt lat="47.134468" lon="8.043545"><ele>531.0</ele><time>2016-06-22T00:08:32Z</time></trkpt>
<trkpt lat="47.13459" lon="8.042713"><ele>530.0</ele><time>2016-06-22T00:08:37Z</time></trkpt>
<trkpt lat="47.134736" lon="8.042111"><ele>535.0</ele><time>2016-06-22T00:08:41Z</time></trkpt>
<trkpt lat="47.134866" lon="8.041731"><ele>535.0</ele><time>2016-06-22T00:08:44Z</time></trkpt>
<trkpt lat="47.13564" lon="8.040515"><ele>537.0</ele><time>2016-06-22T00:08:55Z</time></trkpt>
<trkpt lat="47.136498" lon="8.038991"><ele>539.0</ele><time>2016-06-22T00:09:07Z</time></trkpt>
<trkpt lat="47.136706" lon="8.038589"><ele>529.0</ele><time>2016-06-22T00:09:11Z</time></trkpt>
<trkpt lat="47.136877" lon="8.038109"><ele>530.0</ele><time>2016-06-22T00:09:14Z</time></trkpt>
<trkpt lat="47.137" lon="8.037614"><ele>530.0</ele><time>2016-06-22T00:09:18Z</time></trkpt>
<trkpt lat="47.137066" lon="8.03723"><ele>532.0</ele><time>2016-06-22T00:09:20Z</time></trkpt>
<trkpt lat="47.137096" lon="8.036896"><ele>532.0</ele><time>2016-06-22T00:09:22Z</time></trkpt>
<trkpt lat="47.137156" lon="8.03483"><ele>532.0</ele><time>2016-06-22T00:09:35Z</time></trkpt>
<trkpt lat="47.137178" lon="8.034526"><ele>532.0</ele><time>2016-06-22T00:09:37Z</time></trkpt>
<trkpt lat="47.137289" lon="8.033725"><ele>531.0</ele><time>2016-06-22T00:09:43Z</time></trkpt>
<trkpt lat="47.137352" lon="8.033474"><ele>531.0</ele><time>2016-06-22T00:09:44Z</time></trkpt>
<trkpt lat="47.137461" lon="8.03318"><ele>530.0</ele><time>2016-06-22T00:09:47Z</time></trkpt>
<trkpt lat="47.138596" lon="8.03031"><ele>529.0</ele><time>2016-06-22T00:10:08Z</time></trkpt>
<trkpt lat="47.138713" lon="8.030096"><ele>529.0</ele><time>2016-06-22T00:10:09Z</time></trkpt>
<trkpt lat="47.138837" lon="8.029917"><ele>526.0</ele><time>2016-06-22T00:10:11Z</time></trkpt>
<trkpt lat="47.141016" lon="8.028054"><ele>524.0</ele><time>2016-06-22T00:10:35Z</time></trkpt>
<trkpt lat="47.141377" lon="8.027684"><ele>524.0</ele><time>2016-06-22T00:10:39Z</time></trkpt>
<trkpt lat="47.141605" lon="8.027415"><ele>519.0</ele><time>2016-06-22T00:10:42Z</time></trkpt>
<trkpt lat="47.14472" lon="8.023003"><ele>518.0</ele><time>2016-06-22T00:11:22Z</time></trkpt>
<trkpt lat="47.145263" lon="8.022217"><ele>519.0</ele><time>2016-06-22T00:11:30Z</time></trkpt>
<trkpt lat="47.147573" lon="8.018918"><ele>516.0</ele><time>2016-06-22T00:12:11Z</time></trkpt>
<trkpt lat="47.147672" lon="8.018777"><ele>516.0</ele><time>2016-06-22T00:12:13Z</time></trkpt>
<trkpt lat="47.148168" lon="8.018067"><ele>519.0</ele><time>2016-06-22T00:12:21Z</time></trkpt>
<trkpt lat="47.148282" lon="8.017852"><ele>519.0</ele><time>2016-06-22T00:12:23Z</time></trkpt>
<trkpt lat="47.148406" lon="8.017582"><ele>519.0</ele><time>2016-06-22T00:12:26Z</time></trkpt>
<trkpt lat="47.149015" lon="8.017329"><ele>519.0</ele><time>2016-06-22T00:12:33Z</time></trkpt>
<trkpt lat="47.149614" lon="8.0171"><ele>517.0</ele><time>2016-06-22T00:12:42Z</time></trkpt>
<trkpt lat="47.14968" lon="8.017053"><ele>517.0</ele><time>2016-06-22T00:12:43Z</time></trkpt>
<trkpt lat="47.149723" lon="8.016973"><ele>517.0</ele><time>2016-06-22T00:12:43Z</time></trkpt>
<trkpt lat="47.149736" lon="8.016706"><ele>517.0</ele><time>2016-06-22T00:12:45Z</time></trkpt>
<trkpt lat="47.14973" lon="8.016434"><ele>518.0</ele><time>2016-06-22T00:12:46Z</time></trkpt>
<trkpt lat="47.149916" lon="8.012986"><ele>519.0</ele><time>2016-06-22T00:13:02Z</time></trkpt>
<trkpt lat="47.149934" lon="8.012359"><ele>518.0</ele><time>2016-06-22T00:13:05Z</time></trkpt>
<trkpt lat="47.149887" lon="8.00887"><ele>517.0</ele><time>2016-06-22T00:13:21Z</time></trkpt>
<trkpt lat="47.149823" lon="8.007296"><ele>517.0</ele><time>2016-06-22T00:13:29Z</time></trkpt>
<trkpt lat="47.14982" lon="8.007217"><ele>517.0</ele><time>2016-06-22T00:13:29Z</time></trkpt>
<trkpt lat="47.149664" lon="8.00379"><ele>521.0</ele><time>2016-06-22T00:13:49Z</time></trkpt>
<trkpt lat="47.14963" lon="8.003584"><ele>521.0</ele><time>2016-06-22T00:13:50Z</time></trkpt>
<trkpt lat="47.149506" lon="8.003131"><ele>521.0</ele><time>2016-06-22T00:13:53Z</time></trkpt>
<trkpt lat="47.149466" lon="8.002994"><ele>521.0</ele><time>2016-06-22T00:13:54Z</time></trkpt>
<trkpt lat="47.149549" lon="8.00289"><ele>521.0</ele><time>2016-06-22T00:13:55Z</time></trkpt>
<trkpt lat="47.149776" lon="8.002438"><ele>520.0</ele><time>2016-06-22T00:14:00Z</time></trkpt>
<trkpt lat="47.149871" lon="8.00228"><ele>520.0</ele><time>2016-06-22T00:14:01Z</time></trkpt>
<trkpt lat="47.149987" lon="8.002171"><ele>520.0</ele><time>2016-06-22T00:14:03Z</time></trkpt>
<trkpt lat="47.150183" lon="8.00207"><ele>521.0</ele><time>2016-06-22T00:14:05Z</time></trkpt>
<trkpt lat="47.150497" lon="8.001965"><ele>521.0</ele><time>2016-06-22T00:14:09Z</time></trkpt>
<trkpt lat="47.150727" lon="8.001943"><ele>521.0</ele><time>2016-06-22T00:14:12Z</time></trkpt>
<trkpt lat="47.151541" lon="8.002131"><ele>519.0</ele><time>2016-06-22T00:14:22Z</time></trkpt>
<trkpt lat="47.151788" lon="8.002114"><ele>518.0</ele><time>2016-06-22T00:14:25Z</time></trkpt>
<trkpt lat="47.153475" lon="8.001643"><ele>514.0</ele><time>2016-06-22T00:14:45Z</time></trkpt>
<trkpt lat="47.154019" lon="8.001531"><ele>514.0</ele><time>2016-06-22T00:14:51Z</time></trkpt>
<trkpt lat="47.155108" lon="8.00137"><ele>515.0</ele><time>2016-06-22T00:15:04Z</time></trkpt>
<trkpt lat="47.155457" lon="8.001276"><ele>515.0</ele><time>2016-06-22T00:15:09Z</time></trkpt>
<trkpt lat="47.155672" lon="8.00115"><ele>515.0</ele><time>2016-06-22T00:15:11Z</time></trkpt>
<trkpt lat="47.155811" lon="8.001041"><ele>515.0</ele><time>2016-06-22T00:15:13Z</time></trkpt>
<trkpt lat="47.157345" lon="7.999827"><ele>512.0</ele><time>2016-06-22T00:15:26Z</time></trkpt>
<trkpt lat="47.157772" lon="7.999567"><ele>512.0</ele><time>2016-06-22T00:15:29Z</time></trkpt>
<trkpt lat="47.158241" lon="7.999382"><ele>512.0</ele><time>2016-06-22T00:15:32Z</time></trkpt>
<trkpt lat="47.159009" lon="7.999142"><ele>509.0</ele><time>2016-06-22T00:15:38Z</time></trkpt>
<trkpt lat="47.159745" lon="7.998926"><ele>509.0</ele><time>2016-06-22T00:15:43Z</time></trkpt>
</trkseg>
</trk>
</gpx>